<?xml version="1.0" encoding="UTF-8" standalone="no" ?>
<gpx xmlns="http://www.topografix.com/GPX/1/1" xmlns:xsi="http://www.w3.org/2001/XMLSchema-instance" xsi:schemaLocation="http://www.topografix.com/GPX/1/1 http://www.topografix.com/GPX/1/1/gpx.xsd" version="1.1" creator="VisuGPX - https://www.visugpx.com">
  <metadata>
    <name>Champagnat Cyclisme sur route</name>
  </metadata>
  <trk>
    <name><![CDATA[Champagnat Cyclisme sur route_1]]></name>
    <trkseg>
      <trkpt lat="46.48267" lon="5.36829">
        <ele>270.8</ele>
        <time>2022-02-10T13:09:54Z</time>
      </trkpt>
      <trkpt lat="46.48249" lon="5.36811">
        <ele>269</ele>
        <time>2022-02-10T13:09:56Z</time>
      </trkpt>
      <trkpt lat="46.48227" lon="5.36793">
        <ele>267.2</ele>
        <time>2022-02-10T13:09:58Z</time>
      </trkpt>
      <trkpt lat="46.48206" lon="5.36776">
        <ele>265.8</ele>
        <time>2022-02-10T13:10:00Z</time>
      </trkpt>
      <trkpt lat="46.48186" lon="5.36761">
        <ele>264.6</ele>
        <time>2022-02-10T13:10:02Z</time>
      </trkpt>
      <trkpt lat="46.48165" lon="5.36745">
        <ele>263.2</ele>
        <time>2022-02-10T13:10:04Z</time>
      </trkpt>
      <trkpt lat="46.48155" lon="5.36737">
        <ele>262.2</ele>
        <time>2022-02-10T13:10:05Z</time>
      </trkpt>
      <trkpt lat="46.48136" lon="5.36721">
        <ele>260.6</ele>
        <time>2022-02-10T13:10:07Z</time>
      </trkpt>
      <trkpt lat="46.4812" lon="5.36708">
        <ele>259.8</ele>
        <time>2022-02-10T13:10:09Z</time>
      </trkpt>
      <trkpt lat="46.48115" lon="5.36701">
        <ele>259.2</ele>
        <time>2022-02-10T13:10:10Z</time>
      </trkpt>
      <trkpt lat="46.48113" lon="5.36694">
        <ele>258.8</ele>
        <time>2022-02-10T13:10:11Z</time>
      </trkpt>
      <trkpt lat="46.48112" lon="5.36686">
        <ele>257.6</ele>
        <time>2022-02-10T13:10:12Z</time>
      </trkpt>
      <trkpt lat="46.48115" lon="5.36678">
        <ele>257</ele>
        <time>2022-02-10T13:10:13Z</time>
      </trkpt>
      <trkpt lat="46.48121" lon="5.36672">
        <ele>256.6</ele>
        <time>2022-02-10T13:10:14Z</time>
      </trkpt>
      <trkpt lat="46.48141" lon="5.36653">
        <ele>254.6</ele>
        <time>2022-02-10T13:10:17Z</time>
      </trkpt>
      <trkpt lat="46.48162" lon="5.3663">
        <ele>253.6</ele>
        <time>2022-02-10T13:10:20Z</time>
      </trkpt>
      <trkpt lat="46.48185" lon="5.36614">
        <ele>253.2</ele>
        <time>2022-02-10T13:10:23Z</time>
      </trkpt>
      <trkpt lat="46.4821" lon="5.36603">
        <ele>252.8</ele>
        <time>2022-02-10T13:10:26Z</time>
      </trkpt>
      <trkpt lat="46.48221" lon="5.36587">
        <ele>252.6</ele>
        <time>2022-02-10T13:10:28Z</time>
      </trkpt>
      <trkpt lat="46.48226" lon="5.36566">
        <ele>252.6</ele>
        <time>2022-02-10T13:10:30Z</time>
      </trkpt>
      <trkpt lat="46.48231" lon="5.36557">
        <ele>252.6</ele>
        <time>2022-02-10T13:10:31Z</time>
      </trkpt>
      <trkpt lat="46.48238" lon="5.3655">
        <ele>252.4</ele>
        <time>2022-02-10T13:10:32Z</time>
      </trkpt>
      <trkpt lat="46.48264" lon="5.36522">
        <ele>251.8</ele>
        <time>2022-02-10T13:10:36Z</time>
      </trkpt>
      <trkpt lat="46.48278" lon="5.36506">
        <ele>251.4</ele>
        <time>2022-02-10T13:10:38Z</time>
      </trkpt>
      <trkpt lat="46.48321" lon="5.36459">
        <ele>250.4</ele>
        <time>2022-02-10T13:10:44Z</time>
      </trkpt>
      <trkpt lat="46.48328" lon="5.36451">
        <ele>250.2</ele>
        <time>2022-02-10T13:10:45Z</time>
      </trkpt>
      <trkpt lat="46.48371" lon="5.36403">
        <ele>248.8</ele>
        <time>2022-02-10T13:10:51Z</time>
      </trkpt>
      <trkpt lat="46.48394" lon="5.3638">
        <ele>248</ele>
        <time>2022-02-10T13:10:54Z</time>
      </trkpt>
      <trkpt lat="46.48401" lon="5.36373">
        <ele>247.8</ele>
        <time>2022-02-10T13:10:55Z</time>
      </trkpt>
      <trkpt lat="46.48417" lon="5.3636">
        <ele>247.6</ele>
        <time>2022-02-10T13:10:57Z</time>
      </trkpt>
      <trkpt lat="46.48425" lon="5.36356">
        <ele>247.4</ele>
        <time>2022-02-10T13:10:58Z</time>
      </trkpt>
      <trkpt lat="46.48434" lon="5.36353">
        <ele>247.4</ele>
        <time>2022-02-10T13:10:59Z</time>
      </trkpt>
      <trkpt lat="46.48459" lon="5.36347">
        <ele>246.8</ele>
        <time>2022-02-10T13:11:02Z</time>
      </trkpt>
      <trkpt lat="46.48468" lon="5.36346">
        <ele>246.8</ele>
        <time>2022-02-10T13:11:03Z</time>
      </trkpt>
      <trkpt lat="46.48526" lon="5.36337">
        <ele>246</ele>
        <time>2022-02-10T13:11:10Z</time>
      </trkpt>
      <trkpt lat="46.48544" lon="5.36334">
        <ele>245.6</ele>
        <time>2022-02-10T13:11:12Z</time>
      </trkpt>
      <trkpt lat="46.48603" lon="5.36324">
        <ele>244.8</ele>
        <time>2022-02-10T13:11:19Z</time>
      </trkpt>
      <trkpt lat="46.48612" lon="5.36321">
        <ele>244.6</ele>
        <time>2022-02-10T13:11:20Z</time>
      </trkpt>
      <trkpt lat="46.48628" lon="5.36306">
        <ele>244.2</ele>
        <time>2022-02-10T13:11:22Z</time>
      </trkpt>
      <trkpt lat="46.48634" lon="5.36294">
        <ele>243.6</ele>
        <time>2022-02-10T13:11:23Z</time>
      </trkpt>
      <trkpt lat="46.48637" lon="5.3628">
        <ele>243</ele>
        <time>2022-02-10T13:11:24Z</time>
      </trkpt>
      <trkpt lat="46.4864" lon="5.36266">
        <ele>242.8</ele>
        <time>2022-02-10T13:11:25Z</time>
      </trkpt>
      <trkpt lat="46.48641" lon="5.36252">
        <ele>242</ele>
        <time>2022-02-10T13:11:26Z</time>
      </trkpt>
      <trkpt lat="46.48644" lon="5.36223">
        <ele>241</ele>
        <time>2022-02-10T13:11:28Z</time>
      </trkpt>
      <trkpt lat="46.48647" lon="5.3618">
        <ele>239.8</ele>
        <time>2022-02-10T13:11:31Z</time>
      </trkpt>
      <trkpt lat="46.48656" lon="5.36113">
        <ele>239</ele>
        <time>2022-02-10T13:11:36Z</time>
      </trkpt>
      <trkpt lat="46.48659" lon="5.361">
        <ele>238.6</ele>
        <time>2022-02-10T13:11:37Z</time>
      </trkpt>
      <trkpt lat="46.48672" lon="5.36041">
        <ele>238.4</ele>
        <time>2022-02-10T13:11:42Z</time>
      </trkpt>
      <trkpt lat="46.48681" lon="5.35994">
        <ele>238.4</ele>
        <time>2022-02-10T13:11:47Z</time>
      </trkpt>
      <trkpt lat="46.48687" lon="5.35935">
        <ele>239.4</ele>
        <time>2022-02-10T13:11:53Z</time>
      </trkpt>
      <trkpt lat="46.48703" lon="5.35885">
        <ele>239.4</ele>
        <time>2022-02-10T13:11:58Z</time>
      </trkpt>
      <trkpt lat="46.48731" lon="5.35813">
        <ele>238.8</ele>
        <time>2022-02-10T13:12:05Z</time>
      </trkpt>
      <trkpt lat="46.48734" lon="5.35805">
        <ele>238.8</ele>
        <time>2022-02-10T13:12:06Z</time>
      </trkpt>
      <trkpt lat="46.48758" lon="5.35751">
        <ele>238</ele>
        <time>2022-02-10T13:12:12Z</time>
      </trkpt>
      <trkpt lat="46.48762" lon="5.35742">
        <ele>237.8</ele>
        <time>2022-02-10T13:12:13Z</time>
      </trkpt>
      <trkpt lat="46.48767" lon="5.35731">
        <ele>237.8</ele>
        <time>2022-02-10T13:12:14Z</time>
      </trkpt>
      <trkpt lat="46.48791" lon="5.35679">
        <ele>237</ele>
        <time>2022-02-10T13:12:20Z</time>
      </trkpt>
      <trkpt lat="46.48797" lon="5.35664">
        <ele>237</ele>
        <time>2022-02-10T13:12:22Z</time>
      </trkpt>
      <trkpt lat="46.48809" lon="5.35637">
        <ele>237</ele>
        <time>2022-02-10T13:12:25Z</time>
      </trkpt>
      <trkpt lat="46.48831" lon="5.35587">
        <ele>236.8</ele>
        <time>2022-02-10T13:12:31Z</time>
      </trkpt>
      <trkpt lat="46.48834" lon="5.3558">
        <ele>237</ele>
        <time>2022-02-10T13:12:32Z</time>
      </trkpt>
      <trkpt lat="46.48861" lon="5.35518">
        <ele>237.6</ele>
        <time>2022-02-10T13:12:40Z</time>
      </trkpt>
      <trkpt lat="46.48893" lon="5.35443">
        <ele>237</ele>
        <time>2022-02-10T13:12:49Z</time>
      </trkpt>
      <trkpt lat="46.48897" lon="5.35435">
        <ele>236.8</ele>
        <time>2022-02-10T13:12:50Z</time>
      </trkpt>
      <trkpt lat="46.48919" lon="5.35384">
        <ele>236.6</ele>
        <time>2022-02-10T13:12:56Z</time>
      </trkpt>
      <trkpt lat="46.48931" lon="5.35357">
        <ele>236.4</ele>
        <time>2022-02-10T13:12:59Z</time>
      </trkpt>
      <trkpt lat="46.48953" lon="5.35305">
        <ele>235.4</ele>
        <time>2022-02-10T13:13:05Z</time>
      </trkpt>
      <trkpt lat="46.48957" lon="5.35297">
        <ele>235.4</ele>
        <time>2022-02-10T13:13:06Z</time>
      </trkpt>
      <trkpt lat="46.48985" lon="5.35233">
        <ele>235.8</ele>
        <time>2022-02-10T13:13:14Z</time>
      </trkpt>
      <trkpt lat="46.48998" lon="5.35203">
        <ele>236</ele>
        <time>2022-02-10T13:13:18Z</time>
      </trkpt>
      <trkpt lat="46.49001" lon="5.35196">
        <ele>236.2</ele>
        <time>2022-02-10T13:13:19Z</time>
      </trkpt>
      <trkpt lat="46.49014" lon="5.35168">
        <ele>236.6</ele>
        <time>2022-02-10T13:13:23Z</time>
      </trkpt>
      <trkpt lat="46.49025" lon="5.35147">
        <ele>236.8</ele>
        <time>2022-02-10T13:13:26Z</time>
      </trkpt>
      <trkpt lat="46.49037" lon="5.35115">
        <ele>237.2</ele>
        <time>2022-02-10T13:13:30Z</time>
      </trkpt>
      <trkpt lat="46.49039" lon="5.35106">
        <ele>237.4</ele>
        <time>2022-02-10T13:13:31Z</time>
      </trkpt>
      <trkpt lat="46.49053" lon="5.35038">
        <ele>237.4</ele>
        <time>2022-02-10T13:13:38Z</time>
      </trkpt>
      <trkpt lat="46.49066" lon="5.34974">
        <ele>237.2</ele>
        <time>2022-02-10T13:13:44Z</time>
      </trkpt>
      <trkpt lat="46.49082" lon="5.34893">
        <ele>235.8</ele>
        <time>2022-02-10T13:13:51Z</time>
      </trkpt>
      <trkpt lat="46.49086" lon="5.34869">
        <ele>235.4</ele>
        <time>2022-02-10T13:13:53Z</time>
      </trkpt>
      <trkpt lat="46.491" lon="5.34799">
        <ele>234.2</ele>
        <time>2022-02-10T13:13:59Z</time>
      </trkpt>
      <trkpt lat="46.49102" lon="5.34787">
        <ele>234</ele>
        <time>2022-02-10T13:14:00Z</time>
      </trkpt>
      <trkpt lat="46.49115" lon="5.34717">
        <ele>233</ele>
        <time>2022-02-10T13:14:06Z</time>
      </trkpt>
      <trkpt lat="46.49124" lon="5.34671">
        <ele>232.4</ele>
        <time>2022-02-10T13:14:10Z</time>
      </trkpt>
      <trkpt lat="46.49133" lon="5.34628">
        <ele>232</ele>
        <time>2022-02-10T13:14:14Z</time>
      </trkpt>
      <trkpt lat="46.49136" lon="5.34609">
        <ele>231.6</ele>
        <time>2022-02-10T13:14:16Z</time>
      </trkpt>
      <trkpt lat="46.49149" lon="5.3454">
        <ele>232.2</ele>
        <time>2022-02-10T13:14:23Z</time>
      </trkpt>
      <trkpt lat="46.49161" lon="5.34475">
        <ele>232</ele>
        <time>2022-02-10T13:14:29Z</time>
      </trkpt>
      <trkpt lat="46.49177" lon="5.34392">
        <ele>231.6</ele>
        <time>2022-02-10T13:14:37Z</time>
      </trkpt>
      <trkpt lat="46.49179" lon="5.34383">
        <ele>231.6</ele>
        <time>2022-02-10T13:14:38Z</time>
      </trkpt>
      <trkpt lat="46.49186" lon="5.34342">
        <ele>232.2</ele>
        <time>2022-02-10T13:14:43Z</time>
      </trkpt>
      <trkpt lat="46.49194" lon="5.34297">
        <ele>233</ele>
        <time>2022-02-10T13:14:48Z</time>
      </trkpt>
      <trkpt lat="46.49196" lon="5.34287">
        <ele>233</ele>
        <time>2022-02-10T13:14:49Z</time>
      </trkpt>
      <trkpt lat="46.4921" lon="5.34214">
        <ele>232.4</ele>
        <time>2022-02-10T13:14:56Z</time>
      </trkpt>
      <trkpt lat="46.49226" lon="5.34135">
        <ele>231.8</ele>
        <time>2022-02-10T13:15:04Z</time>
      </trkpt>
      <trkpt lat="46.49235" lon="5.34088">
        <ele>232.2</ele>
        <time>2022-02-10T13:15:10Z</time>
      </trkpt>
      <trkpt lat="46.49242" lon="5.34047">
        <ele>233.4</ele>
        <time>2022-02-10T13:15:16Z</time>
      </trkpt>
      <trkpt lat="46.49244" lon="5.34031">
        <ele>233.8</ele>
        <time>2022-02-10T13:15:18Z</time>
      </trkpt>
      <trkpt lat="46.49254" lon="5.33989">
        <ele>234.8</ele>
        <time>2022-02-10T13:15:23Z</time>
      </trkpt>
      <trkpt lat="46.49258" lon="5.33972">
        <ele>234.8</ele>
        <time>2022-02-10T13:15:25Z</time>
      </trkpt>
      <trkpt lat="46.49268" lon="5.33919">
        <ele>235</ele>
        <time>2022-02-10T13:15:31Z</time>
      </trkpt>
      <trkpt lat="46.49284" lon="5.3384">
        <ele>234.6</ele>
        <time>2022-02-10T13:15:40Z</time>
      </trkpt>
      <trkpt lat="46.49287" lon="5.33822">
        <ele>234.6</ele>
        <time>2022-02-10T13:15:42Z</time>
      </trkpt>
      <trkpt lat="46.49302" lon="5.33746">
        <ele>234.4</ele>
        <time>2022-02-10T13:15:50Z</time>
      </trkpt>
      <trkpt lat="46.49303" lon="5.33736">
        <ele>234.4</ele>
        <time>2022-02-10T13:15:51Z</time>
      </trkpt>
      <trkpt lat="46.49304" lon="5.33725">
        <ele>234.2</ele>
        <time>2022-02-10T13:15:52Z</time>
      </trkpt>
      <trkpt lat="46.49307" lon="5.33661">
        <ele>234</ele>
        <time>2022-02-10T13:15:58Z</time>
      </trkpt>
      <trkpt lat="46.49308" lon="5.33651">
        <ele>233.8</ele>
        <time>2022-02-10T13:15:59Z</time>
      </trkpt>
      <trkpt lat="46.49316" lon="5.33588">
        <ele>233.6</ele>
        <time>2022-02-10T13:16:05Z</time>
      </trkpt>
      <trkpt lat="46.49322" lon="5.33549">
        <ele>233.4</ele>
        <time>2022-02-10T13:16:09Z</time>
      </trkpt>
      <trkpt lat="46.49322" lon="5.33539">
        <ele>233.4</ele>
        <time>2022-02-10T13:16:10Z</time>
      </trkpt>
      <trkpt lat="46.49316" lon="5.33481">
        <ele>233.4</ele>
        <time>2022-02-10T13:16:16Z</time>
      </trkpt>
      <trkpt lat="46.49307" lon="5.33424">
        <ele>233.4</ele>
        <time>2022-02-10T13:16:22Z</time>
      </trkpt>
      <trkpt lat="46.49292" lon="5.33354">
        <ele>233.2</ele>
        <time>2022-02-10T13:16:29Z</time>
      </trkpt>
      <trkpt lat="46.49287" lon="5.33333">
        <ele>232.8</ele>
        <time>2022-02-10T13:16:31Z</time>
      </trkpt>
      <trkpt lat="46.49278" lon="5.33279">
        <ele>232</ele>
        <time>2022-02-10T13:16:36Z</time>
      </trkpt>
      <trkpt lat="46.49274" lon="5.33258">
        <ele>231.8</ele>
        <time>2022-02-10T13:16:38Z</time>
      </trkpt>
      <trkpt lat="46.49261" lon="5.33217">
        <ele>231</ele>
        <time>2022-02-10T13:16:42Z</time>
      </trkpt>
      <trkpt lat="46.49257" lon="5.33208">
        <ele>231</ele>
        <time>2022-02-10T13:16:43Z</time>
      </trkpt>
      <trkpt lat="46.49246" lon="5.33192">
        <ele>230.8</ele>
        <time>2022-02-10T13:16:45Z</time>
      </trkpt>
      <trkpt lat="46.49239" lon="5.33186">
        <ele>230.6</ele>
        <time>2022-02-10T13:16:46Z</time>
      </trkpt>
      <trkpt lat="46.49197" lon="5.33153">
        <ele>229.4</ele>
        <time>2022-02-10T13:16:52Z</time>
      </trkpt>
      <trkpt lat="46.49184" lon="5.33141">
        <ele>229</ele>
        <time>2022-02-10T13:16:54Z</time>
      </trkpt>
      <trkpt lat="46.4916" lon="5.3311">
        <ele>228.4</ele>
        <time>2022-02-10T13:16:58Z</time>
      </trkpt>
      <trkpt lat="46.49156" lon="5.33101">
        <ele>228.4</ele>
        <time>2022-02-10T13:16:59Z</time>
      </trkpt>
      <trkpt lat="46.49152" lon="5.33093">
        <ele>228.4</ele>
        <time>2022-02-10T13:17:00Z</time>
      </trkpt>
      <trkpt lat="46.49143" lon="5.33065">
        <ele>228.2</ele>
        <time>2022-02-10T13:17:03Z</time>
      </trkpt>
      <trkpt lat="46.49141" lon="5.33056">
        <ele>228.4</ele>
        <time>2022-02-10T13:17:04Z</time>
      </trkpt>
      <trkpt lat="46.49134" lon="5.33017">
        <ele>228.4</ele>
        <time>2022-02-10T13:17:08Z</time>
      </trkpt>
      <trkpt lat="46.49128" lon="5.32964">
        <ele>228</ele>
        <time>2022-02-10T13:17:13Z</time>
      </trkpt>
      <trkpt lat="46.49126" lon="5.32908">
        <ele>227.2</ele>
        <time>2022-02-10T13:17:18Z</time>
      </trkpt>
      <trkpt lat="46.49127" lon="5.32897">
        <ele>227</ele>
        <time>2022-02-10T13:17:19Z</time>
      </trkpt>
      <trkpt lat="46.49138" lon="5.32845">
        <ele>226.6</ele>
        <time>2022-02-10T13:17:24Z</time>
      </trkpt>
      <trkpt lat="46.49142" lon="5.32825">
        <ele>226.4</ele>
        <time>2022-02-10T13:17:26Z</time>
      </trkpt>
      <trkpt lat="46.49143" lon="5.32805">
        <ele>226.4</ele>
        <time>2022-02-10T13:17:28Z</time>
      </trkpt>
      <trkpt lat="46.49138" lon="5.32759">
        <ele>226.6</ele>
        <time>2022-02-10T13:17:33Z</time>
      </trkpt>
      <trkpt lat="46.49132" lon="5.32732">
        <ele>226.8</ele>
        <time>2022-02-10T13:17:36Z</time>
      </trkpt>
      <trkpt lat="46.49125" lon="5.32714">
        <ele>226.8</ele>
        <time>2022-02-10T13:17:38Z</time>
      </trkpt>
      <trkpt lat="46.49115" lon="5.32699">
        <ele>226.8</ele>
        <time>2022-02-10T13:17:40Z</time>
      </trkpt>
      <trkpt lat="46.49109" lon="5.32695">
        <ele>226.8</ele>
        <time>2022-02-10T13:17:41Z</time>
      </trkpt>
      <trkpt lat="46.49102" lon="5.32693">
        <ele>226.8</ele>
        <time>2022-02-10T13:17:42Z</time>
      </trkpt>
      <trkpt lat="46.49086" lon="5.32693">
        <ele>226.6</ele>
        <time>2022-02-10T13:17:44Z</time>
      </trkpt>
      <trkpt lat="46.49062" lon="5.32699">
        <ele>226.2</ele>
        <time>2022-02-10T13:17:47Z</time>
      </trkpt>
      <trkpt lat="46.49037" lon="5.32705">
        <ele>225.4</ele>
        <time>2022-02-10T13:17:50Z</time>
      </trkpt>
      <trkpt lat="46.49027" lon="5.32707">
        <ele>224.8</ele>
        <time>2022-02-10T13:17:51Z</time>
      </trkpt>
      <trkpt lat="46.49002" lon="5.3271">
        <ele>223.8</ele>
        <time>2022-02-10T13:17:54Z</time>
      </trkpt>
      <trkpt lat="46.48983" lon="5.3271">
        <ele>222.6</ele>
        <time>2022-02-10T13:17:56Z</time>
      </trkpt>
      <trkpt lat="46.48974" lon="5.32709">
        <ele>222.4</ele>
        <time>2022-02-10T13:17:57Z</time>
      </trkpt>
      <trkpt lat="46.48965" lon="5.32705">
        <ele>221.6</ele>
        <time>2022-02-10T13:17:58Z</time>
      </trkpt>
      <trkpt lat="46.48956" lon="5.32699">
        <ele>221</ele>
        <time>2022-02-10T13:17:59Z</time>
      </trkpt>
      <trkpt lat="46.48948" lon="5.32692">
        <ele>220.4</ele>
        <time>2022-02-10T13:18:00Z</time>
      </trkpt>
      <trkpt lat="46.48932" lon="5.32673">
        <ele>219.6</ele>
        <time>2022-02-10T13:18:02Z</time>
      </trkpt>
      <trkpt lat="46.48919" lon="5.3265">
        <ele>218.4</ele>
        <time>2022-02-10T13:18:04Z</time>
      </trkpt>
      <trkpt lat="46.48914" lon="5.32622">
        <ele>217.2</ele>
        <time>2022-02-10T13:18:06Z</time>
      </trkpt>
      <trkpt lat="46.48924" lon="5.32598">
        <ele>216</ele>
        <time>2022-02-10T13:18:08Z</time>
      </trkpt>
      <trkpt lat="46.48932" lon="5.32587">
        <ele>214.8</ele>
        <time>2022-02-10T13:18:09Z</time>
      </trkpt>
      <trkpt lat="46.48947" lon="5.32563">
        <ele>213.6</ele>
        <time>2022-02-10T13:18:11Z</time>
      </trkpt>
      <trkpt lat="46.48953" lon="5.32549">
        <ele>213</ele>
        <time>2022-02-10T13:18:12Z</time>
      </trkpt>
      <trkpt lat="46.48955" lon="5.32534">
        <ele>212.6</ele>
        <time>2022-02-10T13:18:13Z</time>
      </trkpt>
      <trkpt lat="46.48955" lon="5.3252">
        <ele>212</ele>
        <time>2022-02-10T13:18:14Z</time>
      </trkpt>
      <trkpt lat="46.48952" lon="5.32507">
        <ele>211.6</ele>
        <time>2022-02-10T13:18:15Z</time>
      </trkpt>
      <trkpt lat="46.48945" lon="5.32482">
        <ele>210.8</ele>
        <time>2022-02-10T13:18:17Z</time>
      </trkpt>
      <trkpt lat="46.48924" lon="5.3241">
        <ele>210.2</ele>
        <time>2022-02-10T13:18:23Z</time>
      </trkpt>
      <trkpt lat="46.48904" lon="5.32346">
        <ele>210</ele>
        <time>2022-02-10T13:18:29Z</time>
      </trkpt>
      <trkpt lat="46.48888" lon="5.32316">
        <ele>210</ele>
        <time>2022-02-10T13:18:33Z</time>
      </trkpt>
      <trkpt lat="46.48868" lon="5.32285">
        <ele>211.6</ele>
        <time>2022-02-10T13:18:39Z</time>
      </trkpt>
      <trkpt lat="46.48865" lon="5.3228">
        <ele>211.8</ele>
        <time>2022-02-10T13:18:40Z</time>
      </trkpt>
      <trkpt lat="46.48854" lon="5.32264">
        <ele>213.4</ele>
        <time>2022-02-10T13:18:44Z</time>
      </trkpt>
      <trkpt lat="46.48851" lon="5.3226">
        <ele>213.6</ele>
        <time>2022-02-10T13:18:45Z</time>
      </trkpt>
      <trkpt lat="46.48844" lon="5.32248">
        <ele>214.8</ele>
        <time>2022-02-10T13:18:48Z</time>
      </trkpt>
      <trkpt lat="46.48837" lon="5.32233">
        <ele>215.8</ele>
        <time>2022-02-10T13:18:51Z</time>
      </trkpt>
      <trkpt lat="46.48835" lon="5.32227">
        <ele>216</ele>
        <time>2022-02-10T13:18:52Z</time>
      </trkpt>
      <trkpt lat="46.48828" lon="5.32189">
        <ele>216.8</ele>
        <time>2022-02-10T13:18:57Z</time>
      </trkpt>
      <trkpt lat="46.48825" lon="5.32152">
        <ele>216.8</ele>
        <time>2022-02-10T13:19:01Z</time>
      </trkpt>
      <trkpt lat="46.48825" lon="5.32141">
        <ele>216.8</ele>
        <time>2022-02-10T13:19:02Z</time>
      </trkpt>
      <trkpt lat="46.48833" lon="5.32089">
        <ele>215.2</ele>
        <time>2022-02-10T13:19:07Z</time>
      </trkpt>
      <trkpt lat="46.48838" lon="5.32058">
        <ele>214.8</ele>
        <time>2022-02-10T13:19:10Z</time>
      </trkpt>
      <trkpt lat="46.48848" lon="5.31983">
        <ele>213.8</ele>
        <time>2022-02-10T13:19:17Z</time>
      </trkpt>
      <trkpt lat="46.48848" lon="5.31972">
        <ele>213.6</ele>
        <time>2022-02-10T13:19:18Z</time>
      </trkpt>
      <trkpt lat="46.48844" lon="5.31906">
        <ele>213</ele>
        <time>2022-02-10T13:19:24Z</time>
      </trkpt>
      <trkpt lat="46.4884" lon="5.31884">
        <ele>212.6</ele>
        <time>2022-02-10T13:19:26Z</time>
      </trkpt>
      <trkpt lat="46.48837" lon="5.31874">
        <ele>212.6</ele>
        <time>2022-02-10T13:19:27Z</time>
      </trkpt>
      <trkpt lat="46.48833" lon="5.31865">
        <ele>212.4</ele>
        <time>2022-02-10T13:19:28Z</time>
      </trkpt>
      <trkpt lat="46.48821" lon="5.31852">
        <ele>212</ele>
        <time>2022-02-10T13:19:30Z</time>
      </trkpt>
      <trkpt lat="46.48814" lon="5.31849">
        <ele>211.8</ele>
        <time>2022-02-10T13:19:31Z</time>
      </trkpt>
      <trkpt lat="46.488" lon="5.31844">
        <ele>211.8</ele>
        <time>2022-02-10T13:19:33Z</time>
      </trkpt>
      <trkpt lat="46.48788" lon="5.31832">
        <ele>211.6</ele>
        <time>2022-02-10T13:19:35Z</time>
      </trkpt>
      <trkpt lat="46.48783" lon="5.31824">
        <ele>211.6</ele>
        <time>2022-02-10T13:19:36Z</time>
      </trkpt>
      <trkpt lat="46.4878" lon="5.31815">
        <ele>211.4</ele>
        <time>2022-02-10T13:19:37Z</time>
      </trkpt>
      <trkpt lat="46.48778" lon="5.31805">
        <ele>211.4</ele>
        <time>2022-02-10T13:19:38Z</time>
      </trkpt>
      <trkpt lat="46.48776" lon="5.31746">
        <ele>211.4</ele>
        <time>2022-02-10T13:19:44Z</time>
      </trkpt>
      <trkpt lat="46.48775" lon="5.31737">
        <ele>211.6</ele>
        <time>2022-02-10T13:19:45Z</time>
      </trkpt>
      <trkpt lat="46.48773" lon="5.31727">
        <ele>211.6</ele>
        <time>2022-02-10T13:19:46Z</time>
      </trkpt>
      <trkpt lat="46.48768" lon="5.31712">
        <ele>211.8</ele>
        <time>2022-02-10T13:19:48Z</time>
      </trkpt>
      <trkpt lat="46.48765" lon="5.31706">
        <ele>211.8</ele>
        <time>2022-02-10T13:19:49Z</time>
      </trkpt>
      <trkpt lat="46.48744" lon="5.31678">
        <ele>212</ele>
        <time>2022-02-10T13:19:54Z</time>
      </trkpt>
      <trkpt lat="46.4874" lon="5.31672">
        <ele>212</ele>
        <time>2022-02-10T13:19:55Z</time>
      </trkpt>
      <trkpt lat="46.48726" lon="5.31657">
        <ele>212.2</ele>
        <time>2022-02-10T13:19:58Z</time>
      </trkpt>
      <trkpt lat="46.48722" lon="5.31652">
        <ele>212.4</ele>
        <time>2022-02-10T13:19:59Z</time>
      </trkpt>
      <trkpt lat="46.48711" lon="5.31638">
        <ele>212.6</ele>
        <time>2022-02-10T13:20:02Z</time>
      </trkpt>
      <trkpt lat="46.48687" lon="5.3161">
        <ele>212.8</ele>
        <time>2022-02-10T13:20:07Z</time>
      </trkpt>
      <trkpt lat="46.48662" lon="5.31577">
        <ele>212.8</ele>
        <time>2022-02-10T13:20:12Z</time>
      </trkpt>
      <trkpt lat="46.48652" lon="5.31566">
        <ele>212.6</ele>
        <time>2022-02-10T13:20:14Z</time>
      </trkpt>
      <trkpt lat="46.48638" lon="5.31547">
        <ele>212.6</ele>
        <time>2022-02-10T13:20:17Z</time>
      </trkpt>
      <trkpt lat="46.48623" lon="5.31525">
        <ele>212.6</ele>
        <time>2022-02-10T13:20:21Z</time>
      </trkpt>
      <trkpt lat="46.48615" lon="5.31511">
        <ele>212.6</ele>
        <time>2022-02-10T13:20:23Z</time>
      </trkpt>
      <trkpt lat="46.4861" lon="5.31493">
        <ele>212.6</ele>
        <time>2022-02-10T13:20:25Z</time>
      </trkpt>
      <trkpt lat="46.48607" lon="5.31472">
        <ele>212.4</ele>
        <time>2022-02-10T13:20:27Z</time>
      </trkpt>
      <trkpt lat="46.48606" lon="5.31449">
        <ele>212.2</ele>
        <time>2022-02-10T13:20:29Z</time>
      </trkpt>
      <trkpt lat="46.48605" lon="5.31432">
        <ele>212</ele>
        <time>2022-02-10T13:20:31Z</time>
      </trkpt>
      <trkpt lat="46.48604" lon="5.31425">
        <ele>212</ele>
        <time>2022-02-10T13:20:32Z</time>
      </trkpt>
      <trkpt lat="46.48603" lon="5.31418">
        <ele>212</ele>
        <time>2022-02-10T13:20:33Z</time>
      </trkpt>
      <trkpt lat="46.48597" lon="5.31406">
        <ele>212.2</ele>
        <time>2022-02-10T13:20:35Z</time>
      </trkpt>
      <trkpt lat="46.48594" lon="5.31402">
        <ele>212.2</ele>
        <time>2022-02-10T13:20:36Z</time>
      </trkpt>
      <trkpt lat="46.48575" lon="5.31378">
        <ele>213</ele>
        <time>2022-02-10T13:20:42Z</time>
      </trkpt>
      <trkpt lat="46.48569" lon="5.31369">
        <ele>213.8</ele>
        <time>2022-02-10T13:20:44Z</time>
      </trkpt>
      <trkpt lat="46.48564" lon="5.3136">
        <ele>214</ele>
        <time>2022-02-10T13:20:46Z</time>
      </trkpt>
      <trkpt lat="46.48561" lon="5.31349">
        <ele>214.6</ele>
        <time>2022-02-10T13:20:48Z</time>
      </trkpt>
      <trkpt lat="46.48558" lon="5.31328">
        <ele>215.6</ele>
        <time>2022-02-10T13:20:52Z</time>
      </trkpt>
      <trkpt lat="46.48557" lon="5.31317">
        <ele>216.2</ele>
        <time>2022-02-10T13:20:54Z</time>
      </trkpt>
      <trkpt lat="46.48556" lon="5.31305">
        <ele>216.8</ele>
        <time>2022-02-10T13:20:56Z</time>
      </trkpt>
      <trkpt lat="46.48553" lon="5.31274">
        <ele>217.8</ele>
        <time>2022-02-10T13:21:01Z</time>
      </trkpt>
      <trkpt lat="46.48553" lon="5.3126">
        <ele>218</ele>
        <time>2022-02-10T13:21:03Z</time>
      </trkpt>
      <trkpt lat="46.48553" lon="5.31247">
        <ele>218.4</ele>
        <time>2022-02-10T13:21:05Z</time>
      </trkpt>
      <trkpt lat="46.48556" lon="5.31234">
        <ele>218.4</ele>
        <time>2022-02-10T13:21:07Z</time>
      </trkpt>
      <trkpt lat="46.4856" lon="5.31222">
        <ele>218.6</ele>
        <time>2022-02-10T13:21:09Z</time>
      </trkpt>
      <trkpt lat="46.48567" lon="5.31206">
        <ele>219.2</ele>
        <time>2022-02-10T13:21:12Z</time>
      </trkpt>
      <trkpt lat="46.48569" lon="5.31201">
        <ele>219.4</ele>
        <time>2022-02-10T13:21:13Z</time>
      </trkpt>
      <trkpt lat="46.48582" lon="5.31175">
        <ele>220</ele>
        <time>2022-02-10T13:21:18Z</time>
      </trkpt>
      <trkpt lat="46.4859" lon="5.3116">
        <ele>220.2</ele>
        <time>2022-02-10T13:21:21Z</time>
      </trkpt>
      <trkpt lat="46.4861" lon="5.31118">
        <ele>221.4</ele>
        <time>2022-02-10T13:21:29Z</time>
      </trkpt>
      <trkpt lat="46.48617" lon="5.31102">
        <ele>221.8</ele>
        <time>2022-02-10T13:21:32Z</time>
      </trkpt>
      <trkpt lat="46.48627" lon="5.31081">
        <ele>222.4</ele>
        <time>2022-02-10T13:21:36Z</time>
      </trkpt>
      <trkpt lat="46.48637" lon="5.31061">
        <ele>223</ele>
        <time>2022-02-10T13:21:40Z</time>
      </trkpt>
      <trkpt lat="46.4865" lon="5.31035">
        <ele>223.6</ele>
        <time>2022-02-10T13:21:45Z</time>
      </trkpt>
      <trkpt lat="46.48666" lon="5.31002">
        <ele>224</ele>
        <time>2022-02-10T13:21:51Z</time>
      </trkpt>
      <trkpt lat="46.48673" lon="5.30987">
        <ele>224.6</ele>
        <time>2022-02-10T13:21:54Z</time>
      </trkpt>
      <trkpt lat="46.48675" lon="5.30981">
        <ele>224.6</ele>
        <time>2022-02-10T13:21:55Z</time>
      </trkpt>
      <trkpt lat="46.48685" lon="5.30962">
        <ele>225</ele>
        <time>2022-02-10T13:21:58Z</time>
      </trkpt>
      <trkpt lat="46.48708" lon="5.30921">
        <ele>225.2</ele>
        <time>2022-02-10T13:22:04Z</time>
      </trkpt>
      <trkpt lat="46.48718" lon="5.30906">
        <ele>225.2</ele>
        <time>2022-02-10T13:22:06Z</time>
      </trkpt>
      <trkpt lat="46.48721" lon="5.30896">
        <ele>225</ele>
        <time>2022-02-10T13:22:07Z</time>
      </trkpt>
      <trkpt lat="46.48722" lon="5.30886">
        <ele>224.6</ele>
        <time>2022-02-10T13:22:08Z</time>
      </trkpt>
      <trkpt lat="46.48719" lon="5.30867">
        <ele>223.8</ele>
        <time>2022-02-10T13:22:10Z</time>
      </trkpt>
      <trkpt lat="46.4871" lon="5.30852">
        <ele>223.4</ele>
        <time>2022-02-10T13:22:12Z</time>
      </trkpt>
      <trkpt lat="46.48704" lon="5.30847">
        <ele>223.2</ele>
        <time>2022-02-10T13:22:13Z</time>
      </trkpt>
      <trkpt lat="46.48671" lon="5.30825">
        <ele>222.4</ele>
        <time>2022-02-10T13:22:18Z</time>
      </trkpt>
      <trkpt lat="46.48626" lon="5.30797">
        <ele>221.2</ele>
        <time>2022-02-10T13:22:24Z</time>
      </trkpt>
      <trkpt lat="46.48587" lon="5.30766">
        <ele>220.8</ele>
        <time>2022-02-10T13:22:30Z</time>
      </trkpt>
      <trkpt lat="46.48561" lon="5.30737">
        <ele>221.4</ele>
        <time>2022-02-10T13:22:36Z</time>
      </trkpt>
      <trkpt lat="46.48551" lon="5.30718">
        <ele>221.8</ele>
        <time>2022-02-10T13:22:39Z</time>
      </trkpt>
      <trkpt lat="46.48547" lon="5.30704">
        <ele>222</ele>
        <time>2022-02-10T13:22:41Z</time>
      </trkpt>
      <trkpt lat="46.48545" lon="5.30697">
        <ele>222.2</ele>
        <time>2022-02-10T13:22:42Z</time>
      </trkpt>
      <trkpt lat="46.48543" lon="5.30685">
        <ele>222.4</ele>
        <time>2022-02-10T13:22:44Z</time>
      </trkpt>
      <trkpt lat="46.48543" lon="5.3068">
        <ele>222.6</ele>
        <time>2022-02-10T13:22:45Z</time>
      </trkpt>
      <trkpt lat="46.48543" lon="5.30667">
        <ele>223</ele>
        <time>2022-02-10T13:22:47Z</time>
      </trkpt>
      <trkpt lat="46.48544" lon="5.30648">
        <ele>223.6</ele>
        <time>2022-02-10T13:22:50Z</time>
      </trkpt>
      <trkpt lat="46.48546" lon="5.3063">
        <ele>224.4</ele>
        <time>2022-02-10T13:22:53Z</time>
      </trkpt>
      <trkpt lat="46.48547" lon="5.30617">
        <ele>224.8</ele>
        <time>2022-02-10T13:22:55Z</time>
      </trkpt>
      <trkpt lat="46.48548" lon="5.30611">
        <ele>225.2</ele>
        <time>2022-02-10T13:22:56Z</time>
      </trkpt>
      <trkpt lat="46.4855" lon="5.30586">
        <ele>226</ele>
        <time>2022-02-10T13:23:00Z</time>
      </trkpt>
      <trkpt lat="46.48552" lon="5.30568">
        <ele>226.2</ele>
        <time>2022-02-10T13:23:03Z</time>
      </trkpt>
      <trkpt lat="46.48553" lon="5.3056">
        <ele>226.4</ele>
        <time>2022-02-10T13:23:04Z</time>
      </trkpt>
      <trkpt lat="46.48554" lon="5.30548">
        <ele>226.8</ele>
        <time>2022-02-10T13:23:06Z</time>
      </trkpt>
      <trkpt lat="46.48555" lon="5.30541">
        <ele>227.2</ele>
        <time>2022-02-10T13:23:07Z</time>
      </trkpt>
      <trkpt lat="46.48556" lon="5.30535">
        <ele>227.2</ele>
        <time>2022-02-10T13:23:08Z</time>
      </trkpt>
      <trkpt lat="46.48557" lon="5.30528">
        <ele>227.4</ele>
        <time>2022-02-10T13:23:09Z</time>
      </trkpt>
      <trkpt lat="46.48559" lon="5.30497">
        <ele>228.2</ele>
        <time>2022-02-10T13:23:14Z</time>
      </trkpt>
      <trkpt lat="46.48549" lon="5.30477">
        <ele>228.2</ele>
        <time>2022-02-10T13:23:19Z</time>
      </trkpt>
      <trkpt lat="46.48547" lon="5.30481">
        <ele>228.2</ele>
        <time>2022-02-10T13:23:21Z</time>
      </trkpt>
      <trkpt lat="46.48548" lon="5.30485">
        <ele>228.2</ele>
        <time>2022-02-10T13:23:22Z</time>
      </trkpt>
      <trkpt lat="46.48547" lon="5.30489">
        <ele>228.4</ele>
        <time>2022-02-10T13:23:23Z</time>
      </trkpt>
      <trkpt lat="46.48541" lon="5.30496">
        <ele>228.2</ele>
        <time>2022-02-10T13:23:25Z</time>
      </trkpt>
      <trkpt lat="46.48516" lon="5.30511">
        <ele>228.2</ele>
        <time>2022-02-10T13:23:30Z</time>
      </trkpt>
      <trkpt lat="46.4848" lon="5.30544">
        <ele>229.2</ele>
        <time>2022-02-10T13:23:37Z</time>
      </trkpt>
      <trkpt lat="46.48475" lon="5.30549">
        <ele>229</ele>
        <time>2022-02-10T13:23:38Z</time>
      </trkpt>
      <trkpt lat="46.48431" lon="5.30593">
        <ele>228.8</ele>
        <time>2022-02-10T13:23:46Z</time>
      </trkpt>
      <trkpt lat="46.48384" lon="5.30635">
        <ele>228</ele>
        <time>2022-02-10T13:23:54Z</time>
      </trkpt>
      <trkpt lat="46.48372" lon="5.30646">
        <ele>228</ele>
        <time>2022-02-10T13:23:56Z</time>
      </trkpt>
      <trkpt lat="46.48366" lon="5.30652">
        <ele>227.8</ele>
        <time>2022-02-10T13:23:57Z</time>
      </trkpt>
      <trkpt lat="46.48323" lon="5.30688">
        <ele>227.4</ele>
        <time>2022-02-10T13:24:04Z</time>
      </trkpt>
      <trkpt lat="46.48296" lon="5.30696">
        <ele>227</ele>
        <time>2022-02-10T13:24:08Z</time>
      </trkpt>
      <trkpt lat="46.48289" lon="5.30695">
        <ele>227</ele>
        <time>2022-02-10T13:24:09Z</time>
      </trkpt>
      <trkpt lat="46.48251" lon="5.30686">
        <ele>227.2</ele>
        <time>2022-02-10T13:24:15Z</time>
      </trkpt>
      <trkpt lat="46.48222" lon="5.30682">
        <ele>227.4</ele>
        <time>2022-02-10T13:24:20Z</time>
      </trkpt>
      <trkpt lat="46.48195" lon="5.30688">
        <ele>228</ele>
        <time>2022-02-10T13:24:25Z</time>
      </trkpt>
      <trkpt lat="46.48151" lon="5.30714">
        <ele>229.2</ele>
        <time>2022-02-10T13:24:34Z</time>
      </trkpt>
      <trkpt lat="46.48124" lon="5.30729">
        <ele>230.2</ele>
        <time>2022-02-10T13:24:39Z</time>
      </trkpt>
      <trkpt lat="46.48103" lon="5.3074">
        <ele>230.8</ele>
        <time>2022-02-10T13:24:43Z</time>
      </trkpt>
      <trkpt lat="46.4806" lon="5.30764">
        <ele>231.2</ele>
        <time>2022-02-10T13:24:51Z</time>
      </trkpt>
      <trkpt lat="46.48047" lon="5.3077">
        <ele>231.4</ele>
        <time>2022-02-10T13:24:53Z</time>
      </trkpt>
      <trkpt lat="46.47995" lon="5.30799">
        <ele>231</ele>
        <time>2022-02-10T13:25:01Z</time>
      </trkpt>
      <trkpt lat="46.4796" lon="5.30814">
        <ele>230</ele>
        <time>2022-02-10T13:25:06Z</time>
      </trkpt>
      <trkpt lat="46.47946" lon="5.30816">
        <ele>229.8</ele>
        <time>2022-02-10T13:25:08Z</time>
      </trkpt>
      <trkpt lat="46.47915" lon="5.30812">
        <ele>229.4</ele>
        <time>2022-02-10T13:25:13Z</time>
      </trkpt>
      <trkpt lat="46.47881" lon="5.308">
        <ele>230.8</ele>
        <time>2022-02-10T13:25:20Z</time>
      </trkpt>
      <trkpt lat="46.47872" lon="5.30798">
        <ele>231.6</ele>
        <time>2022-02-10T13:25:22Z</time>
      </trkpt>
      <trkpt lat="46.47853" lon="5.30795">
        <ele>232.6</ele>
        <time>2022-02-10T13:25:26Z</time>
      </trkpt>
      <trkpt lat="46.47848" lon="5.30792">
        <ele>232.8</ele>
        <time>2022-02-10T13:25:27Z</time>
      </trkpt>
      <trkpt lat="46.47844" lon="5.30789">
        <ele>233</ele>
        <time>2022-02-10T13:25:28Z</time>
      </trkpt>
      <trkpt lat="46.47835" lon="5.30779">
        <ele>233.6</ele>
        <time>2022-02-10T13:25:30Z</time>
      </trkpt>
      <trkpt lat="46.4783" lon="5.30774">
        <ele>233.8</ele>
        <time>2022-02-10T13:25:31Z</time>
      </trkpt>
      <trkpt lat="46.47823" lon="5.30772">
        <ele>234</ele>
        <time>2022-02-10T13:25:32Z</time>
      </trkpt>
      <trkpt lat="46.47809" lon="5.3077">
        <ele>234</ele>
        <time>2022-02-10T13:25:34Z</time>
      </trkpt>
      <trkpt lat="46.47764" lon="5.30774">
        <ele>233.2</ele>
        <time>2022-02-10T13:25:40Z</time>
      </trkpt>
      <trkpt lat="46.47731" lon="5.30779">
        <ele>232.6</ele>
        <time>2022-02-10T13:25:45Z</time>
      </trkpt>
      <trkpt lat="46.47718" lon="5.30781">
        <ele>232.6</ele>
        <time>2022-02-10T13:25:47Z</time>
      </trkpt>
      <trkpt lat="46.47684" lon="5.30787">
        <ele>232.6</ele>
        <time>2022-02-10T13:25:53Z</time>
      </trkpt>
      <trkpt lat="46.47627" lon="5.30795">
        <ele>233.2</ele>
        <time>2022-02-10T13:26:03Z</time>
      </trkpt>
      <trkpt lat="46.47578" lon="5.30802">
        <ele>233.2</ele>
        <time>2022-02-10T13:26:11Z</time>
      </trkpt>
      <trkpt lat="46.47525" lon="5.30814">
        <ele>233.6</ele>
        <time>2022-02-10T13:26:20Z</time>
      </trkpt>
      <trkpt lat="46.47483" lon="5.30833">
        <ele>233.2</ele>
        <time>2022-02-10T13:26:27Z</time>
      </trkpt>
      <trkpt lat="46.47444" lon="5.30855">
        <ele>232.8</ele>
        <time>2022-02-10T13:26:34Z</time>
      </trkpt>
      <trkpt lat="46.4741" lon="5.30871">
        <ele>232.4</ele>
        <time>2022-02-10T13:26:40Z</time>
      </trkpt>
      <trkpt lat="46.4737" lon="5.30888">
        <ele>232.2</ele>
        <time>2022-02-10T13:26:47Z</time>
      </trkpt>
      <trkpt lat="46.47348" lon="5.30893">
        <ele>232.2</ele>
        <time>2022-02-10T13:26:51Z</time>
      </trkpt>
      <trkpt lat="46.47342" lon="5.30892">
        <ele>232.2</ele>
        <time>2022-02-10T13:26:52Z</time>
      </trkpt>
      <trkpt lat="46.47338" lon="5.30889">
        <ele>232.2</ele>
        <time>2022-02-10T13:26:53Z</time>
      </trkpt>
      <trkpt lat="46.47331" lon="5.30878">
        <ele>232.2</ele>
        <time>2022-02-10T13:26:55Z</time>
      </trkpt>
      <trkpt lat="46.47325" lon="5.30834">
        <ele>232.2</ele>
        <time>2022-02-10T13:27:00Z</time>
      </trkpt>
      <trkpt lat="46.4732" lon="5.30763">
        <ele>231.8</ele>
        <time>2022-02-10T13:27:07Z</time>
      </trkpt>
      <trkpt lat="46.47316" lon="5.30697">
        <ele>232</ele>
        <time>2022-02-10T13:27:14Z</time>
      </trkpt>
      <trkpt lat="46.47313" lon="5.3066">
        <ele>232.4</ele>
        <time>2022-02-10T13:27:18Z</time>
      </trkpt>
      <trkpt lat="46.47308" lon="5.30644">
        <ele>232.6</ele>
        <time>2022-02-10T13:27:20Z</time>
      </trkpt>
      <trkpt lat="46.4729" lon="5.30619">
        <ele>232.6</ele>
        <time>2022-02-10T13:27:24Z</time>
      </trkpt>
      <trkpt lat="46.47251" lon="5.30573">
        <ele>232.6</ele>
        <time>2022-02-10T13:27:32Z</time>
      </trkpt>
      <trkpt lat="46.47221" lon="5.30556">
        <ele>232.8</ele>
        <time>2022-02-10T13:27:37Z</time>
      </trkpt>
      <trkpt lat="46.47214" lon="5.30555">
        <ele>232.6</ele>
        <time>2022-02-10T13:27:38Z</time>
      </trkpt>
      <trkpt lat="46.47176" lon="5.30559">
        <ele>232.4</ele>
        <time>2022-02-10T13:27:44Z</time>
      </trkpt>
      <trkpt lat="46.47142" lon="5.30551">
        <ele>233</ele>
        <time>2022-02-10T13:27:50Z</time>
      </trkpt>
      <trkpt lat="46.47105" lon="5.30533">
        <ele>233.6</ele>
        <time>2022-02-10T13:27:57Z</time>
      </trkpt>
      <trkpt lat="46.4707" lon="5.30505">
        <ele>233.8</ele>
        <time>2022-02-10T13:28:04Z</time>
      </trkpt>
      <trkpt lat="46.47054" lon="5.30491">
        <ele>233.8</ele>
        <time>2022-02-10T13:28:07Z</time>
      </trkpt>
      <trkpt lat="46.47026" lon="5.30468">
        <ele>233.2</ele>
        <time>2022-02-10T13:28:12Z</time>
      </trkpt>
      <trkpt lat="46.46977" lon="5.30425">
        <ele>232.6</ele>
        <time>2022-02-10T13:28:21Z</time>
      </trkpt>
      <trkpt lat="46.46972" lon="5.30421">
        <ele>232.6</ele>
        <time>2022-02-10T13:28:22Z</time>
      </trkpt>
      <trkpt lat="46.46949" lon="5.30405">
        <ele>232.4</ele>
        <time>2022-02-10T13:28:26Z</time>
      </trkpt>
      <trkpt lat="46.46932" lon="5.30397">
        <ele>232.2</ele>
        <time>2022-02-10T13:28:29Z</time>
      </trkpt>
      <trkpt lat="46.46887" lon="5.30378">
        <ele>232.4</ele>
        <time>2022-02-10T13:28:37Z</time>
      </trkpt>
      <trkpt lat="46.46858" lon="5.30356">
        <ele>232.6</ele>
        <time>2022-02-10T13:28:43Z</time>
      </trkpt>
      <trkpt lat="46.46819" lon="5.30309">
        <ele>233</ele>
        <time>2022-02-10T13:28:52Z</time>
      </trkpt>
      <trkpt lat="46.46775" lon="5.30256">
        <ele>233</ele>
        <time>2022-02-10T13:29:02Z</time>
      </trkpt>
      <trkpt lat="46.46756" lon="5.30235">
        <ele>233</ele>
        <time>2022-02-10T13:29:06Z</time>
      </trkpt>
      <trkpt lat="46.46739" lon="5.30209">
        <ele>233.2</ele>
        <time>2022-02-10T13:29:10Z</time>
      </trkpt>
      <trkpt lat="46.46733" lon="5.30192">
        <ele>233.2</ele>
        <time>2022-02-10T13:29:12Z</time>
      </trkpt>
      <trkpt lat="46.46718" lon="5.30138">
        <ele>233</ele>
        <time>2022-02-10T13:29:18Z</time>
      </trkpt>
      <trkpt lat="46.467" lon="5.30063">
        <ele>232.4</ele>
        <time>2022-02-10T13:29:26Z</time>
      </trkpt>
      <trkpt lat="46.46685" lon="5.30012">
        <ele>232</ele>
        <time>2022-02-10T13:29:32Z</time>
      </trkpt>
      <trkpt lat="46.46672" lon="5.29966">
        <ele>232.4</ele>
        <time>2022-02-10T13:29:38Z</time>
      </trkpt>
      <trkpt lat="46.4667" lon="5.29958">
        <ele>232.4</ele>
        <time>2022-02-10T13:29:39Z</time>
      </trkpt>
      <trkpt lat="46.46663" lon="5.29927">
        <ele>233</ele>
        <time>2022-02-10T13:29:43Z</time>
      </trkpt>
      <trkpt lat="46.46661" lon="5.29918">
        <ele>233</ele>
        <time>2022-02-10T13:29:44Z</time>
      </trkpt>
      <trkpt lat="46.46652" lon="5.29883">
        <ele>233.4</ele>
        <time>2022-02-10T13:29:48Z</time>
      </trkpt>
      <trkpt lat="46.4665" lon="5.29875">
        <ele>233.4</ele>
        <time>2022-02-10T13:29:49Z</time>
      </trkpt>
      <trkpt lat="46.46646" lon="5.2986">
        <ele>233.6</ele>
        <time>2022-02-10T13:29:51Z</time>
      </trkpt>
      <trkpt lat="46.46643" lon="5.2985">
        <ele>234</ele>
        <time>2022-02-10T13:29:52Z</time>
      </trkpt>
      <trkpt lat="46.46638" lon="5.29833">
        <ele>234.2</ele>
        <time>2022-02-10T13:29:54Z</time>
      </trkpt>
      <trkpt lat="46.4663" lon="5.29802">
        <ele>234.4</ele>
        <time>2022-02-10T13:29:58Z</time>
      </trkpt>
      <trkpt lat="46.46617" lon="5.2976">
        <ele>234.6</ele>
        <time>2022-02-10T13:30:03Z</time>
      </trkpt>
      <trkpt lat="46.46606" lon="5.29709">
        <ele>234.4</ele>
        <time>2022-02-10T13:30:08Z</time>
      </trkpt>
      <trkpt lat="46.46586" lon="5.29631">
        <ele>233.6</ele>
        <time>2022-02-10T13:30:16Z</time>
      </trkpt>
      <trkpt lat="46.46581" lon="5.29611">
        <ele>233.2</ele>
        <time>2022-02-10T13:30:18Z</time>
      </trkpt>
      <trkpt lat="46.46568" lon="5.29564">
        <ele>232.8</ele>
        <time>2022-02-10T13:30:23Z</time>
      </trkpt>
      <trkpt lat="46.46566" lon="5.29556">
        <ele>232.6</ele>
        <time>2022-02-10T13:30:24Z</time>
      </trkpt>
      <trkpt lat="46.46553" lon="5.29511">
        <ele>231.6</ele>
        <time>2022-02-10T13:30:28Z</time>
      </trkpt>
      <trkpt lat="46.4655" lon="5.295">
        <ele>231.2</ele>
        <time>2022-02-10T13:30:29Z</time>
      </trkpt>
      <trkpt lat="46.46538" lon="5.2945">
        <ele>230.8</ele>
        <time>2022-02-10T13:30:34Z</time>
      </trkpt>
      <trkpt lat="46.46524" lon="5.29381">
        <ele>231.6</ele>
        <time>2022-02-10T13:30:41Z</time>
      </trkpt>
      <trkpt lat="46.46507" lon="5.29301">
        <ele>231.4</ele>
        <time>2022-02-10T13:30:49Z</time>
      </trkpt>
      <trkpt lat="46.46503" lon="5.29284">
        <ele>231.4</ele>
        <time>2022-02-10T13:30:51Z</time>
      </trkpt>
      <trkpt lat="46.46485" lon="5.29204">
        <ele>231.6</ele>
        <time>2022-02-10T13:31:00Z</time>
      </trkpt>
      <trkpt lat="46.46483" lon="5.29195">
        <ele>231.6</ele>
        <time>2022-02-10T13:31:01Z</time>
      </trkpt>
      <trkpt lat="46.46476" lon="5.29163">
        <ele>232.4</ele>
        <time>2022-02-10T13:31:05Z</time>
      </trkpt>
      <trkpt lat="46.46474" lon="5.29155">
        <ele>232.8</ele>
        <time>2022-02-10T13:31:06Z</time>
      </trkpt>
      <trkpt lat="46.46463" lon="5.29104">
        <ele>233.2</ele>
        <time>2022-02-10T13:31:12Z</time>
      </trkpt>
      <trkpt lat="46.46458" lon="5.29078">
        <ele>233.6</ele>
        <time>2022-02-10T13:31:15Z</time>
      </trkpt>
      <trkpt lat="46.46448" lon="5.29026">
        <ele>233.8</ele>
        <time>2022-02-10T13:31:21Z</time>
      </trkpt>
      <trkpt lat="46.46432" lon="5.28945">
        <ele>233.8</ele>
        <time>2022-02-10T13:31:30Z</time>
      </trkpt>
      <trkpt lat="46.46421" lon="5.28894">
        <ele>233.6</ele>
        <time>2022-02-10T13:31:35Z</time>
      </trkpt>
      <trkpt lat="46.46418" lon="5.28884">
        <ele>233.4</ele>
        <time>2022-02-10T13:31:36Z</time>
      </trkpt>
      <trkpt lat="46.46412" lon="5.28865">
        <ele>233.2</ele>
        <time>2022-02-10T13:31:38Z</time>
      </trkpt>
      <trkpt lat="46.46401" lon="5.28838">
        <ele>233</ele>
        <time>2022-02-10T13:31:41Z</time>
      </trkpt>
      <trkpt lat="46.4639" lon="5.28814">
        <ele>232.8</ele>
        <time>2022-02-10T13:31:44Z</time>
      </trkpt>
      <trkpt lat="46.46379" lon="5.28801">
        <ele>232.8</ele>
        <time>2022-02-10T13:31:46Z</time>
      </trkpt>
      <trkpt lat="46.46368" lon="5.2879">
        <ele>232.6</ele>
        <time>2022-02-10T13:31:48Z</time>
      </trkpt>
      <trkpt lat="46.46339" lon="5.28767">
        <ele>231.6</ele>
        <time>2022-02-10T13:31:53Z</time>
      </trkpt>
      <trkpt lat="46.46331" lon="5.28762">
        <ele>231.4</ele>
        <time>2022-02-10T13:31:54Z</time>
      </trkpt>
      <trkpt lat="46.46289" lon="5.28734">
        <ele>230.2</ele>
        <time>2022-02-10T13:32:00Z</time>
      </trkpt>
      <trkpt lat="46.46276" lon="5.28725">
        <ele>229.8</ele>
        <time>2022-02-10T13:32:02Z</time>
      </trkpt>
      <trkpt lat="46.46254" lon="5.2871">
        <ele>228.8</ele>
        <time>2022-02-10T13:32:05Z</time>
      </trkpt>
      <trkpt lat="46.46233" lon="5.28694">
        <ele>228.2</ele>
        <time>2022-02-10T13:32:08Z</time>
      </trkpt>
      <trkpt lat="46.46229" lon="5.28688">
        <ele>228</ele>
        <time>2022-02-10T13:32:09Z</time>
      </trkpt>
      <trkpt lat="46.46225" lon="5.28679">
        <ele>227.6</ele>
        <time>2022-02-10T13:32:10Z</time>
      </trkpt>
      <trkpt lat="46.46221" lon="5.28661">
        <ele>227</ele>
        <time>2022-02-10T13:32:12Z</time>
      </trkpt>
      <trkpt lat="46.46218" lon="5.28638">
        <ele>226.2</ele>
        <time>2022-02-10T13:32:14Z</time>
      </trkpt>
      <trkpt lat="46.46215" lon="5.28613">
        <ele>225.2</ele>
        <time>2022-02-10T13:32:16Z</time>
      </trkpt>
      <trkpt lat="46.46209" lon="5.28572">
        <ele>224</ele>
        <time>2022-02-10T13:32:19Z</time>
      </trkpt>
      <trkpt lat="46.46205" lon="5.28544">
        <ele>222.8</ele>
        <time>2022-02-10T13:32:21Z</time>
      </trkpt>
      <trkpt lat="46.46203" lon="5.2853">
        <ele>222.2</ele>
        <time>2022-02-10T13:32:22Z</time>
      </trkpt>
      <trkpt lat="46.46201" lon="5.28515">
        <ele>221.4</ele>
        <time>2022-02-10T13:32:23Z</time>
      </trkpt>
      <trkpt lat="46.46194" lon="5.2847">
        <ele>219.8</ele>
        <time>2022-02-10T13:32:26Z</time>
      </trkpt>
      <trkpt lat="46.46191" lon="5.28443">
        <ele>218.6</ele>
        <time>2022-02-10T13:32:28Z</time>
      </trkpt>
      <trkpt lat="46.46188" lon="5.28425">
        <ele>218.2</ele>
        <time>2022-02-10T13:32:29Z</time>
      </trkpt>
      <trkpt lat="46.46184" lon="5.28395">
        <ele>217.6</ele>
        <time>2022-02-10T13:32:31Z</time>
      </trkpt>
      <trkpt lat="46.4618" lon="5.28367">
        <ele>216.2</ele>
        <time>2022-02-10T13:32:33Z</time>
      </trkpt>
      <trkpt lat="46.46172" lon="5.28318">
        <ele>215</ele>
        <time>2022-02-10T13:32:37Z</time>
      </trkpt>
      <trkpt lat="46.46168" lon="5.28262">
        <ele>215.2</ele>
        <time>2022-02-10T13:32:42Z</time>
      </trkpt>
      <trkpt lat="46.46169" lon="5.28243">
        <ele>215.6</ele>
        <time>2022-02-10T13:32:44Z</time>
      </trkpt>
      <trkpt lat="46.46171" lon="5.28226">
        <ele>216</ele>
        <time>2022-02-10T13:32:46Z</time>
      </trkpt>
      <trkpt lat="46.46173" lon="5.28217">
        <ele>216</ele>
        <time>2022-02-10T13:32:47Z</time>
      </trkpt>
      <trkpt lat="46.46178" lon="5.28193">
        <ele>217.2</ele>
        <time>2022-02-10T13:32:50Z</time>
      </trkpt>
      <trkpt lat="46.46184" lon="5.28159">
        <ele>218.2</ele>
        <time>2022-02-10T13:32:54Z</time>
      </trkpt>
      <trkpt lat="46.46191" lon="5.2809">
        <ele>219.2</ele>
        <time>2022-02-10T13:33:01Z</time>
      </trkpt>
      <trkpt lat="46.46193" lon="5.2806">
        <ele>219.2</ele>
        <time>2022-02-10T13:33:04Z</time>
      </trkpt>
      <trkpt lat="46.46195" lon="5.28033">
        <ele>219.2</ele>
        <time>2022-02-10T13:33:07Z</time>
      </trkpt>
      <trkpt lat="46.46195" lon="5.28008">
        <ele>219.2</ele>
        <time>2022-02-10T13:33:10Z</time>
      </trkpt>
      <trkpt lat="46.46192" lon="5.28002">
        <ele>219.2</ele>
        <time>2022-02-10T13:33:11Z</time>
      </trkpt>
      <trkpt lat="46.46188" lon="5.27997">
        <ele>219.4</ele>
        <time>2022-02-10T13:33:12Z</time>
      </trkpt>
      <trkpt lat="46.46169" lon="5.27984">
        <ele>219.4</ele>
        <time>2022-02-10T13:33:15Z</time>
      </trkpt>
      <trkpt lat="46.4614" lon="5.2796">
        <ele>219.2</ele>
        <time>2022-02-10T13:33:19Z</time>
      </trkpt>
      <trkpt lat="46.46133" lon="5.27949">
        <ele>219</ele>
        <time>2022-02-10T13:33:20Z</time>
      </trkpt>
      <trkpt lat="46.46128" lon="5.27936">
        <ele>218.4</ele>
        <time>2022-02-10T13:33:21Z</time>
      </trkpt>
      <trkpt lat="46.46126" lon="5.27921">
        <ele>218.2</ele>
        <time>2022-02-10T13:33:22Z</time>
      </trkpt>
      <trkpt lat="46.46125" lon="5.27905">
        <ele>217.2</ele>
        <time>2022-02-10T13:33:23Z</time>
      </trkpt>
      <trkpt lat="46.46124" lon="5.27873">
        <ele>215.2</ele>
        <time>2022-02-10T13:33:25Z</time>
      </trkpt>
      <trkpt lat="46.46123" lon="5.27839">
        <ele>213.2</ele>
        <time>2022-02-10T13:33:27Z</time>
      </trkpt>
      <trkpt lat="46.46123" lon="5.27822">
        <ele>212.2</ele>
        <time>2022-02-10T13:33:28Z</time>
      </trkpt>
      <trkpt lat="46.46123" lon="5.27789">
        <ele>210.8</ele>
        <time>2022-02-10T13:33:30Z</time>
      </trkpt>
      <trkpt lat="46.46124" lon="5.2774">
        <ele>209.4</ele>
        <time>2022-02-10T13:33:33Z</time>
      </trkpt>
      <trkpt lat="46.46124" lon="5.27692">
        <ele>208.2</ele>
        <time>2022-02-10T13:33:36Z</time>
      </trkpt>
      <trkpt lat="46.46125" lon="5.27677">
        <ele>207.2</ele>
        <time>2022-02-10T13:33:37Z</time>
      </trkpt>
      <trkpt lat="46.46126" lon="5.27647">
        <ele>206.2</ele>
        <time>2022-02-10T13:33:39Z</time>
      </trkpt>
      <trkpt lat="46.46126" lon="5.27633">
        <ele>206</ele>
        <time>2022-02-10T13:33:40Z</time>
      </trkpt>
      <trkpt lat="46.46127" lon="5.27594">
        <ele>204.8</ele>
        <time>2022-02-10T13:33:43Z</time>
      </trkpt>
      <trkpt lat="46.46128" lon="5.27551">
        <ele>204.4</ele>
        <time>2022-02-10T13:33:46Z</time>
      </trkpt>
      <trkpt lat="46.46131" lon="5.27464">
        <ele>203.8</ele>
        <time>2022-02-10T13:33:53Z</time>
      </trkpt>
      <trkpt lat="46.46131" lon="5.27452">
        <ele>203.6</ele>
        <time>2022-02-10T13:33:54Z</time>
      </trkpt>
      <trkpt lat="46.46133" lon="5.27372">
        <ele>203.6</ele>
        <time>2022-02-10T13:34:01Z</time>
      </trkpt>
      <trkpt lat="46.46133" lon="5.27363">
        <ele>203.4</ele>
        <time>2022-02-10T13:34:02Z</time>
      </trkpt>
      <trkpt lat="46.46135" lon="5.27275">
        <ele>203.4</ele>
        <time>2022-02-10T13:34:10Z</time>
      </trkpt>
      <trkpt lat="46.46136" lon="5.27243">
        <ele>203</ele>
        <time>2022-02-10T13:34:13Z</time>
      </trkpt>
      <trkpt lat="46.46138" lon="5.27157">
        <ele>203.2</ele>
        <time>2022-02-10T13:34:21Z</time>
      </trkpt>
      <trkpt lat="46.46141" lon="5.27085">
        <ele>203.6</ele>
        <time>2022-02-10T13:34:29Z</time>
      </trkpt>
      <trkpt lat="46.46142" lon="5.27005">
        <ele>204.6</ele>
        <time>2022-02-10T13:34:38Z</time>
      </trkpt>
      <trkpt lat="46.46142" lon="5.26996">
        <ele>204.6</ele>
        <time>2022-02-10T13:34:39Z</time>
      </trkpt>
      <trkpt lat="46.46144" lon="5.26925">
        <ele>204.8</ele>
        <time>2022-02-10T13:34:46Z</time>
      </trkpt>
      <trkpt lat="46.46147" lon="5.26846">
        <ele>204.4</ele>
        <time>2022-02-10T13:34:54Z</time>
      </trkpt>
      <trkpt lat="46.46147" lon="5.26838">
        <ele>204.4</ele>
        <time>2022-02-10T13:34:55Z</time>
      </trkpt>
      <trkpt lat="46.46149" lon="5.26774">
        <ele>205</ele>
        <time>2022-02-10T13:35:03Z</time>
      </trkpt>
      <trkpt lat="46.46151" lon="5.26712">
        <ele>206</ele>
        <time>2022-02-10T13:35:11Z</time>
      </trkpt>
      <trkpt lat="46.46151" lon="5.26702">
        <ele>206.2</ele>
        <time>2022-02-10T13:35:12Z</time>
      </trkpt>
      <trkpt lat="46.46153" lon="5.26655">
        <ele>207.6</ele>
        <time>2022-02-10T13:35:19Z</time>
      </trkpt>
      <trkpt lat="46.46154" lon="5.26636">
        <ele>208</ele>
        <time>2022-02-10T13:35:22Z</time>
      </trkpt>
      <trkpt lat="46.46155" lon="5.26626">
        <ele>208.6</ele>
        <time>2022-02-10T13:35:24Z</time>
      </trkpt>
      <trkpt lat="46.46156" lon="5.2662">
        <ele>208.8</ele>
        <time>2022-02-10T13:35:25Z</time>
      </trkpt>
      <trkpt lat="46.46156" lon="5.26615">
        <ele>209</ele>
        <time>2022-02-10T13:35:26Z</time>
      </trkpt>
      <trkpt lat="46.46157" lon="5.26605">
        <ele>209.6</ele>
        <time>2022-02-10T13:35:28Z</time>
      </trkpt>
      <trkpt lat="46.46158" lon="5.2658">
        <ele>210.6</ele>
        <time>2022-02-10T13:35:33Z</time>
      </trkpt>
      <trkpt lat="46.46159" lon="5.26575">
        <ele>210.8</ele>
        <time>2022-02-10T13:35:34Z</time>
      </trkpt>
      <trkpt lat="46.46161" lon="5.26554">
        <ele>211.8</ele>
        <time>2022-02-10T13:35:38Z</time>
      </trkpt>
      <trkpt lat="46.46163" lon="5.2653">
        <ele>212.6</ele>
        <time>2022-02-10T13:35:43Z</time>
      </trkpt>
      <trkpt lat="46.46164" lon="5.26525">
        <ele>212.8</ele>
        <time>2022-02-10T13:35:44Z</time>
      </trkpt>
      <trkpt lat="46.46166" lon="5.26499">
        <ele>213.8</ele>
        <time>2022-02-10T13:35:49Z</time>
      </trkpt>
      <trkpt lat="46.46167" lon="5.26484">
        <ele>214.4</ele>
        <time>2022-02-10T13:35:52Z</time>
      </trkpt>
      <trkpt lat="46.46169" lon="5.2647">
        <ele>215</ele>
        <time>2022-02-10T13:35:55Z</time>
      </trkpt>
      <trkpt lat="46.46171" lon="5.2644">
        <ele>216.2</ele>
        <time>2022-02-10T13:36:01Z</time>
      </trkpt>
      <trkpt lat="46.46174" lon="5.26412">
        <ele>217.4</ele>
        <time>2022-02-10T13:36:07Z</time>
      </trkpt>
      <trkpt lat="46.46175" lon="5.26407">
        <ele>217.6</ele>
        <time>2022-02-10T13:36:08Z</time>
      </trkpt>
      <trkpt lat="46.46178" lon="5.26377">
        <ele>218.6</ele>
        <time>2022-02-10T13:36:14Z</time>
      </trkpt>
      <trkpt lat="46.4618" lon="5.26357">
        <ele>219.4</ele>
        <time>2022-02-10T13:36:18Z</time>
      </trkpt>
      <trkpt lat="46.4618" lon="5.26353">
        <ele>219.6</ele>
        <time>2022-02-10T13:36:19Z</time>
      </trkpt>
      <trkpt lat="46.46183" lon="5.26324">
        <ele>220.8</ele>
        <time>2022-02-10T13:36:25Z</time>
      </trkpt>
      <trkpt lat="46.46184" lon="5.26314">
        <ele>221.4</ele>
        <time>2022-02-10T13:36:27Z</time>
      </trkpt>
      <trkpt lat="46.46185" lon="5.263">
        <ele>221.8</ele>
        <time>2022-02-10T13:36:30Z</time>
      </trkpt>
      <trkpt lat="46.46187" lon="5.26281">
        <ele>223</ele>
        <time>2022-02-10T13:36:34Z</time>
      </trkpt>
      <trkpt lat="46.46188" lon="5.26265">
        <ele>223.6</ele>
        <time>2022-02-10T13:36:37Z</time>
      </trkpt>
      <trkpt lat="46.46186" lon="5.26253">
        <ele>224</ele>
        <time>2022-02-10T13:36:40Z</time>
      </trkpt>
      <trkpt lat="46.46183" lon="5.26249">
        <ele>224.4</ele>
        <time>2022-02-10T13:36:41Z</time>
      </trkpt>
      <trkpt lat="46.46169" lon="5.26238">
        <ele>225.4</ele>
        <time>2022-02-10T13:36:45Z</time>
      </trkpt>
      <trkpt lat="46.46157" lon="5.26231">
        <ele>226</ele>
        <time>2022-02-10T13:36:48Z</time>
      </trkpt>
      <trkpt lat="46.4614" lon="5.26222">
        <ele>226.4</ele>
        <time>2022-02-10T13:36:52Z</time>
      </trkpt>
      <trkpt lat="46.46128" lon="5.26215">
        <ele>226.6</ele>
        <time>2022-02-10T13:36:55Z</time>
      </trkpt>
      <trkpt lat="46.46123" lon="5.26212">
        <ele>226.8</ele>
        <time>2022-02-10T13:36:56Z</time>
      </trkpt>
      <trkpt lat="46.46119" lon="5.2621">
        <ele>227</ele>
        <time>2022-02-10T13:36:57Z</time>
      </trkpt>
      <trkpt lat="46.46107" lon="5.26204">
        <ele>227.2</ele>
        <time>2022-02-10T13:37:00Z</time>
      </trkpt>
      <trkpt lat="46.46098" lon="5.26198">
        <ele>227.4</ele>
        <time>2022-02-10T13:37:02Z</time>
      </trkpt>
      <trkpt lat="46.46086" lon="5.26192">
        <ele>228</ele>
        <time>2022-02-10T13:37:05Z</time>
      </trkpt>
      <trkpt lat="46.46073" lon="5.26185">
        <ele>228.2</ele>
        <time>2022-02-10T13:37:08Z</time>
      </trkpt>
      <trkpt lat="46.46069" lon="5.26183">
        <ele>228.2</ele>
        <time>2022-02-10T13:37:09Z</time>
      </trkpt>
      <trkpt lat="46.46065" lon="5.26181">
        <ele>228.2</ele>
        <time>2022-02-10T13:37:10Z</time>
      </trkpt>
      <trkpt lat="46.46057" lon="5.26177">
        <ele>228.4</ele>
        <time>2022-02-10T13:37:12Z</time>
      </trkpt>
      <trkpt lat="46.46053" lon="5.26175">
        <ele>228.4</ele>
        <time>2022-02-10T13:37:13Z</time>
      </trkpt>
      <trkpt lat="46.46044" lon="5.26171">
        <ele>228.6</ele>
        <time>2022-02-10T13:37:15Z</time>
      </trkpt>
      <trkpt lat="46.4604" lon="5.26169">
        <ele>228.8</ele>
        <time>2022-02-10T13:37:16Z</time>
      </trkpt>
      <trkpt lat="46.46016" lon="5.26165">
        <ele>229</ele>
        <time>2022-02-10T13:37:21Z</time>
      </trkpt>
      <trkpt lat="46.45979" lon="5.26163">
        <ele>229.4</ele>
        <time>2022-02-10T13:37:29Z</time>
      </trkpt>
      <trkpt lat="46.45975" lon="5.26163">
        <ele>229.6</ele>
        <time>2022-02-10T13:37:30Z</time>
      </trkpt>
      <trkpt lat="46.45947" lon="5.26163">
        <ele>230.6</ele>
        <time>2022-02-10T13:37:36Z</time>
      </trkpt>
      <trkpt lat="46.45938" lon="5.26162">
        <ele>230.6</ele>
        <time>2022-02-10T13:37:38Z</time>
      </trkpt>
      <trkpt lat="46.45884" lon="5.26161">
        <ele>231.4</ele>
        <time>2022-02-10T13:37:49Z</time>
      </trkpt>
      <trkpt lat="46.45878" lon="5.26161">
        <ele>231.6</ele>
        <time>2022-02-10T13:37:50Z</time>
      </trkpt>
      <trkpt lat="46.45839" lon="5.26161">
        <ele>231.8</ele>
        <time>2022-02-10T13:37:57Z</time>
      </trkpt>
      <trkpt lat="46.45787" lon="5.26161">
        <ele>231.8</ele>
        <time>2022-02-10T13:38:06Z</time>
      </trkpt>
      <trkpt lat="46.45781" lon="5.26162">
        <ele>231.6</ele>
        <time>2022-02-10T13:38:07Z</time>
      </trkpt>
      <trkpt lat="46.4577" lon="5.26167">
        <ele>231.6</ele>
        <time>2022-02-10T13:38:09Z</time>
      </trkpt>
      <trkpt lat="46.45765" lon="5.26171">
        <ele>231.6</ele>
        <time>2022-02-10T13:38:10Z</time>
      </trkpt>
      <trkpt lat="46.45761" lon="5.26177">
        <ele>231.4</ele>
        <time>2022-02-10T13:38:11Z</time>
      </trkpt>
      <trkpt lat="46.45754" lon="5.2619">
        <ele>231.4</ele>
        <time>2022-02-10T13:38:13Z</time>
      </trkpt>
      <trkpt lat="46.45752" lon="5.26198">
        <ele>231.2</ele>
        <time>2022-02-10T13:38:14Z</time>
      </trkpt>
      <trkpt lat="46.45737" lon="5.26257">
        <ele>231.6</ele>
        <time>2022-02-10T13:38:21Z</time>
      </trkpt>
      <trkpt lat="46.45717" lon="5.26337">
        <ele>231.2</ele>
        <time>2022-02-10T13:38:30Z</time>
      </trkpt>
      <trkpt lat="46.45715" lon="5.26347">
        <ele>231.2</ele>
        <time>2022-02-10T13:38:31Z</time>
      </trkpt>
      <trkpt lat="46.45703" lon="5.26414">
        <ele>230.8</ele>
        <time>2022-02-10T13:38:38Z</time>
      </trkpt>
      <trkpt lat="46.45699" lon="5.26443">
        <ele>230.8</ele>
        <time>2022-02-10T13:38:41Z</time>
      </trkpt>
      <trkpt lat="46.45691" lon="5.26501">
        <ele>230.4</ele>
        <time>2022-02-10T13:38:47Z</time>
      </trkpt>
      <trkpt lat="46.45677" lon="5.26561">
        <ele>228.6</ele>
        <time>2022-02-10T13:38:53Z</time>
      </trkpt>
      <trkpt lat="46.45655" lon="5.26608">
        <ele>228.6</ele>
        <time>2022-02-10T13:38:58Z</time>
      </trkpt>
      <trkpt lat="46.45649" lon="5.26616">
        <ele>228.4</ele>
        <time>2022-02-10T13:38:59Z</time>
      </trkpt>
      <trkpt lat="46.45635" lon="5.26628">
        <ele>228</ele>
        <time>2022-02-10T13:39:01Z</time>
      </trkpt>
      <trkpt lat="46.45612" lon="5.26637">
        <ele>227.2</ele>
        <time>2022-02-10T13:39:04Z</time>
      </trkpt>
      <trkpt lat="46.45605" lon="5.26639">
        <ele>226.8</ele>
        <time>2022-02-10T13:39:05Z</time>
      </trkpt>
      <trkpt lat="46.4559" lon="5.26643">
        <ele>226</ele>
        <time>2022-02-10T13:39:07Z</time>
      </trkpt>
      <trkpt lat="46.45562" lon="5.26646">
        <ele>225.8</ele>
        <time>2022-02-10T13:39:11Z</time>
      </trkpt>
      <trkpt lat="46.45523" lon="5.26634">
        <ele>226</ele>
        <time>2022-02-10T13:39:17Z</time>
      </trkpt>
      <trkpt lat="46.45469" lon="5.2661">
        <ele>226.8</ele>
        <time>2022-02-10T13:39:26Z</time>
      </trkpt>
      <trkpt lat="46.45453" lon="5.266">
        <ele>227.2</ele>
        <time>2022-02-10T13:39:29Z</time>
      </trkpt>
      <trkpt lat="46.45427" lon="5.26586">
        <ele>228.2</ele>
        <time>2022-02-10T13:39:34Z</time>
      </trkpt>
      <trkpt lat="46.45422" lon="5.26583">
        <ele>228.2</ele>
        <time>2022-02-10T13:39:35Z</time>
      </trkpt>
      <trkpt lat="46.45387" lon="5.26567">
        <ele>229</ele>
        <time>2022-02-10T13:39:42Z</time>
      </trkpt>
      <trkpt lat="46.4537" lon="5.2656">
        <ele>229.2</ele>
        <time>2022-02-10T13:39:45Z</time>
      </trkpt>
      <trkpt lat="46.45342" lon="5.26552">
        <ele>229.4</ele>
        <time>2022-02-10T13:39:50Z</time>
      </trkpt>
      <trkpt lat="46.45295" lon="5.26547">
        <ele>229.6</ele>
        <time>2022-02-10T13:39:58Z</time>
      </trkpt>
      <trkpt lat="46.45235" lon="5.26557">
        <ele>229.4</ele>
        <time>2022-02-10T13:40:08Z</time>
      </trkpt>
      <trkpt lat="46.45191" lon="5.26554">
        <ele>229.4</ele>
        <time>2022-02-10T13:40:15Z</time>
      </trkpt>
      <trkpt lat="46.45156" lon="5.26541">
        <ele>229.2</ele>
        <time>2022-02-10T13:40:21Z</time>
      </trkpt>
      <trkpt lat="46.45103" lon="5.26521">
        <ele>229.8</ele>
        <time>2022-02-10T13:40:30Z</time>
      </trkpt>
      <trkpt lat="46.4506" lon="5.26514">
        <ele>230</ele>
        <time>2022-02-10T13:40:37Z</time>
      </trkpt>
      <trkpt lat="46.45005" lon="5.26512">
        <ele>229.2</ele>
        <time>2022-02-10T13:40:45Z</time>
      </trkpt>
      <trkpt lat="46.44954" lon="5.26516">
        <ele>228.4</ele>
        <time>2022-02-10T13:40:52Z</time>
      </trkpt>
      <trkpt lat="46.44932" lon="5.26526">
        <ele>228.2</ele>
        <time>2022-02-10T13:40:55Z</time>
      </trkpt>
      <trkpt lat="46.44913" lon="5.26536">
        <ele>228.2</ele>
        <time>2022-02-10T13:40:58Z</time>
      </trkpt>
      <trkpt lat="46.44881" lon="5.26551">
        <ele>227.8</ele>
        <time>2022-02-10T13:41:03Z</time>
      </trkpt>
      <trkpt lat="46.44875" lon="5.26556">
        <ele>227.8</ele>
        <time>2022-02-10T13:41:04Z</time>
      </trkpt>
      <trkpt lat="46.44851" lon="5.26584">
        <ele>228.2</ele>
        <time>2022-02-10T13:41:09Z</time>
      </trkpt>
      <trkpt lat="46.44848" lon="5.2659">
        <ele>228.2</ele>
        <time>2022-02-10T13:41:10Z</time>
      </trkpt>
      <trkpt lat="46.44842" lon="5.26602">
        <ele>228.6</ele>
        <time>2022-02-10T13:41:12Z</time>
      </trkpt>
      <trkpt lat="46.4484" lon="5.2661">
        <ele>228.6</ele>
        <time>2022-02-10T13:41:13Z</time>
      </trkpt>
      <trkpt lat="46.44835" lon="5.26632">
        <ele>229.4</ele>
        <time>2022-02-10T13:41:16Z</time>
      </trkpt>
      <trkpt lat="46.44831" lon="5.26645">
        <ele>230.2</ele>
        <time>2022-02-10T13:41:18Z</time>
      </trkpt>
      <trkpt lat="46.44823" lon="5.26655">
        <ele>230.6</ele>
        <time>2022-02-10T13:41:20Z</time>
      </trkpt>
      <trkpt lat="46.44818" lon="5.26658">
        <ele>230.6</ele>
        <time>2022-02-10T13:41:21Z</time>
      </trkpt>
      <trkpt lat="46.44812" lon="5.26659">
        <ele>230.8</ele>
        <time>2022-02-10T13:41:22Z</time>
      </trkpt>
      <trkpt lat="46.44802" lon="5.2666">
        <ele>231</ele>
        <time>2022-02-10T13:41:24Z</time>
      </trkpt>
      <trkpt lat="46.44796" lon="5.26662">
        <ele>231.2</ele>
        <time>2022-02-10T13:41:25Z</time>
      </trkpt>
      <trkpt lat="46.44791" lon="5.26664">
        <ele>231.4</ele>
        <time>2022-02-10T13:41:26Z</time>
      </trkpt>
      <trkpt lat="46.44785" lon="5.26667">
        <ele>231.6</ele>
        <time>2022-02-10T13:41:27Z</time>
      </trkpt>
      <trkpt lat="46.44768" lon="5.26681">
        <ele>231.6</ele>
        <time>2022-02-10T13:41:30Z</time>
      </trkpt>
      <trkpt lat="46.44755" lon="5.26689">
        <ele>231.6</ele>
        <time>2022-02-10T13:41:32Z</time>
      </trkpt>
      <trkpt lat="46.44733" lon="5.26697">
        <ele>231.4</ele>
        <time>2022-02-10T13:41:35Z</time>
      </trkpt>
      <trkpt lat="46.44707" lon="5.26704">
        <ele>230.4</ele>
        <time>2022-02-10T13:41:38Z</time>
      </trkpt>
      <trkpt lat="46.44699" lon="5.26704">
        <ele>230</ele>
        <time>2022-02-10T13:41:39Z</time>
      </trkpt>
      <trkpt lat="46.4469" lon="5.26704">
        <ele>229.2</ele>
        <time>2022-02-10T13:41:40Z</time>
      </trkpt>
      <trkpt lat="46.44681" lon="5.26702">
        <ele>228.6</ele>
        <time>2022-02-10T13:41:41Z</time>
      </trkpt>
      <trkpt lat="46.44665" lon="5.26696">
        <ele>227.8</ele>
        <time>2022-02-10T13:41:43Z</time>
      </trkpt>
      <trkpt lat="46.4463" lon="5.26673">
        <ele>227.2</ele>
        <time>2022-02-10T13:41:48Z</time>
      </trkpt>
      <trkpt lat="46.44594" lon="5.26648">
        <ele>227.2</ele>
        <time>2022-02-10T13:41:54Z</time>
      </trkpt>
      <trkpt lat="46.44589" lon="5.26645">
        <ele>227.4</ele>
        <time>2022-02-10T13:41:55Z</time>
      </trkpt>
      <trkpt lat="46.44574" lon="5.26637">
        <ele>228</ele>
        <time>2022-02-10T13:41:58Z</time>
      </trkpt>
      <trkpt lat="46.44569" lon="5.26636">
        <ele>228.4</ele>
        <time>2022-02-10T13:41:59Z</time>
      </trkpt>
      <trkpt lat="46.44559" lon="5.26635">
        <ele>229</ele>
        <time>2022-02-10T13:42:01Z</time>
      </trkpt>
      <trkpt lat="46.44554" lon="5.26635">
        <ele>229.2</ele>
        <time>2022-02-10T13:42:02Z</time>
      </trkpt>
      <trkpt lat="46.44542" lon="5.26639">
        <ele>229.6</ele>
        <time>2022-02-10T13:42:04Z</time>
      </trkpt>
      <trkpt lat="46.44518" lon="5.26653">
        <ele>230</ele>
        <time>2022-02-10T13:42:08Z</time>
      </trkpt>
      <trkpt lat="46.44513" lon="5.26659">
        <ele>230.2</ele>
        <time>2022-02-10T13:42:09Z</time>
      </trkpt>
      <trkpt lat="46.44485" lon="5.26695">
        <ele>229.8</ele>
        <time>2022-02-10T13:42:14Z</time>
      </trkpt>
      <trkpt lat="46.44472" lon="5.26709">
        <ele>229.2</ele>
        <time>2022-02-10T13:42:16Z</time>
      </trkpt>
      <trkpt lat="46.44464" lon="5.26715">
        <ele>228.6</ele>
        <time>2022-02-10T13:42:17Z</time>
      </trkpt>
      <trkpt lat="46.44455" lon="5.26718">
        <ele>228</ele>
        <time>2022-02-10T13:42:18Z</time>
      </trkpt>
      <trkpt lat="46.44438" lon="5.26723">
        <ele>227.2</ele>
        <time>2022-02-10T13:42:20Z</time>
      </trkpt>
      <trkpt lat="46.44412" lon="5.2673">
        <ele>226</ele>
        <time>2022-02-10T13:42:23Z</time>
      </trkpt>
      <trkpt lat="46.44394" lon="5.26735">
        <ele>225.2</ele>
        <time>2022-02-10T13:42:25Z</time>
      </trkpt>
      <trkpt lat="46.44386" lon="5.2674">
        <ele>224.2</ele>
        <time>2022-02-10T13:42:26Z</time>
      </trkpt>
      <trkpt lat="46.4437" lon="5.26755">
        <ele>223.4</ele>
        <time>2022-02-10T13:42:28Z</time>
      </trkpt>
      <trkpt lat="46.44364" lon="5.26765">
        <ele>223</ele>
        <time>2022-02-10T13:42:29Z</time>
      </trkpt>
      <trkpt lat="46.44358" lon="5.26776">
        <ele>222.8</ele>
        <time>2022-02-10T13:42:30Z</time>
      </trkpt>
      <trkpt lat="46.44353" lon="5.26788">
        <ele>222.4</ele>
        <time>2022-02-10T13:42:31Z</time>
      </trkpt>
      <trkpt lat="46.44348" lon="5.268">
        <ele>222</ele>
        <time>2022-02-10T13:42:32Z</time>
      </trkpt>
      <trkpt lat="46.44334" lon="5.26818">
        <ele>220.6</ele>
        <time>2022-02-10T13:42:34Z</time>
      </trkpt>
      <trkpt lat="46.44316" lon="5.26827">
        <ele>220</ele>
        <time>2022-02-10T13:42:36Z</time>
      </trkpt>
      <trkpt lat="46.44308" lon="5.26829">
        <ele>219.6</ele>
        <time>2022-02-10T13:42:37Z</time>
      </trkpt>
      <trkpt lat="46.44299" lon="5.26832">
        <ele>219.2</ele>
        <time>2022-02-10T13:42:38Z</time>
      </trkpt>
      <trkpt lat="46.44247" lon="5.26854">
        <ele>218.4</ele>
        <time>2022-02-10T13:42:44Z</time>
      </trkpt>
      <trkpt lat="46.44239" lon="5.2686">
        <ele>218.2</ele>
        <time>2022-02-10T13:42:45Z</time>
      </trkpt>
      <trkpt lat="46.44212" lon="5.2688">
        <ele>217.2</ele>
        <time>2022-02-10T13:42:48Z</time>
      </trkpt>
      <trkpt lat="46.44203" lon="5.26887">
        <ele>216.8</ele>
        <time>2022-02-10T13:42:49Z</time>
      </trkpt>
      <trkpt lat="46.44195" lon="5.26896">
        <ele>216</ele>
        <time>2022-02-10T13:42:50Z</time>
      </trkpt>
      <trkpt lat="46.4418" lon="5.26917">
        <ele>214.6</ele>
        <time>2022-02-10T13:42:52Z</time>
      </trkpt>
      <trkpt lat="46.44174" lon="5.26924">
        <ele>214</ele>
        <time>2022-02-10T13:42:53Z</time>
      </trkpt>
      <trkpt lat="46.44164" lon="5.2693">
        <ele>213.4</ele>
        <time>2022-02-10T13:42:54Z</time>
      </trkpt>
      <trkpt lat="46.44155" lon="5.26933">
        <ele>213</ele>
        <time>2022-02-10T13:42:55Z</time>
      </trkpt>
      <trkpt lat="46.44144" lon="5.26933">
        <ele>212.4</ele>
        <time>2022-02-10T13:42:56Z</time>
      </trkpt>
      <trkpt lat="46.44136" lon="5.26928">
        <ele>211.6</ele>
        <time>2022-02-10T13:42:57Z</time>
      </trkpt>
      <trkpt lat="46.44128" lon="5.26922">
        <ele>211.2</ele>
        <time>2022-02-10T13:42:58Z</time>
      </trkpt>
      <trkpt lat="46.441" lon="5.26894">
        <ele>210.2</ele>
        <time>2022-02-10T13:43:02Z</time>
      </trkpt>
      <trkpt lat="46.44062" lon="5.26858">
        <ele>210.2</ele>
        <time>2022-02-10T13:43:08Z</time>
      </trkpt>
      <trkpt lat="46.44034" lon="5.26832">
        <ele>210.4</ele>
        <time>2022-02-10T13:43:13Z</time>
      </trkpt>
      <trkpt lat="46.44004" lon="5.26804">
        <ele>211</ele>
        <time>2022-02-10T13:43:19Z</time>
      </trkpt>
      <trkpt lat="46.43999" lon="5.268">
        <ele>211.4</ele>
        <time>2022-02-10T13:43:20Z</time>
      </trkpt>
      <trkpt lat="46.43986" lon="5.2679">
        <ele>211.6</ele>
        <time>2022-02-10T13:43:23Z</time>
      </trkpt>
      <trkpt lat="46.43973" lon="5.26787">
        <ele>211.8</ele>
        <time>2022-02-10T13:43:25Z</time>
      </trkpt>
      <trkpt lat="46.43962" lon="5.26784">
        <ele>212</ele>
        <time>2022-02-10T13:43:27Z</time>
      </trkpt>
      <trkpt lat="46.43949" lon="5.26775">
        <ele>212.2</ele>
        <time>2022-02-10T13:43:29Z</time>
      </trkpt>
      <trkpt lat="46.43944" lon="5.2677">
        <ele>212.4</ele>
        <time>2022-02-10T13:43:30Z</time>
      </trkpt>
      <trkpt lat="46.4394" lon="5.26766">
        <ele>212.4</ele>
        <time>2022-02-10T13:43:31Z</time>
      </trkpt>
      <trkpt lat="46.43928" lon="5.26762">
        <ele>212.6</ele>
        <time>2022-02-10T13:43:33Z</time>
      </trkpt>
      <trkpt lat="46.43915" lon="5.26767">
        <ele>212.6</ele>
        <time>2022-02-10T13:43:35Z</time>
      </trkpt>
      <trkpt lat="46.4391" lon="5.26772">
        <ele>212.6</ele>
        <time>2022-02-10T13:43:36Z</time>
      </trkpt>
      <trkpt lat="46.43906" lon="5.26779">
        <ele>212.6</ele>
        <time>2022-02-10T13:43:37Z</time>
      </trkpt>
      <trkpt lat="46.43895" lon="5.268">
        <ele>212.8</ele>
        <time>2022-02-10T13:43:40Z</time>
      </trkpt>
      <trkpt lat="46.4388" lon="5.26814">
        <ele>212.8</ele>
        <time>2022-02-10T13:43:43Z</time>
      </trkpt>
      <trkpt lat="46.43876" lon="5.26819">
        <ele>212.8</ele>
        <time>2022-02-10T13:43:44Z</time>
      </trkpt>
      <trkpt lat="46.43872" lon="5.26824">
        <ele>213</ele>
        <time>2022-02-10T13:43:45Z</time>
      </trkpt>
      <trkpt lat="46.43867" lon="5.26837">
        <ele>213.2</ele>
        <time>2022-02-10T13:43:47Z</time>
      </trkpt>
      <trkpt lat="46.43865" lon="5.26851">
        <ele>213.4</ele>
        <time>2022-02-10T13:43:49Z</time>
      </trkpt>
      <trkpt lat="46.43864" lon="5.26867">
        <ele>213.6</ele>
        <time>2022-02-10T13:43:51Z</time>
      </trkpt>
      <trkpt lat="46.43859" lon="5.26911">
        <ele>214.6</ele>
        <time>2022-02-10T13:43:57Z</time>
      </trkpt>
      <trkpt lat="46.43852" lon="5.26933">
        <ele>215.2</ele>
        <time>2022-02-10T13:44:00Z</time>
      </trkpt>
      <trkpt lat="46.43842" lon="5.26954">
        <ele>215.4</ele>
        <time>2022-02-10T13:44:03Z</time>
      </trkpt>
      <trkpt lat="46.43833" lon="5.26967">
        <ele>215.2</ele>
        <time>2022-02-10T13:44:05Z</time>
      </trkpt>
      <trkpt lat="46.43821" lon="5.26977">
        <ele>215.2</ele>
        <time>2022-02-10T13:44:07Z</time>
      </trkpt>
      <trkpt lat="46.43808" lon="5.26985">
        <ele>215.2</ele>
        <time>2022-02-10T13:44:09Z</time>
      </trkpt>
      <trkpt lat="46.43794" lon="5.2699">
        <ele>215</ele>
        <time>2022-02-10T13:44:11Z</time>
      </trkpt>
      <trkpt lat="46.43773" lon="5.2699">
        <ele>214.2</ele>
        <time>2022-02-10T13:44:14Z</time>
      </trkpt>
      <trkpt lat="46.43766" lon="5.26988">
        <ele>213.8</ele>
        <time>2022-02-10T13:44:15Z</time>
      </trkpt>
      <trkpt lat="46.43753" lon="5.26983">
        <ele>213.4</ele>
        <time>2022-02-10T13:44:17Z</time>
      </trkpt>
      <trkpt lat="46.43721" lon="5.26971">
        <ele>213.2</ele>
        <time>2022-02-10T13:44:22Z</time>
      </trkpt>
      <trkpt lat="46.43674" lon="5.26953">
        <ele>213.4</ele>
        <time>2022-02-10T13:44:30Z</time>
      </trkpt>
      <trkpt lat="46.43622" lon="5.26934">
        <ele>214</ele>
        <time>2022-02-10T13:44:39Z</time>
      </trkpt>
      <trkpt lat="46.43566" lon="5.26915">
        <ele>214.8</ele>
        <time>2022-02-10T13:44:49Z</time>
      </trkpt>
      <trkpt lat="46.43555" lon="5.26913">
        <ele>214.8</ele>
        <time>2022-02-10T13:44:51Z</time>
      </trkpt>
      <trkpt lat="46.43503" lon="5.26904">
        <ele>215.2</ele>
        <time>2022-02-10T13:45:00Z</time>
      </trkpt>
      <trkpt lat="46.43459" lon="5.26895">
        <ele>215.8</ele>
        <time>2022-02-10T13:45:08Z</time>
      </trkpt>
      <trkpt lat="46.43448" lon="5.26893">
        <ele>216</ele>
        <time>2022-02-10T13:45:10Z</time>
      </trkpt>
      <trkpt lat="46.43403" lon="5.26883">
        <ele>217</ele>
        <time>2022-02-10T13:45:19Z</time>
      </trkpt>
      <trkpt lat="46.43398" lon="5.26882">
        <ele>217.2</ele>
        <time>2022-02-10T13:45:20Z</time>
      </trkpt>
      <trkpt lat="46.43364" lon="5.26874">
        <ele>218</ele>
        <time>2022-02-10T13:45:27Z</time>
      </trkpt>
      <trkpt lat="46.43354" lon="5.26873">
        <ele>218.2</ele>
        <time>2022-02-10T13:45:29Z</time>
      </trkpt>
      <trkpt lat="46.43301" lon="5.26871">
        <ele>218.8</ele>
        <time>2022-02-10T13:45:39Z</time>
      </trkpt>
      <trkpt lat="46.43244" lon="5.26874">
        <ele>218.8</ele>
        <time>2022-02-10T13:45:49Z</time>
      </trkpt>
      <trkpt lat="46.43189" lon="5.26866">
        <ele>219.2</ele>
        <time>2022-02-10T13:45:59Z</time>
      </trkpt>
      <trkpt lat="46.43184" lon="5.26865">
        <ele>219.4</ele>
        <time>2022-02-10T13:46:00Z</time>
      </trkpt>
      <trkpt lat="46.43151" lon="5.26855">
        <ele>220.6</ele>
        <time>2022-02-10T13:46:07Z</time>
      </trkpt>
      <trkpt lat="46.43122" lon="5.26847">
        <ele>221.6</ele>
        <time>2022-02-10T13:46:14Z</time>
      </trkpt>
      <trkpt lat="46.43111" lon="5.26845">
        <ele>222.8</ele>
        <time>2022-02-10T13:46:17Z</time>
      </trkpt>
      <trkpt lat="46.43096" lon="5.26842">
        <ele>223.8</ele>
        <time>2022-02-10T13:46:21Z</time>
      </trkpt>
      <trkpt lat="46.43078" lon="5.26838">
        <ele>225</ele>
        <time>2022-02-10T13:46:26Z</time>
      </trkpt>
      <trkpt lat="46.43063" lon="5.26837">
        <ele>226.2</ele>
        <time>2022-02-10T13:46:30Z</time>
      </trkpt>
      <trkpt lat="46.43041" lon="5.26836">
        <ele>227.2</ele>
        <time>2022-02-10T13:46:36Z</time>
      </trkpt>
      <trkpt lat="46.43029" lon="5.26836">
        <ele>227.8</ele>
        <time>2022-02-10T13:46:39Z</time>
      </trkpt>
      <trkpt lat="46.43017" lon="5.26837">
        <ele>228.4</ele>
        <time>2022-02-10T13:46:42Z</time>
      </trkpt>
      <trkpt lat="46.43002" lon="5.26839">
        <ele>229.4</ele>
        <time>2022-02-10T13:46:46Z</time>
      </trkpt>
      <trkpt lat="46.42993" lon="5.26839">
        <ele>229.8</ele>
        <time>2022-02-10T13:46:48Z</time>
      </trkpt>
      <trkpt lat="46.42981" lon="5.26841">
        <ele>230.4</ele>
        <time>2022-02-10T13:46:51Z</time>
      </trkpt>
      <trkpt lat="46.42956" lon="5.26844">
        <ele>231</ele>
        <time>2022-02-10T13:46:57Z</time>
      </trkpt>
      <trkpt lat="46.42943" lon="5.26847">
        <ele>231.6</ele>
        <time>2022-02-10T13:47:00Z</time>
      </trkpt>
      <trkpt lat="46.42909" lon="5.26851">
        <ele>232.2</ele>
        <time>2022-02-10T13:47:07Z</time>
      </trkpt>
      <trkpt lat="46.42861" lon="5.26856">
        <ele>232</ele>
        <time>2022-02-10T13:47:16Z</time>
      </trkpt>
      <trkpt lat="46.4281" lon="5.26851">
        <ele>231.6</ele>
        <time>2022-02-10T13:47:24Z</time>
      </trkpt>
      <trkpt lat="46.42774" lon="5.26843">
        <ele>230.4</ele>
        <time>2022-02-10T13:47:29Z</time>
      </trkpt>
      <trkpt lat="46.42766" lon="5.26841">
        <ele>230.2</ele>
        <time>2022-02-10T13:47:30Z</time>
      </trkpt>
      <trkpt lat="46.42749" lon="5.26837">
        <ele>229.4</ele>
        <time>2022-02-10T13:47:32Z</time>
      </trkpt>
      <trkpt lat="46.42723" lon="5.26831">
        <ele>228</ele>
        <time>2022-02-10T13:47:35Z</time>
      </trkpt>
      <trkpt lat="46.42705" lon="5.26826">
        <ele>227.2</ele>
        <time>2022-02-10T13:47:37Z</time>
      </trkpt>
      <trkpt lat="46.42696" lon="5.26824">
        <ele>226.8</ele>
        <time>2022-02-10T13:47:38Z</time>
      </trkpt>
      <trkpt lat="46.42667" lon="5.26817">
        <ele>225.4</ele>
        <time>2022-02-10T13:47:41Z</time>
      </trkpt>
      <trkpt lat="46.42637" lon="5.26809">
        <ele>223.8</ele>
        <time>2022-02-10T13:47:44Z</time>
      </trkpt>
      <trkpt lat="46.42617" lon="5.26804">
        <ele>222.6</ele>
        <time>2022-02-10T13:47:46Z</time>
      </trkpt>
      <trkpt lat="46.42596" lon="5.26799">
        <ele>221.4</ele>
        <time>2022-02-10T13:47:48Z</time>
      </trkpt>
      <trkpt lat="46.42575" lon="5.26794">
        <ele>220.2</ele>
        <time>2022-02-10T13:47:50Z</time>
      </trkpt>
      <trkpt lat="46.42554" lon="5.26789">
        <ele>219.2</ele>
        <time>2022-02-10T13:47:52Z</time>
      </trkpt>
      <trkpt lat="46.42525" lon="5.26782">
        <ele>217.8</ele>
        <time>2022-02-10T13:47:55Z</time>
      </trkpt>
      <trkpt lat="46.42498" lon="5.26776">
        <ele>217</ele>
        <time>2022-02-10T13:47:58Z</time>
      </trkpt>
      <trkpt lat="46.42451" lon="5.26764">
        <ele>216.8</ele>
        <time>2022-02-10T13:48:04Z</time>
      </trkpt>
      <trkpt lat="46.42406" lon="5.26753">
        <ele>217.2</ele>
        <time>2022-02-10T13:48:11Z</time>
      </trkpt>
      <trkpt lat="46.42377" lon="5.26746">
        <ele>218</ele>
        <time>2022-02-10T13:48:16Z</time>
      </trkpt>
      <trkpt lat="46.42365" lon="5.26744">
        <ele>218</ele>
        <time>2022-02-10T13:48:18Z</time>
      </trkpt>
      <trkpt lat="46.42317" lon="5.26733">
        <ele>218.8</ele>
        <time>2022-02-10T13:48:27Z</time>
      </trkpt>
      <trkpt lat="46.42306" lon="5.26731">
        <ele>219.2</ele>
        <time>2022-02-10T13:48:29Z</time>
      </trkpt>
      <trkpt lat="46.42271" lon="5.2672">
        <ele>220.2</ele>
        <time>2022-02-10T13:48:36Z</time>
      </trkpt>
      <trkpt lat="46.42266" lon="5.26718">
        <ele>220.4</ele>
        <time>2022-02-10T13:48:37Z</time>
      </trkpt>
      <trkpt lat="46.42234" lon="5.26708">
        <ele>221.6</ele>
        <time>2022-02-10T13:48:44Z</time>
      </trkpt>
      <trkpt lat="46.422" lon="5.26697">
        <ele>222.8</ele>
        <time>2022-02-10T13:48:51Z</time>
      </trkpt>
      <trkpt lat="46.42189" lon="5.26693">
        <ele>223</ele>
        <time>2022-02-10T13:48:53Z</time>
      </trkpt>
      <trkpt lat="46.42144" lon="5.26676">
        <ele>223.2</ele>
        <time>2022-02-10T13:49:01Z</time>
      </trkpt>
      <trkpt lat="46.42093" lon="5.26658">
        <ele>222.2</ele>
        <time>2022-02-10T13:49:09Z</time>
      </trkpt>
      <trkpt lat="46.42054" lon="5.26643">
        <ele>221.8</ele>
        <time>2022-02-10T13:49:15Z</time>
      </trkpt>
      <trkpt lat="46.42035" lon="5.26636">
        <ele>221.6</ele>
        <time>2022-02-10T13:49:18Z</time>
      </trkpt>
      <trkpt lat="46.4198" lon="5.26615">
        <ele>221.2</ele>
        <time>2022-02-10T13:49:27Z</time>
      </trkpt>
      <trkpt lat="46.41968" lon="5.2661">
        <ele>221.2</ele>
        <time>2022-02-10T13:49:29Z</time>
      </trkpt>
      <trkpt lat="46.41912" lon="5.26589">
        <ele>221</ele>
        <time>2022-02-10T13:49:38Z</time>
      </trkpt>
      <trkpt lat="46.419" lon="5.26583">
        <ele>220.8</ele>
        <time>2022-02-10T13:49:40Z</time>
      </trkpt>
      <trkpt lat="46.41881" lon="5.26575">
        <ele>220.8</ele>
        <time>2022-02-10T13:49:43Z</time>
      </trkpt>
      <trkpt lat="46.41835" lon="5.26556">
        <ele>220.4</ele>
        <time>2022-02-10T13:49:50Z</time>
      </trkpt>
      <trkpt lat="46.41789" lon="5.26537">
        <ele>219.6</ele>
        <time>2022-02-10T13:49:57Z</time>
      </trkpt>
      <trkpt lat="46.41783" lon="5.26535">
        <ele>219.6</ele>
        <time>2022-02-10T13:49:58Z</time>
      </trkpt>
      <trkpt lat="46.41726" lon="5.26513">
        <ele>219.4</ele>
        <time>2022-02-10T13:50:07Z</time>
      </trkpt>
      <trkpt lat="46.41677" lon="5.26502">
        <ele>219.6</ele>
        <time>2022-02-10T13:50:15Z</time>
      </trkpt>
      <trkpt lat="46.41628" lon="5.26507">
        <ele>219.2</ele>
        <time>2022-02-10T13:50:23Z</time>
      </trkpt>
      <trkpt lat="46.41581" lon="5.26527">
        <ele>219</ele>
        <time>2022-02-10T13:50:31Z</time>
      </trkpt>
      <trkpt lat="46.41537" lon="5.26563">
        <ele>218.8</ele>
        <time>2022-02-10T13:50:39Z</time>
      </trkpt>
      <trkpt lat="46.4149" lon="5.2661">
        <ele>219.4</ele>
        <time>2022-02-10T13:50:48Z</time>
      </trkpt>
      <trkpt lat="46.41481" lon="5.2662">
        <ele>219.6</ele>
        <time>2022-02-10T13:50:50Z</time>
      </trkpt>
      <trkpt lat="46.4145" lon="5.26653">
        <ele>220.4</ele>
        <time>2022-02-10T13:50:57Z</time>
      </trkpt>
      <trkpt lat="46.4143" lon="5.26672">
        <ele>220.8</ele>
        <time>2022-02-10T13:51:02Z</time>
      </trkpt>
      <trkpt lat="46.41423" lon="5.2668">
        <ele>221.2</ele>
        <time>2022-02-10T13:51:04Z</time>
      </trkpt>
      <trkpt lat="46.41412" lon="5.26692">
        <ele>221.6</ele>
        <time>2022-02-10T13:51:07Z</time>
      </trkpt>
      <trkpt lat="46.41406" lon="5.26699">
        <ele>222</ele>
        <time>2022-02-10T13:51:09Z</time>
      </trkpt>
      <trkpt lat="46.41399" lon="5.26706">
        <ele>222.4</ele>
        <time>2022-02-10T13:51:11Z</time>
      </trkpt>
      <trkpt lat="46.41384" lon="5.26718">
        <ele>223.2</ele>
        <time>2022-02-10T13:51:15Z</time>
      </trkpt>
      <trkpt lat="46.41372" lon="5.26731">
        <ele>223.6</ele>
        <time>2022-02-10T13:51:19Z</time>
      </trkpt>
      <trkpt lat="46.41359" lon="5.26744">
        <ele>224.4</ele>
        <time>2022-02-10T13:51:23Z</time>
      </trkpt>
      <trkpt lat="46.41345" lon="5.26757">
        <ele>225</ele>
        <time>2022-02-10T13:51:27Z</time>
      </trkpt>
      <trkpt lat="46.41338" lon="5.26764">
        <ele>225.4</ele>
        <time>2022-02-10T13:51:29Z</time>
      </trkpt>
      <trkpt lat="46.41321" lon="5.26783">
        <ele>226.6</ele>
        <time>2022-02-10T13:51:35Z</time>
      </trkpt>
      <trkpt lat="46.41306" lon="5.26795">
        <ele>227.8</ele>
        <time>2022-02-10T13:51:40Z</time>
      </trkpt>
      <trkpt lat="46.41302" lon="5.26798">
        <ele>228</ele>
        <time>2022-02-10T13:51:41Z</time>
      </trkpt>
      <trkpt lat="46.41287" lon="5.26808">
        <ele>228.8</ele>
        <time>2022-02-10T13:51:46Z</time>
      </trkpt>
      <trkpt lat="46.41269" lon="5.26813">
        <ele>230</ele>
        <time>2022-02-10T13:51:51Z</time>
      </trkpt>
      <trkpt lat="46.41251" lon="5.26817">
        <ele>231</ele>
        <time>2022-02-10T13:51:56Z</time>
      </trkpt>
      <trkpt lat="46.41237" lon="5.26825">
        <ele>232.2</ele>
        <time>2022-02-10T13:52:00Z</time>
      </trkpt>
      <trkpt lat="46.41234" lon="5.26827">
        <ele>232.2</ele>
        <time>2022-02-10T13:52:01Z</time>
      </trkpt>
      <trkpt lat="46.41218" lon="5.26841">
        <ele>233.6</ele>
        <time>2022-02-10T13:52:06Z</time>
      </trkpt>
      <trkpt lat="46.41214" lon="5.26843">
        <ele>233.8</ele>
        <time>2022-02-10T13:52:07Z</time>
      </trkpt>
      <trkpt lat="46.41194" lon="5.2685">
        <ele>234.2</ele>
        <time>2022-02-10T13:52:12Z</time>
      </trkpt>
      <trkpt lat="46.4119" lon="5.26851">
        <ele>234.4</ele>
        <time>2022-02-10T13:52:13Z</time>
      </trkpt>
      <trkpt lat="46.41182" lon="5.26856">
        <ele>234.6</ele>
        <time>2022-02-10T13:52:15Z</time>
      </trkpt>
      <trkpt lat="46.41178" lon="5.2686">
        <ele>234.6</ele>
        <time>2022-02-10T13:52:16Z</time>
      </trkpt>
      <trkpt lat="46.41175" lon="5.26865">
        <ele>234.6</ele>
        <time>2022-02-10T13:52:17Z</time>
      </trkpt>
      <trkpt lat="46.41165" lon="5.26879">
        <ele>234.8</ele>
        <time>2022-02-10T13:52:20Z</time>
      </trkpt>
      <trkpt lat="46.41162" lon="5.26883">
        <ele>234.8</ele>
        <time>2022-02-10T13:52:21Z</time>
      </trkpt>
      <trkpt lat="46.41158" lon="5.26886">
        <ele>234.8</ele>
        <time>2022-02-10T13:52:22Z</time>
      </trkpt>
      <trkpt lat="46.41136" lon="5.26895">
        <ele>235.2</ele>
        <time>2022-02-10T13:52:27Z</time>
      </trkpt>
      <trkpt lat="46.41117" lon="5.26901">
        <ele>235.6</ele>
        <time>2022-02-10T13:52:31Z</time>
      </trkpt>
      <trkpt lat="46.41096" lon="5.26905">
        <ele>235.8</ele>
        <time>2022-02-10T13:52:35Z</time>
      </trkpt>
      <trkpt lat="46.4109" lon="5.26905">
        <ele>235.8</ele>
        <time>2022-02-10T13:52:36Z</time>
      </trkpt>
      <trkpt lat="46.4106" lon="5.26904">
        <ele>235.4</ele>
        <time>2022-02-10T13:52:41Z</time>
      </trkpt>
      <trkpt lat="46.41013" lon="5.26904">
        <ele>234.8</ele>
        <time>2022-02-10T13:52:48Z</time>
      </trkpt>
      <trkpt lat="46.41007" lon="5.26905">
        <ele>234.6</ele>
        <time>2022-02-10T13:52:49Z</time>
      </trkpt>
      <trkpt lat="46.40949" lon="5.26914">
        <ele>233.6</ele>
        <time>2022-02-10T13:52:57Z</time>
      </trkpt>
      <trkpt lat="46.40906" lon="5.26927">
        <ele>232.4</ele>
        <time>2022-02-10T13:53:03Z</time>
      </trkpt>
      <trkpt lat="46.40891" lon="5.26933">
        <ele>232.2</ele>
        <time>2022-02-10T13:53:05Z</time>
      </trkpt>
      <trkpt lat="46.40835" lon="5.26962">
        <ele>231.8</ele>
        <time>2022-02-10T13:53:13Z</time>
      </trkpt>
      <trkpt lat="46.40828" lon="5.26966">
        <ele>231.8</ele>
        <time>2022-02-10T13:53:14Z</time>
      </trkpt>
      <trkpt lat="46.40807" lon="5.26977">
        <ele>231.2</ele>
        <time>2022-02-10T13:53:17Z</time>
      </trkpt>
      <trkpt lat="46.40799" lon="5.2698">
        <ele>231.2</ele>
        <time>2022-02-10T13:53:18Z</time>
      </trkpt>
      <trkpt lat="46.40784" lon="5.26982">
        <ele>231</ele>
        <time>2022-02-10T13:53:20Z</time>
      </trkpt>
      <trkpt lat="46.40776" lon="5.26982">
        <ele>230.8</ele>
        <time>2022-02-10T13:53:21Z</time>
      </trkpt>
      <trkpt lat="46.40748" lon="5.26978">
        <ele>230.6</ele>
        <time>2022-02-10T13:53:25Z</time>
      </trkpt>
      <trkpt lat="46.40706" lon="5.2697">
        <ele>231</ele>
        <time>2022-02-10T13:53:32Z</time>
      </trkpt>
      <trkpt lat="46.40659" lon="5.2696">
        <ele>231.8</ele>
        <time>2022-02-10T13:53:40Z</time>
      </trkpt>
      <trkpt lat="46.40624" lon="5.26942">
        <ele>232.4</ele>
        <time>2022-02-10T13:53:46Z</time>
      </trkpt>
      <trkpt lat="46.40576" lon="5.26916">
        <ele>231.8</ele>
        <time>2022-02-10T13:53:54Z</time>
      </trkpt>
      <trkpt lat="46.40531" lon="5.26895">
        <ele>231.2</ele>
        <time>2022-02-10T13:54:01Z</time>
      </trkpt>
      <trkpt lat="46.4048" lon="5.26886">
        <ele>230.8</ele>
        <time>2022-02-10T13:54:09Z</time>
      </trkpt>
      <trkpt lat="46.40438" lon="5.26881">
        <ele>231</ele>
        <time>2022-02-10T13:54:16Z</time>
      </trkpt>
      <trkpt lat="46.4039" lon="5.26876">
        <ele>231.4</ele>
        <time>2022-02-10T13:54:24Z</time>
      </trkpt>
      <trkpt lat="46.40341" lon="5.26889">
        <ele>231.6</ele>
        <time>2022-02-10T13:54:32Z</time>
      </trkpt>
      <trkpt lat="46.40304" lon="5.26887">
        <ele>232</ele>
        <time>2022-02-10T13:54:38Z</time>
      </trkpt>
      <trkpt lat="46.40298" lon="5.26887">
        <ele>232</ele>
        <time>2022-02-10T13:54:39Z</time>
      </trkpt>
      <trkpt lat="46.40273" lon="5.26889">
        <ele>232.2</ele>
        <time>2022-02-10T13:54:43Z</time>
      </trkpt>
      <trkpt lat="46.40215" lon="5.26893">
        <ele>232.4</ele>
        <time>2022-02-10T13:54:53Z</time>
      </trkpt>
      <trkpt lat="46.40167" lon="5.26897">
        <ele>233.2</ele>
        <time>2022-02-10T13:55:02Z</time>
      </trkpt>
      <trkpt lat="46.40153" lon="5.26897">
        <ele>233.4</ele>
        <time>2022-02-10T13:55:05Z</time>
      </trkpt>
      <trkpt lat="46.40111" lon="5.26899">
        <ele>234.4</ele>
        <time>2022-02-10T13:55:13Z</time>
      </trkpt>
      <trkpt lat="46.40105" lon="5.26899">
        <ele>234.6</ele>
        <time>2022-02-10T13:55:14Z</time>
      </trkpt>
      <trkpt lat="46.40076" lon="5.26892">
        <ele>234.8</ele>
        <time>2022-02-10T13:55:20Z</time>
      </trkpt>
      <trkpt lat="46.40056" lon="5.26885">
        <ele>235.6</ele>
        <time>2022-02-10T13:55:24Z</time>
      </trkpt>
      <trkpt lat="46.40041" lon="5.2688">
        <ele>235.8</ele>
        <time>2022-02-10T13:55:27Z</time>
      </trkpt>
      <trkpt lat="46.40031" lon="5.26875">
        <ele>236</ele>
        <time>2022-02-10T13:55:29Z</time>
      </trkpt>
      <trkpt lat="46.39983" lon="5.26855">
        <ele>236.6</ele>
        <time>2022-02-10T13:55:38Z</time>
      </trkpt>
      <trkpt lat="46.39941" lon="5.26835">
        <ele>236.6</ele>
        <time>2022-02-10T13:55:45Z</time>
      </trkpt>
      <trkpt lat="46.39889" lon="5.26812">
        <ele>235</ele>
        <time>2022-02-10T13:55:52Z</time>
      </trkpt>
      <trkpt lat="46.39881" lon="5.2681">
        <ele>234.4</ele>
        <time>2022-02-10T13:55:53Z</time>
      </trkpt>
      <trkpt lat="46.39856" lon="5.26808">
        <ele>233.2</ele>
        <time>2022-02-10T13:55:56Z</time>
      </trkpt>
      <trkpt lat="46.39848" lon="5.26808">
        <ele>233</ele>
        <time>2022-02-10T13:55:57Z</time>
      </trkpt>
      <trkpt lat="46.39823" lon="5.26811">
        <ele>232</ele>
        <time>2022-02-10T13:56:00Z</time>
      </trkpt>
      <trkpt lat="46.39791" lon="5.26816">
        <ele>231.2</ele>
        <time>2022-02-10T13:56:04Z</time>
      </trkpt>
      <trkpt lat="46.39757" lon="5.26828">
        <ele>231</ele>
        <time>2022-02-10T13:56:09Z</time>
      </trkpt>
      <trkpt lat="46.39715" lon="5.26839">
        <ele>231.8</ele>
        <time>2022-02-10T13:56:16Z</time>
      </trkpt>
      <trkpt lat="46.39684" lon="5.26837">
        <ele>232.4</ele>
        <time>2022-02-10T13:56:22Z</time>
      </trkpt>
      <trkpt lat="46.39653" lon="5.26831">
        <ele>233.2</ele>
        <time>2022-02-10T13:56:28Z</time>
      </trkpt>
      <trkpt lat="46.39639" lon="5.26827">
        <ele>233.6</ele>
        <time>2022-02-10T13:56:31Z</time>
      </trkpt>
      <trkpt lat="46.39628" lon="5.26825">
        <ele>234.2</ele>
        <time>2022-02-10T13:56:33Z</time>
      </trkpt>
      <trkpt lat="46.39613" lon="5.26826">
        <ele>234.6</ele>
        <time>2022-02-10T13:56:36Z</time>
      </trkpt>
      <trkpt lat="46.39608" lon="5.26828">
        <ele>234.8</ele>
        <time>2022-02-10T13:56:37Z</time>
      </trkpt>
      <trkpt lat="46.39603" lon="5.26831">
        <ele>234.8</ele>
        <time>2022-02-10T13:56:38Z</time>
      </trkpt>
      <trkpt lat="46.39594" lon="5.26839">
        <ele>235.2</ele>
        <time>2022-02-10T13:56:40Z</time>
      </trkpt>
      <trkpt lat="46.3959" lon="5.26845">
        <ele>235.2</ele>
        <time>2022-02-10T13:56:41Z</time>
      </trkpt>
      <trkpt lat="46.39588" lon="5.2685">
        <ele>235.2</ele>
        <time>2022-02-10T13:56:42Z</time>
      </trkpt>
      <trkpt lat="46.39581" lon="5.26869">
        <ele>235.6</ele>
        <time>2022-02-10T13:56:45Z</time>
      </trkpt>
      <trkpt lat="46.39579" lon="5.26876">
        <ele>236</ele>
        <time>2022-02-10T13:56:46Z</time>
      </trkpt>
      <trkpt lat="46.39576" lon="5.26881">
        <ele>236.2</ele>
        <time>2022-02-10T13:56:47Z</time>
      </trkpt>
      <trkpt lat="46.39569" lon="5.26891">
        <ele>236.6</ele>
        <time>2022-02-10T13:56:49Z</time>
      </trkpt>
      <trkpt lat="46.39543" lon="5.26913">
        <ele>237.2</ele>
        <time>2022-02-10T13:56:55Z</time>
      </trkpt>
      <trkpt lat="46.39538" lon="5.26916">
        <ele>237.4</ele>
        <time>2022-02-10T13:56:56Z</time>
      </trkpt>
      <trkpt lat="46.39504" lon="5.26932">
        <ele>237.6</ele>
        <time>2022-02-10T13:57:02Z</time>
      </trkpt>
      <trkpt lat="46.39495" lon="5.26942">
        <ele>237.4</ele>
        <time>2022-02-10T13:57:04Z</time>
      </trkpt>
      <trkpt lat="46.39487" lon="5.26957">
        <ele>237.4</ele>
        <time>2022-02-10T13:57:06Z</time>
      </trkpt>
      <trkpt lat="46.3946" lon="5.27025">
        <ele>237</ele>
        <time>2022-02-10T13:57:14Z</time>
      </trkpt>
      <trkpt lat="46.39457" lon="5.27034">
        <ele>237</ele>
        <time>2022-02-10T13:57:15Z</time>
      </trkpt>
      <trkpt lat="46.39439" lon="5.2709">
        <ele>236.4</ele>
        <time>2022-02-10T13:57:21Z</time>
      </trkpt>
      <trkpt lat="46.39435" lon="5.27098">
        <ele>236.2</ele>
        <time>2022-02-10T13:57:22Z</time>
      </trkpt>
      <trkpt lat="46.3943" lon="5.27105">
        <ele>236.2</ele>
        <time>2022-02-10T13:57:23Z</time>
      </trkpt>
      <trkpt lat="46.39419" lon="5.27115">
        <ele>236</ele>
        <time>2022-02-10T13:57:25Z</time>
      </trkpt>
      <trkpt lat="46.39378" lon="5.27141">
        <ele>236</ele>
        <time>2022-02-10T13:57:32Z</time>
      </trkpt>
      <trkpt lat="46.39339" lon="5.27169">
        <ele>235.6</ele>
        <time>2022-02-10T13:57:39Z</time>
      </trkpt>
      <trkpt lat="46.39322" lon="5.27177">
        <ele>235.6</ele>
        <time>2022-02-10T13:57:42Z</time>
      </trkpt>
      <trkpt lat="46.39301" lon="5.27188">
        <ele>235.6</ele>
        <time>2022-02-10T13:57:46Z</time>
      </trkpt>
      <trkpt lat="46.39261" lon="5.27209">
        <ele>236.4</ele>
        <time>2022-02-10T13:57:54Z</time>
      </trkpt>
      <trkpt lat="46.39242" lon="5.27222">
        <ele>237</ele>
        <time>2022-02-10T13:57:58Z</time>
      </trkpt>
      <trkpt lat="46.39234" lon="5.27231">
        <ele>237.2</ele>
        <time>2022-02-10T13:58:00Z</time>
      </trkpt>
      <trkpt lat="46.39231" lon="5.27236">
        <ele>237.4</ele>
        <time>2022-02-10T13:58:01Z</time>
      </trkpt>
      <trkpt lat="46.39224" lon="5.27248">
        <ele>237.6</ele>
        <time>2022-02-10T13:58:03Z</time>
      </trkpt>
      <trkpt lat="46.39214" lon="5.27273">
        <ele>237.8</ele>
        <time>2022-02-10T13:58:07Z</time>
      </trkpt>
      <trkpt lat="46.39199" lon="5.27328">
        <ele>238.4</ele>
        <time>2022-02-10T13:58:15Z</time>
      </trkpt>
      <trkpt lat="46.39196" lon="5.27343">
        <ele>238.6</ele>
        <time>2022-02-10T13:58:17Z</time>
      </trkpt>
      <trkpt lat="46.39194" lon="5.2735">
        <ele>238.8</ele>
        <time>2022-02-10T13:58:18Z</time>
      </trkpt>
      <trkpt lat="46.39182" lon="5.27378">
        <ele>239.2</ele>
        <time>2022-02-10T13:58:22Z</time>
      </trkpt>
      <trkpt lat="46.39175" lon="5.27391">
        <ele>239.4</ele>
        <time>2022-02-10T13:58:24Z</time>
      </trkpt>
      <trkpt lat="46.3917" lon="5.27397">
        <ele>239.6</ele>
        <time>2022-02-10T13:58:25Z</time>
      </trkpt>
      <trkpt lat="46.39161" lon="5.27408">
        <ele>239.6</ele>
        <time>2022-02-10T13:58:27Z</time>
      </trkpt>
      <trkpt lat="46.39119" lon="5.2744">
        <ele>239.6</ele>
        <time>2022-02-10T13:58:34Z</time>
      </trkpt>
      <trkpt lat="46.39099" lon="5.27452">
        <ele>239.8</ele>
        <time>2022-02-10T13:58:38Z</time>
      </trkpt>
      <trkpt lat="46.39095" lon="5.27455">
        <ele>239.8</ele>
        <time>2022-02-10T13:58:39Z</time>
      </trkpt>
      <trkpt lat="46.39068" lon="5.2747">
        <ele>239.4</ele>
        <time>2022-02-10T13:58:44Z</time>
      </trkpt>
      <trkpt lat="46.39051" lon="5.27483">
        <ele>239.2</ele>
        <time>2022-02-10T13:58:47Z</time>
      </trkpt>
      <trkpt lat="46.39042" lon="5.27489">
        <ele>239</ele>
        <time>2022-02-10T13:58:49Z</time>
      </trkpt>
      <trkpt lat="46.39016" lon="5.2751">
        <ele>239.2</ele>
        <time>2022-02-10T13:58:54Z</time>
      </trkpt>
      <trkpt lat="46.39001" lon="5.27521">
        <ele>239.4</ele>
        <time>2022-02-10T13:58:57Z</time>
      </trkpt>
      <trkpt lat="46.38992" lon="5.27527">
        <ele>239.6</ele>
        <time>2022-02-10T13:58:59Z</time>
      </trkpt>
      <trkpt lat="46.38982" lon="5.27536">
        <ele>240</ele>
        <time>2022-02-10T13:59:03Z</time>
      </trkpt>
      <trkpt lat="46.38965" lon="5.27541">
        <ele>240.4</ele>
        <time>2022-02-10T13:59:06Z</time>
      </trkpt>
      <trkpt lat="46.3896" lon="5.27543">
        <ele>240.4</ele>
        <time>2022-02-10T13:59:07Z</time>
      </trkpt>
      <trkpt lat="46.38947" lon="5.27547">
        <ele>240.6</ele>
        <time>2022-02-10T13:59:09Z</time>
      </trkpt>
      <trkpt lat="46.38933" lon="5.27554">
        <ele>240.8</ele>
        <time>2022-02-10T13:59:11Z</time>
      </trkpt>
      <trkpt lat="46.38926" lon="5.27559">
        <ele>240.8</ele>
        <time>2022-02-10T13:59:12Z</time>
      </trkpt>
      <trkpt lat="46.38908" lon="5.27569">
        <ele>240.8</ele>
        <time>2022-02-10T13:59:15Z</time>
      </trkpt>
      <trkpt lat="46.38906" lon="5.27582">
        <ele>240.8</ele>
        <time>2022-02-10T13:59:18Z</time>
      </trkpt>
      <trkpt lat="46.38907" lon="5.27586">
        <ele>240.8</ele>
        <time>2022-02-10T13:59:19Z</time>
      </trkpt>
      <trkpt lat="46.38908" lon="5.27589">
        <ele>240.8</ele>
        <time>2022-02-10T13:59:20Z</time>
      </trkpt>
      <trkpt lat="46.3891" lon="5.27595">
        <ele>240.6</ele>
        <time>2022-02-10T13:59:23Z</time>
      </trkpt>
      <trkpt lat="46.3891" lon="5.27595">
        <ele>240.4</ele>
        <time>2022-02-10T13:59:25Z</time>
      </trkpt>
      <trkpt lat="46.38908" lon="5.27592">
        <ele>239.8</ele>
        <time>2022-02-10T14:00:09Z</time>
      </trkpt>
      <trkpt lat="46.38907" lon="5.27589">
        <ele>239.8</ele>
        <time>2022-02-10T14:00:11Z</time>
      </trkpt>
      <trkpt lat="46.38898" lon="5.27573">
        <ele>240</ele>
        <time>2022-02-10T14:00:19Z</time>
      </trkpt>
      <trkpt lat="46.38883" lon="5.2756">
        <ele>240</ele>
        <time>2022-02-10T14:00:24Z</time>
      </trkpt>
      <trkpt lat="46.38873" lon="5.27552">
        <ele>240.2</ele>
        <time>2022-02-10T14:00:25Z</time>
      </trkpt>
      <trkpt lat="46.38854" lon="5.2754">
        <ele>240.2</ele>
        <time>2022-02-10T14:00:28Z</time>
      </trkpt>
      <trkpt lat="46.38806" lon="5.27512">
        <ele>241</ele>
        <time>2022-02-10T14:00:36Z</time>
      </trkpt>
      <trkpt lat="46.38789" lon="5.27508">
        <ele>241.2</ele>
        <time>2022-02-10T14:00:39Z</time>
      </trkpt>
      <trkpt lat="46.38784" lon="5.27506">
        <ele>241.2</ele>
        <time>2022-02-10T14:00:41Z</time>
      </trkpt>
      <trkpt lat="46.38766" lon="5.27497">
        <ele>241.2</ele>
        <time>2022-02-10T14:00:43Z</time>
      </trkpt>
      <trkpt lat="46.3873" lon="5.27473">
        <ele>241.6</ele>
        <time>2022-02-10T14:00:50Z</time>
      </trkpt>
      <trkpt lat="46.38711" lon="5.27458">
        <ele>241.8</ele>
        <time>2022-02-10T14:00:54Z</time>
      </trkpt>
      <trkpt lat="46.38698" lon="5.27445">
        <ele>242.2</ele>
        <time>2022-02-10T14:00:57Z</time>
      </trkpt>
      <trkpt lat="46.38688" lon="5.27437">
        <ele>242.2</ele>
        <time>2022-02-10T14:00:59Z</time>
      </trkpt>
      <trkpt lat="46.38655" lon="5.2741">
        <ele>242.8</ele>
        <time>2022-02-10T14:01:06Z</time>
      </trkpt>
      <trkpt lat="46.3865" lon="5.27407">
        <ele>242.8</ele>
        <time>2022-02-10T14:01:07Z</time>
      </trkpt>
      <trkpt lat="46.38639" lon="5.27405">
        <ele>243</ele>
        <time>2022-02-10T14:01:09Z</time>
      </trkpt>
      <trkpt lat="46.38635" lon="5.27406">
        <ele>243</ele>
        <time>2022-02-10T14:01:10Z</time>
      </trkpt>
      <trkpt lat="46.3863" lon="5.2741">
        <ele>243</ele>
        <time>2022-02-10T14:01:11Z</time>
      </trkpt>
      <trkpt lat="46.38621" lon="5.27423">
        <ele>243</ele>
        <time>2022-02-10T14:01:13Z</time>
      </trkpt>
      <trkpt lat="46.38595" lon="5.2746">
        <ele>243</ele>
        <time>2022-02-10T14:01:18Z</time>
      </trkpt>
      <trkpt lat="46.38573" lon="5.27481">
        <ele>242.4</ele>
        <time>2022-02-10T14:01:21Z</time>
      </trkpt>
      <trkpt lat="46.38564" lon="5.27486">
        <ele>242</ele>
        <time>2022-02-10T14:01:22Z</time>
      </trkpt>
      <trkpt lat="46.38545" lon="5.27496">
        <ele>241</ele>
        <time>2022-02-10T14:01:24Z</time>
      </trkpt>
      <trkpt lat="46.38525" lon="5.27508">
        <ele>240</ele>
        <time>2022-02-10T14:01:26Z</time>
      </trkpt>
      <trkpt lat="46.38515" lon="5.27515">
        <ele>239.4</ele>
        <time>2022-02-10T14:01:27Z</time>
      </trkpt>
      <trkpt lat="46.38495" lon="5.27533">
        <ele>238.2</ele>
        <time>2022-02-10T14:01:29Z</time>
      </trkpt>
      <trkpt lat="46.38475" lon="5.27556">
        <ele>236.2</ele>
        <time>2022-02-10T14:01:31Z</time>
      </trkpt>
      <trkpt lat="46.38456" lon="5.27578">
        <ele>234.8</ele>
        <time>2022-02-10T14:01:33Z</time>
      </trkpt>
      <trkpt lat="46.38437" lon="5.27603">
        <ele>233.4</ele>
        <time>2022-02-10T14:01:35Z</time>
      </trkpt>
      <trkpt lat="46.38428" lon="5.27614">
        <ele>231.8</ele>
        <time>2022-02-10T14:01:36Z</time>
      </trkpt>
      <trkpt lat="46.38411" lon="5.27635">
        <ele>229.8</ele>
        <time>2022-02-10T14:01:38Z</time>
      </trkpt>
      <trkpt lat="46.38402" lon="5.27645">
        <ele>229.6</ele>
        <time>2022-02-10T14:01:39Z</time>
      </trkpt>
      <trkpt lat="46.38384" lon="5.27662">
        <ele>228.2</ele>
        <time>2022-02-10T14:01:41Z</time>
      </trkpt>
      <trkpt lat="46.38365" lon="5.27676">
        <ele>227.4</ele>
        <time>2022-02-10T14:01:43Z</time>
      </trkpt>
      <trkpt lat="46.38355" lon="5.27682">
        <ele>227</ele>
        <time>2022-02-10T14:01:44Z</time>
      </trkpt>
      <trkpt lat="46.38337" lon="5.27695">
        <ele>225.8</ele>
        <time>2022-02-10T14:01:46Z</time>
      </trkpt>
      <trkpt lat="46.38319" lon="5.27708">
        <ele>224.6</ele>
        <time>2022-02-10T14:01:48Z</time>
      </trkpt>
      <trkpt lat="46.38301" lon="5.27719">
        <ele>224</ele>
        <time>2022-02-10T14:01:50Z</time>
      </trkpt>
      <trkpt lat="46.38283" lon="5.27726">
        <ele>223.2</ele>
        <time>2022-02-10T14:01:52Z</time>
      </trkpt>
      <trkpt lat="46.38239" lon="5.2774">
        <ele>222</ele>
        <time>2022-02-10T14:01:57Z</time>
      </trkpt>
      <trkpt lat="46.38231" lon="5.27744">
        <ele>222</ele>
        <time>2022-02-10T14:01:58Z</time>
      </trkpt>
      <trkpt lat="46.38193" lon="5.27771">
        <ele>221.4</ele>
        <time>2022-02-10T14:02:03Z</time>
      </trkpt>
      <trkpt lat="46.38186" lon="5.27779">
        <ele>221.2</ele>
        <time>2022-02-10T14:02:04Z</time>
      </trkpt>
      <trkpt lat="46.38181" lon="5.27788">
        <ele>221</ele>
        <time>2022-02-10T14:02:05Z</time>
      </trkpt>
      <trkpt lat="46.38176" lon="5.27798">
        <ele>220.8</ele>
        <time>2022-02-10T14:02:06Z</time>
      </trkpt>
      <trkpt lat="46.38171" lon="5.27831">
        <ele>220.4</ele>
        <time>2022-02-10T14:02:09Z</time>
      </trkpt>
      <trkpt lat="46.38167" lon="5.27896">
        <ele>220</ele>
        <time>2022-02-10T14:02:15Z</time>
      </trkpt>
      <trkpt lat="46.38159" lon="5.27956">
        <ele>219.6</ele>
        <time>2022-02-10T14:02:21Z</time>
      </trkpt>
      <trkpt lat="46.38158" lon="5.27965">
        <ele>219.6</ele>
        <time>2022-02-10T14:02:22Z</time>
      </trkpt>
      <trkpt lat="46.3815" lon="5.27989">
        <ele>219.6</ele>
        <time>2022-02-10T14:02:25Z</time>
      </trkpt>
      <trkpt lat="46.38147" lon="5.27996">
        <ele>219.8</ele>
        <time>2022-02-10T14:02:26Z</time>
      </trkpt>
      <trkpt lat="46.38139" lon="5.28009">
        <ele>220</ele>
        <time>2022-02-10T14:02:28Z</time>
      </trkpt>
      <trkpt lat="46.38129" lon="5.28022">
        <ele>220.2</ele>
        <time>2022-02-10T14:02:30Z</time>
      </trkpt>
      <trkpt lat="46.3809" lon="5.28079">
        <ele>220.8</ele>
        <time>2022-02-10T14:02:39Z</time>
      </trkpt>
      <trkpt lat="46.38081" lon="5.28091">
        <ele>221</ele>
        <time>2022-02-10T14:02:41Z</time>
      </trkpt>
      <trkpt lat="46.38055" lon="5.28131">
        <ele>221.6</ele>
        <time>2022-02-10T14:02:48Z</time>
      </trkpt>
      <trkpt lat="46.38048" lon="5.28142">
        <ele>222</ele>
        <time>2022-02-10T14:02:50Z</time>
      </trkpt>
      <trkpt lat="46.38032" lon="5.28165">
        <ele>222.6</ele>
        <time>2022-02-10T14:02:55Z</time>
      </trkpt>
      <trkpt lat="46.38028" lon="5.28169">
        <ele>222.8</ele>
        <time>2022-02-10T14:02:56Z</time>
      </trkpt>
      <trkpt lat="46.38024" lon="5.28173">
        <ele>223.2</ele>
        <time>2022-02-10T14:02:57Z</time>
      </trkpt>
      <trkpt lat="46.38011" lon="5.28183">
        <ele>224.2</ele>
        <time>2022-02-10T14:03:01Z</time>
      </trkpt>
      <trkpt lat="46.38001" lon="5.2819">
        <ele>225.4</ele>
        <time>2022-02-10T14:03:04Z</time>
      </trkpt>
      <trkpt lat="46.37986" lon="5.282">
        <ele>226.8</ele>
        <time>2022-02-10T14:03:08Z</time>
      </trkpt>
      <trkpt lat="46.37978" lon="5.28202">
        <ele>227.2</ele>
        <time>2022-02-10T14:03:10Z</time>
      </trkpt>
      <trkpt lat="46.37962" lon="5.28197">
        <ele>227.8</ele>
        <time>2022-02-10T14:03:14Z</time>
      </trkpt>
      <trkpt lat="46.37958" lon="5.28194">
        <ele>228</ele>
        <time>2022-02-10T14:03:15Z</time>
      </trkpt>
      <trkpt lat="46.37942" lon="5.28184">
        <ele>229.2</ele>
        <time>2022-02-10T14:03:19Z</time>
      </trkpt>
      <trkpt lat="46.37924" lon="5.28171">
        <ele>229.8</ele>
        <time>2022-02-10T14:03:23Z</time>
      </trkpt>
      <trkpt lat="46.37899" lon="5.2815">
        <ele>229.8</ele>
        <time>2022-02-10T14:03:28Z</time>
      </trkpt>
      <trkpt lat="46.37887" lon="5.28141">
        <ele>229.6</ele>
        <time>2022-02-10T14:03:30Z</time>
      </trkpt>
      <trkpt lat="46.37869" lon="5.28128">
        <ele>229.2</ele>
        <time>2022-02-10T14:03:33Z</time>
      </trkpt>
      <trkpt lat="46.37845" lon="5.28114">
        <ele>229</ele>
        <time>2022-02-10T14:03:37Z</time>
      </trkpt>
      <trkpt lat="46.37834" lon="5.28109">
        <ele>229</ele>
        <time>2022-02-10T14:03:39Z</time>
      </trkpt>
      <trkpt lat="46.37822" lon="5.28103">
        <ele>229.2</ele>
        <time>2022-02-10T14:03:41Z</time>
      </trkpt>
      <trkpt lat="46.37801" lon="5.28086">
        <ele>229.4</ele>
        <time>2022-02-10T14:03:45Z</time>
      </trkpt>
      <trkpt lat="46.37791" lon="5.28075">
        <ele>229.6</ele>
        <time>2022-02-10T14:03:47Z</time>
      </trkpt>
      <trkpt lat="46.37782" lon="5.28058">
        <ele>230</ele>
        <time>2022-02-10T14:03:50Z</time>
      </trkpt>
      <trkpt lat="46.37779" lon="5.28052">
        <ele>230.2</ele>
        <time>2022-02-10T14:03:51Z</time>
      </trkpt>
      <trkpt lat="46.37766" lon="5.28025">
        <ele>231.6</ele>
        <time>2022-02-10T14:03:56Z</time>
      </trkpt>
      <trkpt lat="46.37762" lon="5.2802">
        <ele>231.6</ele>
        <time>2022-02-10T14:03:57Z</time>
      </trkpt>
      <trkpt lat="46.37756" lon="5.28011">
        <ele>232.2</ele>
        <time>2022-02-10T14:03:59Z</time>
      </trkpt>
      <trkpt lat="46.37748" lon="5.28002">
        <ele>232.8</ele>
        <time>2022-02-10T14:04:01Z</time>
      </trkpt>
      <trkpt lat="46.37744" lon="5.27996">
        <ele>232.8</ele>
        <time>2022-02-10T14:04:02Z</time>
      </trkpt>
      <trkpt lat="46.3774" lon="5.27989">
        <ele>233.2</ele>
        <time>2022-02-10T14:04:03Z</time>
      </trkpt>
      <trkpt lat="46.37726" lon="5.27956">
        <ele>233.6</ele>
        <time>2022-02-10T14:04:07Z</time>
      </trkpt>
      <trkpt lat="46.37717" lon="5.2794">
        <ele>233.6</ele>
        <time>2022-02-10T14:04:09Z</time>
      </trkpt>
      <trkpt lat="46.37706" lon="5.27927">
        <ele>233.2</ele>
        <time>2022-02-10T14:04:11Z</time>
      </trkpt>
      <trkpt lat="46.37699" lon="5.27922">
        <ele>233</ele>
        <time>2022-02-10T14:04:12Z</time>
      </trkpt>
      <trkpt lat="46.37679" lon="5.27909">
        <ele>232.2</ele>
        <time>2022-02-10T14:04:15Z</time>
      </trkpt>
      <trkpt lat="46.37652" lon="5.27886">
        <ele>231.6</ele>
        <time>2022-02-10T14:04:20Z</time>
      </trkpt>
      <trkpt lat="46.37643" lon="5.27877">
        <ele>231.6</ele>
        <time>2022-02-10T14:04:22Z</time>
      </trkpt>
      <trkpt lat="46.37623" lon="5.27856">
        <ele>232.4</ele>
        <time>2022-02-10T14:04:27Z</time>
      </trkpt>
      <trkpt lat="46.37615" lon="5.27844">
        <ele>233</ele>
        <time>2022-02-10T14:04:29Z</time>
      </trkpt>
      <trkpt lat="46.37611" lon="5.27837">
        <ele>233.2</ele>
        <time>2022-02-10T14:04:30Z</time>
      </trkpt>
      <trkpt lat="46.37608" lon="5.27829">
        <ele>233.2</ele>
        <time>2022-02-10T14:04:31Z</time>
      </trkpt>
      <trkpt lat="46.3759" lon="5.27778">
        <ele>233.6</ele>
        <time>2022-02-10T14:04:37Z</time>
      </trkpt>
      <trkpt lat="46.37578" lon="5.27739">
        <ele>233.4</ele>
        <time>2022-02-10T14:04:41Z</time>
      </trkpt>
      <trkpt lat="46.37569" lon="5.27722">
        <ele>233</ele>
        <time>2022-02-10T14:04:43Z</time>
      </trkpt>
      <trkpt lat="46.37557" lon="5.27711">
        <ele>232.6</ele>
        <time>2022-02-10T14:04:45Z</time>
      </trkpt>
      <trkpt lat="46.3755" lon="5.27708">
        <ele>232.4</ele>
        <time>2022-02-10T14:04:46Z</time>
      </trkpt>
      <trkpt lat="46.37536" lon="5.27705">
        <ele>231.8</ele>
        <time>2022-02-10T14:04:48Z</time>
      </trkpt>
      <trkpt lat="46.3751" lon="5.27703">
        <ele>231.2</ele>
        <time>2022-02-10T14:04:52Z</time>
      </trkpt>
      <trkpt lat="46.37472" lon="5.27693">
        <ele>231.4</ele>
        <time>2022-02-10T14:04:58Z</time>
      </trkpt>
      <trkpt lat="46.37433" lon="5.27669">
        <ele>231.6</ele>
        <time>2022-02-10T14:05:05Z</time>
      </trkpt>
      <trkpt lat="46.37411" lon="5.27655">
        <ele>231.6</ele>
        <time>2022-02-10T14:05:09Z</time>
      </trkpt>
      <trkpt lat="46.37405" lon="5.27654">
        <ele>231.6</ele>
        <time>2022-02-10T14:05:10Z</time>
      </trkpt>
      <trkpt lat="46.37367" lon="5.27643">
        <ele>232</ele>
        <time>2022-02-10T14:05:17Z</time>
      </trkpt>
      <trkpt lat="46.37361" lon="5.27639">
        <ele>232</ele>
        <time>2022-02-10T14:05:18Z</time>
      </trkpt>
      <trkpt lat="46.37357" lon="5.27634">
        <ele>232.2</ele>
        <time>2022-02-10T14:05:19Z</time>
      </trkpt>
      <trkpt lat="46.37353" lon="5.27615">
        <ele>232.2</ele>
        <time>2022-02-10T14:05:21Z</time>
      </trkpt>
      <trkpt lat="46.37357" lon="5.2758">
        <ele>232.2</ele>
        <time>2022-02-10T14:05:24Z</time>
      </trkpt>
      <trkpt lat="46.37371" lon="5.27519">
        <ele>230.6</ele>
        <time>2022-02-10T14:05:29Z</time>
      </trkpt>
      <trkpt lat="46.37374" lon="5.27509">
        <ele>230</ele>
        <time>2022-02-10T14:05:30Z</time>
      </trkpt>
      <trkpt lat="46.37377" lon="5.27498">
        <ele>229.2</ele>
        <time>2022-02-10T14:05:32Z</time>
      </trkpt>
      <trkpt lat="46.37393" lon="5.27458">
        <ele>228.4</ele>
        <time>2022-02-10T14:05:35Z</time>
      </trkpt>
      <trkpt lat="46.37398" lon="5.27449">
        <ele>228.2</ele>
        <time>2022-02-10T14:05:36Z</time>
      </trkpt>
      <trkpt lat="46.37404" lon="5.27441">
        <ele>228.2</ele>
        <time>2022-02-10T14:05:37Z</time>
      </trkpt>
      <trkpt lat="46.37419" lon="5.27428">
        <ele>228</ele>
        <time>2022-02-10T14:05:39Z</time>
      </trkpt>
      <trkpt lat="46.37434" lon="5.27417">
        <ele>228</ele>
        <time>2022-02-10T14:05:41Z</time>
      </trkpt>
      <trkpt lat="46.37446" lon="5.27403">
        <ele>227.8</ele>
        <time>2022-02-10T14:05:43Z</time>
      </trkpt>
      <trkpt lat="46.37467" lon="5.27356">
        <ele>227.6</ele>
        <time>2022-02-10T14:05:48Z</time>
      </trkpt>
      <trkpt lat="46.3747" lon="5.27344">
        <ele>227.4</ele>
        <time>2022-02-10T14:05:49Z</time>
      </trkpt>
      <trkpt lat="46.37473" lon="5.27318">
        <ele>227.2</ele>
        <time>2022-02-10T14:05:51Z</time>
      </trkpt>
      <trkpt lat="46.37473" lon="5.27305">
        <ele>227.2</ele>
        <time>2022-02-10T14:05:52Z</time>
      </trkpt>
      <trkpt lat="46.37472" lon="5.27261">
        <ele>226.4</ele>
        <time>2022-02-10T14:05:55Z</time>
      </trkpt>
      <trkpt lat="46.37473" lon="5.27247">
        <ele>225.8</ele>
        <time>2022-02-10T14:05:56Z</time>
      </trkpt>
      <trkpt lat="46.37475" lon="5.27233">
        <ele>225.6</ele>
        <time>2022-02-10T14:05:57Z</time>
      </trkpt>
      <trkpt lat="46.37479" lon="5.27204">
        <ele>224.4</ele>
        <time>2022-02-10T14:05:59Z</time>
      </trkpt>
      <trkpt lat="46.37478" lon="5.27177">
        <ele>223.4</ele>
        <time>2022-02-10T14:06:01Z</time>
      </trkpt>
      <trkpt lat="46.37476" lon="5.27164">
        <ele>222.8</ele>
        <time>2022-02-10T14:06:02Z</time>
      </trkpt>
      <trkpt lat="46.37473" lon="5.27151">
        <ele>222.2</ele>
        <time>2022-02-10T14:06:03Z</time>
      </trkpt>
      <trkpt lat="46.37462" lon="5.27101">
        <ele>221.4</ele>
        <time>2022-02-10T14:06:07Z</time>
      </trkpt>
      <trkpt lat="46.3746" lon="5.27092">
        <ele>221.2</ele>
        <time>2022-02-10T14:06:08Z</time>
      </trkpt>
      <trkpt lat="46.37456" lon="5.27077">
        <ele>221</ele>
        <time>2022-02-10T14:06:09Z</time>
      </trkpt>
      <trkpt lat="46.37446" lon="5.27058">
        <ele>221</ele>
        <time>2022-02-10T14:06:11Z</time>
      </trkpt>
      <trkpt lat="46.3743" lon="5.27049">
        <ele>220.8</ele>
        <time>2022-02-10T14:06:13Z</time>
      </trkpt>
      <trkpt lat="46.37413" lon="5.27053">
        <ele>220.4</ele>
        <time>2022-02-10T14:06:15Z</time>
      </trkpt>
      <trkpt lat="46.37405" lon="5.27059">
        <ele>220.2</ele>
        <time>2022-02-10T14:06:16Z</time>
      </trkpt>
      <trkpt lat="46.37367" lon="5.27101">
        <ele>219</ele>
        <time>2022-02-10T14:06:21Z</time>
      </trkpt>
      <trkpt lat="46.37339" lon="5.2712">
        <ele>217.8</ele>
        <time>2022-02-10T14:06:24Z</time>
      </trkpt>
      <trkpt lat="46.37311" lon="5.27138">
        <ele>216.8</ele>
        <time>2022-02-10T14:06:27Z</time>
      </trkpt>
      <trkpt lat="46.37302" lon="5.27143">
        <ele>216.2</ele>
        <time>2022-02-10T14:06:28Z</time>
      </trkpt>
      <trkpt lat="46.37285" lon="5.27155">
        <ele>215.2</ele>
        <time>2022-02-10T14:06:30Z</time>
      </trkpt>
      <trkpt lat="46.37268" lon="5.27166">
        <ele>214.2</ele>
        <time>2022-02-10T14:06:32Z</time>
      </trkpt>
      <trkpt lat="46.37244" lon="5.27182">
        <ele>213.4</ele>
        <time>2022-02-10T14:06:35Z</time>
      </trkpt>
      <trkpt lat="46.37199" lon="5.27208">
        <ele>213.2</ele>
        <time>2022-02-10T14:06:41Z</time>
      </trkpt>
      <trkpt lat="46.37191" lon="5.27211">
        <ele>212.8</ele>
        <time>2022-02-10T14:06:42Z</time>
      </trkpt>
      <trkpt lat="46.37177" lon="5.2721">
        <ele>212.6</ele>
        <time>2022-02-10T14:06:44Z</time>
      </trkpt>
      <trkpt lat="46.37169" lon="5.27206">
        <ele>212.4</ele>
        <time>2022-02-10T14:06:45Z</time>
      </trkpt>
      <trkpt lat="46.37149" lon="5.27192">
        <ele>212</ele>
        <time>2022-02-10T14:06:48Z</time>
      </trkpt>
      <trkpt lat="46.37134" lon="5.27189">
        <ele>212</ele>
        <time>2022-02-10T14:06:50Z</time>
      </trkpt>
      <trkpt lat="46.37099" lon="5.27197">
        <ele>211.8</ele>
        <time>2022-02-10T14:06:55Z</time>
      </trkpt>
      <trkpt lat="46.37045" lon="5.2721">
        <ele>211.8</ele>
        <time>2022-02-10T14:07:03Z</time>
      </trkpt>
      <trkpt lat="46.37017" lon="5.27215">
        <ele>211.6</ele>
        <time>2022-02-10T14:07:07Z</time>
      </trkpt>
      <trkpt lat="46.37004" lon="5.27217">
        <ele>211.8</ele>
        <time>2022-02-10T14:07:09Z</time>
      </trkpt>
      <trkpt lat="46.36992" lon="5.27214">
        <ele>211.8</ele>
        <time>2022-02-10T14:07:11Z</time>
      </trkpt>
      <trkpt lat="46.36987" lon="5.2721">
        <ele>211.8</ele>
        <time>2022-02-10T14:07:12Z</time>
      </trkpt>
      <trkpt lat="46.36982" lon="5.27204">
        <ele>211.8</ele>
        <time>2022-02-10T14:07:13Z</time>
      </trkpt>
      <trkpt lat="46.36974" lon="5.27189">
        <ele>211.8</ele>
        <time>2022-02-10T14:07:15Z</time>
      </trkpt>
      <trkpt lat="46.36954" lon="5.27139">
        <ele>211.8</ele>
        <time>2022-02-10T14:07:21Z</time>
      </trkpt>
      <trkpt lat="46.36936" lon="5.27109">
        <ele>211.8</ele>
        <time>2022-02-10T14:07:25Z</time>
      </trkpt>
      <trkpt lat="46.3693" lon="5.27103">
        <ele>211.8</ele>
        <time>2022-02-10T14:07:26Z</time>
      </trkpt>
      <trkpt lat="46.36924" lon="5.27098">
        <ele>211.6</ele>
        <time>2022-02-10T14:07:27Z</time>
      </trkpt>
      <trkpt lat="46.36911" lon="5.27092">
        <ele>211.4</ele>
        <time>2022-02-10T14:07:29Z</time>
      </trkpt>
      <trkpt lat="46.36904" lon="5.27091">
        <ele>211.4</ele>
        <time>2022-02-10T14:07:30Z</time>
      </trkpt>
      <trkpt lat="46.36897" lon="5.2709">
        <ele>211.2</ele>
        <time>2022-02-10T14:07:31Z</time>
      </trkpt>
      <trkpt lat="46.36858" lon="5.27079">
        <ele>211</ele>
        <time>2022-02-10T14:07:37Z</time>
      </trkpt>
      <trkpt lat="46.36817" lon="5.27049">
        <ele>211.2</ele>
        <time>2022-02-10T14:07:44Z</time>
      </trkpt>
      <trkpt lat="46.36765" lon="5.27014">
        <ele>211.4</ele>
        <time>2022-02-10T14:07:53Z</time>
      </trkpt>
      <trkpt lat="46.36759" lon="5.2701">
        <ele>211.4</ele>
        <time>2022-02-10T14:07:54Z</time>
      </trkpt>
      <trkpt lat="46.36738" lon="5.26991">
        <ele>211.4</ele>
        <time>2022-02-10T14:07:58Z</time>
      </trkpt>
      <trkpt lat="46.3673" lon="5.26978">
        <ele>211.4</ele>
        <time>2022-02-10T14:08:00Z</time>
      </trkpt>
      <trkpt lat="46.36723" lon="5.26963">
        <ele>211.4</ele>
        <time>2022-02-10T14:08:02Z</time>
      </trkpt>
      <trkpt lat="46.3672" lon="5.26946">
        <ele>211.4</ele>
        <time>2022-02-10T14:08:04Z</time>
      </trkpt>
      <trkpt lat="46.36718" lon="5.26908">
        <ele>211.4</ele>
        <time>2022-02-10T14:08:08Z</time>
      </trkpt>
      <trkpt lat="46.36719" lon="5.26899">
        <ele>211.4</ele>
        <time>2022-02-10T14:08:09Z</time>
      </trkpt>
      <trkpt lat="46.36723" lon="5.26881">
        <ele>211.4</ele>
        <time>2022-02-10T14:08:11Z</time>
      </trkpt>
      <trkpt lat="46.36727" lon="5.26864">
        <ele>211.4</ele>
        <time>2022-02-10T14:08:13Z</time>
      </trkpt>
      <trkpt lat="46.36738" lon="5.26808">
        <ele>211.4</ele>
        <time>2022-02-10T14:08:19Z</time>
      </trkpt>
      <trkpt lat="46.36738" lon="5.2678">
        <ele>211.2</ele>
        <time>2022-02-10T14:08:22Z</time>
      </trkpt>
      <trkpt lat="46.36735" lon="5.26762">
        <ele>211.2</ele>
        <time>2022-02-10T14:08:24Z</time>
      </trkpt>
      <trkpt lat="46.36733" lon="5.26753">
        <ele>211.2</ele>
        <time>2022-02-10T14:08:25Z</time>
      </trkpt>
      <trkpt lat="46.36725" lon="5.26738">
        <ele>211.2</ele>
        <time>2022-02-10T14:08:27Z</time>
      </trkpt>
      <trkpt lat="46.36721" lon="5.26731">
        <ele>211.2</ele>
        <time>2022-02-10T14:08:28Z</time>
      </trkpt>
      <trkpt lat="46.36695" lon="5.26702">
        <ele>211.2</ele>
        <time>2022-02-10T14:08:33Z</time>
      </trkpt>
      <trkpt lat="46.36689" lon="5.26698">
        <ele>211.2</ele>
        <time>2022-02-10T14:08:34Z</time>
      </trkpt>
      <trkpt lat="46.36683" lon="5.26695">
        <ele>211.2</ele>
        <time>2022-02-10T14:08:35Z</time>
      </trkpt>
      <trkpt lat="46.3667" lon="5.26693">
        <ele>211.4</ele>
        <time>2022-02-10T14:08:37Z</time>
      </trkpt>
      <trkpt lat="46.36664" lon="5.26693">
        <ele>211.4</ele>
        <time>2022-02-10T14:08:38Z</time>
      </trkpt>
      <trkpt lat="46.3662" lon="5.26699">
        <ele>211.6</ele>
        <time>2022-02-10T14:08:45Z</time>
      </trkpt>
      <trkpt lat="46.36607" lon="5.267">
        <ele>211.6</ele>
        <time>2022-02-10T14:08:47Z</time>
      </trkpt>
      <trkpt lat="46.36575" lon="5.26698">
        <ele>211.8</ele>
        <time>2022-02-10T14:08:52Z</time>
      </trkpt>
      <trkpt lat="46.36525" lon="5.2669">
        <ele>211.8</ele>
        <time>2022-02-10T14:09:00Z</time>
      </trkpt>
      <trkpt lat="46.36478" lon="5.26671">
        <ele>211.8</ele>
        <time>2022-02-10T14:09:08Z</time>
      </trkpt>
      <trkpt lat="46.36442" lon="5.26657">
        <ele>212</ele>
        <time>2022-02-10T14:09:14Z</time>
      </trkpt>
      <trkpt lat="46.36398" lon="5.26632">
        <ele>212.2</ele>
        <time>2022-02-10T14:09:22Z</time>
      </trkpt>
      <trkpt lat="46.36382" lon="5.26621">
        <ele>212.6</ele>
        <time>2022-02-10T14:09:25Z</time>
      </trkpt>
      <trkpt lat="46.36362" lon="5.26606">
        <ele>212.8</ele>
        <time>2022-02-10T14:09:29Z</time>
      </trkpt>
      <trkpt lat="46.36356" lon="5.26604">
        <ele>213</ele>
        <time>2022-02-10T14:09:30Z</time>
      </trkpt>
      <trkpt lat="46.36333" lon="5.266">
        <ele>213.4</ele>
        <time>2022-02-10T14:09:34Z</time>
      </trkpt>
      <trkpt lat="46.36328" lon="5.266">
        <ele>213.4</ele>
        <time>2022-02-10T14:09:35Z</time>
      </trkpt>
      <trkpt lat="46.36316" lon="5.26602">
        <ele>213.6</ele>
        <time>2022-02-10T14:09:37Z</time>
      </trkpt>
      <trkpt lat="46.36298" lon="5.26606">
        <ele>213.6</ele>
        <time>2022-02-10T14:09:40Z</time>
      </trkpt>
      <trkpt lat="46.36254" lon="5.26621">
        <ele>214</ele>
        <time>2022-02-10T14:09:48Z</time>
      </trkpt>
      <trkpt lat="46.3621" lon="5.26626">
        <ele>214.4</ele>
        <time>2022-02-10T14:09:56Z</time>
      </trkpt>
      <trkpt lat="46.36188" lon="5.26624">
        <ele>214.8</ele>
        <time>2022-02-10T14:10:00Z</time>
      </trkpt>
      <trkpt lat="46.36167" lon="5.26617">
        <ele>215.4</ele>
        <time>2022-02-10T14:10:04Z</time>
      </trkpt>
      <trkpt lat="46.36148" lon="5.26609">
        <ele>215.8</ele>
        <time>2022-02-10T14:10:08Z</time>
      </trkpt>
      <trkpt lat="46.36132" lon="5.26599">
        <ele>216.6</ele>
        <time>2022-02-10T14:10:12Z</time>
      </trkpt>
      <trkpt lat="46.36129" lon="5.26595">
        <ele>216.8</ele>
        <time>2022-02-10T14:10:13Z</time>
      </trkpt>
      <trkpt lat="46.36126" lon="5.26591">
        <ele>216.8</ele>
        <time>2022-02-10T14:10:14Z</time>
      </trkpt>
      <trkpt lat="46.36121" lon="5.26582">
        <ele>217.6</ele>
        <time>2022-02-10T14:10:16Z</time>
      </trkpt>
      <trkpt lat="46.36116" lon="5.26571">
        <ele>218.2</ele>
        <time>2022-02-10T14:10:18Z</time>
      </trkpt>
      <trkpt lat="46.36106" lon="5.26546">
        <ele>219</ele>
        <time>2022-02-10T14:10:23Z</time>
      </trkpt>
      <trkpt lat="46.36104" lon="5.26541">
        <ele>219.2</ele>
        <time>2022-02-10T14:10:24Z</time>
      </trkpt>
      <trkpt lat="46.36094" lon="5.26517">
        <ele>220.2</ele>
        <time>2022-02-10T14:10:29Z</time>
      </trkpt>
      <trkpt lat="46.36087" lon="5.26506">
        <ele>221</ele>
        <time>2022-02-10T14:10:32Z</time>
      </trkpt>
      <trkpt lat="46.36082" lon="5.26499">
        <ele>221.4</ele>
        <time>2022-02-10T14:10:34Z</time>
      </trkpt>
      <trkpt lat="46.3607" lon="5.26485">
        <ele>223</ele>
        <time>2022-02-10T14:10:39Z</time>
      </trkpt>
      <trkpt lat="46.36059" lon="5.26474">
        <ele>224.2</ele>
        <time>2022-02-10T14:10:43Z</time>
      </trkpt>
      <trkpt lat="46.36048" lon="5.26462">
        <ele>225.4</ele>
        <time>2022-02-10T14:10:47Z</time>
      </trkpt>
      <trkpt lat="46.3604" lon="5.26453">
        <ele>226</ele>
        <time>2022-02-10T14:10:50Z</time>
      </trkpt>
      <trkpt lat="46.36034" lon="5.26447">
        <ele>226.8</ele>
        <time>2022-02-10T14:10:52Z</time>
      </trkpt>
      <trkpt lat="46.36024" lon="5.26434">
        <ele>227.8</ele>
        <time>2022-02-10T14:10:56Z</time>
      </trkpt>
      <trkpt lat="46.36008" lon="5.26415">
        <ele>228.8</ele>
        <time>2022-02-10T14:11:02Z</time>
      </trkpt>
      <trkpt lat="46.35989" lon="5.26391">
        <ele>229.8</ele>
        <time>2022-02-10T14:11:09Z</time>
      </trkpt>
      <trkpt lat="46.35986" lon="5.26387">
        <ele>230</ele>
        <time>2022-02-10T14:11:10Z</time>
      </trkpt>
      <trkpt lat="46.35969" lon="5.26375">
        <ele>231</ele>
        <time>2022-02-10T14:11:15Z</time>
      </trkpt>
      <trkpt lat="46.35966" lon="5.26373">
        <ele>231.2</ele>
        <time>2022-02-10T14:11:16Z</time>
      </trkpt>
      <trkpt lat="46.35945" lon="5.26365">
        <ele>232.2</ele>
        <time>2022-02-10T14:11:22Z</time>
      </trkpt>
      <trkpt lat="46.35933" lon="5.26361">
        <ele>232.6</ele>
        <time>2022-02-10T14:11:25Z</time>
      </trkpt>
      <trkpt lat="46.35915" lon="5.26357">
        <ele>233.4</ele>
        <time>2022-02-10T14:11:29Z</time>
      </trkpt>
      <trkpt lat="46.35896" lon="5.26355">
        <ele>233.8</ele>
        <time>2022-02-10T14:11:33Z</time>
      </trkpt>
      <trkpt lat="46.35866" lon="5.2636">
        <ele>234.4</ele>
        <time>2022-02-10T14:11:40Z</time>
      </trkpt>
      <trkpt lat="46.35861" lon="5.26361">
        <ele>234.6</ele>
        <time>2022-02-10T14:11:41Z</time>
      </trkpt>
      <trkpt lat="46.35827" lon="5.26361">
        <ele>235.4</ele>
        <time>2022-02-10T14:11:49Z</time>
      </trkpt>
      <trkpt lat="46.35805" lon="5.26356">
        <ele>236.8</ele>
        <time>2022-02-10T14:11:55Z</time>
      </trkpt>
      <trkpt lat="46.35799" lon="5.26354">
        <ele>237.2</ele>
        <time>2022-02-10T14:11:57Z</time>
      </trkpt>
      <trkpt lat="46.35789" lon="5.2635">
        <ele>237.8</ele>
        <time>2022-02-10T14:12:00Z</time>
      </trkpt>
      <trkpt lat="46.35776" lon="5.26345">
        <ele>239.2</ele>
        <time>2022-02-10T14:12:04Z</time>
      </trkpt>
      <trkpt lat="46.35763" lon="5.26344">
        <ele>240.4</ele>
        <time>2022-02-10T14:12:08Z</time>
      </trkpt>
      <trkpt lat="46.35757" lon="5.26344">
        <ele>241</ele>
        <time>2022-02-10T14:12:10Z</time>
      </trkpt>
      <trkpt lat="46.35753" lon="5.26343">
        <ele>241.6</ele>
        <time>2022-02-10T14:12:11Z</time>
      </trkpt>
      <trkpt lat="46.35739" lon="5.26341">
        <ele>242.6</ele>
        <time>2022-02-10T14:12:15Z</time>
      </trkpt>
      <trkpt lat="46.35734" lon="5.26339">
        <ele>242.6</ele>
        <time>2022-02-10T14:12:16Z</time>
      </trkpt>
      <trkpt lat="46.3571" lon="5.26328">
        <ele>243.6</ele>
        <time>2022-02-10T14:12:21Z</time>
      </trkpt>
      <trkpt lat="46.35704" lon="5.26325">
        <ele>243.6</ele>
        <time>2022-02-10T14:12:22Z</time>
      </trkpt>
      <trkpt lat="46.35665" lon="5.26315">
        <ele>243.8</ele>
        <time>2022-02-10T14:12:28Z</time>
      </trkpt>
      <trkpt lat="46.3562" lon="5.26309">
        <ele>243</ele>
        <time>2022-02-10T14:12:34Z</time>
      </trkpt>
      <trkpt lat="46.35606" lon="5.26307">
        <ele>242.4</ele>
        <time>2022-02-10T14:12:36Z</time>
      </trkpt>
      <trkpt lat="46.3555" lon="5.26299">
        <ele>241.8</ele>
        <time>2022-02-10T14:12:44Z</time>
      </trkpt>
      <trkpt lat="46.35511" lon="5.26302">
        <ele>241.8</ele>
        <time>2022-02-10T14:12:50Z</time>
      </trkpt>
      <trkpt lat="46.35468" lon="5.26302">
        <ele>242</ele>
        <time>2022-02-10T14:12:57Z</time>
      </trkpt>
      <trkpt lat="46.35413" lon="5.26298">
        <ele>243</ele>
        <time>2022-02-10T14:13:06Z</time>
      </trkpt>
      <trkpt lat="46.35401" lon="5.26296">
        <ele>243.2</ele>
        <time>2022-02-10T14:13:08Z</time>
      </trkpt>
      <trkpt lat="46.35377" lon="5.26293">
        <ele>243.8</ele>
        <time>2022-02-10T14:13:12Z</time>
      </trkpt>
      <trkpt lat="46.35367" lon="5.26289">
        <ele>244</ele>
        <time>2022-02-10T14:13:14Z</time>
      </trkpt>
      <trkpt lat="46.35362" lon="5.26286">
        <ele>244.2</ele>
        <time>2022-02-10T14:13:15Z</time>
      </trkpt>
      <trkpt lat="46.35355" lon="5.2628">
        <ele>244.2</ele>
        <time>2022-02-10T14:13:16Z</time>
      </trkpt>
      <trkpt lat="46.35345" lon="5.2627">
        <ele>244.4</ele>
        <time>2022-02-10T14:13:18Z</time>
      </trkpt>
      <trkpt lat="46.35342" lon="5.26265">
        <ele>244.4</ele>
        <time>2022-02-10T14:13:19Z</time>
      </trkpt>
      <trkpt lat="46.35318" lon="5.26222">
        <ele>244.8</ele>
        <time>2022-02-10T14:13:25Z</time>
      </trkpt>
      <trkpt lat="46.35315" lon="5.26215">
        <ele>244.8</ele>
        <time>2022-02-10T14:13:26Z</time>
      </trkpt>
      <trkpt lat="46.35311" lon="5.26209">
        <ele>245</ele>
        <time>2022-02-10T14:13:27Z</time>
      </trkpt>
      <trkpt lat="46.35303" lon="5.26202">
        <ele>245.2</ele>
        <time>2022-02-10T14:13:29Z</time>
      </trkpt>
      <trkpt lat="46.35297" lon="5.26199">
        <ele>245.4</ele>
        <time>2022-02-10T14:13:30Z</time>
      </trkpt>
      <trkpt lat="46.35287" lon="5.26193">
        <ele>245.8</ele>
        <time>2022-02-10T14:13:32Z</time>
      </trkpt>
      <trkpt lat="46.35282" lon="5.26191">
        <ele>246</ele>
        <time>2022-02-10T14:13:33Z</time>
      </trkpt>
      <trkpt lat="46.35269" lon="5.26188">
        <ele>246.2</ele>
        <time>2022-02-10T14:13:35Z</time>
      </trkpt>
      <trkpt lat="46.3522" lon="5.26181">
        <ele>246.4</ele>
        <time>2022-02-10T14:13:43Z</time>
      </trkpt>
      <trkpt lat="46.35163" lon="5.26162">
        <ele>246.6</ele>
        <time>2022-02-10T14:13:52Z</time>
      </trkpt>
      <trkpt lat="46.35156" lon="5.2616">
        <ele>246.6</ele>
        <time>2022-02-10T14:13:53Z</time>
      </trkpt>
      <trkpt lat="46.35099" lon="5.26147">
        <ele>246.4</ele>
        <time>2022-02-10T14:14:02Z</time>
      </trkpt>
      <trkpt lat="46.35092" lon="5.26146">
        <ele>246.4</ele>
        <time>2022-02-10T14:14:03Z</time>
      </trkpt>
      <trkpt lat="46.35036" lon="5.26122">
        <ele>246.4</ele>
        <time>2022-02-10T14:14:12Z</time>
      </trkpt>
      <trkpt lat="46.35" lon="5.26108">
        <ele>245.4</ele>
        <time>2022-02-10T14:14:17Z</time>
      </trkpt>
      <trkpt lat="46.34992" lon="5.26108">
        <ele>245.4</ele>
        <time>2022-02-10T14:14:18Z</time>
      </trkpt>
      <trkpt lat="46.34968" lon="5.26109">
        <ele>244.4</ele>
        <time>2022-02-10T14:14:21Z</time>
      </trkpt>
      <trkpt lat="46.34944" lon="5.26109">
        <ele>243.6</ele>
        <time>2022-02-10T14:14:24Z</time>
      </trkpt>
      <trkpt lat="46.34914" lon="5.2611">
        <ele>243.4</ele>
        <time>2022-02-10T14:14:28Z</time>
      </trkpt>
      <trkpt lat="46.34899" lon="5.26107">
        <ele>243.2</ele>
        <time>2022-02-10T14:14:30Z</time>
      </trkpt>
      <trkpt lat="46.34847" lon="5.2609">
        <ele>242.8</ele>
        <time>2022-02-10T14:14:37Z</time>
      </trkpt>
      <trkpt lat="46.34817" lon="5.26083">
        <ele>242.2</ele>
        <time>2022-02-10T14:14:41Z</time>
      </trkpt>
      <trkpt lat="46.34802" lon="5.26083">
        <ele>242</ele>
        <time>2022-02-10T14:14:43Z</time>
      </trkpt>
      <trkpt lat="46.34762" lon="5.26081">
        <ele>241.2</ele>
        <time>2022-02-10T14:14:48Z</time>
      </trkpt>
      <trkpt lat="46.34753" lon="5.26081">
        <ele>241</ele>
        <time>2022-02-10T14:14:49Z</time>
      </trkpt>
      <trkpt lat="46.34725" lon="5.26079">
        <ele>239.6</ele>
        <time>2022-02-10T14:14:52Z</time>
      </trkpt>
      <trkpt lat="46.34705" lon="5.26077">
        <ele>238.6</ele>
        <time>2022-02-10T14:14:54Z</time>
      </trkpt>
      <trkpt lat="46.34696" lon="5.26076">
        <ele>238.4</ele>
        <time>2022-02-10T14:14:55Z</time>
      </trkpt>
      <trkpt lat="46.34688" lon="5.26076">
        <ele>237.4</ele>
        <time>2022-02-10T14:14:56Z</time>
      </trkpt>
      <trkpt lat="46.34675" lon="5.26073">
        <ele>236.2</ele>
        <time>2022-02-10T14:14:58Z</time>
      </trkpt>
      <trkpt lat="46.34665" lon="5.26061">
        <ele>235.2</ele>
        <time>2022-02-10T14:15:00Z</time>
      </trkpt>
      <trkpt lat="46.34661" lon="5.26052">
        <ele>234.2</ele>
        <time>2022-02-10T14:15:01Z</time>
      </trkpt>
      <trkpt lat="46.34658" lon="5.26044">
        <ele>233.6</ele>
        <time>2022-02-10T14:15:02Z</time>
      </trkpt>
      <trkpt lat="46.34654" lon="5.26035">
        <ele>232.2</ele>
        <time>2022-02-10T14:15:03Z</time>
      </trkpt>
      <trkpt lat="46.34641" lon="5.26013">
        <ele>231.2</ele>
        <time>2022-02-10T14:15:06Z</time>
      </trkpt>
      <trkpt lat="46.34617" lon="5.25967">
        <ele>230.8</ele>
        <time>2022-02-10T14:15:12Z</time>
      </trkpt>
      <trkpt lat="46.34613" lon="5.2596">
        <ele>230.8</ele>
        <time>2022-02-10T14:15:13Z</time>
      </trkpt>
      <trkpt lat="46.34592" lon="5.25928">
        <ele>231.2</ele>
        <time>2022-02-10T14:15:18Z</time>
      </trkpt>
      <trkpt lat="46.34565" lon="5.25886">
        <ele>232</ele>
        <time>2022-02-10T14:15:25Z</time>
      </trkpt>
      <trkpt lat="46.34562" lon="5.25881">
        <ele>232.2</ele>
        <time>2022-02-10T14:15:26Z</time>
      </trkpt>
      <trkpt lat="46.34558" lon="5.25876">
        <ele>232.2</ele>
        <time>2022-02-10T14:15:27Z</time>
      </trkpt>
      <trkpt lat="46.34551" lon="5.25861">
        <ele>232.6</ele>
        <time>2022-02-10T14:15:30Z</time>
      </trkpt>
      <trkpt lat="46.3455" lon="5.25855">
        <ele>232.8</ele>
        <time>2022-02-10T14:15:31Z</time>
      </trkpt>
      <trkpt lat="46.34551" lon="5.25846">
        <ele>233.2</ele>
        <time>2022-02-10T14:15:34Z</time>
      </trkpt>
      <trkpt lat="46.34552" lon="5.25845">
        <ele>233.2</ele>
        <time>2022-02-10T14:15:35Z</time>
      </trkpt>
      <trkpt lat="46.34553" lon="5.25843">
        <ele>233.6</ele>
        <time>2022-02-10T14:15:37Z</time>
      </trkpt>
      <trkpt lat="46.34557" lon="5.25844">
        <ele>233.6</ele>
        <time>2022-02-10T14:15:39Z</time>
      </trkpt>
      <trkpt lat="46.34564" lon="5.25846">
        <ele>234</ele>
        <time>2022-02-10T14:15:43Z</time>
      </trkpt>
      <trkpt lat="46.34567" lon="5.25841">
        <ele>234.2</ele>
        <time>2022-02-10T14:15:45Z</time>
      </trkpt>
      <trkpt lat="46.34565" lon="5.25834">
        <ele>234.2</ele>
        <time>2022-02-10T14:15:47Z</time>
      </trkpt>
      <trkpt lat="46.34561" lon="5.25831">
        <ele>234.4</ele>
        <time>2022-02-10T14:15:48Z</time>
      </trkpt>
      <trkpt lat="46.34556" lon="5.2583">
        <ele>234.4</ele>
        <time>2022-02-10T14:15:49Z</time>
      </trkpt>
      <trkpt lat="46.34541" lon="5.25824">
        <ele>234.8</ele>
        <time>2022-02-10T14:15:52Z</time>
      </trkpt>
      <trkpt lat="46.34506" lon="5.25808">
        <ele>235</ele>
        <time>2022-02-10T14:15:58Z</time>
      </trkpt>
      <trkpt lat="46.3447" lon="5.25792">
        <ele>234.8</ele>
        <time>2022-02-10T14:16:04Z</time>
      </trkpt>
      <trkpt lat="46.34424" lon="5.25774">
        <ele>234.8</ele>
        <time>2022-02-10T14:16:12Z</time>
      </trkpt>
      <trkpt lat="46.34398" lon="5.25766">
        <ele>234.8</ele>
        <time>2022-02-10T14:16:17Z</time>
      </trkpt>
      <trkpt lat="46.34395" lon="5.25761">
        <ele>234.8</ele>
        <time>2022-02-10T14:16:18Z</time>
      </trkpt>
      <trkpt lat="46.34392" lon="5.25755">
        <ele>234.8</ele>
        <time>2022-02-10T14:16:19Z</time>
      </trkpt>
      <trkpt lat="46.34392" lon="5.25741">
        <ele>235</ele>
        <time>2022-02-10T14:16:21Z</time>
      </trkpt>
      <trkpt lat="46.344" lon="5.25714">
        <ele>235.2</ele>
        <time>2022-02-10T14:16:25Z</time>
      </trkpt>
      <trkpt lat="46.34402" lon="5.25708">
        <ele>235.6</ele>
        <time>2022-02-10T14:16:26Z</time>
      </trkpt>
      <trkpt lat="46.34411" lon="5.25679">
        <ele>236.6</ele>
        <time>2022-02-10T14:16:31Z</time>
      </trkpt>
      <trkpt lat="46.34412" lon="5.25673">
        <ele>236.6</ele>
        <time>2022-02-10T14:16:32Z</time>
      </trkpt>
      <trkpt lat="46.34416" lon="5.25658">
        <ele>237.6</ele>
        <time>2022-02-10T14:16:35Z</time>
      </trkpt>
      <trkpt lat="46.34421" lon="5.25646">
        <ele>238.6</ele>
        <time>2022-02-10T14:16:38Z</time>
      </trkpt>
      <trkpt lat="46.34424" lon="5.25644">
        <ele>239</ele>
        <time>2022-02-10T14:16:39Z</time>
      </trkpt>
      <trkpt lat="46.34431" lon="5.25645">
        <ele>239.6</ele>
        <time>2022-02-10T14:16:41Z</time>
      </trkpt>
      <trkpt lat="46.3444" lon="5.25647">
        <ele>240</ele>
        <time>2022-02-10T14:16:43Z</time>
      </trkpt>
      <trkpt lat="46.34449" lon="5.25649">
        <ele>240.4</ele>
        <time>2022-02-10T14:16:45Z</time>
      </trkpt>
      <trkpt lat="46.34454" lon="5.25649">
        <ele>240.8</ele>
        <time>2022-02-10T14:16:46Z</time>
      </trkpt>
      <trkpt lat="46.34463" lon="5.25648">
        <ele>241</ele>
        <time>2022-02-10T14:16:48Z</time>
      </trkpt>
      <trkpt lat="46.34473" lon="5.25647">
        <ele>241.6</ele>
        <time>2022-02-10T14:16:50Z</time>
      </trkpt>
      <trkpt lat="46.34487" lon="5.25645">
        <ele>242</ele>
        <time>2022-02-10T14:16:53Z</time>
      </trkpt>
      <trkpt lat="46.34496" lon="5.25643">
        <ele>242.2</ele>
        <time>2022-02-10T14:16:55Z</time>
      </trkpt>
      <trkpt lat="46.34523" lon="5.25635">
        <ele>243</ele>
        <time>2022-02-10T14:17:01Z</time>
      </trkpt>
      <trkpt lat="46.34527" lon="5.25633">
        <ele>243.2</ele>
        <time>2022-02-10T14:17:02Z</time>
      </trkpt>
      <trkpt lat="46.34549" lon="5.25627">
        <ele>244</ele>
        <time>2022-02-10T14:17:06Z</time>
      </trkpt>
      <trkpt lat="46.34555" lon="5.25624">
        <ele>244</ele>
        <time>2022-02-10T14:17:07Z</time>
      </trkpt>
      <trkpt lat="46.34568" lon="5.25617">
        <ele>244</ele>
        <time>2022-02-10T14:17:09Z</time>
      </trkpt>
      <trkpt lat="46.3458" lon="5.25608">
        <ele>244</ele>
        <time>2022-02-10T14:17:11Z</time>
      </trkpt>
      <trkpt lat="46.34586" lon="5.25602">
        <ele>243.8</ele>
        <time>2022-02-10T14:17:12Z</time>
      </trkpt>
      <trkpt lat="46.34591" lon="5.25594">
        <ele>243.8</ele>
        <time>2022-02-10T14:17:13Z</time>
      </trkpt>
      <trkpt lat="46.346" lon="5.25574">
        <ele>243.2</ele>
        <time>2022-02-10T14:17:15Z</time>
      </trkpt>
      <trkpt lat="46.34609" lon="5.25524">
        <ele>242</ele>
        <time>2022-02-10T14:17:19Z</time>
      </trkpt>
      <trkpt lat="46.34617" lon="5.25483">
        <ele>240.6</ele>
        <time>2022-02-10T14:17:22Z</time>
      </trkpt>
      <trkpt lat="46.34624" lon="5.25454">
        <ele>239.8</ele>
        <time>2022-02-10T14:17:24Z</time>
      </trkpt>
      <trkpt lat="46.34626" lon="5.25439">
        <ele>239.2</ele>
        <time>2022-02-10T14:17:25Z</time>
      </trkpt>
      <trkpt lat="46.34631" lon="5.25409">
        <ele>237.8</ele>
        <time>2022-02-10T14:17:27Z</time>
      </trkpt>
      <trkpt lat="46.34632" lon="5.25393">
        <ele>237</ele>
        <time>2022-02-10T14:17:28Z</time>
      </trkpt>
      <trkpt lat="46.34635" lon="5.25378">
        <ele>236.6</ele>
        <time>2022-02-10T14:17:29Z</time>
      </trkpt>
      <trkpt lat="46.3464" lon="5.25348">
        <ele>235.6</ele>
        <time>2022-02-10T14:17:31Z</time>
      </trkpt>
      <trkpt lat="46.34647" lon="5.25319">
        <ele>234.4</ele>
        <time>2022-02-10T14:17:33Z</time>
      </trkpt>
      <trkpt lat="46.34668" lon="5.25236">
        <ele>233</ele>
        <time>2022-02-10T14:17:39Z</time>
      </trkpt>
      <trkpt lat="46.34671" lon="5.25224">
        <ele>233</ele>
        <time>2022-02-10T14:17:40Z</time>
      </trkpt>
      <trkpt lat="46.34685" lon="5.25167">
        <ele>232.8</ele>
        <time>2022-02-10T14:17:45Z</time>
      </trkpt>
      <trkpt lat="46.347" lon="5.25115">
        <ele>233.8</ele>
        <time>2022-02-10T14:17:51Z</time>
      </trkpt>
      <trkpt lat="46.34704" lon="5.25101">
        <ele>234.4</ele>
        <time>2022-02-10T14:17:53Z</time>
      </trkpt>
      <trkpt lat="46.34709" lon="5.25085">
        <ele>235.4</ele>
        <time>2022-02-10T14:17:56Z</time>
      </trkpt>
      <trkpt lat="46.34711" lon="5.2508">
        <ele>235.6</ele>
        <time>2022-02-10T14:17:57Z</time>
      </trkpt>
      <trkpt lat="46.34713" lon="5.25075">
        <ele>236</ele>
        <time>2022-02-10T14:17:58Z</time>
      </trkpt>
      <trkpt lat="46.34718" lon="5.25065">
        <ele>236.6</ele>
        <time>2022-02-10T14:18:00Z</time>
      </trkpt>
      <trkpt lat="46.3472" lon="5.25059">
        <ele>237</ele>
        <time>2022-02-10T14:18:01Z</time>
      </trkpt>
      <trkpt lat="46.34722" lon="5.25053">
        <ele>237.8</ele>
        <time>2022-02-10T14:18:02Z</time>
      </trkpt>
      <trkpt lat="46.34733" lon="5.25025">
        <ele>238.8</ele>
        <time>2022-02-10T14:18:06Z</time>
      </trkpt>
      <trkpt lat="46.34736" lon="5.25017">
        <ele>239.2</ele>
        <time>2022-02-10T14:18:07Z</time>
      </trkpt>
      <trkpt lat="46.34744" lon="5.24994">
        <ele>240</ele>
        <time>2022-02-10T14:18:10Z</time>
      </trkpt>
      <trkpt lat="46.34754" lon="5.24967">
        <ele>240.2</ele>
        <time>2022-02-10T14:18:13Z</time>
      </trkpt>
      <trkpt lat="46.34777" lon="5.24908">
        <ele>239.4</ele>
        <time>2022-02-10T14:18:19Z</time>
      </trkpt>
      <trkpt lat="46.3479" lon="5.24879">
        <ele>239</ele>
        <time>2022-02-10T14:18:22Z</time>
      </trkpt>
      <trkpt lat="46.34805" lon="5.24851">
        <ele>238.4</ele>
        <time>2022-02-10T14:18:25Z</time>
      </trkpt>
      <trkpt lat="46.34822" lon="5.24823">
        <ele>237.8</ele>
        <time>2022-02-10T14:18:28Z</time>
      </trkpt>
      <trkpt lat="46.34839" lon="5.24791">
        <ele>237.4</ele>
        <time>2022-02-10T14:18:31Z</time>
      </trkpt>
      <trkpt lat="46.34848" lon="5.24767">
        <ele>236.6</ele>
        <time>2022-02-10T14:18:33Z</time>
      </trkpt>
      <trkpt lat="46.34859" lon="5.24731">
        <ele>235.8</ele>
        <time>2022-02-10T14:18:36Z</time>
      </trkpt>
      <trkpt lat="46.34864" lon="5.24706">
        <ele>235.4</ele>
        <time>2022-02-10T14:18:38Z</time>
      </trkpt>
      <trkpt lat="46.34866" lon="5.24683">
        <ele>235.2</ele>
        <time>2022-02-10T14:18:40Z</time>
      </trkpt>
      <trkpt lat="46.3487" lon="5.24622">
        <ele>235</ele>
        <time>2022-02-10T14:18:46Z</time>
      </trkpt>
      <trkpt lat="46.34876" lon="5.24587">
        <ele>236.2</ele>
        <time>2022-02-10T14:18:51Z</time>
      </trkpt>
      <trkpt lat="46.34878" lon="5.24577">
        <ele>236.6</ele>
        <time>2022-02-10T14:18:53Z</time>
      </trkpt>
      <trkpt lat="46.34884" lon="5.24563">
        <ele>237.8</ele>
        <time>2022-02-10T14:18:56Z</time>
      </trkpt>
      <trkpt lat="46.34892" lon="5.24543">
        <ele>239.2</ele>
        <time>2022-02-10T14:19:00Z</time>
      </trkpt>
      <trkpt lat="46.34898" lon="5.24527">
        <ele>239.8</ele>
        <time>2022-02-10T14:19:03Z</time>
      </trkpt>
      <trkpt lat="46.34904" lon="5.24517">
        <ele>240.6</ele>
        <time>2022-02-10T14:19:05Z</time>
      </trkpt>
      <trkpt lat="46.34913" lon="5.24502">
        <ele>241</ele>
        <time>2022-02-10T14:19:08Z</time>
      </trkpt>
      <trkpt lat="46.34926" lon="5.24479">
        <ele>241.8</ele>
        <time>2022-02-10T14:19:12Z</time>
      </trkpt>
      <trkpt lat="46.3494" lon="5.24451">
        <ele>242.8</ele>
        <time>2022-02-10T14:19:17Z</time>
      </trkpt>
      <trkpt lat="46.34942" lon="5.24446">
        <ele>242.8</ele>
        <time>2022-02-10T14:19:18Z</time>
      </trkpt>
      <trkpt lat="46.34954" lon="5.24419">
        <ele>244</ele>
        <time>2022-02-10T14:19:23Z</time>
      </trkpt>
      <trkpt lat="46.34958" lon="5.24409">
        <ele>244.2</ele>
        <time>2022-02-10T14:19:25Z</time>
      </trkpt>
      <trkpt lat="46.3496" lon="5.24403">
        <ele>244.4</ele>
        <time>2022-02-10T14:19:26Z</time>
      </trkpt>
      <trkpt lat="46.34963" lon="5.24397">
        <ele>244.4</ele>
        <time>2022-02-10T14:19:27Z</time>
      </trkpt>
      <trkpt lat="46.34978" lon="5.24368">
        <ele>245</ele>
        <time>2022-02-10T14:19:32Z</time>
      </trkpt>
      <trkpt lat="46.34982" lon="5.24362">
        <ele>245</ele>
        <time>2022-02-10T14:19:33Z</time>
      </trkpt>
      <trkpt lat="46.35016" lon="5.24309">
        <ele>245.4</ele>
        <time>2022-02-10T14:19:42Z</time>
      </trkpt>
      <trkpt lat="46.35049" lon="5.2427">
        <ele>245.6</ele>
        <time>2022-02-10T14:19:49Z</time>
      </trkpt>
      <trkpt lat="46.35093" lon="5.24229">
        <ele>245.8</ele>
        <time>2022-02-10T14:19:57Z</time>
      </trkpt>
      <trkpt lat="46.35116" lon="5.24193">
        <ele>245.8</ele>
        <time>2022-02-10T14:20:02Z</time>
      </trkpt>
      <trkpt lat="46.35147" lon="5.24128">
        <ele>245.8</ele>
        <time>2022-02-10T14:20:10Z</time>
      </trkpt>
      <trkpt lat="46.35151" lon="5.2412">
        <ele>245.8</ele>
        <time>2022-02-10T14:20:11Z</time>
      </trkpt>
      <trkpt lat="46.35184" lon="5.24055">
        <ele>245.8</ele>
        <time>2022-02-10T14:20:19Z</time>
      </trkpt>
      <trkpt lat="46.35193" lon="5.24038">
        <ele>245.6</ele>
        <time>2022-02-10T14:20:21Z</time>
      </trkpt>
      <trkpt lat="46.35216" lon="5.23993">
        <ele>245.6</ele>
        <time>2022-02-10T14:20:26Z</time>
      </trkpt>
      <trkpt lat="46.35243" lon="5.23925">
        <ele>245.4</ele>
        <time>2022-02-10T14:20:33Z</time>
      </trkpt>
      <trkpt lat="46.35266" lon="5.23851">
        <ele>245</ele>
        <time>2022-02-10T14:20:40Z</time>
      </trkpt>
      <trkpt lat="46.35276" lon="5.2382">
        <ele>244.8</ele>
        <time>2022-02-10T14:20:43Z</time>
      </trkpt>
      <trkpt lat="46.35299" lon="5.23749">
        <ele>245</ele>
        <time>2022-02-10T14:20:50Z</time>
      </trkpt>
      <trkpt lat="46.35308" lon="5.23719">
        <ele>245</ele>
        <time>2022-02-10T14:20:53Z</time>
      </trkpt>
      <trkpt lat="46.35332" lon="5.23641">
        <ele>245.2</ele>
        <time>2022-02-10T14:21:01Z</time>
      </trkpt>
      <trkpt lat="46.35336" lon="5.23632">
        <ele>245.2</ele>
        <time>2022-02-10T14:21:02Z</time>
      </trkpt>
      <trkpt lat="46.35345" lon="5.23616">
        <ele>245.2</ele>
        <time>2022-02-10T14:21:04Z</time>
      </trkpt>
      <trkpt lat="46.35357" lon="5.23605">
        <ele>245.2</ele>
        <time>2022-02-10T14:21:06Z</time>
      </trkpt>
      <trkpt lat="46.35386" lon="5.23598">
        <ele>245.4</ele>
        <time>2022-02-10T14:21:10Z</time>
      </trkpt>
      <trkpt lat="46.35429" lon="5.23598">
        <ele>245.6</ele>
        <time>2022-02-10T14:21:16Z</time>
      </trkpt>
      <trkpt lat="46.35437" lon="5.23599">
        <ele>245.6</ele>
        <time>2022-02-10T14:21:17Z</time>
      </trkpt>
      <trkpt lat="46.35488" lon="5.23613">
        <ele>246</ele>
        <time>2022-02-10T14:21:24Z</time>
      </trkpt>
      <trkpt lat="46.35548" lon="5.23609">
        <ele>245.8</ele>
        <time>2022-02-10T14:21:32Z</time>
      </trkpt>
      <trkpt lat="46.35606" lon="5.23594">
        <ele>245.4</ele>
        <time>2022-02-10T14:21:40Z</time>
      </trkpt>
      <trkpt lat="46.35613" lon="5.23591">
        <ele>245.4</ele>
        <time>2022-02-10T14:21:41Z</time>
      </trkpt>
      <trkpt lat="46.35627" lon="5.23585">
        <ele>245.4</ele>
        <time>2022-02-10T14:21:43Z</time>
      </trkpt>
      <trkpt lat="46.35639" lon="5.23574">
        <ele>245.4</ele>
        <time>2022-02-10T14:21:45Z</time>
      </trkpt>
      <trkpt lat="46.35649" lon="5.23556">
        <ele>245.2</ele>
        <time>2022-02-10T14:21:47Z</time>
      </trkpt>
      <trkpt lat="46.35652" lon="5.23546">
        <ele>245.2</ele>
        <time>2022-02-10T14:21:48Z</time>
      </trkpt>
      <trkpt lat="46.35655" lon="5.23535">
        <ele>245.2</ele>
        <time>2022-02-10T14:21:49Z</time>
      </trkpt>
      <trkpt lat="46.35662" lon="5.23489">
        <ele>244.6</ele>
        <time>2022-02-10T14:21:53Z</time>
      </trkpt>
      <trkpt lat="46.3567" lon="5.23456">
        <ele>244.2</ele>
        <time>2022-02-10T14:21:56Z</time>
      </trkpt>
      <trkpt lat="46.35674" lon="5.23446">
        <ele>244</ele>
        <time>2022-02-10T14:21:57Z</time>
      </trkpt>
      <trkpt lat="46.35695" lon="5.2341">
        <ele>243.4</ele>
        <time>2022-02-10T14:22:01Z</time>
      </trkpt>
      <trkpt lat="46.35711" lon="5.23383">
        <ele>243</ele>
        <time>2022-02-10T14:22:04Z</time>
      </trkpt>
      <trkpt lat="46.3572" lon="5.23363">
        <ele>242.8</ele>
        <time>2022-02-10T14:22:06Z</time>
      </trkpt>
      <trkpt lat="46.35744" lon="5.2329">
        <ele>242.4</ele>
        <time>2022-02-10T14:22:13Z</time>
      </trkpt>
      <trkpt lat="46.35747" lon="5.2328">
        <ele>242.4</ele>
        <time>2022-02-10T14:22:14Z</time>
      </trkpt>
      <trkpt lat="46.3577" lon="5.23203">
        <ele>242</ele>
        <time>2022-02-10T14:22:21Z</time>
      </trkpt>
      <trkpt lat="46.35774" lon="5.23192">
        <ele>242</ele>
        <time>2022-02-10T14:22:22Z</time>
      </trkpt>
      <trkpt lat="46.35783" lon="5.2317">
        <ele>241.6</ele>
        <time>2022-02-10T14:22:24Z</time>
      </trkpt>
      <trkpt lat="46.35788" lon="5.2316">
        <ele>241.4</ele>
        <time>2022-02-10T14:22:25Z</time>
      </trkpt>
      <trkpt lat="46.35794" lon="5.23151">
        <ele>241.2</ele>
        <time>2022-02-10T14:22:26Z</time>
      </trkpt>
      <trkpt lat="46.35809" lon="5.23135">
        <ele>241</ele>
        <time>2022-02-10T14:22:28Z</time>
      </trkpt>
      <trkpt lat="46.35816" lon="5.23129">
        <ele>240.6</ele>
        <time>2022-02-10T14:22:29Z</time>
      </trkpt>
      <trkpt lat="46.35844" lon="5.23097">
        <ele>240</ele>
        <time>2022-02-10T14:22:33Z</time>
      </trkpt>
      <trkpt lat="46.3585" lon="5.23088">
        <ele>239.8</ele>
        <time>2022-02-10T14:22:34Z</time>
      </trkpt>
      <trkpt lat="46.35878" lon="5.2304">
        <ele>239</ele>
        <time>2022-02-10T14:22:39Z</time>
      </trkpt>
      <trkpt lat="46.3589" lon="5.23019">
        <ele>238.8</ele>
        <time>2022-02-10T14:22:41Z</time>
      </trkpt>
      <trkpt lat="46.35921" lon="5.22964">
        <ele>237.8</ele>
        <time>2022-02-10T14:22:46Z</time>
      </trkpt>
      <trkpt lat="46.35928" lon="5.22953">
        <ele>237.6</ele>
        <time>2022-02-10T14:22:47Z</time>
      </trkpt>
      <trkpt lat="46.35946" lon="5.22936">
        <ele>236.6</ele>
        <time>2022-02-10T14:22:49Z</time>
      </trkpt>
      <trkpt lat="46.35979" lon="5.2292">
        <ele>235.2</ele>
        <time>2022-02-10T14:22:52Z</time>
      </trkpt>
      <trkpt lat="46.35991" lon="5.22915">
        <ele>234.6</ele>
        <time>2022-02-10T14:22:53Z</time>
      </trkpt>
      <trkpt lat="46.36002" lon="5.22908">
        <ele>234</ele>
        <time>2022-02-10T14:22:54Z</time>
      </trkpt>
      <trkpt lat="46.36025" lon="5.22893">
        <ele>232.6</ele>
        <time>2022-02-10T14:22:56Z</time>
      </trkpt>
      <trkpt lat="46.36036" lon="5.22884">
        <ele>232</ele>
        <time>2022-02-10T14:22:57Z</time>
      </trkpt>
      <trkpt lat="46.36057" lon="5.2286">
        <ele>230.6</ele>
        <time>2022-02-10T14:22:59Z</time>
      </trkpt>
      <trkpt lat="46.36067" lon="5.22848">
        <ele>229.4</ele>
        <time>2022-02-10T14:23:00Z</time>
      </trkpt>
      <trkpt lat="46.36076" lon="5.22834">
        <ele>228.6</ele>
        <time>2022-02-10T14:23:01Z</time>
      </trkpt>
      <trkpt lat="46.36084" lon="5.2282">
        <ele>227.8</ele>
        <time>2022-02-10T14:23:02Z</time>
      </trkpt>
      <trkpt lat="46.36091" lon="5.22804">
        <ele>227.4</ele>
        <time>2022-02-10T14:23:03Z</time>
      </trkpt>
      <trkpt lat="46.36098" lon="5.22787">
        <ele>226.2</ele>
        <time>2022-02-10T14:23:04Z</time>
      </trkpt>
      <trkpt lat="46.3611" lon="5.22755">
        <ele>223.6</ele>
        <time>2022-02-10T14:23:06Z</time>
      </trkpt>
      <trkpt lat="46.36117" lon="5.22741">
        <ele>223</ele>
        <time>2022-02-10T14:23:07Z</time>
      </trkpt>
      <trkpt lat="46.36124" lon="5.22727">
        <ele>222</ele>
        <time>2022-02-10T14:23:08Z</time>
      </trkpt>
      <trkpt lat="46.36148" lon="5.22691">
        <ele>220.6</ele>
        <time>2022-02-10T14:23:11Z</time>
      </trkpt>
      <trkpt lat="46.36155" lon="5.22678">
        <ele>220.2</ele>
        <time>2022-02-10T14:23:12Z</time>
      </trkpt>
      <trkpt lat="46.36161" lon="5.22665">
        <ele>220</ele>
        <time>2022-02-10T14:23:13Z</time>
      </trkpt>
      <trkpt lat="46.36166" lon="5.22651">
        <ele>219.8</ele>
        <time>2022-02-10T14:23:14Z</time>
      </trkpt>
      <trkpt lat="46.36177" lon="5.2261">
        <ele>219.6</ele>
        <time>2022-02-10T14:23:17Z</time>
      </trkpt>
      <trkpt lat="46.36182" lon="5.22598">
        <ele>219.6</ele>
        <time>2022-02-10T14:23:18Z</time>
      </trkpt>
      <trkpt lat="46.36187" lon="5.22588">
        <ele>219.6</ele>
        <time>2022-02-10T14:23:19Z</time>
      </trkpt>
      <trkpt lat="46.36193" lon="5.22579">
        <ele>219.6</ele>
        <time>2022-02-10T14:23:20Z</time>
      </trkpt>
      <trkpt lat="46.36216" lon="5.22551">
        <ele>220</ele>
        <time>2022-02-10T14:23:24Z</time>
      </trkpt>
      <trkpt lat="46.36226" lon="5.2254">
        <ele>220.6</ele>
        <time>2022-02-10T14:23:26Z</time>
      </trkpt>
      <trkpt lat="46.3624" lon="5.22525">
        <ele>222.4</ele>
        <time>2022-02-10T14:23:29Z</time>
      </trkpt>
      <trkpt lat="46.36249" lon="5.22515">
        <ele>222.8</ele>
        <time>2022-02-10T14:23:31Z</time>
      </trkpt>
      <trkpt lat="46.36253" lon="5.22509">
        <ele>223.4</ele>
        <time>2022-02-10T14:23:32Z</time>
      </trkpt>
      <trkpt lat="46.36257" lon="5.22504">
        <ele>223.6</ele>
        <time>2022-02-10T14:23:33Z</time>
      </trkpt>
      <trkpt lat="46.36261" lon="5.22498">
        <ele>224.4</ele>
        <time>2022-02-10T14:23:34Z</time>
      </trkpt>
      <trkpt lat="46.36264" lon="5.22491">
        <ele>224.6</ele>
        <time>2022-02-10T14:23:35Z</time>
      </trkpt>
      <trkpt lat="46.36266" lon="5.22483">
        <ele>225</ele>
        <time>2022-02-10T14:23:36Z</time>
      </trkpt>
      <trkpt lat="46.36272" lon="5.22456">
        <ele>225.6</ele>
        <time>2022-02-10T14:23:39Z</time>
      </trkpt>
      <trkpt lat="46.36275" lon="5.22436">
        <ele>226</ele>
        <time>2022-02-10T14:23:41Z</time>
      </trkpt>
      <trkpt lat="46.36281" lon="5.22375">
        <ele>226</ele>
        <time>2022-02-10T14:23:46Z</time>
      </trkpt>
      <trkpt lat="46.36286" lon="5.2235">
        <ele>225.4</ele>
        <time>2022-02-10T14:23:48Z</time>
      </trkpt>
      <trkpt lat="46.36295" lon="5.22329">
        <ele>225</ele>
        <time>2022-02-10T14:23:50Z</time>
      </trkpt>
      <trkpt lat="46.3631" lon="5.22315">
        <ele>224.4</ele>
        <time>2022-02-10T14:23:52Z</time>
      </trkpt>
      <trkpt lat="46.36318" lon="5.22312">
        <ele>224.2</ele>
        <time>2022-02-10T14:23:53Z</time>
      </trkpt>
      <trkpt lat="46.36327" lon="5.22311">
        <ele>223.8</ele>
        <time>2022-02-10T14:23:54Z</time>
      </trkpt>
      <trkpt lat="46.36361" lon="5.22307">
        <ele>223.4</ele>
        <time>2022-02-10T14:23:58Z</time>
      </trkpt>
      <trkpt lat="46.36369" lon="5.22304">
        <ele>223.4</ele>
        <time>2022-02-10T14:23:59Z</time>
      </trkpt>
      <trkpt lat="46.36376" lon="5.22299">
        <ele>223.2</ele>
        <time>2022-02-10T14:24:00Z</time>
      </trkpt>
      <trkpt lat="46.36391" lon="5.22289">
        <ele>223.2</ele>
        <time>2022-02-10T14:24:02Z</time>
      </trkpt>
      <trkpt lat="46.36422" lon="5.22261">
        <ele>223</ele>
        <time>2022-02-10T14:24:07Z</time>
      </trkpt>
      <trkpt lat="46.36453" lon="5.22229">
        <ele>223.8</ele>
        <time>2022-02-10T14:24:13Z</time>
      </trkpt>
      <trkpt lat="46.36489" lon="5.22197">
        <ele>224.6</ele>
        <time>2022-02-10T14:24:20Z</time>
      </trkpt>
      <trkpt lat="46.36523" lon="5.22167">
        <ele>225.8</ele>
        <time>2022-02-10T14:24:27Z</time>
      </trkpt>
      <trkpt lat="46.36532" lon="5.22158">
        <ele>226</ele>
        <time>2022-02-10T14:24:29Z</time>
      </trkpt>
      <trkpt lat="46.36536" lon="5.22154">
        <ele>226.2</ele>
        <time>2022-02-10T14:24:30Z</time>
      </trkpt>
      <trkpt lat="46.36545" lon="5.22139">
        <ele>227</ele>
        <time>2022-02-10T14:24:33Z</time>
      </trkpt>
      <trkpt lat="46.36556" lon="5.22111">
        <ele>227.8</ele>
        <time>2022-02-10T14:24:38Z</time>
      </trkpt>
      <trkpt lat="46.36558" lon="5.22106">
        <ele>228.2</ele>
        <time>2022-02-10T14:24:39Z</time>
      </trkpt>
      <trkpt lat="46.36559" lon="5.221">
        <ele>228.6</ele>
        <time>2022-02-10T14:24:40Z</time>
      </trkpt>
      <trkpt lat="46.36561" lon="5.22093">
        <ele>229</ele>
        <time>2022-02-10T14:24:41Z</time>
      </trkpt>
      <trkpt lat="46.36565" lon="5.22075">
        <ele>229.6</ele>
        <time>2022-02-10T14:24:44Z</time>
      </trkpt>
      <trkpt lat="46.36566" lon="5.22069">
        <ele>230</ele>
        <time>2022-02-10T14:24:45Z</time>
      </trkpt>
      <trkpt lat="46.36569" lon="5.22058">
        <ele>230.6</ele>
        <time>2022-02-10T14:24:47Z</time>
      </trkpt>
      <trkpt lat="46.36573" lon="5.22042">
        <ele>231.2</ele>
        <time>2022-02-10T14:24:50Z</time>
      </trkpt>
      <trkpt lat="46.36575" lon="5.22036">
        <ele>231.2</ele>
        <time>2022-02-10T14:24:51Z</time>
      </trkpt>
      <trkpt lat="46.36577" lon="5.2203">
        <ele>231.4</ele>
        <time>2022-02-10T14:24:52Z</time>
      </trkpt>
      <trkpt lat="46.36581" lon="5.22018">
        <ele>232.2</ele>
        <time>2022-02-10T14:24:54Z</time>
      </trkpt>
      <trkpt lat="46.36582" lon="5.22012">
        <ele>232.6</ele>
        <time>2022-02-10T14:24:55Z</time>
      </trkpt>
      <trkpt lat="46.36589" lon="5.21985">
        <ele>233.4</ele>
        <time>2022-02-10T14:24:59Z</time>
      </trkpt>
      <trkpt lat="46.36591" lon="5.21972">
        <ele>233.8</ele>
        <time>2022-02-10T14:25:01Z</time>
      </trkpt>
      <trkpt lat="46.36597" lon="5.21935">
        <ele>235</ele>
        <time>2022-02-10T14:25:07Z</time>
      </trkpt>
      <trkpt lat="46.36599" lon="5.21923">
        <ele>235.4</ele>
        <time>2022-02-10T14:25:09Z</time>
      </trkpt>
      <trkpt lat="46.36604" lon="5.21888">
        <ele>236</ele>
        <time>2022-02-10T14:25:14Z</time>
      </trkpt>
      <trkpt lat="46.36606" lon="5.21873">
        <ele>236.2</ele>
        <time>2022-02-10T14:25:16Z</time>
      </trkpt>
      <trkpt lat="46.36614" lon="5.21818">
        <ele>237</ele>
        <time>2022-02-10T14:25:23Z</time>
      </trkpt>
      <trkpt lat="46.36615" lon="5.2181">
        <ele>237</ele>
        <time>2022-02-10T14:25:24Z</time>
      </trkpt>
      <trkpt lat="46.36625" lon="5.21747">
        <ele>237.4</ele>
        <time>2022-02-10T14:25:32Z</time>
      </trkpt>
      <trkpt lat="46.36641" lon="5.21691">
        <ele>238</ele>
        <time>2022-02-10T14:25:39Z</time>
      </trkpt>
      <trkpt lat="46.36648" lon="5.21675">
        <ele>238.2</ele>
        <time>2022-02-10T14:25:41Z</time>
      </trkpt>
      <trkpt lat="46.36653" lon="5.21668">
        <ele>238.2</ele>
        <time>2022-02-10T14:25:42Z</time>
      </trkpt>
      <trkpt lat="46.36662" lon="5.21656">
        <ele>238.4</ele>
        <time>2022-02-10T14:25:44Z</time>
      </trkpt>
      <trkpt lat="46.36694" lon="5.2162">
        <ele>238.8</ele>
        <time>2022-02-10T14:25:50Z</time>
      </trkpt>
      <trkpt lat="46.36698" lon="5.21612">
        <ele>238.8</ele>
        <time>2022-02-10T14:25:51Z</time>
      </trkpt>
      <trkpt lat="46.36702" lon="5.21604">
        <ele>238.8</ele>
        <time>2022-02-10T14:25:52Z</time>
      </trkpt>
      <trkpt lat="46.36716" lon="5.21568">
        <ele>238.4</ele>
        <time>2022-02-10T14:25:56Z</time>
      </trkpt>
      <trkpt lat="46.36736" lon="5.21494">
        <ele>238.8</ele>
        <time>2022-02-10T14:26:04Z</time>
      </trkpt>
      <trkpt lat="46.36738" lon="5.21484">
        <ele>238.8</ele>
        <time>2022-02-10T14:26:05Z</time>
      </trkpt>
      <trkpt lat="46.36751" lon="5.21431">
        <ele>239</ele>
        <time>2022-02-10T14:26:10Z</time>
      </trkpt>
      <trkpt lat="46.36757" lon="5.21411">
        <ele>238.6</ele>
        <time>2022-02-10T14:26:12Z</time>
      </trkpt>
      <trkpt lat="46.36767" lon="5.21394">
        <ele>238.6</ele>
        <time>2022-02-10T14:26:14Z</time>
      </trkpt>
      <trkpt lat="46.36787" lon="5.21362">
        <ele>238.4</ele>
        <time>2022-02-10T14:26:18Z</time>
      </trkpt>
      <trkpt lat="46.36795" lon="5.21342">
        <ele>238.2</ele>
        <time>2022-02-10T14:26:20Z</time>
      </trkpt>
      <trkpt lat="46.36798" lon="5.21318">
        <ele>238</ele>
        <time>2022-02-10T14:26:22Z</time>
      </trkpt>
      <trkpt lat="46.368" lon="5.21255">
        <ele>237</ele>
        <time>2022-02-10T14:26:27Z</time>
      </trkpt>
      <trkpt lat="46.36799" lon="5.21184">
        <ele>235.6</ele>
        <time>2022-02-10T14:26:32Z</time>
      </trkpt>
      <trkpt lat="46.36799" lon="5.21169">
        <ele>235</ele>
        <time>2022-02-10T14:26:33Z</time>
      </trkpt>
      <trkpt lat="46.36798" lon="5.21138">
        <ele>234.6</ele>
        <time>2022-02-10T14:26:35Z</time>
      </trkpt>
      <trkpt lat="46.36798" lon="5.21108">
        <ele>233.4</ele>
        <time>2022-02-10T14:26:37Z</time>
      </trkpt>
      <trkpt lat="46.36797" lon="5.21078">
        <ele>232.2</ele>
        <time>2022-02-10T14:26:39Z</time>
      </trkpt>
      <trkpt lat="46.36796" lon="5.21034">
        <ele>230.6</ele>
        <time>2022-02-10T14:26:42Z</time>
      </trkpt>
      <trkpt lat="46.36795" lon="5.20967">
        <ele>229.6</ele>
        <time>2022-02-10T14:26:47Z</time>
      </trkpt>
      <trkpt lat="46.36794" lon="5.20912">
        <ele>229.8</ele>
        <time>2022-02-10T14:26:52Z</time>
      </trkpt>
      <trkpt lat="46.36793" lon="5.20892">
        <ele>230.6</ele>
        <time>2022-02-10T14:26:54Z</time>
      </trkpt>
      <trkpt lat="46.36793" lon="5.20854">
        <ele>231.6</ele>
        <time>2022-02-10T14:26:58Z</time>
      </trkpt>
      <trkpt lat="46.36793" lon="5.20844">
        <ele>231.8</ele>
        <time>2022-02-10T14:26:59Z</time>
      </trkpt>
      <trkpt lat="46.36796" lon="5.20816">
        <ele>232.8</ele>
        <time>2022-02-10T14:27:02Z</time>
      </trkpt>
      <trkpt lat="46.36798" lon="5.20808">
        <ele>233</ele>
        <time>2022-02-10T14:27:03Z</time>
      </trkpt>
      <trkpt lat="46.368" lon="5.20798">
        <ele>233.4</ele>
        <time>2022-02-10T14:27:04Z</time>
      </trkpt>
      <trkpt lat="46.36808" lon="5.20771">
        <ele>234.2</ele>
        <time>2022-02-10T14:27:07Z</time>
      </trkpt>
      <trkpt lat="46.36816" lon="5.20755">
        <ele>234.4</ele>
        <time>2022-02-10T14:27:09Z</time>
      </trkpt>
      <trkpt lat="46.3683" lon="5.20734">
        <ele>234.8</ele>
        <time>2022-02-10T14:27:12Z</time>
      </trkpt>
      <trkpt lat="46.36841" lon="5.20723">
        <ele>235</ele>
        <time>2022-02-10T14:27:14Z</time>
      </trkpt>
      <trkpt lat="46.36856" lon="5.20703">
        <ele>235.2</ele>
        <time>2022-02-10T14:27:17Z</time>
      </trkpt>
      <trkpt lat="46.36869" lon="5.20682">
        <ele>235.6</ele>
        <time>2022-02-10T14:27:20Z</time>
      </trkpt>
      <trkpt lat="46.36873" lon="5.20674">
        <ele>235.4</ele>
        <time>2022-02-10T14:27:21Z</time>
      </trkpt>
      <trkpt lat="46.36882" lon="5.20652">
        <ele>235.4</ele>
        <time>2022-02-10T14:27:24Z</time>
      </trkpt>
      <trkpt lat="46.36894" lon="5.20623">
        <ele>235.8</ele>
        <time>2022-02-10T14:27:28Z</time>
      </trkpt>
      <trkpt lat="46.36899" lon="5.20607">
        <ele>236</ele>
        <time>2022-02-10T14:27:30Z</time>
      </trkpt>
      <trkpt lat="46.36905" lon="5.20591">
        <ele>236.2</ele>
        <time>2022-02-10T14:27:32Z</time>
      </trkpt>
      <trkpt lat="46.36916" lon="5.20569">
        <ele>236.4</ele>
        <time>2022-02-10T14:27:35Z</time>
      </trkpt>
      <trkpt lat="46.36934" lon="5.20531">
        <ele>236.8</ele>
        <time>2022-02-10T14:27:40Z</time>
      </trkpt>
      <trkpt lat="46.3694" lon="5.20514">
        <ele>236.8</ele>
        <time>2022-02-10T14:27:42Z</time>
      </trkpt>
      <trkpt lat="46.36945" lon="5.20485">
        <ele>237</ele>
        <time>2022-02-10T14:27:45Z</time>
      </trkpt>
      <trkpt lat="46.36947" lon="5.20473">
        <ele>236.8</ele>
        <time>2022-02-10T14:27:46Z</time>
      </trkpt>
      <trkpt lat="46.36951" lon="5.20405">
        <ele>236.6</ele>
        <time>2022-02-10T14:27:52Z</time>
      </trkpt>
      <trkpt lat="46.36954" lon="5.20323">
        <ele>235.8</ele>
        <time>2022-02-10T14:27:59Z</time>
      </trkpt>
      <trkpt lat="46.36956" lon="5.20297">
        <ele>235.2</ele>
        <time>2022-02-10T14:28:01Z</time>
      </trkpt>
      <trkpt lat="46.36957" lon="5.20271">
        <ele>235</ele>
        <time>2022-02-10T14:28:03Z</time>
      </trkpt>
      <trkpt lat="46.36958" lon="5.20231">
        <ele>234.2</ele>
        <time>2022-02-10T14:28:06Z</time>
      </trkpt>
      <trkpt lat="46.36959" lon="5.20202">
        <ele>233</ele>
        <time>2022-02-10T14:28:08Z</time>
      </trkpt>
      <trkpt lat="46.3696" lon="5.20172">
        <ele>231.6</ele>
        <time>2022-02-10T14:28:10Z</time>
      </trkpt>
      <trkpt lat="46.36963" lon="5.20126">
        <ele>230.2</ele>
        <time>2022-02-10T14:28:13Z</time>
      </trkpt>
      <trkpt lat="46.36966" lon="5.20111">
        <ele>229.2</ele>
        <time>2022-02-10T14:28:14Z</time>
      </trkpt>
      <trkpt lat="46.36969" lon="5.20096">
        <ele>228.4</ele>
        <time>2022-02-10T14:28:15Z</time>
      </trkpt>
      <trkpt lat="46.36979" lon="5.20054">
        <ele>227.2</ele>
        <time>2022-02-10T14:28:18Z</time>
      </trkpt>
      <trkpt lat="46.36989" lon="5.20014">
        <ele>226</ele>
        <time>2022-02-10T14:28:21Z</time>
      </trkpt>
      <trkpt lat="46.36998" lon="5.19976">
        <ele>225</ele>
        <time>2022-02-10T14:28:24Z</time>
      </trkpt>
      <trkpt lat="46.37" lon="5.19963">
        <ele>224.8</ele>
        <time>2022-02-10T14:28:25Z</time>
      </trkpt>
      <trkpt lat="46.37008" lon="5.19915">
        <ele>224.2</ele>
        <time>2022-02-10T14:28:29Z</time>
      </trkpt>
      <trkpt lat="46.37016" lon="5.19894">
        <ele>224</ele>
        <time>2022-02-10T14:28:31Z</time>
      </trkpt>
      <trkpt lat="46.37021" lon="5.19886">
        <ele>224</ele>
        <time>2022-02-10T14:28:32Z</time>
      </trkpt>
      <trkpt lat="46.37032" lon="5.1987">
        <ele>224.2</ele>
        <time>2022-02-10T14:28:34Z</time>
      </trkpt>
      <trkpt lat="46.37048" lon="5.19851">
        <ele>224.4</ele>
        <time>2022-02-10T14:28:37Z</time>
      </trkpt>
      <trkpt lat="46.37059" lon="5.19835">
        <ele>224.6</ele>
        <time>2022-02-10T14:28:39Z</time>
      </trkpt>
      <trkpt lat="46.37066" lon="5.1982">
        <ele>224.8</ele>
        <time>2022-02-10T14:28:41Z</time>
      </trkpt>
      <trkpt lat="46.37076" lon="5.19777">
        <ele>225.8</ele>
        <time>2022-02-10T14:28:46Z</time>
      </trkpt>
      <trkpt lat="46.37077" lon="5.19769">
        <ele>226</ele>
        <time>2022-02-10T14:28:47Z</time>
      </trkpt>
      <trkpt lat="46.37079" lon="5.19759">
        <ele>226.2</ele>
        <time>2022-02-10T14:28:48Z</time>
      </trkpt>
      <trkpt lat="46.37081" lon="5.19737">
        <ele>226.6</ele>
        <time>2022-02-10T14:28:51Z</time>
      </trkpt>
      <trkpt lat="46.37083" lon="5.19713">
        <ele>227.4</ele>
        <time>2022-02-10T14:28:54Z</time>
      </trkpt>
      <trkpt lat="46.37085" lon="5.19691">
        <ele>228</ele>
        <time>2022-02-10T14:28:57Z</time>
      </trkpt>
      <trkpt lat="46.37088" lon="5.19673">
        <ele>228.6</ele>
        <time>2022-02-10T14:28:59Z</time>
      </trkpt>
      <trkpt lat="46.37092" lon="5.19651">
        <ele>229.4</ele>
        <time>2022-02-10T14:29:02Z</time>
      </trkpt>
      <trkpt lat="46.37093" lon="5.19643">
        <ele>229.8</ele>
        <time>2022-02-10T14:29:03Z</time>
      </trkpt>
      <trkpt lat="46.37095" lon="5.19636">
        <ele>230</ele>
        <time>2022-02-10T14:29:04Z</time>
      </trkpt>
      <trkpt lat="46.37106" lon="5.19586">
        <ele>230.8</ele>
        <time>2022-02-10T14:29:11Z</time>
      </trkpt>
      <trkpt lat="46.37108" lon="5.1957">
        <ele>231</ele>
        <time>2022-02-10T14:29:13Z</time>
      </trkpt>
      <trkpt lat="46.37109" lon="5.19521">
        <ele>232</ele>
        <time>2022-02-10T14:29:19Z</time>
      </trkpt>
      <trkpt lat="46.37109" lon="5.19512">
        <ele>232</ele>
        <time>2022-02-10T14:29:20Z</time>
      </trkpt>
      <trkpt lat="46.37102" lon="5.19441">
        <ele>233</ele>
        <time>2022-02-10T14:29:29Z</time>
      </trkpt>
      <trkpt lat="46.37102" lon="5.19433">
        <ele>233</ele>
        <time>2022-02-10T14:29:30Z</time>
      </trkpt>
      <trkpt lat="46.37106" lon="5.19376">
        <ele>234</ele>
        <time>2022-02-10T14:29:37Z</time>
      </trkpt>
      <trkpt lat="46.37109" lon="5.1935">
        <ele>234.2</ele>
        <time>2022-02-10T14:29:40Z</time>
      </trkpt>
      <trkpt lat="46.3712" lon="5.19301">
        <ele>234.4</ele>
        <time>2022-02-10T14:29:46Z</time>
      </trkpt>
      <trkpt lat="46.37138" lon="5.19221">
        <ele>234.8</ele>
        <time>2022-02-10T14:29:56Z</time>
      </trkpt>
      <trkpt lat="46.37153" lon="5.19154">
        <ele>235.4</ele>
        <time>2022-02-10T14:30:05Z</time>
      </trkpt>
      <trkpt lat="46.37156" lon="5.19139">
        <ele>236.2</ele>
        <time>2022-02-10T14:30:07Z</time>
      </trkpt>
      <trkpt lat="46.3716" lon="5.19123">
        <ele>236.6</ele>
        <time>2022-02-10T14:30:09Z</time>
      </trkpt>
      <trkpt lat="46.37173" lon="5.1906">
        <ele>237.2</ele>
        <time>2022-02-10T14:30:17Z</time>
      </trkpt>
      <trkpt lat="46.37183" lon="5.1901">
        <ele>237.2</ele>
        <time>2022-02-10T14:30:22Z</time>
      </trkpt>
      <trkpt lat="46.37193" lon="5.18937">
        <ele>235.4</ele>
        <time>2022-02-10T14:30:28Z</time>
      </trkpt>
      <trkpt lat="46.37199" lon="5.18889">
        <ele>234.2</ele>
        <time>2022-02-10T14:30:32Z</time>
      </trkpt>
      <trkpt lat="46.37209" lon="5.18842">
        <ele>233.6</ele>
        <time>2022-02-10T14:30:36Z</time>
      </trkpt>
      <trkpt lat="46.37216" lon="5.18809">
        <ele>233.2</ele>
        <time>2022-02-10T14:30:39Z</time>
      </trkpt>
      <trkpt lat="46.37217" lon="5.18797">
        <ele>233</ele>
        <time>2022-02-10T14:30:40Z</time>
      </trkpt>
      <trkpt lat="46.37217" lon="5.18786">
        <ele>232.6</ele>
        <time>2022-02-10T14:30:41Z</time>
      </trkpt>
      <trkpt lat="46.37214" lon="5.18751">
        <ele>232</ele>
        <time>2022-02-10T14:30:44Z</time>
      </trkpt>
      <trkpt lat="46.37211" lon="5.1874">
        <ele>232</ele>
        <time>2022-02-10T14:30:45Z</time>
      </trkpt>
      <trkpt lat="46.37198" lon="5.18666">
        <ele>231.4</ele>
        <time>2022-02-10T14:30:52Z</time>
      </trkpt>
      <trkpt lat="46.37195" lon="5.18625">
        <ele>231</ele>
        <time>2022-02-10T14:30:56Z</time>
      </trkpt>
      <trkpt lat="46.37193" lon="5.18596">
        <ele>231</ele>
        <time>2022-02-10T14:30:59Z</time>
      </trkpt>
      <trkpt lat="46.37193" lon="5.18557">
        <ele>231.2</ele>
        <time>2022-02-10T14:31:03Z</time>
      </trkpt>
      <trkpt lat="46.37195" lon="5.18547">
        <ele>231.2</ele>
        <time>2022-02-10T14:31:04Z</time>
      </trkpt>
      <trkpt lat="46.37197" lon="5.18538">
        <ele>231.4</ele>
        <time>2022-02-10T14:31:05Z</time>
      </trkpt>
      <trkpt lat="46.37209" lon="5.1851">
        <ele>231.4</ele>
        <time>2022-02-10T14:31:08Z</time>
      </trkpt>
      <trkpt lat="46.3722" lon="5.18483">
        <ele>231.4</ele>
        <time>2022-02-10T14:31:11Z</time>
      </trkpt>
      <trkpt lat="46.37224" lon="5.18461">
        <ele>231.4</ele>
        <time>2022-02-10T14:31:13Z</time>
      </trkpt>
      <trkpt lat="46.37223" lon="5.18407">
        <ele>231</ele>
        <time>2022-02-10T14:31:17Z</time>
      </trkpt>
      <trkpt lat="46.37222" lon="5.18361">
        <ele>229.8</ele>
        <time>2022-02-10T14:31:20Z</time>
      </trkpt>
      <trkpt lat="46.37222" lon="5.18331">
        <ele>228.8</ele>
        <time>2022-02-10T14:31:22Z</time>
      </trkpt>
      <trkpt lat="46.37219" lon="5.18301">
        <ele>227.4</ele>
        <time>2022-02-10T14:31:24Z</time>
      </trkpt>
      <trkpt lat="46.37214" lon="5.18272">
        <ele>226</ele>
        <time>2022-02-10T14:31:26Z</time>
      </trkpt>
      <trkpt lat="46.3721" lon="5.18244">
        <ele>224.8</ele>
        <time>2022-02-10T14:31:28Z</time>
      </trkpt>
      <trkpt lat="46.37208" lon="5.18203">
        <ele>224</ele>
        <time>2022-02-10T14:31:31Z</time>
      </trkpt>
      <trkpt lat="46.37208" lon="5.18164">
        <ele>223.6</ele>
        <time>2022-02-10T14:31:34Z</time>
      </trkpt>
      <trkpt lat="46.37207" lon="5.18151">
        <ele>223.4</ele>
        <time>2022-02-10T14:31:35Z</time>
      </trkpt>
      <trkpt lat="46.37205" lon="5.1814">
        <ele>223.4</ele>
        <time>2022-02-10T14:31:36Z</time>
      </trkpt>
      <trkpt lat="46.37198" lon="5.18119">
        <ele>223.2</ele>
        <time>2022-02-10T14:31:38Z</time>
      </trkpt>
      <trkpt lat="46.37187" lon="5.18102">
        <ele>223.2</ele>
        <time>2022-02-10T14:31:40Z</time>
      </trkpt>
      <trkpt lat="46.3718" lon="5.18095">
        <ele>223.2</ele>
        <time>2022-02-10T14:31:41Z</time>
      </trkpt>
      <trkpt lat="46.37174" lon="5.18089">
        <ele>223.2</ele>
        <time>2022-02-10T14:31:42Z</time>
      </trkpt>
      <trkpt lat="46.37146" lon="5.18065">
        <ele>223.2</ele>
        <time>2022-02-10T14:31:46Z</time>
      </trkpt>
      <trkpt lat="46.37114" lon="5.18031">
        <ele>222.6</ele>
        <time>2022-02-10T14:31:51Z</time>
      </trkpt>
      <trkpt lat="46.37109" lon="5.18023">
        <ele>222.6</ele>
        <time>2022-02-10T14:31:52Z</time>
      </trkpt>
      <trkpt lat="46.37105" lon="5.18015">
        <ele>222.4</ele>
        <time>2022-02-10T14:31:53Z</time>
      </trkpt>
      <trkpt lat="46.37089" lon="5.17969">
        <ele>222.2</ele>
        <time>2022-02-10T14:31:58Z</time>
      </trkpt>
      <trkpt lat="46.37073" lon="5.17899">
        <ele>222.4</ele>
        <time>2022-02-10T14:32:06Z</time>
      </trkpt>
      <trkpt lat="46.37071" lon="5.1789">
        <ele>222.4</ele>
        <time>2022-02-10T14:32:07Z</time>
      </trkpt>
      <trkpt lat="46.37065" lon="5.17859">
        <ele>222.8</ele>
        <time>2022-02-10T14:32:11Z</time>
      </trkpt>
      <trkpt lat="46.37059" lon="5.17831">
        <ele>223.6</ele>
        <time>2022-02-10T14:32:15Z</time>
      </trkpt>
      <trkpt lat="46.37055" lon="5.17817">
        <ele>224</ele>
        <time>2022-02-10T14:32:17Z</time>
      </trkpt>
      <trkpt lat="46.3705" lon="5.17796">
        <ele>224.6</ele>
        <time>2022-02-10T14:32:20Z</time>
      </trkpt>
      <trkpt lat="46.3704" lon="5.17765">
        <ele>225.8</ele>
        <time>2022-02-10T14:32:25Z</time>
      </trkpt>
      <trkpt lat="46.37037" lon="5.17753">
        <ele>226.4</ele>
        <time>2022-02-10T14:32:27Z</time>
      </trkpt>
      <trkpt lat="46.37033" lon="5.17735">
        <ele>227.4</ele>
        <time>2022-02-10T14:32:30Z</time>
      </trkpt>
      <trkpt lat="46.37027" lon="5.17706">
        <ele>228</ele>
        <time>2022-02-10T14:32:35Z</time>
      </trkpt>
      <trkpt lat="46.37027" lon="5.177">
        <ele>228.6</ele>
        <time>2022-02-10T14:32:36Z</time>
      </trkpt>
      <trkpt lat="46.37025" lon="5.1769">
        <ele>229.2</ele>
        <time>2022-02-10T14:32:38Z</time>
      </trkpt>
      <trkpt lat="46.37024" lon="5.17685">
        <ele>229.6</ele>
        <time>2022-02-10T14:32:39Z</time>
      </trkpt>
      <trkpt lat="46.37024" lon="5.17676">
        <ele>230.4</ele>
        <time>2022-02-10T14:32:41Z</time>
      </trkpt>
      <trkpt lat="46.37023" lon="5.17673">
        <ele>230.6</ele>
        <time>2022-02-10T14:32:42Z</time>
      </trkpt>
      <trkpt lat="46.37024" lon="5.17668">
        <ele>231.2</ele>
        <time>2022-02-10T14:32:44Z</time>
      </trkpt>
      <trkpt lat="46.37026" lon="5.17667">
        <ele>231.4</ele>
        <time>2022-02-10T14:32:45Z</time>
      </trkpt>
      <trkpt lat="46.37031" lon="5.17665">
        <ele>231.8</ele>
        <time>2022-02-10T14:32:47Z</time>
      </trkpt>
      <trkpt lat="46.37044" lon="5.17664">
        <ele>232.4</ele>
        <time>2022-02-10T14:32:50Z</time>
      </trkpt>
      <trkpt lat="46.37059" lon="5.17659">
        <ele>232.8</ele>
        <time>2022-02-10T14:32:53Z</time>
      </trkpt>
      <trkpt lat="46.37063" lon="5.17657">
        <ele>232.8</ele>
        <time>2022-02-10T14:32:54Z</time>
      </trkpt>
      <trkpt lat="46.37073" lon="5.17656">
        <ele>233</ele>
        <time>2022-02-10T14:32:56Z</time>
      </trkpt>
      <trkpt lat="46.37095" lon="5.17654">
        <ele>233.4</ele>
        <time>2022-02-10T14:33:00Z</time>
      </trkpt>
      <trkpt lat="46.37107" lon="5.17657">
        <ele>233.6</ele>
        <time>2022-02-10T14:33:02Z</time>
      </trkpt>
      <trkpt lat="46.37119" lon="5.17664">
        <ele>233.4</ele>
        <time>2022-02-10T14:33:04Z</time>
      </trkpt>
      <trkpt lat="46.37131" lon="5.17677">
        <ele>233.2</ele>
        <time>2022-02-10T14:33:06Z</time>
      </trkpt>
      <trkpt lat="46.37162" lon="5.17721">
        <ele>232.4</ele>
        <time>2022-02-10T14:33:11Z</time>
      </trkpt>
      <trkpt lat="46.37179" lon="5.17751">
        <ele>231.6</ele>
        <time>2022-02-10T14:33:14Z</time>
      </trkpt>
      <trkpt lat="46.3719" lon="5.17773">
        <ele>230.4</ele>
        <time>2022-02-10T14:33:16Z</time>
      </trkpt>
      <trkpt lat="46.37195" lon="5.17783">
        <ele>230</ele>
        <time>2022-02-10T14:33:17Z</time>
      </trkpt>
      <trkpt lat="46.37225" lon="5.17837">
        <ele>229.4</ele>
        <time>2022-02-10T14:33:23Z</time>
      </trkpt>
      <trkpt lat="46.3725" lon="5.17881">
        <ele>230.4</ele>
        <time>2022-02-10T14:33:29Z</time>
      </trkpt>
      <trkpt lat="46.37274" lon="5.17928">
        <ele>231.6</ele>
        <time>2022-02-10T14:33:36Z</time>
      </trkpt>
      <trkpt lat="46.37281" lon="5.17942">
        <ele>232.2</ele>
        <time>2022-02-10T14:33:38Z</time>
      </trkpt>
      <trkpt lat="46.37287" lon="5.17956">
        <ele>232.6</ele>
        <time>2022-02-10T14:33:40Z</time>
      </trkpt>
      <trkpt lat="46.37307" lon="5.1799">
        <ele>233.8</ele>
        <time>2022-02-10T14:33:45Z</time>
      </trkpt>
      <trkpt lat="46.37319" lon="5.18012">
        <ele>234.2</ele>
        <time>2022-02-10T14:33:48Z</time>
      </trkpt>
      <trkpt lat="46.37351" lon="5.18067">
        <ele>234.8</ele>
        <time>2022-02-10T14:33:55Z</time>
      </trkpt>
      <trkpt lat="46.37361" lon="5.18083">
        <ele>234.8</ele>
        <time>2022-02-10T14:33:57Z</time>
      </trkpt>
      <trkpt lat="46.37395" lon="5.18143">
        <ele>235</ele>
        <time>2022-02-10T14:34:04Z</time>
      </trkpt>
      <trkpt lat="46.37401" lon="5.18151">
        <ele>235</ele>
        <time>2022-02-10T14:34:05Z</time>
      </trkpt>
      <trkpt lat="46.3744" lon="5.18216">
        <ele>235.2</ele>
        <time>2022-02-10T14:34:13Z</time>
      </trkpt>
      <trkpt lat="46.37453" lon="5.18239">
        <ele>235.4</ele>
        <time>2022-02-10T14:34:16Z</time>
      </trkpt>
      <trkpt lat="46.37485" lon="5.18286">
        <ele>235.8</ele>
        <time>2022-02-10T14:34:23Z</time>
      </trkpt>
      <trkpt lat="46.37491" lon="5.18293">
        <ele>236</ele>
        <time>2022-02-10T14:34:24Z</time>
      </trkpt>
      <trkpt lat="46.37521" lon="5.18333">
        <ele>236.2</ele>
        <time>2022-02-10T14:34:30Z</time>
      </trkpt>
      <trkpt lat="46.3753" lon="5.18345">
        <ele>236.2</ele>
        <time>2022-02-10T14:34:32Z</time>
      </trkpt>
      <trkpt lat="46.37574" lon="5.184">
        <ele>236.4</ele>
        <time>2022-02-10T14:34:40Z</time>
      </trkpt>
      <trkpt lat="46.3762" lon="5.18457">
        <ele>236.2</ele>
        <time>2022-02-10T14:34:48Z</time>
      </trkpt>
      <trkpt lat="46.37632" lon="5.18472">
        <ele>236</ele>
        <time>2022-02-10T14:34:50Z</time>
      </trkpt>
      <trkpt lat="46.37674" lon="5.18524">
        <ele>235</ele>
        <time>2022-02-10T14:34:57Z</time>
      </trkpt>
      <trkpt lat="46.3768" lon="5.18531">
        <ele>234.8</ele>
        <time>2022-02-10T14:34:58Z</time>
      </trkpt>
      <trkpt lat="46.3771" lon="5.18571">
        <ele>233.8</ele>
        <time>2022-02-10T14:35:03Z</time>
      </trkpt>
      <trkpt lat="46.37723" lon="5.18587">
        <ele>233.2</ele>
        <time>2022-02-10T14:35:05Z</time>
      </trkpt>
      <trkpt lat="46.3773" lon="5.18596">
        <ele>232.6</ele>
        <time>2022-02-10T14:35:06Z</time>
      </trkpt>
      <trkpt lat="46.37757" lon="5.18631">
        <ele>231.2</ele>
        <time>2022-02-10T14:35:10Z</time>
      </trkpt>
      <trkpt lat="46.37772" lon="5.1865">
        <ele>230.6</ele>
        <time>2022-02-10T14:35:12Z</time>
      </trkpt>
      <trkpt lat="46.37819" lon="5.18708">
        <ele>230.4</ele>
        <time>2022-02-10T14:35:19Z</time>
      </trkpt>
      <trkpt lat="46.37825" lon="5.18716">
        <ele>230.2</ele>
        <time>2022-02-10T14:35:20Z</time>
      </trkpt>
      <trkpt lat="46.37853" lon="5.18753">
        <ele>230.4</ele>
        <time>2022-02-10T14:35:25Z</time>
      </trkpt>
      <trkpt lat="46.37864" lon="5.18765">
        <ele>230.6</ele>
        <time>2022-02-10T14:35:28Z</time>
      </trkpt>
      <trkpt lat="46.37865" lon="5.18763">
        <ele>231</ele>
        <time>2022-02-10T14:35:30Z</time>
      </trkpt>
      <trkpt lat="46.3786" lon="5.18757">
        <ele>231.4</ele>
        <time>2022-02-10T14:35:32Z</time>
      </trkpt>
      <trkpt lat="46.37855" lon="5.18753">
        <ele>231.4</ele>
        <time>2022-02-10T14:35:34Z</time>
      </trkpt>
      <trkpt lat="46.37853" lon="5.18755">
        <ele>231.6</ele>
        <time>2022-02-10T14:35:36Z</time>
      </trkpt>
      <trkpt lat="46.37854" lon="5.18756">
        <ele>231.4</ele>
        <time>2022-02-10T14:35:39Z</time>
      </trkpt>
      <trkpt lat="46.37856" lon="5.18758">
        <ele>231</ele>
        <time>2022-02-10T14:35:50Z</time>
      </trkpt>
      <trkpt lat="46.37868" lon="5.18773">
        <ele>231.2</ele>
        <time>2022-02-10T14:35:56Z</time>
      </trkpt>
      <trkpt lat="46.37884" lon="5.18792">
        <ele>231.6</ele>
        <time>2022-02-10T14:36:00Z</time>
      </trkpt>
      <trkpt lat="46.37892" lon="5.18803">
        <ele>231.8</ele>
        <time>2022-02-10T14:36:02Z</time>
      </trkpt>
      <trkpt lat="46.3791" lon="5.18826">
        <ele>232.2</ele>
        <time>2022-02-10T14:36:06Z</time>
      </trkpt>
      <trkpt lat="46.37931" lon="5.18853">
        <ele>232.6</ele>
        <time>2022-02-10T14:36:10Z</time>
      </trkpt>
      <trkpt lat="46.37947" lon="5.18873">
        <ele>232.8</ele>
        <time>2022-02-10T14:36:13Z</time>
      </trkpt>
      <trkpt lat="46.37967" lon="5.18899">
        <ele>233.6</ele>
        <time>2022-02-10T14:36:17Z</time>
      </trkpt>
      <trkpt lat="46.37986" lon="5.18923">
        <ele>234.2</ele>
        <time>2022-02-10T14:36:21Z</time>
      </trkpt>
      <trkpt lat="46.38026" lon="5.18973">
        <ele>234.6</ele>
        <time>2022-02-10T14:36:29Z</time>
      </trkpt>
      <trkpt lat="46.3803" lon="5.18978">
        <ele>234.6</ele>
        <time>2022-02-10T14:36:30Z</time>
      </trkpt>
      <trkpt lat="46.38072" lon="5.19032">
        <ele>235.2</ele>
        <time>2022-02-10T14:36:39Z</time>
      </trkpt>
      <trkpt lat="46.38087" lon="5.19051">
        <ele>235.4</ele>
        <time>2022-02-10T14:36:42Z</time>
      </trkpt>
      <trkpt lat="46.38095" lon="5.19062">
        <ele>235.8</ele>
        <time>2022-02-10T14:36:44Z</time>
      </trkpt>
      <trkpt lat="46.3811" lon="5.19082">
        <ele>236.4</ele>
        <time>2022-02-10T14:36:47Z</time>
      </trkpt>
      <trkpt lat="46.3814" lon="5.19119">
        <ele>236.8</ele>
        <time>2022-02-10T14:36:53Z</time>
      </trkpt>
      <trkpt lat="46.38155" lon="5.19138">
        <ele>237</ele>
        <time>2022-02-10T14:36:56Z</time>
      </trkpt>
      <trkpt lat="46.38196" lon="5.1919">
        <ele>237.8</ele>
        <time>2022-02-10T14:37:04Z</time>
      </trkpt>
      <trkpt lat="46.38202" lon="5.19197">
        <ele>238</ele>
        <time>2022-02-10T14:37:05Z</time>
      </trkpt>
      <trkpt lat="46.38219" lon="5.19219">
        <ele>237.6</ele>
        <time>2022-02-10T14:37:08Z</time>
      </trkpt>
      <trkpt lat="46.38261" lon="5.19272">
        <ele>237</ele>
        <time>2022-02-10T14:37:15Z</time>
      </trkpt>
      <trkpt lat="46.38303" lon="5.19324">
        <ele>236.6</ele>
        <time>2022-02-10T14:37:22Z</time>
      </trkpt>
      <trkpt lat="46.38315" lon="5.19339">
        <ele>236.2</ele>
        <time>2022-02-10T14:37:24Z</time>
      </trkpt>
      <trkpt lat="46.38338" lon="5.19367">
        <ele>235.8</ele>
        <time>2022-02-10T14:37:28Z</time>
      </trkpt>
      <trkpt lat="46.38361" lon="5.19396">
        <ele>235.8</ele>
        <time>2022-02-10T14:37:32Z</time>
      </trkpt>
      <trkpt lat="46.38405" lon="5.19451">
        <ele>235.8</ele>
        <time>2022-02-10T14:37:40Z</time>
      </trkpt>
      <trkpt lat="46.38448" lon="5.19506">
        <ele>236</ele>
        <time>2022-02-10T14:37:48Z</time>
      </trkpt>
      <trkpt lat="46.38464" lon="5.19527">
        <ele>236.2</ele>
        <time>2022-02-10T14:37:51Z</time>
      </trkpt>
      <trkpt lat="46.38509" lon="5.19585">
        <ele>236</ele>
        <time>2022-02-10T14:37:59Z</time>
      </trkpt>
      <trkpt lat="46.38528" lon="5.19607">
        <ele>236</ele>
        <time>2022-02-10T14:38:02Z</time>
      </trkpt>
      <trkpt lat="46.3857" lon="5.1966">
        <ele>235.8</ele>
        <time>2022-02-10T14:38:09Z</time>
      </trkpt>
      <trkpt lat="46.38582" lon="5.19675">
        <ele>235.8</ele>
        <time>2022-02-10T14:38:11Z</time>
      </trkpt>
      <trkpt lat="46.38625" lon="5.19729">
        <ele>236</ele>
        <time>2022-02-10T14:38:18Z</time>
      </trkpt>
      <trkpt lat="46.38637" lon="5.19744">
        <ele>236</ele>
        <time>2022-02-10T14:38:20Z</time>
      </trkpt>
      <trkpt lat="46.3868" lon="5.19799">
        <ele>235.6</ele>
        <time>2022-02-10T14:38:27Z</time>
      </trkpt>
      <trkpt lat="46.38706" lon="5.19831">
        <ele>235.2</ele>
        <time>2022-02-10T14:38:31Z</time>
      </trkpt>
      <trkpt lat="46.38713" lon="5.1984">
        <ele>235</ele>
        <time>2022-02-10T14:38:32Z</time>
      </trkpt>
      <trkpt lat="46.38741" lon="5.19877">
        <ele>234.2</ele>
        <time>2022-02-10T14:38:36Z</time>
      </trkpt>
      <trkpt lat="46.38749" lon="5.19886">
        <ele>233.8</ele>
        <time>2022-02-10T14:38:37Z</time>
      </trkpt>
      <trkpt lat="46.38779" lon="5.19925">
        <ele>232.6</ele>
        <time>2022-02-10T14:38:41Z</time>
      </trkpt>
      <trkpt lat="46.38795" lon="5.19945">
        <ele>232.2</ele>
        <time>2022-02-10T14:38:43Z</time>
      </trkpt>
      <trkpt lat="46.38812" lon="5.19965">
        <ele>231.4</ele>
        <time>2022-02-10T14:38:45Z</time>
      </trkpt>
      <trkpt lat="46.38836" lon="5.19996">
        <ele>229.8</ele>
        <time>2022-02-10T14:38:48Z</time>
      </trkpt>
      <trkpt lat="46.38852" lon="5.20017">
        <ele>229.4</ele>
        <time>2022-02-10T14:38:50Z</time>
      </trkpt>
      <trkpt lat="46.3886" lon="5.20027">
        <ele>228.6</ele>
        <time>2022-02-10T14:38:51Z</time>
      </trkpt>
      <trkpt lat="46.38876" lon="5.20047">
        <ele>227.4</ele>
        <time>2022-02-10T14:38:53Z</time>
      </trkpt>
      <trkpt lat="46.38906" lon="5.20085">
        <ele>226.2</ele>
        <time>2022-02-10T14:38:57Z</time>
      </trkpt>
      <trkpt lat="46.38945" lon="5.20134">
        <ele>225.8</ele>
        <time>2022-02-10T14:39:03Z</time>
      </trkpt>
      <trkpt lat="46.38982" lon="5.20181">
        <ele>227</ele>
        <time>2022-02-10T14:39:10Z</time>
      </trkpt>
      <trkpt lat="46.38992" lon="5.20193">
        <ele>227.2</ele>
        <time>2022-02-10T14:39:12Z</time>
      </trkpt>
      <trkpt lat="46.39012" lon="5.20219">
        <ele>228.4</ele>
        <time>2022-02-10T14:39:16Z</time>
      </trkpt>
      <trkpt lat="46.39022" lon="5.20232">
        <ele>228.8</ele>
        <time>2022-02-10T14:39:18Z</time>
      </trkpt>
      <trkpt lat="46.3904" lon="5.20255">
        <ele>229.4</ele>
        <time>2022-02-10T14:39:22Z</time>
      </trkpt>
      <trkpt lat="46.39049" lon="5.20266">
        <ele>230</ele>
        <time>2022-02-10T14:39:24Z</time>
      </trkpt>
      <trkpt lat="46.39053" lon="5.20272">
        <ele>230.2</ele>
        <time>2022-02-10T14:39:25Z</time>
      </trkpt>
      <trkpt lat="46.39061" lon="5.20283">
        <ele>230.6</ele>
        <time>2022-02-10T14:39:27Z</time>
      </trkpt>
      <trkpt lat="46.39069" lon="5.20293">
        <ele>230.8</ele>
        <time>2022-02-10T14:39:29Z</time>
      </trkpt>
      <trkpt lat="46.39081" lon="5.20308">
        <ele>231.6</ele>
        <time>2022-02-10T14:39:32Z</time>
      </trkpt>
      <trkpt lat="46.39101" lon="5.20332">
        <ele>232.6</ele>
        <time>2022-02-10T14:39:37Z</time>
      </trkpt>
      <trkpt lat="46.39104" lon="5.20337">
        <ele>232.6</ele>
        <time>2022-02-10T14:39:38Z</time>
      </trkpt>
      <trkpt lat="46.39126" lon="5.20367">
        <ele>233.8</ele>
        <time>2022-02-10T14:39:44Z</time>
      </trkpt>
      <trkpt lat="46.39138" lon="5.20382">
        <ele>234</ele>
        <time>2022-02-10T14:39:47Z</time>
      </trkpt>
      <trkpt lat="46.39163" lon="5.20415">
        <ele>234.8</ele>
        <time>2022-02-10T14:39:53Z</time>
      </trkpt>
      <trkpt lat="46.39177" lon="5.20432">
        <ele>234.8</ele>
        <time>2022-02-10T14:39:56Z</time>
      </trkpt>
      <trkpt lat="46.39215" lon="5.20481">
        <ele>235</ele>
        <time>2022-02-10T14:40:04Z</time>
      </trkpt>
      <trkpt lat="46.39234" lon="5.20505">
        <ele>235.4</ele>
        <time>2022-02-10T14:40:08Z</time>
      </trkpt>
      <trkpt lat="46.39262" lon="5.20541">
        <ele>235.8</ele>
        <time>2022-02-10T14:40:14Z</time>
      </trkpt>
      <trkpt lat="46.39305" lon="5.20597">
        <ele>236.4</ele>
        <time>2022-02-10T14:40:23Z</time>
      </trkpt>
      <trkpt lat="46.39315" lon="5.2061">
        <ele>236.4</ele>
        <time>2022-02-10T14:40:25Z</time>
      </trkpt>
      <trkpt lat="46.39339" lon="5.20641">
        <ele>236.8</ele>
        <time>2022-02-10T14:40:30Z</time>
      </trkpt>
      <trkpt lat="46.39353" lon="5.2066">
        <ele>237</ele>
        <time>2022-02-10T14:40:33Z</time>
      </trkpt>
      <trkpt lat="46.39393" lon="5.20712">
        <ele>237.2</ele>
        <time>2022-02-10T14:40:41Z</time>
      </trkpt>
      <trkpt lat="46.3943" lon="5.20759">
        <ele>237.4</ele>
        <time>2022-02-10T14:40:48Z</time>
      </trkpt>
      <trkpt lat="46.39472" lon="5.20812">
        <ele>237.4</ele>
        <time>2022-02-10T14:40:56Z</time>
      </trkpt>
      <trkpt lat="46.39477" lon="5.20819">
        <ele>237.4</ele>
        <time>2022-02-10T14:40:57Z</time>
      </trkpt>
      <trkpt lat="46.39507" lon="5.20857">
        <ele>237.8</ele>
        <time>2022-02-10T14:41:03Z</time>
      </trkpt>
      <trkpt lat="46.39516" lon="5.20869">
        <ele>238.2</ele>
        <time>2022-02-10T14:41:05Z</time>
      </trkpt>
      <trkpt lat="46.39562" lon="5.20927">
        <ele>238.4</ele>
        <time>2022-02-10T14:41:14Z</time>
      </trkpt>
      <trkpt lat="46.39602" lon="5.20979">
        <ele>238.6</ele>
        <time>2022-02-10T14:41:22Z</time>
      </trkpt>
      <trkpt lat="46.39612" lon="5.20991">
        <ele>239</ele>
        <time>2022-02-10T14:41:24Z</time>
      </trkpt>
      <trkpt lat="46.39628" lon="5.21012">
        <ele>239</ele>
        <time>2022-02-10T14:41:27Z</time>
      </trkpt>
      <trkpt lat="46.39659" lon="5.21052">
        <ele>239</ele>
        <time>2022-02-10T14:41:33Z</time>
      </trkpt>
      <trkpt lat="46.39701" lon="5.2111">
        <ele>238.6</ele>
        <time>2022-02-10T14:41:40Z</time>
      </trkpt>
      <trkpt lat="46.39727" lon="5.21148">
        <ele>237.8</ele>
        <time>2022-02-10T14:41:44Z</time>
      </trkpt>
      <trkpt lat="46.3974" lon="5.21169">
        <ele>237.6</ele>
        <time>2022-02-10T14:41:46Z</time>
      </trkpt>
      <trkpt lat="46.39755" lon="5.2119">
        <ele>236.4</ele>
        <time>2022-02-10T14:41:48Z</time>
      </trkpt>
      <trkpt lat="46.39769" lon="5.21212">
        <ele>235.2</ele>
        <time>2022-02-10T14:41:50Z</time>
      </trkpt>
      <trkpt lat="46.39785" lon="5.21236">
        <ele>234.4</ele>
        <time>2022-02-10T14:41:52Z</time>
      </trkpt>
      <trkpt lat="46.39793" lon="5.21248">
        <ele>234</ele>
        <time>2022-02-10T14:41:53Z</time>
      </trkpt>
      <trkpt lat="46.39809" lon="5.21272">
        <ele>232.6</ele>
        <time>2022-02-10T14:41:55Z</time>
      </trkpt>
      <trkpt lat="46.39825" lon="5.21297">
        <ele>231.4</ele>
        <time>2022-02-10T14:41:57Z</time>
      </trkpt>
      <trkpt lat="46.39841" lon="5.21321">
        <ele>230</ele>
        <time>2022-02-10T14:41:59Z</time>
      </trkpt>
      <trkpt lat="46.39857" lon="5.21345">
        <ele>229</ele>
        <time>2022-02-10T14:42:01Z</time>
      </trkpt>
      <trkpt lat="46.39882" lon="5.21381">
        <ele>227.2</ele>
        <time>2022-02-10T14:42:04Z</time>
      </trkpt>
      <trkpt lat="46.39898" lon="5.21405">
        <ele>226.2</ele>
        <time>2022-02-10T14:42:06Z</time>
      </trkpt>
      <trkpt lat="46.39913" lon="5.21429">
        <ele>225.2</ele>
        <time>2022-02-10T14:42:08Z</time>
      </trkpt>
      <trkpt lat="46.39921" lon="5.21441">
        <ele>225</ele>
        <time>2022-02-10T14:42:09Z</time>
      </trkpt>
      <trkpt lat="46.39944" lon="5.21475">
        <ele>224</ele>
        <time>2022-02-10T14:42:12Z</time>
      </trkpt>
      <trkpt lat="46.39966" lon="5.21508">
        <ele>222.4</ele>
        <time>2022-02-10T14:42:15Z</time>
      </trkpt>
      <trkpt lat="46.4" lon="5.21561">
        <ele>221.4</ele>
        <time>2022-02-10T14:42:20Z</time>
      </trkpt>
      <trkpt lat="46.40006" lon="5.21571">
        <ele>221.2</ele>
        <time>2022-02-10T14:42:21Z</time>
      </trkpt>
      <trkpt lat="46.40045" lon="5.2163">
        <ele>220.6</ele>
        <time>2022-02-10T14:42:27Z</time>
      </trkpt>
      <trkpt lat="46.40052" lon="5.21639">
        <ele>220.4</ele>
        <time>2022-02-10T14:42:28Z</time>
      </trkpt>
      <trkpt lat="46.40058" lon="5.21649">
        <ele>220.2</ele>
        <time>2022-02-10T14:42:29Z</time>
      </trkpt>
      <trkpt lat="46.40097" lon="5.21708">
        <ele>219.2</ele>
        <time>2022-02-10T14:42:35Z</time>
      </trkpt>
      <trkpt lat="46.40104" lon="5.21718">
        <ele>218.6</ele>
        <time>2022-02-10T14:42:36Z</time>
      </trkpt>
      <trkpt lat="46.4013" lon="5.21758">
        <ele>218</ele>
        <time>2022-02-10T14:42:40Z</time>
      </trkpt>
      <trkpt lat="46.4015" lon="5.21788">
        <ele>217.6</ele>
        <time>2022-02-10T14:42:43Z</time>
      </trkpt>
      <trkpt lat="46.40169" lon="5.21817">
        <ele>217</ele>
        <time>2022-02-10T14:42:46Z</time>
      </trkpt>
      <trkpt lat="46.40182" lon="5.21836">
        <ele>216.4</ele>
        <time>2022-02-10T14:42:48Z</time>
      </trkpt>
      <trkpt lat="46.40219" lon="5.21891">
        <ele>215.4</ele>
        <time>2022-02-10T14:42:54Z</time>
      </trkpt>
      <trkpt lat="46.40224" lon="5.219">
        <ele>215.4</ele>
        <time>2022-02-10T14:42:55Z</time>
      </trkpt>
      <trkpt lat="46.40261" lon="5.21956">
        <ele>215.6</ele>
        <time>2022-02-10T14:43:02Z</time>
      </trkpt>
      <trkpt lat="46.40295" lon="5.22006">
        <ele>216.2</ele>
        <time>2022-02-10T14:43:09Z</time>
      </trkpt>
      <trkpt lat="46.40324" lon="5.22051">
        <ele>216.6</ele>
        <time>2022-02-10T14:43:16Z</time>
      </trkpt>
      <trkpt lat="46.40328" lon="5.22057">
        <ele>216.8</ele>
        <time>2022-02-10T14:43:17Z</time>
      </trkpt>
      <trkpt lat="46.4037" lon="5.22119">
        <ele>217.2</ele>
        <time>2022-02-10T14:43:27Z</time>
      </trkpt>
      <trkpt lat="46.40386" lon="5.22143">
        <ele>217.8</ele>
        <time>2022-02-10T14:43:31Z</time>
      </trkpt>
      <trkpt lat="46.4039" lon="5.22149">
        <ele>217.8</ele>
        <time>2022-02-10T14:43:32Z</time>
      </trkpt>
      <trkpt lat="46.40397" lon="5.2216">
        <ele>218.4</ele>
        <time>2022-02-10T14:43:34Z</time>
      </trkpt>
      <trkpt lat="46.40405" lon="5.22173">
        <ele>218.8</ele>
        <time>2022-02-10T14:43:37Z</time>
      </trkpt>
      <trkpt lat="46.40409" lon="5.22177">
        <ele>218.8</ele>
        <time>2022-02-10T14:43:39Z</time>
      </trkpt>
      <trkpt lat="46.4041" lon="5.22179">
        <ele>218.8</ele>
        <time>2022-02-10T14:43:43Z</time>
      </trkpt>
      <trkpt lat="46.40414" lon="5.22179">
        <ele>218.6</ele>
        <time>2022-02-10T14:43:51Z</time>
      </trkpt>
      <trkpt lat="46.40417" lon="5.22173">
        <ele>218.6</ele>
        <time>2022-02-10T14:43:53Z</time>
      </trkpt>
      <trkpt lat="46.40419" lon="5.22148">
        <ele>218.6</ele>
        <time>2022-02-10T14:43:57Z</time>
      </trkpt>
      <trkpt lat="46.40423" lon="5.22102">
        <ele>218.4</ele>
        <time>2022-02-10T14:44:02Z</time>
      </trkpt>
      <trkpt lat="46.40429" lon="5.22023">
        <ele>217.8</ele>
        <time>2022-02-10T14:44:09Z</time>
      </trkpt>
      <trkpt lat="46.4043" lon="5.22012">
        <ele>217.4</ele>
        <time>2022-02-10T14:44:10Z</time>
      </trkpt>
      <trkpt lat="46.40434" lon="5.21941">
        <ele>216.6</ele>
        <time>2022-02-10T14:44:16Z</time>
      </trkpt>
      <trkpt lat="46.40435" lon="5.21929">
        <ele>216.4</ele>
        <time>2022-02-10T14:44:17Z</time>
      </trkpt>
      <trkpt lat="46.40441" lon="5.21857">
        <ele>215.6</ele>
        <time>2022-02-10T14:44:23Z</time>
      </trkpt>
      <trkpt lat="46.40442" lon="5.21834">
        <ele>215.4</ele>
        <time>2022-02-10T14:44:25Z</time>
      </trkpt>
      <trkpt lat="46.40448" lon="5.21755">
        <ele>214.8</ele>
        <time>2022-02-10T14:44:32Z</time>
      </trkpt>
      <trkpt lat="46.4045" lon="5.21722">
        <ele>214.8</ele>
        <time>2022-02-10T14:44:35Z</time>
      </trkpt>
      <trkpt lat="46.40455" lon="5.21657">
        <ele>214.6</ele>
        <time>2022-02-10T14:44:41Z</time>
      </trkpt>
      <trkpt lat="46.40458" lon="5.21615">
        <ele>214.4</ele>
        <time>2022-02-10T14:44:45Z</time>
      </trkpt>
      <trkpt lat="46.40461" lon="5.21562">
        <ele>214.2</ele>
        <time>2022-02-10T14:44:50Z</time>
      </trkpt>
      <trkpt lat="46.40467" lon="5.21483">
        <ele>214.2</ele>
        <time>2022-02-10T14:44:58Z</time>
      </trkpt>
      <trkpt lat="46.40472" lon="5.21407">
        <ele>214.8</ele>
        <time>2022-02-10T14:45:06Z</time>
      </trkpt>
      <trkpt lat="46.40476" lon="5.21345">
        <ele>215.6</ele>
        <time>2022-02-10T14:45:13Z</time>
      </trkpt>
      <trkpt lat="46.40483" lon="5.21267">
        <ele>216.4</ele>
        <time>2022-02-10T14:45:22Z</time>
      </trkpt>
      <trkpt lat="46.40483" lon="5.21257">
        <ele>216.4</ele>
        <time>2022-02-10T14:45:23Z</time>
      </trkpt>
      <trkpt lat="46.40485" lon="5.21228">
        <ele>216.6</ele>
        <time>2022-02-10T14:45:26Z</time>
      </trkpt>
      <trkpt lat="46.4049" lon="5.21166">
        <ele>216.6</ele>
        <time>2022-02-10T14:45:32Z</time>
      </trkpt>
      <trkpt lat="46.40492" lon="5.21107">
        <ele>216.2</ele>
        <time>2022-02-10T14:45:38Z</time>
      </trkpt>
      <trkpt lat="46.40494" lon="5.21098">
        <ele>216.2</ele>
        <time>2022-02-10T14:45:39Z</time>
      </trkpt>
      <trkpt lat="46.40498" lon="5.21092">
        <ele>216</ele>
        <time>2022-02-10T14:45:40Z</time>
      </trkpt>
      <trkpt lat="46.40505" lon="5.2109">
        <ele>216</ele>
        <time>2022-02-10T14:45:41Z</time>
      </trkpt>
      <trkpt lat="46.40518" lon="5.21099">
        <ele>215.8</ele>
        <time>2022-02-10T14:45:43Z</time>
      </trkpt>
      <trkpt lat="46.40524" lon="5.21104">
        <ele>215.8</ele>
        <time>2022-02-10T14:45:44Z</time>
      </trkpt>
      <trkpt lat="46.40544" lon="5.2112">
        <ele>215.6</ele>
        <time>2022-02-10T14:45:47Z</time>
      </trkpt>
      <trkpt lat="46.40565" lon="5.21134">
        <ele>215.4</ele>
        <time>2022-02-10T14:45:50Z</time>
      </trkpt>
      <trkpt lat="46.40573" lon="5.21136">
        <ele>215.4</ele>
        <time>2022-02-10T14:45:51Z</time>
      </trkpt>
      <trkpt lat="46.4058" lon="5.21136">
        <ele>215.2</ele>
        <time>2022-02-10T14:45:52Z</time>
      </trkpt>
      <trkpt lat="46.40596" lon="5.21132">
        <ele>215</ele>
        <time>2022-02-10T14:45:54Z</time>
      </trkpt>
      <trkpt lat="46.40645" lon="5.2111">
        <ele>215.2</ele>
        <time>2022-02-10T14:46:01Z</time>
      </trkpt>
      <trkpt lat="46.40698" lon="5.21087">
        <ele>215.2</ele>
        <time>2022-02-10T14:46:09Z</time>
      </trkpt>
      <trkpt lat="46.40719" lon="5.21077">
        <ele>215.2</ele>
        <time>2022-02-10T14:46:12Z</time>
      </trkpt>
      <trkpt lat="46.40772" lon="5.21054">
        <ele>216.4</ele>
        <time>2022-02-10T14:46:21Z</time>
      </trkpt>
      <trkpt lat="46.40778" lon="5.21051">
        <ele>216.4</ele>
        <time>2022-02-10T14:46:22Z</time>
      </trkpt>
      <trkpt lat="46.40788" lon="5.21047">
        <ele>216.6</ele>
        <time>2022-02-10T14:46:24Z</time>
      </trkpt>
      <trkpt lat="46.40844" lon="5.21024">
        <ele>217.4</ele>
        <time>2022-02-10T14:46:34Z</time>
      </trkpt>
      <trkpt lat="46.40861" lon="5.21017">
        <ele>217.8</ele>
        <time>2022-02-10T14:46:37Z</time>
      </trkpt>
      <trkpt lat="46.40912" lon="5.20995">
        <ele>218.8</ele>
        <time>2022-02-10T14:46:46Z</time>
      </trkpt>
      <trkpt lat="46.40945" lon="5.20981">
        <ele>220</ele>
        <time>2022-02-10T14:46:52Z</time>
      </trkpt>
      <trkpt lat="46.40978" lon="5.20965">
        <ele>220.6</ele>
        <time>2022-02-10T14:46:58Z</time>
      </trkpt>
      <trkpt lat="46.40991" lon="5.20959">
        <ele>220.6</ele>
        <time>2022-02-10T14:47:00Z</time>
      </trkpt>
      <trkpt lat="46.41014" lon="5.20949">
        <ele>221</ele>
        <time>2022-02-10T14:47:04Z</time>
      </trkpt>
      <trkpt lat="46.41032" lon="5.20942">
        <ele>220.8</ele>
        <time>2022-02-10T14:47:07Z</time>
      </trkpt>
      <trkpt lat="46.41083" lon="5.20925">
        <ele>221.6</ele>
        <time>2022-02-10T14:47:16Z</time>
      </trkpt>
      <trkpt lat="46.41111" lon="5.20916">
        <ele>222.2</ele>
        <time>2022-02-10T14:47:21Z</time>
      </trkpt>
      <trkpt lat="46.41139" lon="5.20907">
        <ele>222.4</ele>
        <time>2022-02-10T14:47:27Z</time>
      </trkpt>
      <trkpt lat="46.41194" lon="5.20889">
        <ele>222.6</ele>
        <time>2022-02-10T14:47:36Z</time>
      </trkpt>
      <trkpt lat="46.41207" lon="5.20886">
        <ele>222.8</ele>
        <time>2022-02-10T14:47:38Z</time>
      </trkpt>
      <trkpt lat="46.41243" lon="5.20875">
        <ele>223.2</ele>
        <time>2022-02-10T14:47:44Z</time>
      </trkpt>
      <trkpt lat="46.41269" lon="5.20868">
        <ele>223.4</ele>
        <time>2022-02-10T14:47:48Z</time>
      </trkpt>
      <trkpt lat="46.41328" lon="5.2085">
        <ele>222.8</ele>
        <time>2022-02-10T14:47:57Z</time>
      </trkpt>
      <trkpt lat="46.4138" lon="5.20835">
        <ele>222.6</ele>
        <time>2022-02-10T14:48:05Z</time>
      </trkpt>
      <trkpt lat="46.41386" lon="5.20837">
        <ele>222.6</ele>
        <time>2022-02-10T14:48:06Z</time>
      </trkpt>
      <trkpt lat="46.41392" lon="5.20841">
        <ele>222.6</ele>
        <time>2022-02-10T14:48:07Z</time>
      </trkpt>
      <trkpt lat="46.41401" lon="5.20854">
        <ele>222.6</ele>
        <time>2022-02-10T14:48:09Z</time>
      </trkpt>
      <trkpt lat="46.41418" lon="5.2089">
        <ele>223</ele>
        <time>2022-02-10T14:48:14Z</time>
      </trkpt>
      <trkpt lat="46.41428" lon="5.20919">
        <ele>223.4</ele>
        <time>2022-02-10T14:48:18Z</time>
      </trkpt>
      <trkpt lat="46.41431" lon="5.20934">
        <ele>223.8</ele>
        <time>2022-02-10T14:48:20Z</time>
      </trkpt>
      <trkpt lat="46.41435" lon="5.20963">
        <ele>224.2</ele>
        <time>2022-02-10T14:48:24Z</time>
      </trkpt>
      <trkpt lat="46.41436" lon="5.20976">
        <ele>224.8</ele>
        <time>2022-02-10T14:48:26Z</time>
      </trkpt>
      <trkpt lat="46.41438" lon="5.2099">
        <ele>225.4</ele>
        <time>2022-02-10T14:48:28Z</time>
      </trkpt>
      <trkpt lat="46.41441" lon="5.21016">
        <ele>226.4</ele>
        <time>2022-02-10T14:48:32Z</time>
      </trkpt>
      <trkpt lat="46.41443" lon="5.21022">
        <ele>226.8</ele>
        <time>2022-02-10T14:48:33Z</time>
      </trkpt>
      <trkpt lat="46.41447" lon="5.21033">
        <ele>227.6</ele>
        <time>2022-02-10T14:48:35Z</time>
      </trkpt>
      <trkpt lat="46.41449" lon="5.21039">
        <ele>227.8</ele>
        <time>2022-02-10T14:48:36Z</time>
      </trkpt>
      <trkpt lat="46.41455" lon="5.21048">
        <ele>228.2</ele>
        <time>2022-02-10T14:48:38Z</time>
      </trkpt>
      <trkpt lat="46.41458" lon="5.21053">
        <ele>228.8</ele>
        <time>2022-02-10T14:48:39Z</time>
      </trkpt>
      <trkpt lat="46.41476" lon="5.21074">
        <ele>229.8</ele>
        <time>2022-02-10T14:48:44Z</time>
      </trkpt>
      <trkpt lat="46.4148" lon="5.21079">
        <ele>229.8</ele>
        <time>2022-02-10T14:48:45Z</time>
      </trkpt>
      <trkpt lat="46.41505" lon="5.21108">
        <ele>230.2</ele>
        <time>2022-02-10T14:48:50Z</time>
      </trkpt>
      <trkpt lat="46.4151" lon="5.21116">
        <ele>230.2</ele>
        <time>2022-02-10T14:48:51Z</time>
      </trkpt>
      <trkpt lat="46.41532" lon="5.21148">
        <ele>229.6</ele>
        <time>2022-02-10T14:48:55Z</time>
      </trkpt>
      <trkpt lat="46.41548" lon="5.21176">
        <ele>228.4</ele>
        <time>2022-02-10T14:48:58Z</time>
      </trkpt>
      <trkpt lat="46.41557" lon="5.21195">
        <ele>228</ele>
        <time>2022-02-10T14:49:00Z</time>
      </trkpt>
      <trkpt lat="46.41582" lon="5.21233">
        <ele>227.8</ele>
        <time>2022-02-10T14:49:05Z</time>
      </trkpt>
      <trkpt lat="46.41616" lon="5.21268">
        <ele>228</ele>
        <time>2022-02-10T14:49:11Z</time>
      </trkpt>
      <trkpt lat="46.41639" lon="5.21289">
        <ele>228.2</ele>
        <time>2022-02-10T14:49:15Z</time>
      </trkpt>
      <trkpt lat="46.41645" lon="5.21293">
        <ele>228.4</ele>
        <time>2022-02-10T14:49:16Z</time>
      </trkpt>
      <trkpt lat="46.41679" lon="5.2132">
        <ele>228.6</ele>
        <time>2022-02-10T14:49:22Z</time>
      </trkpt>
      <trkpt lat="46.41718" lon="5.2135">
        <ele>229.4</ele>
        <time>2022-02-10T14:49:29Z</time>
      </trkpt>
      <trkpt lat="46.41723" lon="5.21354">
        <ele>229.6</ele>
        <time>2022-02-10T14:49:30Z</time>
      </trkpt>
      <trkpt lat="46.41759" lon="5.21387">
        <ele>230.6</ele>
        <time>2022-02-10T14:49:37Z</time>
      </trkpt>
      <trkpt lat="46.41803" lon="5.21423">
        <ele>231.2</ele>
        <time>2022-02-10T14:49:45Z</time>
      </trkpt>
      <trkpt lat="46.41825" lon="5.21438">
        <ele>231.6</ele>
        <time>2022-02-10T14:49:49Z</time>
      </trkpt>
      <trkpt lat="46.41849" lon="5.21451">
        <ele>231.8</ele>
        <time>2022-02-10T14:49:53Z</time>
      </trkpt>
      <trkpt lat="46.41861" lon="5.21458">
        <ele>231.8</ele>
        <time>2022-02-10T14:49:55Z</time>
      </trkpt>
      <trkpt lat="46.41884" lon="5.21469">
        <ele>231.8</ele>
        <time>2022-02-10T14:49:59Z</time>
      </trkpt>
      <trkpt lat="46.4194" lon="5.21498">
        <ele>232.4</ele>
        <time>2022-02-10T14:50:08Z</time>
      </trkpt>
      <trkpt lat="46.41978" lon="5.21522">
        <ele>232</ele>
        <time>2022-02-10T14:50:14Z</time>
      </trkpt>
      <trkpt lat="46.42026" lon="5.21555">
        <ele>231.2</ele>
        <time>2022-02-10T14:50:21Z</time>
      </trkpt>
      <trkpt lat="46.42079" lon="5.21592">
        <ele>230.8</ele>
        <time>2022-02-10T14:50:29Z</time>
      </trkpt>
      <trkpt lat="46.42086" lon="5.21597">
        <ele>230.8</ele>
        <time>2022-02-10T14:50:30Z</time>
      </trkpt>
      <trkpt lat="46.4212" lon="5.2162">
        <ele>230.4</ele>
        <time>2022-02-10T14:50:35Z</time>
      </trkpt>
      <trkpt lat="46.42146" lon="5.21638">
        <ele>230.4</ele>
        <time>2022-02-10T14:50:39Z</time>
      </trkpt>
      <trkpt lat="46.42152" lon="5.21643">
        <ele>230.4</ele>
        <time>2022-02-10T14:50:40Z</time>
      </trkpt>
      <trkpt lat="46.42188" lon="5.21675">
        <ele>230.6</ele>
        <time>2022-02-10T14:50:46Z</time>
      </trkpt>
      <trkpt lat="46.42236" lon="5.21706">
        <ele>230.8</ele>
        <time>2022-02-10T14:50:54Z</time>
      </trkpt>
      <trkpt lat="46.42282" lon="5.21726">
        <ele>231</ele>
        <time>2022-02-10T14:51:01Z</time>
      </trkpt>
      <trkpt lat="46.42318" lon="5.2174">
        <ele>231.6</ele>
        <time>2022-02-10T14:51:07Z</time>
      </trkpt>
      <trkpt lat="46.42329" lon="5.21744">
        <ele>231.8</ele>
        <time>2022-02-10T14:51:09Z</time>
      </trkpt>
      <trkpt lat="46.42366" lon="5.21754">
        <ele>232.4</ele>
        <time>2022-02-10T14:51:15Z</time>
      </trkpt>
      <trkpt lat="46.42373" lon="5.21754">
        <ele>232.6</ele>
        <time>2022-02-10T14:51:16Z</time>
      </trkpt>
      <trkpt lat="46.42424" lon="5.21753">
        <ele>233.4</ele>
        <time>2022-02-10T14:51:24Z</time>
      </trkpt>
      <trkpt lat="46.42475" lon="5.2176">
        <ele>233.6</ele>
        <time>2022-02-10T14:51:32Z</time>
      </trkpt>
      <trkpt lat="46.42513" lon="5.21774">
        <ele>233.6</ele>
        <time>2022-02-10T14:51:38Z</time>
      </trkpt>
      <trkpt lat="46.42539" lon="5.21783">
        <ele>234</ele>
        <time>2022-02-10T14:51:42Z</time>
      </trkpt>
      <trkpt lat="46.4258" lon="5.21798">
        <ele>234.6</ele>
        <time>2022-02-10T14:51:49Z</time>
      </trkpt>
      <trkpt lat="46.42594" lon="5.21801">
        <ele>234.8</ele>
        <time>2022-02-10T14:51:51Z</time>
      </trkpt>
      <trkpt lat="46.42628" lon="5.21814">
        <ele>235.2</ele>
        <time>2022-02-10T14:51:57Z</time>
      </trkpt>
      <trkpt lat="46.4264" lon="5.21817">
        <ele>235.4</ele>
        <time>2022-02-10T14:51:59Z</time>
      </trkpt>
      <trkpt lat="46.42663" lon="5.2182">
        <ele>235.6</ele>
        <time>2022-02-10T14:52:03Z</time>
      </trkpt>
      <trkpt lat="46.42679" lon="5.21821">
        <ele>235.8</ele>
        <time>2022-02-10T14:52:06Z</time>
      </trkpt>
      <trkpt lat="46.42691" lon="5.21822">
        <ele>235.8</ele>
        <time>2022-02-10T14:52:08Z</time>
      </trkpt>
      <trkpt lat="46.42715" lon="5.21825">
        <ele>235.8</ele>
        <time>2022-02-10T14:52:12Z</time>
      </trkpt>
      <trkpt lat="46.42721" lon="5.21825">
        <ele>236</ele>
        <time>2022-02-10T14:52:13Z</time>
      </trkpt>
      <trkpt lat="46.42746" lon="5.21828">
        <ele>236</ele>
        <time>2022-02-10T14:52:17Z</time>
      </trkpt>
      <trkpt lat="46.42753" lon="5.21828">
        <ele>236</ele>
        <time>2022-02-10T14:52:18Z</time>
      </trkpt>
      <trkpt lat="46.42789" lon="5.21827">
        <ele>236</ele>
        <time>2022-02-10T14:52:23Z</time>
      </trkpt>
      <trkpt lat="46.4284" lon="5.21817">
        <ele>236</ele>
        <time>2022-02-10T14:52:30Z</time>
      </trkpt>
      <trkpt lat="46.42882" lon="5.21815">
        <ele>235.8</ele>
        <time>2022-02-10T14:52:36Z</time>
      </trkpt>
      <trkpt lat="46.42889" lon="5.21815">
        <ele>235.8</ele>
        <time>2022-02-10T14:52:37Z</time>
      </trkpt>
      <trkpt lat="46.42928" lon="5.21821">
        <ele>235.8</ele>
        <time>2022-02-10T14:52:43Z</time>
      </trkpt>
      <trkpt lat="46.42972" lon="5.21832">
        <ele>235.6</ele>
        <time>2022-02-10T14:52:50Z</time>
      </trkpt>
      <trkpt lat="46.42985" lon="5.21837">
        <ele>235.6</ele>
        <time>2022-02-10T14:52:52Z</time>
      </trkpt>
      <trkpt lat="46.43012" lon="5.21839">
        <ele>235.6</ele>
        <time>2022-02-10T14:52:56Z</time>
      </trkpt>
      <trkpt lat="46.43054" lon="5.21828">
        <ele>236</ele>
        <time>2022-02-10T14:53:02Z</time>
      </trkpt>
      <trkpt lat="46.43095" lon="5.21817">
        <ele>236.2</ele>
        <time>2022-02-10T14:53:08Z</time>
      </trkpt>
      <trkpt lat="46.43102" lon="5.21817">
        <ele>236.2</ele>
        <time>2022-02-10T14:53:09Z</time>
      </trkpt>
      <trkpt lat="46.43138" lon="5.21823">
        <ele>236.2</ele>
        <time>2022-02-10T14:53:14Z</time>
      </trkpt>
      <trkpt lat="46.43165" lon="5.21831">
        <ele>236.2</ele>
        <time>2022-02-10T14:53:18Z</time>
      </trkpt>
      <trkpt lat="46.43177" lon="5.21839">
        <ele>236.2</ele>
        <time>2022-02-10T14:53:20Z</time>
      </trkpt>
      <trkpt lat="46.43203" lon="5.21868">
        <ele>236.4</ele>
        <time>2022-02-10T14:53:25Z</time>
      </trkpt>
      <trkpt lat="46.43226" lon="5.2189">
        <ele>236.6</ele>
        <time>2022-02-10T14:53:29Z</time>
      </trkpt>
      <trkpt lat="46.43231" lon="5.21893">
        <ele>236.6</ele>
        <time>2022-02-10T14:53:30Z</time>
      </trkpt>
      <trkpt lat="46.43264" lon="5.21916">
        <ele>236.6</ele>
        <time>2022-02-10T14:53:35Z</time>
      </trkpt>
      <trkpt lat="46.43287" lon="5.21952">
        <ele>236.4</ele>
        <time>2022-02-10T14:53:40Z</time>
      </trkpt>
      <trkpt lat="46.43316" lon="5.22016">
        <ele>236.2</ele>
        <time>2022-02-10T14:53:48Z</time>
      </trkpt>
      <trkpt lat="46.43342" lon="5.22061">
        <ele>236</ele>
        <time>2022-02-10T14:53:53Z</time>
      </trkpt>
      <trkpt lat="46.43382" lon="5.22109">
        <ele>234.6</ele>
        <time>2022-02-10T14:53:59Z</time>
      </trkpt>
      <trkpt lat="46.43423" lon="5.2215">
        <ele>233.6</ele>
        <time>2022-02-10T14:54:05Z</time>
      </trkpt>
      <trkpt lat="46.4343" lon="5.22156">
        <ele>233.6</ele>
        <time>2022-02-10T14:54:06Z</time>
      </trkpt>
      <trkpt lat="46.43444" lon="5.22167">
        <ele>233.2</ele>
        <time>2022-02-10T14:54:08Z</time>
      </trkpt>
      <trkpt lat="46.43465" lon="5.22177">
        <ele>233</ele>
        <time>2022-02-10T14:54:11Z</time>
      </trkpt>
      <trkpt lat="46.43508" lon="5.22185">
        <ele>233</ele>
        <time>2022-02-10T14:54:17Z</time>
      </trkpt>
      <trkpt lat="46.43558" lon="5.22195">
        <ele>233.4</ele>
        <time>2022-02-10T14:54:24Z</time>
      </trkpt>
      <trkpt lat="46.43599" lon="5.2222">
        <ele>233.8</ele>
        <time>2022-02-10T14:54:31Z</time>
      </trkpt>
      <trkpt lat="46.43643" lon="5.22258">
        <ele>234.2</ele>
        <time>2022-02-10T14:54:39Z</time>
      </trkpt>
      <trkpt lat="46.43672" lon="5.22289">
        <ele>234.8</ele>
        <time>2022-02-10T14:54:45Z</time>
      </trkpt>
      <trkpt lat="46.43677" lon="5.22294">
        <ele>234.8</ele>
        <time>2022-02-10T14:54:46Z</time>
      </trkpt>
      <trkpt lat="46.43707" lon="5.22325">
        <ele>235.2</ele>
        <time>2022-02-10T14:54:52Z</time>
      </trkpt>
      <trkpt lat="46.43729" lon="5.22346">
        <ele>235.8</ele>
        <time>2022-02-10T14:54:56Z</time>
      </trkpt>
      <trkpt lat="46.43751" lon="5.22367">
        <ele>236</ele>
        <time>2022-02-10T14:55:00Z</time>
      </trkpt>
      <trkpt lat="46.43798" lon="5.22413">
        <ele>235.8</ele>
        <time>2022-02-10T14:55:08Z</time>
      </trkpt>
      <trkpt lat="46.43804" lon="5.22419">
        <ele>235.8</ele>
        <time>2022-02-10T14:55:09Z</time>
      </trkpt>
      <trkpt lat="46.43856" lon="5.2246">
        <ele>235.6</ele>
        <time>2022-02-10T14:55:17Z</time>
      </trkpt>
      <trkpt lat="46.43891" lon="5.2248">
        <ele>235</ele>
        <time>2022-02-10T14:55:22Z</time>
      </trkpt>
      <trkpt lat="46.4392" lon="5.22487">
        <ele>234.8</ele>
        <time>2022-02-10T14:55:26Z</time>
      </trkpt>
      <trkpt lat="46.43927" lon="5.22488">
        <ele>234.6</ele>
        <time>2022-02-10T14:55:27Z</time>
      </trkpt>
      <trkpt lat="46.4397" lon="5.2249">
        <ele>234.6</ele>
        <time>2022-02-10T14:55:33Z</time>
      </trkpt>
      <trkpt lat="46.44024" lon="5.22488">
        <ele>234.6</ele>
        <time>2022-02-10T14:55:40Z</time>
      </trkpt>
      <trkpt lat="46.44039" lon="5.2249">
        <ele>234.4</ele>
        <time>2022-02-10T14:55:42Z</time>
      </trkpt>
      <trkpt lat="46.44084" lon="5.22494">
        <ele>234.2</ele>
        <time>2022-02-10T14:55:48Z</time>
      </trkpt>
      <trkpt lat="46.44099" lon="5.22492">
        <ele>234.2</ele>
        <time>2022-02-10T14:55:50Z</time>
      </trkpt>
      <trkpt lat="46.44112" lon="5.22484">
        <ele>234</ele>
        <time>2022-02-10T14:55:52Z</time>
      </trkpt>
      <trkpt lat="46.44123" lon="5.2247">
        <ele>234</ele>
        <time>2022-02-10T14:55:54Z</time>
      </trkpt>
      <trkpt lat="46.44128" lon="5.22461">
        <ele>234</ele>
        <time>2022-02-10T14:55:55Z</time>
      </trkpt>
      <trkpt lat="46.44132" lon="5.22452">
        <ele>234</ele>
        <time>2022-02-10T14:55:56Z</time>
      </trkpt>
      <trkpt lat="46.4414" lon="5.22422">
        <ele>233.6</ele>
        <time>2022-02-10T14:55:59Z</time>
      </trkpt>
      <trkpt lat="46.44146" lon="5.22403">
        <ele>233.6</ele>
        <time>2022-02-10T14:56:01Z</time>
      </trkpt>
      <trkpt lat="46.44156" lon="5.22387">
        <ele>233.4</ele>
        <time>2022-02-10T14:56:03Z</time>
      </trkpt>
      <trkpt lat="46.44169" lon="5.22378">
        <ele>233.2</ele>
        <time>2022-02-10T14:56:05Z</time>
      </trkpt>
      <trkpt lat="46.44177" lon="5.22376">
        <ele>233</ele>
        <time>2022-02-10T14:56:06Z</time>
      </trkpt>
      <trkpt lat="46.44184" lon="5.22376">
        <ele>233</ele>
        <time>2022-02-10T14:56:07Z</time>
      </trkpt>
      <trkpt lat="46.44205" lon="5.2238">
        <ele>233</ele>
        <time>2022-02-10T14:56:10Z</time>
      </trkpt>
      <trkpt lat="46.4426" lon="5.22395">
        <ele>233</ele>
        <time>2022-02-10T14:56:18Z</time>
      </trkpt>
      <trkpt lat="46.44267" lon="5.22396">
        <ele>233</ele>
        <time>2022-02-10T14:56:19Z</time>
      </trkpt>
      <trkpt lat="46.44315" lon="5.22407">
        <ele>234</ele>
        <time>2022-02-10T14:56:26Z</time>
      </trkpt>
      <trkpt lat="46.44361" lon="5.22418">
        <ele>234</ele>
        <time>2022-02-10T14:56:33Z</time>
      </trkpt>
      <trkpt lat="46.44374" lon="5.22424">
        <ele>234.2</ele>
        <time>2022-02-10T14:56:35Z</time>
      </trkpt>
      <trkpt lat="46.44393" lon="5.22441">
        <ele>233.8</ele>
        <time>2022-02-10T14:56:38Z</time>
      </trkpt>
      <trkpt lat="46.44425" lon="5.22467">
        <ele>233.8</ele>
        <time>2022-02-10T14:56:43Z</time>
      </trkpt>
      <trkpt lat="46.44459" lon="5.22482">
        <ele>233.4</ele>
        <time>2022-02-10T14:56:48Z</time>
      </trkpt>
      <trkpt lat="46.44509" lon="5.22506">
        <ele>233</ele>
        <time>2022-02-10T14:56:55Z</time>
      </trkpt>
      <trkpt lat="46.44564" lon="5.22533">
        <ele>233.2</ele>
        <time>2022-02-10T14:57:03Z</time>
      </trkpt>
      <trkpt lat="46.44614" lon="5.22567">
        <ele>233</ele>
        <time>2022-02-10T14:57:11Z</time>
      </trkpt>
      <trkpt lat="46.4462" lon="5.2257">
        <ele>233</ele>
        <time>2022-02-10T14:57:12Z</time>
      </trkpt>
      <trkpt lat="46.44641" lon="5.22578">
        <ele>233</ele>
        <time>2022-02-10T14:57:16Z</time>
      </trkpt>
      <trkpt lat="46.44657" lon="5.22584">
        <ele>233</ele>
        <time>2022-02-10T14:57:19Z</time>
      </trkpt>
      <trkpt lat="46.44665" lon="5.22592">
        <ele>233</ele>
        <time>2022-02-10T14:57:21Z</time>
      </trkpt>
      <trkpt lat="46.4467" lon="5.22604">
        <ele>233</ele>
        <time>2022-02-10T14:57:23Z</time>
      </trkpt>
      <trkpt lat="46.44672" lon="5.2262">
        <ele>233</ele>
        <time>2022-02-10T14:57:25Z</time>
      </trkpt>
      <trkpt lat="46.44675" lon="5.22665">
        <ele>232.8</ele>
        <time>2022-02-10T14:57:30Z</time>
      </trkpt>
      <trkpt lat="46.44678" lon="5.22741">
        <ele>233</ele>
        <time>2022-02-10T14:57:38Z</time>
      </trkpt>
      <trkpt lat="46.4468" lon="5.22818">
        <ele>233.4</ele>
        <time>2022-02-10T14:57:47Z</time>
      </trkpt>
      <trkpt lat="46.44682" lon="5.22833">
        <ele>233.4</ele>
        <time>2022-02-10T14:57:49Z</time>
      </trkpt>
      <trkpt lat="46.44686" lon="5.22845">
        <ele>233.4</ele>
        <time>2022-02-10T14:57:51Z</time>
      </trkpt>
      <trkpt lat="46.44709" lon="5.22858">
        <ele>233.4</ele>
        <time>2022-02-10T14:57:55Z</time>
      </trkpt>
      <trkpt lat="46.44746" lon="5.22885">
        <ele>233</ele>
        <time>2022-02-10T14:58:01Z</time>
      </trkpt>
      <trkpt lat="46.44758" lon="5.22896">
        <ele>232.8</ele>
        <time>2022-02-10T14:58:03Z</time>
      </trkpt>
      <trkpt lat="46.44784" lon="5.22919">
        <ele>232.6</ele>
        <time>2022-02-10T14:58:08Z</time>
      </trkpt>
      <trkpt lat="46.4479" lon="5.22922">
        <ele>232.6</ele>
        <time>2022-02-10T14:58:09Z</time>
      </trkpt>
      <trkpt lat="46.44835" lon="5.22954">
        <ele>232.2</ele>
        <time>2022-02-10T14:58:17Z</time>
      </trkpt>
      <trkpt lat="46.44844" lon="5.22966">
        <ele>232.4</ele>
        <time>2022-02-10T14:58:19Z</time>
      </trkpt>
      <trkpt lat="46.44852" lon="5.22981">
        <ele>232.4</ele>
        <time>2022-02-10T14:58:21Z</time>
      </trkpt>
      <trkpt lat="46.44877" lon="5.23053">
        <ele>233</ele>
        <time>2022-02-10T14:58:30Z</time>
      </trkpt>
      <trkpt lat="46.4489" lon="5.2308">
        <ele>233</ele>
        <time>2022-02-10T14:58:34Z</time>
      </trkpt>
      <trkpt lat="46.44898" lon="5.2309">
        <ele>233</ele>
        <time>2022-02-10T14:58:36Z</time>
      </trkpt>
      <trkpt lat="46.44902" lon="5.23094">
        <ele>233</ele>
        <time>2022-02-10T14:58:37Z</time>
      </trkpt>
      <trkpt lat="46.44918" lon="5.2311">
        <ele>233.2</ele>
        <time>2022-02-10T14:58:41Z</time>
      </trkpt>
      <trkpt lat="46.44922" lon="5.23113">
        <ele>233.2</ele>
        <time>2022-02-10T14:58:42Z</time>
      </trkpt>
      <trkpt lat="46.4493" lon="5.23123">
        <ele>233.2</ele>
        <time>2022-02-10T14:58:45Z</time>
      </trkpt>
      <trkpt lat="46.44939" lon="5.23116">
        <ele>233.4</ele>
        <time>2022-02-10T14:58:48Z</time>
      </trkpt>
      <trkpt lat="46.44952" lon="5.23092">
        <ele>233.4</ele>
        <time>2022-02-10T14:58:52Z</time>
      </trkpt>
      <trkpt lat="46.44955" lon="5.23083">
        <ele>233.6</ele>
        <time>2022-02-10T14:58:53Z</time>
      </trkpt>
      <trkpt lat="46.44959" lon="5.23065">
        <ele>233.6</ele>
        <time>2022-02-10T14:58:55Z</time>
      </trkpt>
      <trkpt lat="46.44962" lon="5.23045">
        <ele>233.6</ele>
        <time>2022-02-10T14:58:57Z</time>
      </trkpt>
      <trkpt lat="46.44964" lon="5.23035">
        <ele>233.6</ele>
        <time>2022-02-10T14:58:58Z</time>
      </trkpt>
      <trkpt lat="46.44973" lon="5.22978">
        <ele>233</ele>
        <time>2022-02-10T14:59:04Z</time>
      </trkpt>
      <trkpt lat="46.44989" lon="5.22909">
        <ele>232.4</ele>
        <time>2022-02-10T14:59:11Z</time>
      </trkpt>
      <trkpt lat="46.45007" lon="5.22879">
        <ele>232.4</ele>
        <time>2022-02-10T14:59:15Z</time>
      </trkpt>
      <trkpt lat="46.45037" lon="5.22856">
        <ele>232.6</ele>
        <time>2022-02-10T14:59:20Z</time>
      </trkpt>
      <trkpt lat="46.45068" lon="5.22837">
        <ele>232.8</ele>
        <time>2022-02-10T14:59:25Z</time>
      </trkpt>
      <trkpt lat="46.45072" lon="5.22832">
        <ele>232.8</ele>
        <time>2022-02-10T14:59:26Z</time>
      </trkpt>
      <trkpt lat="46.45076" lon="5.22825">
        <ele>232.8</ele>
        <time>2022-02-10T14:59:27Z</time>
      </trkpt>
      <trkpt lat="46.45081" lon="5.22807">
        <ele>233</ele>
        <time>2022-02-10T14:59:29Z</time>
      </trkpt>
      <trkpt lat="46.45095" lon="5.22723">
        <ele>233.2</ele>
        <time>2022-02-10T14:59:38Z</time>
      </trkpt>
      <trkpt lat="46.45098" lon="5.22714">
        <ele>233.2</ele>
        <time>2022-02-10T14:59:39Z</time>
      </trkpt>
      <trkpt lat="46.45122" lon="5.22647">
        <ele>233.8</ele>
        <time>2022-02-10T14:59:47Z</time>
      </trkpt>
      <trkpt lat="46.45125" lon="5.22638">
        <ele>233.8</ele>
        <time>2022-02-10T14:59:48Z</time>
      </trkpt>
      <trkpt lat="46.45143" lon="5.22575">
        <ele>234</ele>
        <time>2022-02-10T14:59:55Z</time>
      </trkpt>
      <trkpt lat="46.45162" lon="5.22501">
        <ele>233.8</ele>
        <time>2022-02-10T15:00:03Z</time>
      </trkpt>
      <trkpt lat="46.45185" lon="5.22427">
        <ele>233.4</ele>
        <time>2022-02-10T15:00:11Z</time>
      </trkpt>
      <trkpt lat="46.45191" lon="5.22411">
        <ele>233.2</ele>
        <time>2022-02-10T15:00:13Z</time>
      </trkpt>
      <trkpt lat="46.45217" lon="5.22343">
        <ele>233.6</ele>
        <time>2022-02-10T15:00:21Z</time>
      </trkpt>
      <trkpt lat="46.45225" lon="5.22325">
        <ele>233.6</ele>
        <time>2022-02-10T15:00:23Z</time>
      </trkpt>
      <trkpt lat="46.45235" lon="5.22311">
        <ele>233.6</ele>
        <time>2022-02-10T15:00:25Z</time>
      </trkpt>
      <trkpt lat="46.45268" lon="5.22286">
        <ele>233.6</ele>
        <time>2022-02-10T15:00:30Z</time>
      </trkpt>
      <trkpt lat="46.45323" lon="5.22254">
        <ele>233.2</ele>
        <time>2022-02-10T15:00:38Z</time>
      </trkpt>
      <trkpt lat="46.45378" lon="5.22222">
        <ele>233.2</ele>
        <time>2022-02-10T15:00:46Z</time>
      </trkpt>
      <trkpt lat="46.45399" lon="5.22208">
        <ele>233.2</ele>
        <time>2022-02-10T15:00:49Z</time>
      </trkpt>
      <trkpt lat="46.45413" lon="5.22197">
        <ele>233.2</ele>
        <time>2022-02-10T15:00:51Z</time>
      </trkpt>
      <trkpt lat="46.45424" lon="5.22183">
        <ele>233</ele>
        <time>2022-02-10T15:00:53Z</time>
      </trkpt>
      <trkpt lat="46.4543" lon="5.22175">
        <ele>233</ele>
        <time>2022-02-10T15:00:54Z</time>
      </trkpt>
      <trkpt lat="46.45448" lon="5.22137">
        <ele>232.6</ele>
        <time>2022-02-10T15:00:58Z</time>
      </trkpt>
      <trkpt lat="46.45466" lon="5.22084">
        <ele>231.8</ele>
        <time>2022-02-10T15:01:03Z</time>
      </trkpt>
      <trkpt lat="46.45472" lon="5.22065">
        <ele>231.6</ele>
        <time>2022-02-10T15:01:05Z</time>
      </trkpt>
      <trkpt lat="46.45497" lon="5.21994">
        <ele>231.2</ele>
        <time>2022-02-10T15:01:12Z</time>
      </trkpt>
      <trkpt lat="46.45512" lon="5.21956">
        <ele>231.2</ele>
        <time>2022-02-10T15:01:16Z</time>
      </trkpt>
      <trkpt lat="46.45536" lon="5.21896">
        <ele>231.2</ele>
        <time>2022-02-10T15:01:23Z</time>
      </trkpt>
      <trkpt lat="46.45563" lon="5.21836">
        <ele>231.6</ele>
        <time>2022-02-10T15:01:30Z</time>
      </trkpt>
      <trkpt lat="46.4559" lon="5.21769">
        <ele>232</ele>
        <time>2022-02-10T15:01:37Z</time>
      </trkpt>
      <trkpt lat="46.45621" lon="5.21693">
        <ele>232</ele>
        <time>2022-02-10T15:01:45Z</time>
      </trkpt>
      <trkpt lat="46.45631" lon="5.21675">
        <ele>231.6</ele>
        <time>2022-02-10T15:01:47Z</time>
      </trkpt>
      <trkpt lat="46.45669" lon="5.21606">
        <ele>231.4</ele>
        <time>2022-02-10T15:01:55Z</time>
      </trkpt>
      <trkpt lat="46.45673" lon="5.21598">
        <ele>231.2</ele>
        <time>2022-02-10T15:01:56Z</time>
      </trkpt>
      <trkpt lat="46.45707" lon="5.21548">
        <ele>231.8</ele>
        <time>2022-02-10T15:02:03Z</time>
      </trkpt>
      <trkpt lat="46.45712" lon="5.21542">
        <ele>232</ele>
        <time>2022-02-10T15:02:04Z</time>
      </trkpt>
      <trkpt lat="46.45737" lon="5.21523">
        <ele>232.2</ele>
        <time>2022-02-10T15:02:08Z</time>
      </trkpt>
      <trkpt lat="46.45785" lon="5.21499">
        <ele>232.6</ele>
        <time>2022-02-10T15:02:15Z</time>
      </trkpt>
      <trkpt lat="46.45829" lon="5.21492">
        <ele>232.4</ele>
        <time>2022-02-10T15:02:21Z</time>
      </trkpt>
      <trkpt lat="46.45884" lon="5.21503">
        <ele>232.2</ele>
        <time>2022-02-10T15:02:28Z</time>
      </trkpt>
      <trkpt lat="46.45892" lon="5.21505">
        <ele>232</ele>
        <time>2022-02-10T15:02:29Z</time>
      </trkpt>
      <trkpt lat="46.45947" lon="5.21523">
        <ele>231.2</ele>
        <time>2022-02-10T15:02:36Z</time>
      </trkpt>
      <trkpt lat="46.45955" lon="5.21527">
        <ele>231.2</ele>
        <time>2022-02-10T15:02:37Z</time>
      </trkpt>
      <trkpt lat="46.45979" lon="5.21538">
        <ele>231</ele>
        <time>2022-02-10T15:02:40Z</time>
      </trkpt>
      <trkpt lat="46.46012" lon="5.21558">
        <ele>230.4</ele>
        <time>2022-02-10T15:02:44Z</time>
      </trkpt>
      <trkpt lat="46.46027" lon="5.21571">
        <ele>230</ele>
        <time>2022-02-10T15:02:46Z</time>
      </trkpt>
      <trkpt lat="46.46047" lon="5.21593">
        <ele>229</ele>
        <time>2022-02-10T15:02:49Z</time>
      </trkpt>
      <trkpt lat="46.46054" lon="5.21601">
        <ele>228.8</ele>
        <time>2022-02-10T15:02:50Z</time>
      </trkpt>
      <trkpt lat="46.46098" lon="5.21655">
        <ele>228.2</ele>
        <time>2022-02-10T15:02:57Z</time>
      </trkpt>
      <trkpt lat="46.46131" lon="5.217">
        <ele>228.4</ele>
        <time>2022-02-10T15:03:03Z</time>
      </trkpt>
      <trkpt lat="46.46167" lon="5.21761">
        <ele>228.2</ele>
        <time>2022-02-10T15:03:10Z</time>
      </trkpt>
      <trkpt lat="46.4618" lon="5.21782">
        <ele>227.8</ele>
        <time>2022-02-10T15:03:12Z</time>
      </trkpt>
      <trkpt lat="46.46208" lon="5.21825">
        <ele>227</ele>
        <time>2022-02-10T15:03:16Z</time>
      </trkpt>
      <trkpt lat="46.46223" lon="5.21846">
        <ele>226.4</ele>
        <time>2022-02-10T15:03:18Z</time>
      </trkpt>
      <trkpt lat="46.46243" lon="5.21877">
        <ele>225</ele>
        <time>2022-02-10T15:03:21Z</time>
      </trkpt>
      <trkpt lat="46.46263" lon="5.21907">
        <ele>223.8</ele>
        <time>2022-02-10T15:03:24Z</time>
      </trkpt>
      <trkpt lat="46.46277" lon="5.21923">
        <ele>223.4</ele>
        <time>2022-02-10T15:03:26Z</time>
      </trkpt>
      <trkpt lat="46.46292" lon="5.21935">
        <ele>223.2</ele>
        <time>2022-02-10T15:03:28Z</time>
      </trkpt>
      <trkpt lat="46.46333" lon="5.21959">
        <ele>224</ele>
        <time>2022-02-10T15:03:34Z</time>
      </trkpt>
      <trkpt lat="46.46369" lon="5.2198">
        <ele>225</ele>
        <time>2022-02-10T15:03:40Z</time>
      </trkpt>
      <trkpt lat="46.46375" lon="5.21984">
        <ele>225</ele>
        <time>2022-02-10T15:03:41Z</time>
      </trkpt>
      <trkpt lat="46.464" lon="5.21994">
        <ele>226</ele>
        <time>2022-02-10T15:03:45Z</time>
      </trkpt>
      <trkpt lat="46.46407" lon="5.21996">
        <ele>226.2</ele>
        <time>2022-02-10T15:03:46Z</time>
      </trkpt>
      <trkpt lat="46.46419" lon="5.21997">
        <ele>226.4</ele>
        <time>2022-02-10T15:03:48Z</time>
      </trkpt>
      <trkpt lat="46.46447" lon="5.22">
        <ele>227.2</ele>
        <time>2022-02-10T15:03:53Z</time>
      </trkpt>
      <trkpt lat="46.46459" lon="5.22003">
        <ele>227.8</ele>
        <time>2022-02-10T15:03:55Z</time>
      </trkpt>
      <trkpt lat="46.46486" lon="5.22009">
        <ele>228.4</ele>
        <time>2022-02-10T15:04:00Z</time>
      </trkpt>
      <trkpt lat="46.46503" lon="5.22014">
        <ele>228.6</ele>
        <time>2022-02-10T15:04:03Z</time>
      </trkpt>
      <trkpt lat="46.4656" lon="5.22032">
        <ele>228.8</ele>
        <time>2022-02-10T15:04:12Z</time>
      </trkpt>
      <trkpt lat="46.46573" lon="5.22033">
        <ele>228.8</ele>
        <time>2022-02-10T15:04:14Z</time>
      </trkpt>
      <trkpt lat="46.46594" lon="5.22029">
        <ele>228.4</ele>
        <time>2022-02-10T15:04:17Z</time>
      </trkpt>
      <trkpt lat="46.46638" lon="5.22019">
        <ele>228</ele>
        <time>2022-02-10T15:04:23Z</time>
      </trkpt>
      <trkpt lat="46.46645" lon="5.22018">
        <ele>227.8</ele>
        <time>2022-02-10T15:04:24Z</time>
      </trkpt>
      <trkpt lat="46.46684" lon="5.22016">
        <ele>227.2</ele>
        <time>2022-02-10T15:04:29Z</time>
      </trkpt>
      <trkpt lat="46.4671" lon="5.22015">
        <ele>226.6</ele>
        <time>2022-02-10T15:04:32Z</time>
      </trkpt>
      <trkpt lat="46.46727" lon="5.22015">
        <ele>226.2</ele>
        <time>2022-02-10T15:04:34Z</time>
      </trkpt>
      <trkpt lat="46.46752" lon="5.22012">
        <ele>225.4</ele>
        <time>2022-02-10T15:04:37Z</time>
      </trkpt>
      <trkpt lat="46.4676" lon="5.2201">
        <ele>225</ele>
        <time>2022-02-10T15:04:38Z</time>
      </trkpt>
      <trkpt lat="46.46768" lon="5.22007">
        <ele>224.6</ele>
        <time>2022-02-10T15:04:39Z</time>
      </trkpt>
      <trkpt lat="46.46793" lon="5.21998">
        <ele>223.8</ele>
        <time>2022-02-10T15:04:42Z</time>
      </trkpt>
      <trkpt lat="46.46811" lon="5.22">
        <ele>223.4</ele>
        <time>2022-02-10T15:04:44Z</time>
      </trkpt>
      <trkpt lat="46.46828" lon="5.22012">
        <ele>222.6</ele>
        <time>2022-02-10T15:04:46Z</time>
      </trkpt>
      <trkpt lat="46.46835" lon="5.22021">
        <ele>222</ele>
        <time>2022-02-10T15:04:47Z</time>
      </trkpt>
      <trkpt lat="46.46841" lon="5.22032">
        <ele>221.6</ele>
        <time>2022-02-10T15:04:48Z</time>
      </trkpt>
      <trkpt lat="46.46859" lon="5.22069">
        <ele>219.8</ele>
        <time>2022-02-10T15:04:51Z</time>
      </trkpt>
      <trkpt lat="46.4687" lon="5.22094">
        <ele>218.4</ele>
        <time>2022-02-10T15:04:53Z</time>
      </trkpt>
      <trkpt lat="46.46876" lon="5.22106">
        <ele>218</ele>
        <time>2022-02-10T15:04:54Z</time>
      </trkpt>
      <trkpt lat="46.46884" lon="5.22116">
        <ele>217.6</ele>
        <time>2022-02-10T15:04:55Z</time>
      </trkpt>
      <trkpt lat="46.46893" lon="5.22124">
        <ele>217.2</ele>
        <time>2022-02-10T15:04:56Z</time>
      </trkpt>
      <trkpt lat="46.46914" lon="5.22132">
        <ele>216.2</ele>
        <time>2022-02-10T15:04:58Z</time>
      </trkpt>
      <trkpt lat="46.46948" lon="5.22133">
        <ele>215</ele>
        <time>2022-02-10T15:05:01Z</time>
      </trkpt>
      <trkpt lat="46.46957" lon="5.22132">
        <ele>214.6</ele>
        <time>2022-02-10T15:05:02Z</time>
      </trkpt>
      <trkpt lat="46.46973" lon="5.22131">
        <ele>214</ele>
        <time>2022-02-10T15:05:04Z</time>
      </trkpt>
      <trkpt lat="46.47007" lon="5.2213">
        <ele>213.6</ele>
        <time>2022-02-10T15:05:08Z</time>
      </trkpt>
      <trkpt lat="46.47049" lon="5.22131">
        <ele>215</ele>
        <time>2022-02-10T15:05:14Z</time>
      </trkpt>
      <trkpt lat="46.47055" lon="5.22133">
        <ele>215.2</ele>
        <time>2022-02-10T15:05:15Z</time>
      </trkpt>
      <trkpt lat="46.47067" lon="5.22136">
        <ele>216.2</ele>
        <time>2022-02-10T15:05:17Z</time>
      </trkpt>
      <trkpt lat="46.47086" lon="5.22141">
        <ele>217</ele>
        <time>2022-02-10T15:05:20Z</time>
      </trkpt>
      <trkpt lat="46.47092" lon="5.22143">
        <ele>217.2</ele>
        <time>2022-02-10T15:05:21Z</time>
      </trkpt>
      <trkpt lat="46.47098" lon="5.22146">
        <ele>217.2</ele>
        <time>2022-02-10T15:05:22Z</time>
      </trkpt>
      <trkpt lat="46.47126" lon="5.22156">
        <ele>218.6</ele>
        <time>2022-02-10T15:05:27Z</time>
      </trkpt>
      <trkpt lat="46.47133" lon="5.22159">
        <ele>218.8</ele>
        <time>2022-02-10T15:05:28Z</time>
      </trkpt>
      <trkpt lat="46.47178" lon="5.22175">
        <ele>219.6</ele>
        <time>2022-02-10T15:05:36Z</time>
      </trkpt>
      <trkpt lat="46.47184" lon="5.22178">
        <ele>219.6</ele>
        <time>2022-02-10T15:05:37Z</time>
      </trkpt>
      <trkpt lat="46.47215" lon="5.2219">
        <ele>220.4</ele>
        <time>2022-02-10T15:05:43Z</time>
      </trkpt>
      <trkpt lat="46.4722" lon="5.22191">
        <ele>220.6</ele>
        <time>2022-02-10T15:05:44Z</time>
      </trkpt>
      <trkpt lat="46.47261" lon="5.22207">
        <ele>221.8</ele>
        <time>2022-02-10T15:05:52Z</time>
      </trkpt>
      <trkpt lat="46.47266" lon="5.22208">
        <ele>222</ele>
        <time>2022-02-10T15:05:53Z</time>
      </trkpt>
      <trkpt lat="46.47302" lon="5.22221">
        <ele>222.8</ele>
        <time>2022-02-10T15:06:00Z</time>
      </trkpt>
      <trkpt lat="46.47328" lon="5.22231">
        <ele>223.6</ele>
        <time>2022-02-10T15:06:05Z</time>
      </trkpt>
      <trkpt lat="46.47338" lon="5.22235">
        <ele>224</ele>
        <time>2022-02-10T15:06:07Z</time>
      </trkpt>
      <trkpt lat="46.47362" lon="5.22245">
        <ele>225</ele>
        <time>2022-02-10T15:06:12Z</time>
      </trkpt>
      <trkpt lat="46.47382" lon="5.22255">
        <ele>225.4</ele>
        <time>2022-02-10T15:06:16Z</time>
      </trkpt>
      <trkpt lat="46.47413" lon="5.22273">
        <ele>226</ele>
        <time>2022-02-10T15:06:22Z</time>
      </trkpt>
      <trkpt lat="46.47424" lon="5.22279">
        <ele>226.4</ele>
        <time>2022-02-10T15:06:24Z</time>
      </trkpt>
      <trkpt lat="46.47469" lon="5.22304">
        <ele>226.4</ele>
        <time>2022-02-10T15:06:32Z</time>
      </trkpt>
      <trkpt lat="46.47522" lon="5.22333">
        <ele>226</ele>
        <time>2022-02-10T15:06:41Z</time>
      </trkpt>
      <trkpt lat="46.47528" lon="5.22336">
        <ele>226.2</ele>
        <time>2022-02-10T15:06:42Z</time>
      </trkpt>
      <trkpt lat="46.47583" lon="5.22364">
        <ele>226.2</ele>
        <time>2022-02-10T15:06:51Z</time>
      </trkpt>
      <trkpt lat="46.47639" lon="5.22385">
        <ele>226.8</ele>
        <time>2022-02-10T15:07:00Z</time>
      </trkpt>
      <trkpt lat="46.4767" lon="5.22395">
        <ele>227.4</ele>
        <time>2022-02-10T15:07:05Z</time>
      </trkpt>
      <trkpt lat="46.47688" lon="5.22396">
        <ele>228</ele>
        <time>2022-02-10T15:07:08Z</time>
      </trkpt>
      <trkpt lat="46.47716" lon="5.22397">
        <ele>228.4</ele>
        <time>2022-02-10T15:07:13Z</time>
      </trkpt>
      <trkpt lat="46.47728" lon="5.22397">
        <ele>228.8</ele>
        <time>2022-02-10T15:07:15Z</time>
      </trkpt>
      <trkpt lat="46.47768" lon="5.224">
        <ele>228.8</ele>
        <time>2022-02-10T15:07:22Z</time>
      </trkpt>
      <trkpt lat="46.47772" lon="5.22402">
        <ele>228.6</ele>
        <time>2022-02-10T15:07:23Z</time>
      </trkpt>
      <trkpt lat="46.47775" lon="5.22406">
        <ele>228.4</ele>
        <time>2022-02-10T15:07:24Z</time>
      </trkpt>
      <trkpt lat="46.4778" lon="5.22417">
        <ele>228.4</ele>
        <time>2022-02-10T15:07:26Z</time>
      </trkpt>
      <trkpt lat="46.47783" lon="5.22433">
        <ele>228.4</ele>
        <time>2022-02-10T15:07:28Z</time>
      </trkpt>
      <trkpt lat="46.47785" lon="5.22451">
        <ele>228.4</ele>
        <time>2022-02-10T15:07:30Z</time>
      </trkpt>
      <trkpt lat="46.47799" lon="5.22518">
        <ele>228.6</ele>
        <time>2022-02-10T15:07:37Z</time>
      </trkpt>
      <trkpt lat="46.4781" lon="5.22556">
        <ele>228.6</ele>
        <time>2022-02-10T15:07:41Z</time>
      </trkpt>
      <trkpt lat="46.47814" lon="5.22564">
        <ele>228.6</ele>
        <time>2022-02-10T15:07:42Z</time>
      </trkpt>
      <trkpt lat="46.47819" lon="5.22573">
        <ele>228.6</ele>
        <time>2022-02-10T15:07:43Z</time>
      </trkpt>
      <trkpt lat="46.47836" lon="5.22596">
        <ele>228.4</ele>
        <time>2022-02-10T15:07:46Z</time>
      </trkpt>
      <trkpt lat="46.47871" lon="5.22635">
        <ele>227.2</ele>
        <time>2022-02-10T15:07:51Z</time>
      </trkpt>
      <trkpt lat="46.47879" lon="5.22643">
        <ele>227</ele>
        <time>2022-02-10T15:07:52Z</time>
      </trkpt>
      <trkpt lat="46.47903" lon="5.22669">
        <ele>225.6</ele>
        <time>2022-02-10T15:07:55Z</time>
      </trkpt>
      <trkpt lat="46.47919" lon="5.22686">
        <ele>224.4</ele>
        <time>2022-02-10T15:07:57Z</time>
      </trkpt>
      <trkpt lat="46.47944" lon="5.22712">
        <ele>223</ele>
        <time>2022-02-10T15:08:00Z</time>
      </trkpt>
      <trkpt lat="46.4796" lon="5.22731">
        <ele>221.8</ele>
        <time>2022-02-10T15:08:02Z</time>
      </trkpt>
      <trkpt lat="46.47974" lon="5.22754">
        <ele>221</ele>
        <time>2022-02-10T15:08:04Z</time>
      </trkpt>
      <trkpt lat="46.4798" lon="5.22766">
        <ele>220.6</ele>
        <time>2022-02-10T15:08:05Z</time>
      </trkpt>
      <trkpt lat="46.4799" lon="5.22791">
        <ele>219.6</ele>
        <time>2022-02-10T15:08:07Z</time>
      </trkpt>
      <trkpt lat="46.47999" lon="5.22816">
        <ele>218.8</ele>
        <time>2022-02-10T15:08:09Z</time>
      </trkpt>
      <trkpt lat="46.48004" lon="5.22829">
        <ele>218.6</ele>
        <time>2022-02-10T15:08:10Z</time>
      </trkpt>
      <trkpt lat="46.48021" lon="5.22878">
        <ele>217.4</ele>
        <time>2022-02-10T15:08:14Z</time>
      </trkpt>
      <trkpt lat="46.48034" lon="5.22915">
        <ele>216.4</ele>
        <time>2022-02-10T15:08:17Z</time>
      </trkpt>
      <trkpt lat="46.48038" lon="5.22928">
        <ele>216.4</ele>
        <time>2022-02-10T15:08:18Z</time>
      </trkpt>
      <trkpt lat="46.48041" lon="5.22942">
        <ele>216.2</ele>
        <time>2022-02-10T15:08:19Z</time>
      </trkpt>
      <trkpt lat="46.48044" lon="5.2297">
        <ele>215.6</ele>
        <time>2022-02-10T15:08:21Z</time>
      </trkpt>
      <trkpt lat="46.48046" lon="5.22998">
        <ele>215</ele>
        <time>2022-02-10T15:08:23Z</time>
      </trkpt>
      <trkpt lat="46.48048" lon="5.23054">
        <ele>213.8</ele>
        <time>2022-02-10T15:08:27Z</time>
      </trkpt>
      <trkpt lat="46.48049" lon="5.23123">
        <ele>212.8</ele>
        <time>2022-02-10T15:08:32Z</time>
      </trkpt>
      <trkpt lat="46.48051" lon="5.23181">
        <ele>211.2</ele>
        <time>2022-02-10T15:08:36Z</time>
      </trkpt>
      <trkpt lat="46.48051" lon="5.2321">
        <ele>210.4</ele>
        <time>2022-02-10T15:08:38Z</time>
      </trkpt>
      <trkpt lat="46.48052" lon="5.23238">
        <ele>210</ele>
        <time>2022-02-10T15:08:40Z</time>
      </trkpt>
      <trkpt lat="46.48052" lon="5.23266">
        <ele>209</ele>
        <time>2022-02-10T15:08:42Z</time>
      </trkpt>
      <trkpt lat="46.48053" lon="5.23319">
        <ele>207.8</ele>
        <time>2022-02-10T15:08:46Z</time>
      </trkpt>
      <trkpt lat="46.48054" lon="5.23332">
        <ele>207.8</ele>
        <time>2022-02-10T15:08:47Z</time>
      </trkpt>
      <trkpt lat="46.48056" lon="5.2342">
        <ele>207.2</ele>
        <time>2022-02-10T15:08:54Z</time>
      </trkpt>
      <trkpt lat="46.48057" lon="5.23432">
        <ele>207</ele>
        <time>2022-02-10T15:08:55Z</time>
      </trkpt>
      <trkpt lat="46.48058" lon="5.23479">
        <ele>206.8</ele>
        <time>2022-02-10T15:08:59Z</time>
      </trkpt>
      <trkpt lat="46.48058" lon="5.23514">
        <ele>206.6</ele>
        <time>2022-02-10T15:09:02Z</time>
      </trkpt>
      <trkpt lat="46.48059" lon="5.23594">
        <ele>206</ele>
        <time>2022-02-10T15:09:09Z</time>
      </trkpt>
      <trkpt lat="46.48062" lon="5.23626">
        <ele>206.2</ele>
        <time>2022-02-10T15:09:12Z</time>
      </trkpt>
      <trkpt lat="46.48074" lon="5.23687">
        <ele>206.4</ele>
        <time>2022-02-10T15:09:18Z</time>
      </trkpt>
      <trkpt lat="46.48093" lon="5.23738">
        <ele>206.8</ele>
        <time>2022-02-10T15:09:24Z</time>
      </trkpt>
      <trkpt lat="46.48126" lon="5.23787">
        <ele>207.4</ele>
        <time>2022-02-10T15:09:31Z</time>
      </trkpt>
      <trkpt lat="46.48166" lon="5.23835">
        <ele>207.6</ele>
        <time>2022-02-10T15:09:39Z</time>
      </trkpt>
      <trkpt lat="46.48175" lon="5.23848">
        <ele>207.6</ele>
        <time>2022-02-10T15:09:41Z</time>
      </trkpt>
      <trkpt lat="46.48182" lon="5.23863">
        <ele>207.6</ele>
        <time>2022-02-10T15:09:43Z</time>
      </trkpt>
      <trkpt lat="46.48189" lon="5.23898">
        <ele>207.8</ele>
        <time>2022-02-10T15:09:47Z</time>
      </trkpt>
      <trkpt lat="46.4819" lon="5.23907">
        <ele>207.8</ele>
        <time>2022-02-10T15:09:48Z</time>
      </trkpt>
      <trkpt lat="46.4819" lon="5.23916">
        <ele>207.8</ele>
        <time>2022-02-10T15:09:49Z</time>
      </trkpt>
      <trkpt lat="46.48187" lon="5.23933">
        <ele>207.8</ele>
        <time>2022-02-10T15:09:51Z</time>
      </trkpt>
      <trkpt lat="46.48186" lon="5.23942">
        <ele>207.8</ele>
        <time>2022-02-10T15:09:52Z</time>
      </trkpt>
      <trkpt lat="46.48179" lon="5.23965">
        <ele>208</ele>
        <time>2022-02-10T15:09:55Z</time>
      </trkpt>
      <trkpt lat="46.48175" lon="5.23978">
        <ele>208.4</ele>
        <time>2022-02-10T15:09:57Z</time>
      </trkpt>
      <trkpt lat="46.48172" lon="5.23984">
        <ele>208.6</ele>
        <time>2022-02-10T15:09:58Z</time>
      </trkpt>
      <trkpt lat="46.48165" lon="5.24001">
        <ele>209.4</ele>
        <time>2022-02-10T15:10:01Z</time>
      </trkpt>
      <trkpt lat="46.48161" lon="5.24013">
        <ele>209.8</ele>
        <time>2022-02-10T15:10:03Z</time>
      </trkpt>
      <trkpt lat="46.48159" lon="5.24018">
        <ele>210.2</ele>
        <time>2022-02-10T15:10:04Z</time>
      </trkpt>
      <trkpt lat="46.48156" lon="5.2403">
        <ele>210.6</ele>
        <time>2022-02-10T15:10:06Z</time>
      </trkpt>
      <trkpt lat="46.48145" lon="5.24057">
        <ele>211.6</ele>
        <time>2022-02-10T15:10:11Z</time>
      </trkpt>
      <trkpt lat="46.48143" lon="5.24063">
        <ele>212</ele>
        <time>2022-02-10T15:10:12Z</time>
      </trkpt>
      <trkpt lat="46.48137" lon="5.24078">
        <ele>212.6</ele>
        <time>2022-02-10T15:10:15Z</time>
      </trkpt>
      <trkpt lat="46.4813" lon="5.24097">
        <ele>213.8</ele>
        <time>2022-02-10T15:10:19Z</time>
      </trkpt>
      <trkpt lat="46.48123" lon="5.24112">
        <ele>214.6</ele>
        <time>2022-02-10T15:10:22Z</time>
      </trkpt>
      <trkpt lat="46.48119" lon="5.24122">
        <ele>215</ele>
        <time>2022-02-10T15:10:24Z</time>
      </trkpt>
      <trkpt lat="46.4811" lon="5.24142">
        <ele>216</ele>
        <time>2022-02-10T15:10:28Z</time>
      </trkpt>
      <trkpt lat="46.48105" lon="5.24157">
        <ele>216.6</ele>
        <time>2022-02-10T15:10:31Z</time>
      </trkpt>
      <trkpt lat="46.48101" lon="5.24166">
        <ele>217.2</ele>
        <time>2022-02-10T15:10:33Z</time>
      </trkpt>
      <trkpt lat="46.48093" lon="5.24188">
        <ele>218.2</ele>
        <time>2022-02-10T15:10:38Z</time>
      </trkpt>
      <trkpt lat="46.48091" lon="5.24192">
        <ele>218.4</ele>
        <time>2022-02-10T15:10:39Z</time>
      </trkpt>
      <trkpt lat="46.48085" lon="5.24205">
        <ele>219.2</ele>
        <time>2022-02-10T15:10:42Z</time>
      </trkpt>
      <trkpt lat="46.48077" lon="5.24226">
        <ele>220.4</ele>
        <time>2022-02-10T15:10:47Z</time>
      </trkpt>
      <trkpt lat="46.48075" lon="5.24235">
        <ele>221</ele>
        <time>2022-02-10T15:10:49Z</time>
      </trkpt>
      <trkpt lat="46.48072" lon="5.24249">
        <ele>222</ele>
        <time>2022-02-10T15:10:52Z</time>
      </trkpt>
      <trkpt lat="46.4807" lon="5.24274">
        <ele>222.6</ele>
        <time>2022-02-10T15:10:57Z</time>
      </trkpt>
      <trkpt lat="46.48071" lon="5.24278">
        <ele>223</ele>
        <time>2022-02-10T15:10:58Z</time>
      </trkpt>
      <trkpt lat="46.48077" lon="5.24302">
        <ele>224.2</ele>
        <time>2022-02-10T15:11:03Z</time>
      </trkpt>
      <trkpt lat="46.48088" lon="5.24321">
        <ele>225.2</ele>
        <time>2022-02-10T15:11:08Z</time>
      </trkpt>
      <trkpt lat="46.48091" lon="5.24324">
        <ele>225.2</ele>
        <time>2022-02-10T15:11:09Z</time>
      </trkpt>
      <trkpt lat="46.48106" lon="5.2434">
        <ele>226.2</ele>
        <time>2022-02-10T15:11:15Z</time>
      </trkpt>
      <trkpt lat="46.48113" lon="5.24348">
        <ele>227.4</ele>
        <time>2022-02-10T15:11:19Z</time>
      </trkpt>
      <trkpt lat="46.48115" lon="5.24349">
        <ele>227.6</ele>
        <time>2022-02-10T15:11:20Z</time>
      </trkpt>
      <trkpt lat="46.48121" lon="5.24348">
        <ele>228.2</ele>
        <time>2022-02-10T15:11:22Z</time>
      </trkpt>
      <trkpt lat="46.48124" lon="5.24346">
        <ele>228.6</ele>
        <time>2022-02-10T15:11:23Z</time>
      </trkpt>
      <trkpt lat="46.48143" lon="5.24324">
        <ele>229.2</ele>
        <time>2022-02-10T15:11:28Z</time>
      </trkpt>
      <trkpt lat="46.4817" lon="5.2429">
        <ele>229.8</ele>
        <time>2022-02-10T15:11:35Z</time>
      </trkpt>
      <trkpt lat="46.48196" lon="5.24261">
        <ele>230.6</ele>
        <time>2022-02-10T15:11:41Z</time>
      </trkpt>
      <trkpt lat="46.48202" lon="5.24257">
        <ele>230.8</ele>
        <time>2022-02-10T15:11:42Z</time>
      </trkpt>
      <trkpt lat="46.48207" lon="5.24255">
        <ele>230.8</ele>
        <time>2022-02-10T15:11:43Z</time>
      </trkpt>
      <trkpt lat="46.48219" lon="5.24255">
        <ele>231</ele>
        <time>2022-02-10T15:11:45Z</time>
      </trkpt>
      <trkpt lat="46.48256" lon="5.24263">
        <ele>231.6</ele>
        <time>2022-02-10T15:11:51Z</time>
      </trkpt>
      <trkpt lat="46.48303" lon="5.24278">
        <ele>231.6</ele>
        <time>2022-02-10T15:11:58Z</time>
      </trkpt>
      <trkpt lat="46.4831" lon="5.24282">
        <ele>231.6</ele>
        <time>2022-02-10T15:11:59Z</time>
      </trkpt>
      <trkpt lat="46.48316" lon="5.24288">
        <ele>231.4</ele>
        <time>2022-02-10T15:12:00Z</time>
      </trkpt>
      <trkpt lat="46.48333" lon="5.2431">
        <ele>231.2</ele>
        <time>2022-02-10T15:12:03Z</time>
      </trkpt>
      <trkpt lat="46.48352" lon="5.2433">
        <ele>231.2</ele>
        <time>2022-02-10T15:12:06Z</time>
      </trkpt>
      <trkpt lat="46.48367" lon="5.2434">
        <ele>231</ele>
        <time>2022-02-10T15:12:08Z</time>
      </trkpt>
      <trkpt lat="46.484" lon="5.24355">
        <ele>229.8</ele>
        <time>2022-02-10T15:12:12Z</time>
      </trkpt>
      <trkpt lat="46.48417" lon="5.24365">
        <ele>228.8</ele>
        <time>2022-02-10T15:12:14Z</time>
      </trkpt>
      <trkpt lat="46.48425" lon="5.24372">
        <ele>228.4</ele>
        <time>2022-02-10T15:12:15Z</time>
      </trkpt>
      <trkpt lat="46.4844" lon="5.24387">
        <ele>227.4</ele>
        <time>2022-02-10T15:12:17Z</time>
      </trkpt>
      <trkpt lat="46.48461" lon="5.24411">
        <ele>226.6</ele>
        <time>2022-02-10T15:12:20Z</time>
      </trkpt>
      <trkpt lat="46.4848" lon="5.24436">
        <ele>226.2</ele>
        <time>2022-02-10T15:12:23Z</time>
      </trkpt>
      <trkpt lat="46.48505" lon="5.24466">
        <ele>226.2</ele>
        <time>2022-02-10T15:12:27Z</time>
      </trkpt>
      <trkpt lat="46.48544" lon="5.24514">
        <ele>227.2</ele>
        <time>2022-02-10T15:12:34Z</time>
      </trkpt>
      <trkpt lat="46.48549" lon="5.24521">
        <ele>227.4</ele>
        <time>2022-02-10T15:12:35Z</time>
      </trkpt>
      <trkpt lat="46.48591" lon="5.24563">
        <ele>228.4</ele>
        <time>2022-02-10T15:12:42Z</time>
      </trkpt>
      <trkpt lat="46.48634" lon="5.24588">
        <ele>228.8</ele>
        <time>2022-02-10T15:12:48Z</time>
      </trkpt>
      <trkpt lat="46.48687" lon="5.24616">
        <ele>228.4</ele>
        <time>2022-02-10T15:12:55Z</time>
      </trkpt>
      <trkpt lat="46.48739" lon="5.24636">
        <ele>228.2</ele>
        <time>2022-02-10T15:13:02Z</time>
      </trkpt>
      <trkpt lat="46.48745" lon="5.24638">
        <ele>228.2</ele>
        <time>2022-02-10T15:13:03Z</time>
      </trkpt>
      <trkpt lat="46.48757" lon="5.24649">
        <ele>228.2</ele>
        <time>2022-02-10T15:13:05Z</time>
      </trkpt>
      <trkpt lat="46.48768" lon="5.24663">
        <ele>228.4</ele>
        <time>2022-02-10T15:13:07Z</time>
      </trkpt>
      <trkpt lat="46.48787" lon="5.2468">
        <ele>228.6</ele>
        <time>2022-02-10T15:13:10Z</time>
      </trkpt>
      <trkpt lat="46.48832" lon="5.24724">
        <ele>228.8</ele>
        <time>2022-02-10T15:13:17Z</time>
      </trkpt>
      <trkpt lat="46.48875" lon="5.24773">
        <ele>228.4</ele>
        <time>2022-02-10T15:13:24Z</time>
      </trkpt>
      <trkpt lat="46.48881" lon="5.2478">
        <ele>228.4</ele>
        <time>2022-02-10T15:13:25Z</time>
      </trkpt>
      <trkpt lat="46.48924" lon="5.2483">
        <ele>228.2</ele>
        <time>2022-02-10T15:13:32Z</time>
      </trkpt>
      <trkpt lat="46.48948" lon="5.2486">
        <ele>228</ele>
        <time>2022-02-10T15:13:36Z</time>
      </trkpt>
      <trkpt lat="46.48972" lon="5.24895">
        <ele>227.4</ele>
        <time>2022-02-10T15:13:40Z</time>
      </trkpt>
      <trkpt lat="46.48978" lon="5.24905">
        <ele>227.2</ele>
        <time>2022-02-10T15:13:41Z</time>
      </trkpt>
      <trkpt lat="46.48994" lon="5.24954">
        <ele>226.6</ele>
        <time>2022-02-10T15:13:45Z</time>
      </trkpt>
      <trkpt lat="46.48997" lon="5.24968">
        <ele>226.2</ele>
        <time>2022-02-10T15:13:46Z</time>
      </trkpt>
      <trkpt lat="46.49006" lon="5.25024">
        <ele>224.6</ele>
        <time>2022-02-10T15:13:50Z</time>
      </trkpt>
      <trkpt lat="46.49012" lon="5.25068">
        <ele>223</ele>
        <time>2022-02-10T15:13:53Z</time>
      </trkpt>
      <trkpt lat="46.49018" lon="5.25128">
        <ele>221.6</ele>
        <time>2022-02-10T15:13:57Z</time>
      </trkpt>
      <trkpt lat="46.49021" lon="5.25142">
        <ele>221</ele>
        <time>2022-02-10T15:13:58Z</time>
      </trkpt>
      <trkpt lat="46.49024" lon="5.25171">
        <ele>220.4</ele>
        <time>2022-02-10T15:14:00Z</time>
      </trkpt>
      <trkpt lat="46.49035" lon="5.25252">
        <ele>219.4</ele>
        <time>2022-02-10T15:14:06Z</time>
      </trkpt>
      <trkpt lat="46.49044" lon="5.25318">
        <ele>219.6</ele>
        <time>2022-02-10T15:14:12Z</time>
      </trkpt>
      <trkpt lat="46.49052" lon="5.25382">
        <ele>220.6</ele>
        <time>2022-02-10T15:14:18Z</time>
      </trkpt>
      <trkpt lat="46.49058" lon="5.25443">
        <ele>220.8</ele>
        <time>2022-02-10T15:14:23Z</time>
      </trkpt>
      <trkpt lat="46.49071" lon="5.25521">
        <ele>220</ele>
        <time>2022-02-10T15:14:29Z</time>
      </trkpt>
      <trkpt lat="46.4908" lon="5.25545">
        <ele>219.2</ele>
        <time>2022-02-10T15:14:31Z</time>
      </trkpt>
      <trkpt lat="46.49087" lon="5.25555">
        <ele>218.8</ele>
        <time>2022-02-10T15:14:32Z</time>
      </trkpt>
      <trkpt lat="46.49094" lon="5.25565">
        <ele>218.4</ele>
        <time>2022-02-10T15:14:33Z</time>
      </trkpt>
      <trkpt lat="46.49102" lon="5.25574">
        <ele>218</ele>
        <time>2022-02-10T15:14:34Z</time>
      </trkpt>
      <trkpt lat="46.49118" lon="5.2559">
        <ele>217.2</ele>
        <time>2022-02-10T15:14:36Z</time>
      </trkpt>
      <trkpt lat="46.49134" lon="5.25605">
        <ele>217</ele>
        <time>2022-02-10T15:14:38Z</time>
      </trkpt>
      <trkpt lat="46.49159" lon="5.25628">
        <ele>215.6</ele>
        <time>2022-02-10T15:14:41Z</time>
      </trkpt>
      <trkpt lat="46.49189" lon="5.25658">
        <ele>214.6</ele>
        <time>2022-02-10T15:14:45Z</time>
      </trkpt>
      <trkpt lat="46.49196" lon="5.25666">
        <ele>214.2</ele>
        <time>2022-02-10T15:14:46Z</time>
      </trkpt>
      <trkpt lat="46.4924" lon="5.25709">
        <ele>213.6</ele>
        <time>2022-02-10T15:14:52Z</time>
      </trkpt>
      <trkpt lat="46.49254" lon="5.25723">
        <ele>213.4</ele>
        <time>2022-02-10T15:14:54Z</time>
      </trkpt>
      <trkpt lat="46.49288" lon="5.25755">
        <ele>213.2</ele>
        <time>2022-02-10T15:14:59Z</time>
      </trkpt>
      <trkpt lat="46.49319" lon="5.25786">
        <ele>213.4</ele>
        <time>2022-02-10T15:15:04Z</time>
      </trkpt>
      <trkpt lat="46.49368" lon="5.25835">
        <ele>213.4</ele>
        <time>2022-02-10T15:15:12Z</time>
      </trkpt>
      <trkpt lat="46.49374" lon="5.25841">
        <ele>213.4</ele>
        <time>2022-02-10T15:15:13Z</time>
      </trkpt>
      <trkpt lat="46.49424" lon="5.25891">
        <ele>213.4</ele>
        <time>2022-02-10T15:15:21Z</time>
      </trkpt>
      <trkpt lat="46.49441" lon="5.25908">
        <ele>213.6</ele>
        <time>2022-02-10T15:15:24Z</time>
      </trkpt>
      <trkpt lat="46.49488" lon="5.25957">
        <ele>213.8</ele>
        <time>2022-02-10T15:15:32Z</time>
      </trkpt>
      <trkpt lat="46.49494" lon="5.25963">
        <ele>213.8</ele>
        <time>2022-02-10T15:15:33Z</time>
      </trkpt>
      <trkpt lat="46.4954" lon="5.26008">
        <ele>213.8</ele>
        <time>2022-02-10T15:15:41Z</time>
      </trkpt>
      <trkpt lat="46.49575" lon="5.26053">
        <ele>213.8</ele>
        <time>2022-02-10T15:15:48Z</time>
      </trkpt>
      <trkpt lat="46.49601" lon="5.26101">
        <ele>213.8</ele>
        <time>2022-02-10T15:15:54Z</time>
      </trkpt>
      <trkpt lat="46.49617" lon="5.26158">
        <ele>213.6</ele>
        <time>2022-02-10T15:16:00Z</time>
      </trkpt>
      <trkpt lat="46.49624" lon="5.2622">
        <ele>213.2</ele>
        <time>2022-02-10T15:16:06Z</time>
      </trkpt>
      <trkpt lat="46.49629" lon="5.263">
        <ele>212.8</ele>
        <time>2022-02-10T15:16:14Z</time>
      </trkpt>
      <trkpt lat="46.49631" lon="5.26342">
        <ele>213.4</ele>
        <time>2022-02-10T15:16:19Z</time>
      </trkpt>
      <trkpt lat="46.49635" lon="5.26377">
        <ele>215</ele>
        <time>2022-02-10T15:16:24Z</time>
      </trkpt>
      <trkpt lat="46.49636" lon="5.2639">
        <ele>215.2</ele>
        <time>2022-02-10T15:16:26Z</time>
      </trkpt>
      <trkpt lat="46.49639" lon="5.26408">
        <ele>216</ele>
        <time>2022-02-10T15:16:29Z</time>
      </trkpt>
      <trkpt lat="46.49643" lon="5.26432">
        <ele>217</ele>
        <time>2022-02-10T15:16:33Z</time>
      </trkpt>
      <trkpt lat="46.49644" lon="5.26438">
        <ele>217.2</ele>
        <time>2022-02-10T15:16:34Z</time>
      </trkpt>
      <trkpt lat="46.49648" lon="5.26461">
        <ele>218</ele>
        <time>2022-02-10T15:16:38Z</time>
      </trkpt>
      <trkpt lat="46.49654" lon="5.26481">
        <ele>219.2</ele>
        <time>2022-02-10T15:16:42Z</time>
      </trkpt>
      <trkpt lat="46.49664" lon="5.26508">
        <ele>220.4</ele>
        <time>2022-02-10T15:16:47Z</time>
      </trkpt>
      <trkpt lat="46.49665" lon="5.26512">
        <ele>220.4</ele>
        <time>2022-02-10T15:16:48Z</time>
      </trkpt>
      <trkpt lat="46.49675" lon="5.26534">
        <ele>221.8</ele>
        <time>2022-02-10T15:16:52Z</time>
      </trkpt>
      <trkpt lat="46.49686" lon="5.26559">
        <ele>222.8</ele>
        <time>2022-02-10T15:16:57Z</time>
      </trkpt>
      <trkpt lat="46.49702" lon="5.26589">
        <ele>224.2</ele>
        <time>2022-02-10T15:17:03Z</time>
      </trkpt>
      <trkpt lat="46.4971" lon="5.26604">
        <ele>224.8</ele>
        <time>2022-02-10T15:17:06Z</time>
      </trkpt>
      <trkpt lat="46.49714" lon="5.26614">
        <ele>225.2</ele>
        <time>2022-02-10T15:17:08Z</time>
      </trkpt>
      <trkpt lat="46.49719" lon="5.26634">
        <ele>226.2</ele>
        <time>2022-02-10T15:17:12Z</time>
      </trkpt>
      <trkpt lat="46.49721" lon="5.2664">
        <ele>226.6</ele>
        <time>2022-02-10T15:17:13Z</time>
      </trkpt>
      <trkpt lat="46.49728" lon="5.26662">
        <ele>227</ele>
        <time>2022-02-10T15:17:17Z</time>
      </trkpt>
      <trkpt lat="46.49735" lon="5.26701">
        <ele>228</ele>
        <time>2022-02-10T15:17:23Z</time>
      </trkpt>
      <trkpt lat="46.49739" lon="5.26754">
        <ele>228.8</ele>
        <time>2022-02-10T15:17:30Z</time>
      </trkpt>
      <trkpt lat="46.49738" lon="5.26779">
        <ele>229.2</ele>
        <time>2022-02-10T15:17:33Z</time>
      </trkpt>
      <trkpt lat="46.49734" lon="5.26814">
        <ele>229.2</ele>
        <time>2022-02-10T15:17:37Z</time>
      </trkpt>
      <trkpt lat="46.49721" lon="5.26871">
        <ele>229</ele>
        <time>2022-02-10T15:17:43Z</time>
      </trkpt>
      <trkpt lat="46.49703" lon="5.26926">
        <ele>228.6</ele>
        <time>2022-02-10T15:17:49Z</time>
      </trkpt>
      <trkpt lat="46.49684" lon="5.26982">
        <ele>229</ele>
        <time>2022-02-10T15:17:56Z</time>
      </trkpt>
      <trkpt lat="46.49674" lon="5.27009">
        <ele>229.6</ele>
        <time>2022-02-10T15:18:00Z</time>
      </trkpt>
      <trkpt lat="46.49665" lon="5.27039">
        <ele>230.2</ele>
        <time>2022-02-10T15:18:04Z</time>
      </trkpt>
      <trkpt lat="46.49662" lon="5.27047">
        <ele>230.4</ele>
        <time>2022-02-10T15:18:05Z</time>
      </trkpt>
      <trkpt lat="46.4966" lon="5.27055">
        <ele>230.6</ele>
        <time>2022-02-10T15:18:06Z</time>
      </trkpt>
      <trkpt lat="46.49645" lon="5.27107">
        <ele>231.2</ele>
        <time>2022-02-10T15:18:12Z</time>
      </trkpt>
      <trkpt lat="46.49635" lon="5.27163">
        <ele>231.6</ele>
        <time>2022-02-10T15:18:18Z</time>
      </trkpt>
      <trkpt lat="46.49637" lon="5.27215">
        <ele>231.4</ele>
        <time>2022-02-10T15:18:23Z</time>
      </trkpt>
      <trkpt lat="46.4964" lon="5.27239">
        <ele>231</ele>
        <time>2022-02-10T15:18:25Z</time>
      </trkpt>
      <trkpt lat="46.49647" lon="5.27266">
        <ele>230.6</ele>
        <time>2022-02-10T15:18:27Z</time>
      </trkpt>
      <trkpt lat="46.4965" lon="5.27278">
        <ele>230</ele>
        <time>2022-02-10T15:18:28Z</time>
      </trkpt>
      <trkpt lat="46.49666" lon="5.27314">
        <ele>228.8</ele>
        <time>2022-02-10T15:18:31Z</time>
      </trkpt>
      <trkpt lat="46.49691" lon="5.27362">
        <ele>227.6</ele>
        <time>2022-02-10T15:18:35Z</time>
      </trkpt>
      <trkpt lat="46.49703" lon="5.27387">
        <ele>226.8</ele>
        <time>2022-02-10T15:18:37Z</time>
      </trkpt>
      <trkpt lat="46.49713" lon="5.27414">
        <ele>226.2</ele>
        <time>2022-02-10T15:18:39Z</time>
      </trkpt>
      <trkpt lat="46.49719" lon="5.2744">
        <ele>225.2</ele>
        <time>2022-02-10T15:18:41Z</time>
      </trkpt>
      <trkpt lat="46.49722" lon="5.27458">
        <ele>224.8</ele>
        <time>2022-02-10T15:18:42Z</time>
      </trkpt>
      <trkpt lat="46.49724" lon="5.27485">
        <ele>223.6</ele>
        <time>2022-02-10T15:18:44Z</time>
      </trkpt>
      <trkpt lat="46.49725" lon="5.27501">
        <ele>223.2</ele>
        <time>2022-02-10T15:18:45Z</time>
      </trkpt>
      <trkpt lat="46.49725" lon="5.27521">
        <ele>222</ele>
        <time>2022-02-10T15:18:46Z</time>
      </trkpt>
      <trkpt lat="46.49724" lon="5.27552">
        <ele>220.8</ele>
        <time>2022-02-10T15:18:48Z</time>
      </trkpt>
      <trkpt lat="46.49724" lon="5.276">
        <ele>219.6</ele>
        <time>2022-02-10T15:18:51Z</time>
      </trkpt>
      <trkpt lat="46.49725" lon="5.27631">
        <ele>218.8</ele>
        <time>2022-02-10T15:18:53Z</time>
      </trkpt>
      <trkpt lat="46.49727" lon="5.27647">
        <ele>218.6</ele>
        <time>2022-02-10T15:18:54Z</time>
      </trkpt>
      <trkpt lat="46.49732" lon="5.27678">
        <ele>216.4</ele>
        <time>2022-02-10T15:18:56Z</time>
      </trkpt>
      <trkpt lat="46.49735" lon="5.27693">
        <ele>215.8</ele>
        <time>2022-02-10T15:18:57Z</time>
      </trkpt>
      <trkpt lat="46.49737" lon="5.27708">
        <ele>214.6</ele>
        <time>2022-02-10T15:18:58Z</time>
      </trkpt>
      <trkpt lat="46.49748" lon="5.27769">
        <ele>213.4</ele>
        <time>2022-02-10T15:19:02Z</time>
      </trkpt>
      <trkpt lat="46.49756" lon="5.27815">
        <ele>212.4</ele>
        <time>2022-02-10T15:19:05Z</time>
      </trkpt>
      <trkpt lat="46.49762" lon="5.27859">
        <ele>211.4</ele>
        <time>2022-02-10T15:19:08Z</time>
      </trkpt>
      <trkpt lat="46.49763" lon="5.27886">
        <ele>210.6</ele>
        <time>2022-02-10T15:19:10Z</time>
      </trkpt>
      <trkpt lat="46.49764" lon="5.27904">
        <ele>210</ele>
        <time>2022-02-10T15:19:11Z</time>
      </trkpt>
      <trkpt lat="46.49765" lon="5.27975">
        <ele>208.6</ele>
        <time>2022-02-10T15:19:16Z</time>
      </trkpt>
      <trkpt lat="46.49766" lon="5.28058">
        <ele>208</ele>
        <time>2022-02-10T15:19:22Z</time>
      </trkpt>
      <trkpt lat="46.49765" lon="5.28072">
        <ele>207.8</ele>
        <time>2022-02-10T15:19:23Z</time>
      </trkpt>
      <trkpt lat="46.49764" lon="5.28085">
        <ele>207.6</ele>
        <time>2022-02-10T15:19:24Z</time>
      </trkpt>
      <trkpt lat="46.49761" lon="5.28111">
        <ele>206.6</ele>
        <time>2022-02-10T15:19:26Z</time>
      </trkpt>
      <trkpt lat="46.49756" lon="5.28149">
        <ele>206</ele>
        <time>2022-02-10T15:19:29Z</time>
      </trkpt>
      <trkpt lat="46.49743" lon="5.2823">
        <ele>205.6</ele>
        <time>2022-02-10T15:19:36Z</time>
      </trkpt>
      <trkpt lat="46.49724" lon="5.28308">
        <ele>205.8</ele>
        <time>2022-02-10T15:19:43Z</time>
      </trkpt>
      <trkpt lat="46.49702" lon="5.28391">
        <ele>206.2</ele>
        <time>2022-02-10T15:19:51Z</time>
      </trkpt>
      <trkpt lat="46.49693" lon="5.28452">
        <ele>206</ele>
        <time>2022-02-10T15:19:57Z</time>
      </trkpt>
      <trkpt lat="46.49684" lon="5.28515">
        <ele>206.4</ele>
        <time>2022-02-10T15:20:03Z</time>
      </trkpt>
      <trkpt lat="46.49669" lon="5.28594">
        <ele>206.6</ele>
        <time>2022-02-10T15:20:11Z</time>
      </trkpt>
      <trkpt lat="46.4965" lon="5.28667">
        <ele>206.6</ele>
        <time>2022-02-10T15:20:18Z</time>
      </trkpt>
      <trkpt lat="46.49632" lon="5.28741">
        <ele>206</ele>
        <time>2022-02-10T15:20:25Z</time>
      </trkpt>
      <trkpt lat="46.49626" lon="5.28772">
        <ele>206</ele>
        <time>2022-02-10T15:20:28Z</time>
      </trkpt>
      <trkpt lat="46.49615" lon="5.28834">
        <ele>205.8</ele>
        <time>2022-02-10T15:20:34Z</time>
      </trkpt>
      <trkpt lat="46.49608" lon="5.28872">
        <ele>205.6</ele>
        <time>2022-02-10T15:20:38Z</time>
      </trkpt>
      <trkpt lat="46.49594" lon="5.28955">
        <ele>206</ele>
        <time>2022-02-10T15:20:47Z</time>
      </trkpt>
      <trkpt lat="46.49589" lon="5.28985">
        <ele>206.8</ele>
        <time>2022-02-10T15:20:51Z</time>
      </trkpt>
      <trkpt lat="46.49585" lon="5.29005">
        <ele>207.6</ele>
        <time>2022-02-10T15:20:54Z</time>
      </trkpt>
      <trkpt lat="46.49584" lon="5.29013">
        <ele>208</ele>
        <time>2022-02-10T15:20:55Z</time>
      </trkpt>
      <trkpt lat="46.4958" lon="5.2904">
        <ele>209</ele>
        <time>2022-02-10T15:21:00Z</time>
      </trkpt>
      <trkpt lat="46.49579" lon="5.29046">
        <ele>209.2</ele>
        <time>2022-02-10T15:21:01Z</time>
      </trkpt>
      <trkpt lat="46.49574" lon="5.29073">
        <ele>210.2</ele>
        <time>2022-02-10T15:21:06Z</time>
      </trkpt>
      <trkpt lat="46.4957" lon="5.29089">
        <ele>210.8</ele>
        <time>2022-02-10T15:21:09Z</time>
      </trkpt>
      <trkpt lat="46.49568" lon="5.291">
        <ele>211.4</ele>
        <time>2022-02-10T15:21:11Z</time>
      </trkpt>
      <trkpt lat="46.49565" lon="5.29121">
        <ele>212.4</ele>
        <time>2022-02-10T15:21:15Z</time>
      </trkpt>
      <trkpt lat="46.49562" lon="5.29135">
        <ele>212.8</ele>
        <time>2022-02-10T15:21:18Z</time>
      </trkpt>
      <trkpt lat="46.49557" lon="5.2915">
        <ele>213.6</ele>
        <time>2022-02-10T15:21:21Z</time>
      </trkpt>
      <trkpt lat="46.49547" lon="5.29176">
        <ele>214.4</ele>
        <time>2022-02-10T15:21:27Z</time>
      </trkpt>
      <trkpt lat="46.49545" lon="5.2918">
        <ele>214.6</ele>
        <time>2022-02-10T15:21:28Z</time>
      </trkpt>
      <trkpt lat="46.49537" lon="5.29196">
        <ele>215.8</ele>
        <time>2022-02-10T15:21:32Z</time>
      </trkpt>
      <trkpt lat="46.49529" lon="5.29213">
        <ele>216.6</ele>
        <time>2022-02-10T15:21:36Z</time>
      </trkpt>
      <trkpt lat="46.49527" lon="5.29217">
        <ele>217</ele>
        <time>2022-02-10T15:21:37Z</time>
      </trkpt>
      <trkpt lat="46.4952" lon="5.29235">
        <ele>218.2</ele>
        <time>2022-02-10T15:21:41Z</time>
      </trkpt>
      <trkpt lat="46.49518" lon="5.2924">
        <ele>218.4</ele>
        <time>2022-02-10T15:21:42Z</time>
      </trkpt>
      <trkpt lat="46.49514" lon="5.29258">
        <ele>219.2</ele>
        <time>2022-02-10T15:21:46Z</time>
      </trkpt>
      <trkpt lat="46.49511" lon="5.29282">
        <ele>219.8</ele>
        <time>2022-02-10T15:21:51Z</time>
      </trkpt>
      <trkpt lat="46.4951" lon="5.29297">
        <ele>220.6</ele>
        <time>2022-02-10T15:21:54Z</time>
      </trkpt>
      <trkpt lat="46.49512" lon="5.29321">
        <ele>221.8</ele>
        <time>2022-02-10T15:21:59Z</time>
      </trkpt>
      <trkpt lat="46.49516" lon="5.29346">
        <ele>223</ele>
        <time>2022-02-10T15:22:04Z</time>
      </trkpt>
      <trkpt lat="46.4952" lon="5.2936">
        <ele>223.4</ele>
        <time>2022-02-10T15:22:07Z</time>
      </trkpt>
      <trkpt lat="46.49525" lon="5.29373">
        <ele>224.2</ele>
        <time>2022-02-10T15:22:10Z</time>
      </trkpt>
      <trkpt lat="46.49534" lon="5.29393">
        <ele>225.2</ele>
        <time>2022-02-10T15:22:15Z</time>
      </trkpt>
      <trkpt lat="46.49536" lon="5.29397">
        <ele>225.2</ele>
        <time>2022-02-10T15:22:16Z</time>
      </trkpt>
      <trkpt lat="46.49547" lon="5.29418">
        <ele>226.4</ele>
        <time>2022-02-10T15:22:21Z</time>
      </trkpt>
      <trkpt lat="46.4955" lon="5.29422">
        <ele>226.6</ele>
        <time>2022-02-10T15:22:22Z</time>
      </trkpt>
      <trkpt lat="46.49562" lon="5.29444">
        <ele>227.6</ele>
        <time>2022-02-10T15:22:27Z</time>
      </trkpt>
      <trkpt lat="46.49576" lon="5.2947">
        <ele>228</ele>
        <time>2022-02-10T15:22:32Z</time>
      </trkpt>
      <trkpt lat="46.49604" lon="5.2952">
        <ele>228.4</ele>
        <time>2022-02-10T15:22:40Z</time>
      </trkpt>
      <trkpt lat="46.49637" lon="5.2958">
        <ele>228.4</ele>
        <time>2022-02-10T15:22:49Z</time>
      </trkpt>
      <trkpt lat="46.49674" lon="5.29644">
        <ele>228.4</ele>
        <time>2022-02-10T15:22:58Z</time>
      </trkpt>
      <trkpt lat="46.49678" lon="5.29652">
        <ele>228.2</ele>
        <time>2022-02-10T15:22:59Z</time>
      </trkpt>
      <trkpt lat="46.49715" lon="5.29718">
        <ele>227.8</ele>
        <time>2022-02-10T15:23:07Z</time>
      </trkpt>
      <trkpt lat="46.49744" lon="5.29775">
        <ele>227.6</ele>
        <time>2022-02-10T15:23:14Z</time>
      </trkpt>
      <trkpt lat="46.49755" lon="5.29787">
        <ele>227.8</ele>
        <time>2022-02-10T15:23:16Z</time>
      </trkpt>
      <trkpt lat="46.49761" lon="5.29789">
        <ele>227.8</ele>
        <time>2022-02-10T15:23:17Z</time>
      </trkpt>
      <trkpt lat="46.49788" lon="5.29791">
        <ele>227.6</ele>
        <time>2022-02-10T15:23:21Z</time>
      </trkpt>
      <trkpt lat="46.49795" lon="5.29793">
        <ele>227.8</ele>
        <time>2022-02-10T15:23:22Z</time>
      </trkpt>
      <trkpt lat="46.49843" lon="5.2981">
        <ele>228</ele>
        <time>2022-02-10T15:23:29Z</time>
      </trkpt>
      <trkpt lat="46.49894" lon="5.29831">
        <ele>228</ele>
        <time>2022-02-10T15:23:36Z</time>
      </trkpt>
      <trkpt lat="46.49942" lon="5.29849">
        <ele>227</ele>
        <time>2022-02-10T15:23:42Z</time>
      </trkpt>
      <trkpt lat="46.4995" lon="5.29851">
        <ele>226.6</ele>
        <time>2022-02-10T15:23:43Z</time>
      </trkpt>
      <trkpt lat="46.49991" lon="5.29858">
        <ele>225.4</ele>
        <time>2022-02-10T15:23:48Z</time>
      </trkpt>
      <trkpt lat="46.49999" lon="5.29859">
        <ele>225</ele>
        <time>2022-02-10T15:23:49Z</time>
      </trkpt>
      <trkpt lat="46.50007" lon="5.29862">
        <ele>225</ele>
        <time>2022-02-10T15:23:50Z</time>
      </trkpt>
      <trkpt lat="46.50021" lon="5.29873">
        <ele>224.6</ele>
        <time>2022-02-10T15:23:52Z</time>
      </trkpt>
      <trkpt lat="46.50044" lon="5.29901">
        <ele>224.4</ele>
        <time>2022-02-10T15:23:56Z</time>
      </trkpt>
      <trkpt lat="46.50055" lon="5.29916">
        <ele>224.2</ele>
        <time>2022-02-10T15:23:58Z</time>
      </trkpt>
      <trkpt lat="46.50071" lon="5.29949">
        <ele>224.4</ele>
        <time>2022-02-10T15:24:02Z</time>
      </trkpt>
      <trkpt lat="46.50074" lon="5.29958">
        <ele>224.4</ele>
        <time>2022-02-10T15:24:03Z</time>
      </trkpt>
      <trkpt lat="46.50081" lon="5.29985">
        <ele>224.8</ele>
        <time>2022-02-10T15:24:06Z</time>
      </trkpt>
      <trkpt lat="46.50084" lon="5.30014">
        <ele>225</ele>
        <time>2022-02-10T15:24:09Z</time>
      </trkpt>
      <trkpt lat="46.50086" lon="5.30073">
        <ele>225.6</ele>
        <time>2022-02-10T15:24:15Z</time>
      </trkpt>
      <trkpt lat="46.50085" lon="5.30093">
        <ele>225.4</ele>
        <time>2022-02-10T15:24:17Z</time>
      </trkpt>
      <trkpt lat="46.50086" lon="5.30168">
        <ele>225.6</ele>
        <time>2022-02-10T15:24:24Z</time>
      </trkpt>
      <trkpt lat="46.50087" lon="5.30212">
        <ele>225.2</ele>
        <time>2022-02-10T15:24:28Z</time>
      </trkpt>
      <trkpt lat="46.50086" lon="5.30233">
        <ele>225.2</ele>
        <time>2022-02-10T15:24:30Z</time>
      </trkpt>
      <trkpt lat="46.50079" lon="5.30301">
        <ele>224.8</ele>
        <time>2022-02-10T15:24:36Z</time>
      </trkpt>
      <trkpt lat="46.50074" lon="5.30324">
        <ele>224.4</ele>
        <time>2022-02-10T15:24:38Z</time>
      </trkpt>
      <trkpt lat="46.5007" lon="5.30336">
        <ele>224.2</ele>
        <time>2022-02-10T15:24:39Z</time>
      </trkpt>
      <trkpt lat="46.50066" lon="5.30347">
        <ele>224</ele>
        <time>2022-02-10T15:24:40Z</time>
      </trkpt>
      <trkpt lat="46.50055" lon="5.30368">
        <ele>223.8</ele>
        <time>2022-02-10T15:24:42Z</time>
      </trkpt>
      <trkpt lat="46.50042" lon="5.30385">
        <ele>223.4</ele>
        <time>2022-02-10T15:24:44Z</time>
      </trkpt>
      <trkpt lat="46.50035" lon="5.30393">
        <ele>222.6</ele>
        <time>2022-02-10T15:24:45Z</time>
      </trkpt>
      <trkpt lat="46.50007" lon="5.30416">
        <ele>222</ele>
        <time>2022-02-10T15:24:49Z</time>
      </trkpt>
      <trkpt lat="46.49972" lon="5.30447">
        <ele>222.2</ele>
        <time>2022-02-10T15:24:55Z</time>
      </trkpt>
      <trkpt lat="46.49951" lon="5.30477">
        <ele>223.4</ele>
        <time>2022-02-10T15:25:00Z</time>
      </trkpt>
      <trkpt lat="46.49945" lon="5.3049">
        <ele>223.8</ele>
        <time>2022-02-10T15:25:02Z</time>
      </trkpt>
      <trkpt lat="46.49939" lon="5.30504">
        <ele>224</ele>
        <time>2022-02-10T15:25:04Z</time>
      </trkpt>
      <trkpt lat="46.49936" lon="5.30519">
        <ele>224.2</ele>
        <time>2022-02-10T15:25:06Z</time>
      </trkpt>
      <trkpt lat="46.49931" lon="5.30541">
        <ele>224.8</ele>
        <time>2022-02-10T15:25:09Z</time>
      </trkpt>
      <trkpt lat="46.4993" lon="5.30571">
        <ele>225.8</ele>
        <time>2022-02-10T15:25:13Z</time>
      </trkpt>
      <trkpt lat="46.4993" lon="5.30578">
        <ele>226</ele>
        <time>2022-02-10T15:25:14Z</time>
      </trkpt>
      <trkpt lat="46.49933" lon="5.30607">
        <ele>226.4</ele>
        <time>2022-02-10T15:25:18Z</time>
      </trkpt>
      <trkpt lat="46.49934" lon="5.30614">
        <ele>226.8</ele>
        <time>2022-02-10T15:25:19Z</time>
      </trkpt>
      <trkpt lat="46.49936" lon="5.30628">
        <ele>227.2</ele>
        <time>2022-02-10T15:25:21Z</time>
      </trkpt>
      <trkpt lat="46.49942" lon="5.30662">
        <ele>228.2</ele>
        <time>2022-02-10T15:25:26Z</time>
      </trkpt>
      <trkpt lat="46.49945" lon="5.30675">
        <ele>228.6</ele>
        <time>2022-02-10T15:25:28Z</time>
      </trkpt>
      <trkpt lat="46.49951" lon="5.30709">
        <ele>229.4</ele>
        <time>2022-02-10T15:25:33Z</time>
      </trkpt>
      <trkpt lat="46.49956" lon="5.30736">
        <ele>230.2</ele>
        <time>2022-02-10T15:25:37Z</time>
      </trkpt>
      <trkpt lat="46.49959" lon="5.30759">
        <ele>230.6</ele>
        <time>2022-02-10T15:25:40Z</time>
      </trkpt>
      <trkpt lat="46.49964" lon="5.30784">
        <ele>230.8</ele>
        <time>2022-02-10T15:25:43Z</time>
      </trkpt>
      <trkpt lat="46.49981" lon="5.30845">
        <ele>230.6</ele>
        <time>2022-02-10T15:25:50Z</time>
      </trkpt>
      <trkpt lat="46.50004" lon="5.30909">
        <ele>229.2</ele>
        <time>2022-02-10T15:25:57Z</time>
      </trkpt>
      <trkpt lat="46.50016" lon="5.3094">
        <ele>228.2</ele>
        <time>2022-02-10T15:26:00Z</time>
      </trkpt>
      <trkpt lat="46.50028" lon="5.30975">
        <ele>227</ele>
        <time>2022-02-10T15:26:03Z</time>
      </trkpt>
      <trkpt lat="46.50046" lon="5.31026">
        <ele>225.6</ele>
        <time>2022-02-10T15:26:07Z</time>
      </trkpt>
      <trkpt lat="46.50056" lon="5.31052">
        <ele>224.4</ele>
        <time>2022-02-10T15:26:09Z</time>
      </trkpt>
      <trkpt lat="46.50061" lon="5.31066">
        <ele>224</ele>
        <time>2022-02-10T15:26:10Z</time>
      </trkpt>
      <trkpt lat="46.5007" lon="5.31094">
        <ele>223</ele>
        <time>2022-02-10T15:26:12Z</time>
      </trkpt>
      <trkpt lat="46.5008" lon="5.31123">
        <ele>221.8</ele>
        <time>2022-02-10T15:26:14Z</time>
      </trkpt>
      <trkpt lat="46.50094" lon="5.31164">
        <ele>220.6</ele>
        <time>2022-02-10T15:26:17Z</time>
      </trkpt>
      <trkpt lat="46.50099" lon="5.31178">
        <ele>220.2</ele>
        <time>2022-02-10T15:26:18Z</time>
      </trkpt>
      <trkpt lat="46.50119" lon="5.31237">
        <ele>219.6</ele>
        <time>2022-02-10T15:26:23Z</time>
      </trkpt>
      <trkpt lat="46.50145" lon="5.31312">
        <ele>220.6</ele>
        <time>2022-02-10T15:26:30Z</time>
      </trkpt>
      <trkpt lat="46.50171" lon="5.31391">
        <ele>220.8</ele>
        <time>2022-02-10T15:26:37Z</time>
      </trkpt>
      <trkpt lat="46.50196" lon="5.31463">
        <ele>220</ele>
        <time>2022-02-10T15:26:43Z</time>
      </trkpt>
      <trkpt lat="46.502" lon="5.31476">
        <ele>219.8</ele>
        <time>2022-02-10T15:26:44Z</time>
      </trkpt>
      <trkpt lat="46.5022" lon="5.31527">
        <ele>218.2</ele>
        <time>2022-02-10T15:26:48Z</time>
      </trkpt>
      <trkpt lat="46.50232" lon="5.31551">
        <ele>217.2</ele>
        <time>2022-02-10T15:26:50Z</time>
      </trkpt>
      <trkpt lat="46.50247" lon="5.31571">
        <ele>215.8</ele>
        <time>2022-02-10T15:26:52Z</time>
      </trkpt>
      <trkpt lat="46.50263" lon="5.31588">
        <ele>215</ele>
        <time>2022-02-10T15:26:54Z</time>
      </trkpt>
      <trkpt lat="46.50271" lon="5.31596">
        <ele>214.6</ele>
        <time>2022-02-10T15:26:55Z</time>
      </trkpt>
      <trkpt lat="46.50304" lon="5.31623">
        <ele>214</ele>
        <time>2022-02-10T15:26:59Z</time>
      </trkpt>
      <trkpt lat="46.50328" lon="5.31641">
        <ele>213.6</ele>
        <time>2022-02-10T15:27:02Z</time>
      </trkpt>
      <trkpt lat="46.50359" lon="5.31665">
        <ele>213.4</ele>
        <time>2022-02-10T15:27:06Z</time>
      </trkpt>
      <trkpt lat="46.50378" lon="5.3169">
        <ele>213.2</ele>
        <time>2022-02-10T15:27:09Z</time>
      </trkpt>
      <trkpt lat="46.50383" lon="5.31699">
        <ele>213.2</ele>
        <time>2022-02-10T15:27:10Z</time>
      </trkpt>
      <trkpt lat="46.50409" lon="5.31756">
        <ele>213.4</ele>
        <time>2022-02-10T15:27:16Z</time>
      </trkpt>
      <trkpt lat="46.50428" lon="5.31828">
        <ele>214.2</ele>
        <time>2022-02-10T15:27:23Z</time>
      </trkpt>
      <trkpt lat="46.50437" lon="5.31889">
        <ele>214.4</ele>
        <time>2022-02-10T15:27:29Z</time>
      </trkpt>
      <trkpt lat="46.50437" lon="5.319">
        <ele>214.6</ele>
        <time>2022-02-10T15:27:30Z</time>
      </trkpt>
      <trkpt lat="46.50437" lon="5.3196">
        <ele>214.8</ele>
        <time>2022-02-10T15:27:36Z</time>
      </trkpt>
      <trkpt lat="46.50437" lon="5.32048">
        <ele>215</ele>
        <time>2022-02-10T15:27:45Z</time>
      </trkpt>
      <trkpt lat="46.50434" lon="5.3212">
        <ele>215.6</ele>
        <time>2022-02-10T15:27:53Z</time>
      </trkpt>
      <trkpt lat="46.50433" lon="5.32146">
        <ele>215.6</ele>
        <time>2022-02-10T15:27:56Z</time>
      </trkpt>
      <trkpt lat="46.50432" lon="5.32198">
        <ele>216.8</ele>
        <time>2022-02-10T15:28:02Z</time>
      </trkpt>
      <trkpt lat="46.50432" lon="5.32224">
        <ele>217</ele>
        <time>2022-02-10T15:28:05Z</time>
      </trkpt>
      <trkpt lat="46.50433" lon="5.32275">
        <ele>217.8</ele>
        <time>2022-02-10T15:28:11Z</time>
      </trkpt>
      <trkpt lat="46.50435" lon="5.32292">
        <ele>218</ele>
        <time>2022-02-10T15:28:13Z</time>
      </trkpt>
      <trkpt lat="46.50448" lon="5.32357">
        <ele>218.4</ele>
        <time>2022-02-10T15:28:20Z</time>
      </trkpt>
      <trkpt lat="46.50464" lon="5.32433">
        <ele>218.2</ele>
        <time>2022-02-10T15:28:28Z</time>
      </trkpt>
      <trkpt lat="46.50471" lon="5.32499">
        <ele>218.2</ele>
        <time>2022-02-10T15:28:35Z</time>
      </trkpt>
      <trkpt lat="46.50475" lon="5.32551">
        <ele>219</ele>
        <time>2022-02-10T15:28:41Z</time>
      </trkpt>
      <trkpt lat="46.50476" lon="5.32577">
        <ele>219.2</ele>
        <time>2022-02-10T15:28:44Z</time>
      </trkpt>
      <trkpt lat="46.50478" lon="5.32645">
        <ele>220</ele>
        <time>2022-02-10T15:28:52Z</time>
      </trkpt>
      <trkpt lat="46.50478" lon="5.32653">
        <ele>220</ele>
        <time>2022-02-10T15:28:53Z</time>
      </trkpt>
      <trkpt lat="46.50476" lon="5.32735">
        <ele>221</ele>
        <time>2022-02-10T15:29:03Z</time>
      </trkpt>
      <trkpt lat="46.50475" lon="5.32769">
        <ele>221.2</ele>
        <time>2022-02-10T15:29:07Z</time>
      </trkpt>
      <trkpt lat="46.50474" lon="5.32811">
        <ele>221.6</ele>
        <time>2022-02-10T15:29:12Z</time>
      </trkpt>
      <trkpt lat="46.50473" lon="5.32869">
        <ele>222.2</ele>
        <time>2022-02-10T15:29:19Z</time>
      </trkpt>
      <trkpt lat="46.50473" lon="5.32892">
        <ele>222.8</ele>
        <time>2022-02-10T15:29:22Z</time>
      </trkpt>
      <trkpt lat="46.50474" lon="5.32927">
        <ele>223.6</ele>
        <time>2022-02-10T15:29:27Z</time>
      </trkpt>
      <trkpt lat="46.50474" lon="5.3294">
        <ele>224</ele>
        <time>2022-02-10T15:29:29Z</time>
      </trkpt>
      <trkpt lat="46.50474" lon="5.32953">
        <ele>224.6</ele>
        <time>2022-02-10T15:29:31Z</time>
      </trkpt>
      <trkpt lat="46.50474" lon="5.32985">
        <ele>225.8</ele>
        <time>2022-02-10T15:29:36Z</time>
      </trkpt>
      <trkpt lat="46.50474" lon="5.32992">
        <ele>225.8</ele>
        <time>2022-02-10T15:29:37Z</time>
      </trkpt>
      <trkpt lat="46.50475" lon="5.33017">
        <ele>227</ele>
        <time>2022-02-10T15:29:41Z</time>
      </trkpt>
      <trkpt lat="46.50474" lon="5.33023">
        <ele>227</ele>
        <time>2022-02-10T15:29:42Z</time>
      </trkpt>
      <trkpt lat="46.50472" lon="5.33048">
        <ele>227.8</ele>
        <time>2022-02-10T15:29:46Z</time>
      </trkpt>
      <trkpt lat="46.50471" lon="5.33055">
        <ele>228</ele>
        <time>2022-02-10T15:29:47Z</time>
      </trkpt>
      <trkpt lat="46.50471" lon="5.33061">
        <ele>228.2</ele>
        <time>2022-02-10T15:29:48Z</time>
      </trkpt>
      <trkpt lat="46.50468" lon="5.33085">
        <ele>229.4</ele>
        <time>2022-02-10T15:29:52Z</time>
      </trkpt>
      <trkpt lat="46.50467" lon="5.3309">
        <ele>229.6</ele>
        <time>2022-02-10T15:29:53Z</time>
      </trkpt>
      <trkpt lat="46.50464" lon="5.33109">
        <ele>230.4</ele>
        <time>2022-02-10T15:29:56Z</time>
      </trkpt>
      <trkpt lat="46.50461" lon="5.33128">
        <ele>231</ele>
        <time>2022-02-10T15:29:59Z</time>
      </trkpt>
      <trkpt lat="46.50462" lon="5.33141">
        <ele>231.2</ele>
        <time>2022-02-10T15:30:01Z</time>
      </trkpt>
      <trkpt lat="46.50462" lon="5.33173">
        <ele>232.4</ele>
        <time>2022-02-10T15:30:06Z</time>
      </trkpt>
      <trkpt lat="46.5046" lon="5.33196">
        <ele>233.2</ele>
        <time>2022-02-10T15:30:10Z</time>
      </trkpt>
      <trkpt lat="46.50462" lon="5.33202">
        <ele>233.4</ele>
        <time>2022-02-10T15:30:11Z</time>
      </trkpt>
      <trkpt lat="46.50463" lon="5.33208">
        <ele>233.6</ele>
        <time>2022-02-10T15:30:12Z</time>
      </trkpt>
      <trkpt lat="46.50463" lon="5.3325">
        <ele>234.4</ele>
        <time>2022-02-10T15:30:18Z</time>
      </trkpt>
      <trkpt lat="46.50463" lon="5.33266">
        <ele>234.6</ele>
        <time>2022-02-10T15:30:20Z</time>
      </trkpt>
      <trkpt lat="46.50462" lon="5.3331">
        <ele>234.8</ele>
        <time>2022-02-10T15:30:25Z</time>
      </trkpt>
      <trkpt lat="46.50458" lon="5.33376">
        <ele>234.4</ele>
        <time>2022-02-10T15:30:32Z</time>
      </trkpt>
      <trkpt lat="46.50451" lon="5.33401">
        <ele>234.2</ele>
        <time>2022-02-10T15:30:35Z</time>
      </trkpt>
      <trkpt lat="46.50445" lon="5.33416">
        <ele>234.2</ele>
        <time>2022-02-10T15:30:37Z</time>
      </trkpt>
      <trkpt lat="46.50441" lon="5.33423">
        <ele>234.2</ele>
        <time>2022-02-10T15:30:38Z</time>
      </trkpt>
      <trkpt lat="46.50428" lon="5.33441">
        <ele>234.2</ele>
        <time>2022-02-10T15:30:41Z</time>
      </trkpt>
      <trkpt lat="46.50399" lon="5.33473">
        <ele>234.8</ele>
        <time>2022-02-10T15:30:47Z</time>
      </trkpt>
      <trkpt lat="46.50376" lon="5.33501">
        <ele>235.6</ele>
        <time>2022-02-10T15:30:52Z</time>
      </trkpt>
      <trkpt lat="46.50356" lon="5.33524">
        <ele>236.2</ele>
        <time>2022-02-10T15:30:56Z</time>
      </trkpt>
      <trkpt lat="46.50346" lon="5.33535">
        <ele>236.4</ele>
        <time>2022-02-10T15:30:58Z</time>
      </trkpt>
      <trkpt lat="46.50325" lon="5.33554">
        <ele>236.6</ele>
        <time>2022-02-10T15:31:02Z</time>
      </trkpt>
      <trkpt lat="46.50319" lon="5.33558">
        <ele>236.6</ele>
        <time>2022-02-10T15:31:03Z</time>
      </trkpt>
      <trkpt lat="46.50288" lon="5.33592">
        <ele>236.8</ele>
        <time>2022-02-10T15:31:09Z</time>
      </trkpt>
      <trkpt lat="46.50242" lon="5.33639">
        <ele>237.6</ele>
        <time>2022-02-10T15:31:18Z</time>
      </trkpt>
      <trkpt lat="46.50204" lon="5.33682">
        <ele>238.4</ele>
        <time>2022-02-10T15:31:26Z</time>
      </trkpt>
      <trkpt lat="46.50199" lon="5.33688">
        <ele>238.4</ele>
        <time>2022-02-10T15:31:27Z</time>
      </trkpt>
      <trkpt lat="46.5018" lon="5.33708">
        <ele>238.6</ele>
        <time>2022-02-10T15:31:31Z</time>
      </trkpt>
      <trkpt lat="46.50175" lon="5.33714">
        <ele>238.6</ele>
        <time>2022-02-10T15:31:32Z</time>
      </trkpt>
      <trkpt lat="46.50139" lon="5.33751">
        <ele>238.8</ele>
        <time>2022-02-10T15:31:39Z</time>
      </trkpt>
      <trkpt lat="46.50094" lon="5.338">
        <ele>238</ele>
        <time>2022-02-10T15:31:47Z</time>
      </trkpt>
      <trkpt lat="46.50089" lon="5.33806">
        <ele>238</ele>
        <time>2022-02-10T15:31:48Z</time>
      </trkpt>
      <trkpt lat="46.50042" lon="5.33857">
        <ele>238.6</ele>
        <time>2022-02-10T15:31:57Z</time>
      </trkpt>
      <trkpt lat="46.50009" lon="5.3389">
        <ele>239.6</ele>
        <time>2022-02-10T15:32:04Z</time>
      </trkpt>
      <trkpt lat="46.49987" lon="5.33913">
        <ele>240.8</ele>
        <time>2022-02-10T15:32:09Z</time>
      </trkpt>
      <trkpt lat="46.49963" lon="5.33939">
        <ele>241.2</ele>
        <time>2022-02-10T15:32:14Z</time>
      </trkpt>
      <trkpt lat="46.49937" lon="5.3397">
        <ele>241.2</ele>
        <time>2022-02-10T15:32:19Z</time>
      </trkpt>
      <trkpt lat="46.49891" lon="5.34017">
        <ele>240.6</ele>
        <time>2022-02-10T15:32:26Z</time>
      </trkpt>
      <trkpt lat="46.49849" lon="5.34064">
        <ele>239.4</ele>
        <time>2022-02-10T15:32:32Z</time>
      </trkpt>
      <trkpt lat="46.49843" lon="5.34072">
        <ele>239</ele>
        <time>2022-02-10T15:32:33Z</time>
      </trkpt>
      <trkpt lat="46.49817" lon="5.34113">
        <ele>238.6</ele>
        <time>2022-02-10T15:32:38Z</time>
      </trkpt>
      <trkpt lat="46.49788" lon="5.34161">
        <ele>238.4</ele>
        <time>2022-02-10T15:32:44Z</time>
      </trkpt>
      <trkpt lat="46.49782" lon="5.34169">
        <ele>238.4</ele>
        <time>2022-02-10T15:32:45Z</time>
      </trkpt>
      <trkpt lat="46.49748" lon="5.34229">
        <ele>238.2</ele>
        <time>2022-02-10T15:32:52Z</time>
      </trkpt>
      <trkpt lat="46.49711" lon="5.34298">
        <ele>238</ele>
        <time>2022-02-10T15:33:00Z</time>
      </trkpt>
      <trkpt lat="46.49692" lon="5.34355">
        <ele>238</ele>
        <time>2022-02-10T15:33:06Z</time>
      </trkpt>
      <trkpt lat="46.49671" lon="5.34434">
        <ele>237.4</ele>
        <time>2022-02-10T15:33:13Z</time>
      </trkpt>
      <trkpt lat="46.49661" lon="5.3447">
        <ele>236.2</ele>
        <time>2022-02-10T15:33:16Z</time>
      </trkpt>
      <trkpt lat="46.49648" lon="5.34518">
        <ele>235.4</ele>
        <time>2022-02-10T15:33:20Z</time>
      </trkpt>
      <trkpt lat="46.49643" lon="5.3453">
        <ele>235.2</ele>
        <time>2022-02-10T15:33:21Z</time>
      </trkpt>
      <trkpt lat="46.4963" lon="5.34547">
        <ele>234.6</ele>
        <time>2022-02-10T15:33:23Z</time>
      </trkpt>
      <trkpt lat="46.49616" lon="5.34563">
        <ele>234</ele>
        <time>2022-02-10T15:33:25Z</time>
      </trkpt>
      <trkpt lat="46.49598" lon="5.34589">
        <ele>233.4</ele>
        <time>2022-02-10T15:33:28Z</time>
      </trkpt>
      <trkpt lat="46.4957" lon="5.34629">
        <ele>233</ele>
        <time>2022-02-10T15:33:33Z</time>
      </trkpt>
      <trkpt lat="46.4954" lon="5.34666">
        <ele>233.6</ele>
        <time>2022-02-10T15:33:39Z</time>
      </trkpt>
      <trkpt lat="46.4953" lon="5.34676">
        <ele>233.8</ele>
        <time>2022-02-10T15:33:41Z</time>
      </trkpt>
      <trkpt lat="46.49518" lon="5.34689">
        <ele>234.8</ele>
        <time>2022-02-10T15:33:44Z</time>
      </trkpt>
      <trkpt lat="46.49515" lon="5.34694">
        <ele>235</ele>
        <time>2022-02-10T15:33:45Z</time>
      </trkpt>
      <trkpt lat="46.49503" lon="5.34705">
        <ele>236.2</ele>
        <time>2022-02-10T15:33:48Z</time>
      </trkpt>
      <trkpt lat="46.49499" lon="5.34709">
        <ele>236.4</ele>
        <time>2022-02-10T15:33:49Z</time>
      </trkpt>
      <trkpt lat="46.49484" lon="5.3473">
        <ele>237.2</ele>
        <time>2022-02-10T15:33:54Z</time>
      </trkpt>
      <trkpt lat="46.49477" lon="5.34739">
        <ele>237.8</ele>
        <time>2022-02-10T15:33:56Z</time>
      </trkpt>
      <trkpt lat="46.49472" lon="5.34745">
        <ele>238.6</ele>
        <time>2022-02-10T15:33:58Z</time>
      </trkpt>
      <trkpt lat="46.49465" lon="5.34754">
        <ele>239.4</ele>
        <time>2022-02-10T15:34:01Z</time>
      </trkpt>
      <trkpt lat="46.49464" lon="5.34757">
        <ele>239.8</ele>
        <time>2022-02-10T15:34:02Z</time>
      </trkpt>
      <trkpt lat="46.49452" lon="5.3477">
        <ele>240.6</ele>
        <time>2022-02-10T15:34:06Z</time>
      </trkpt>
      <trkpt lat="46.4945" lon="5.34772">
        <ele>241</ele>
        <time>2022-02-10T15:34:07Z</time>
      </trkpt>
      <trkpt lat="46.49438" lon="5.34784">
        <ele>242.2</ele>
        <time>2022-02-10T15:34:11Z</time>
      </trkpt>
      <trkpt lat="46.49436" lon="5.34786">
        <ele>242.4</ele>
        <time>2022-02-10T15:34:12Z</time>
      </trkpt>
      <trkpt lat="46.49426" lon="5.34794">
        <ele>243.4</ele>
        <time>2022-02-10T15:34:16Z</time>
      </trkpt>
      <trkpt lat="46.49422" lon="5.34803">
        <ele>243.6</ele>
        <time>2022-02-10T15:34:18Z</time>
      </trkpt>
      <trkpt lat="46.49417" lon="5.34807">
        <ele>244.4</ele>
        <time>2022-02-10T15:34:23Z</time>
      </trkpt>
      <trkpt lat="46.49417" lon="5.34807">
        <ele>244.4</ele>
        <time>2022-02-10T15:34:24Z</time>
      </trkpt>
      <trkpt lat="46.49408" lon="5.34809">
        <ele>244.4</ele>
        <time>2022-02-10T15:35:16Z</time>
      </trkpt>
      <trkpt lat="46.49401" lon="5.34811">
        <ele>244.4</ele>
        <time>2022-02-10T15:35:18Z</time>
      </trkpt>
      <trkpt lat="46.49384" lon="5.34815">
        <ele>244.4</ele>
        <time>2022-02-10T15:35:21Z</time>
      </trkpt>
      <trkpt lat="46.4934" lon="5.34824">
        <ele>244.4</ele>
        <time>2022-02-10T15:35:28Z</time>
      </trkpt>
      <trkpt lat="46.49322" lon="5.34829">
        <ele>244.4</ele>
        <time>2022-02-10T15:35:31Z</time>
      </trkpt>
      <trkpt lat="46.4931" lon="5.34835">
        <ele>244.4</ele>
        <time>2022-02-10T15:35:33Z</time>
      </trkpt>
      <trkpt lat="46.49304" lon="5.34838">
        <ele>244.4</ele>
        <time>2022-02-10T15:35:34Z</time>
      </trkpt>
      <trkpt lat="46.49292" lon="5.34847">
        <ele>244.4</ele>
        <time>2022-02-10T15:35:36Z</time>
      </trkpt>
      <trkpt lat="46.49275" lon="5.34866">
        <ele>244.6</ele>
        <time>2022-02-10T15:35:39Z</time>
      </trkpt>
      <trkpt lat="46.49232" lon="5.34923">
        <ele>245</ele>
        <time>2022-02-10T15:35:47Z</time>
      </trkpt>
      <trkpt lat="46.492" lon="5.34966">
        <ele>245.4</ele>
        <time>2022-02-10T15:35:54Z</time>
      </trkpt>
      <trkpt lat="46.49185" lon="5.34985">
        <ele>245.4</ele>
        <time>2022-02-10T15:35:57Z</time>
      </trkpt>
      <trkpt lat="46.49175" lon="5.34997">
        <ele>245.6</ele>
        <time>2022-02-10T15:35:59Z</time>
      </trkpt>
      <trkpt lat="46.49142" lon="5.35025">
        <ele>245.4</ele>
        <time>2022-02-10T15:36:05Z</time>
      </trkpt>
      <trkpt lat="46.49112" lon="5.3505">
        <ele>245.4</ele>
        <time>2022-02-10T15:36:11Z</time>
      </trkpt>
      <trkpt lat="46.4907" lon="5.35083">
        <ele>246</ele>
        <time>2022-02-10T15:36:19Z</time>
      </trkpt>
      <trkpt lat="46.49066" lon="5.35086">
        <ele>246</ele>
        <time>2022-02-10T15:36:20Z</time>
      </trkpt>
      <trkpt lat="46.4906" lon="5.35095">
        <ele>246.2</ele>
        <time>2022-02-10T15:36:22Z</time>
      </trkpt>
      <trkpt lat="46.49052" lon="5.35102">
        <ele>246.4</ele>
        <time>2022-02-10T15:36:24Z</time>
      </trkpt>
      <trkpt lat="46.49035" lon="5.35118">
        <ele>247</ele>
        <time>2022-02-10T15:36:28Z</time>
      </trkpt>
      <trkpt lat="46.49027" lon="5.3513">
        <ele>247.2</ele>
        <time>2022-02-10T15:36:30Z</time>
      </trkpt>
      <trkpt lat="46.49024" lon="5.35137">
        <ele>247.4</ele>
        <time>2022-02-10T15:36:31Z</time>
      </trkpt>
      <trkpt lat="46.49014" lon="5.35159">
        <ele>247.4</ele>
        <time>2022-02-10T15:36:34Z</time>
      </trkpt>
      <trkpt lat="46.49004" lon="5.35182">
        <ele>247.6</ele>
        <time>2022-02-10T15:36:37Z</time>
      </trkpt>
      <trkpt lat="46.4898" lon="5.35236">
        <ele>247</ele>
        <time>2022-02-10T15:36:43Z</time>
      </trkpt>
      <trkpt lat="46.48946" lon="5.3531">
        <ele>246.4</ele>
        <time>2022-02-10T15:36:51Z</time>
      </trkpt>
      <trkpt lat="46.48914" lon="5.35383">
        <ele>245.6</ele>
        <time>2022-02-10T15:36:59Z</time>
      </trkpt>
      <trkpt lat="46.48906" lon="5.35402">
        <ele>245.4</ele>
        <time>2022-02-10T15:37:01Z</time>
      </trkpt>
      <trkpt lat="46.48895" lon="5.35424">
        <ele>245.8</ele>
        <time>2022-02-10T15:37:04Z</time>
      </trkpt>
      <trkpt lat="46.48883" lon="5.35447">
        <ele>245.8</ele>
        <time>2022-02-10T15:37:07Z</time>
      </trkpt>
      <trkpt lat="46.48856" lon="5.35505">
        <ele>246.2</ele>
        <time>2022-02-10T15:37:14Z</time>
      </trkpt>
      <trkpt lat="46.48832" lon="5.35558">
        <ele>246.6</ele>
        <time>2022-02-10T15:37:21Z</time>
      </trkpt>
      <trkpt lat="46.48802" lon="5.35623">
        <ele>247</ele>
        <time>2022-02-10T15:37:29Z</time>
      </trkpt>
      <trkpt lat="46.48787" lon="5.35656">
        <ele>247</ele>
        <time>2022-02-10T15:37:33Z</time>
      </trkpt>
      <trkpt lat="46.4878" lon="5.35672">
        <ele>246.8</ele>
        <time>2022-02-10T15:37:35Z</time>
      </trkpt>
      <trkpt lat="46.4875" lon="5.35741">
        <ele>246.6</ele>
        <time>2022-02-10T15:37:43Z</time>
      </trkpt>
      <trkpt lat="46.48743" lon="5.35758">
        <ele>246.6</ele>
        <time>2022-02-10T15:37:45Z</time>
      </trkpt>
      <trkpt lat="46.4872" lon="5.35812">
        <ele>246.6</ele>
        <time>2022-02-10T15:37:52Z</time>
      </trkpt>
      <trkpt lat="46.48702" lon="5.35851">
        <ele>247</ele>
        <time>2022-02-10T15:37:58Z</time>
      </trkpt>
      <trkpt lat="46.48678" lon="5.35907">
        <ele>247.4</ele>
        <time>2022-02-10T15:38:06Z</time>
      </trkpt>
      <trkpt lat="46.48676" lon="5.35914">
        <ele>247.6</ele>
        <time>2022-02-10T15:38:07Z</time>
      </trkpt>
      <trkpt lat="46.48669" lon="5.3595">
        <ele>249</ele>
        <time>2022-02-10T15:38:12Z</time>
      </trkpt>
      <trkpt lat="46.48663" lon="5.35996">
        <ele>250</ele>
        <time>2022-02-10T15:38:18Z</time>
      </trkpt>
      <trkpt lat="46.48661" lon="5.36003">
        <ele>250</ele>
        <time>2022-02-10T15:38:19Z</time>
      </trkpt>
      <trkpt lat="46.48652" lon="5.36058">
        <ele>250.2</ele>
        <time>2022-02-10T15:38:25Z</time>
      </trkpt>
      <trkpt lat="46.48637" lon="5.36131">
        <ele>249</ele>
        <time>2022-02-10T15:38:32Z</time>
      </trkpt>
      <trkpt lat="46.48636" lon="5.36141">
        <ele>248.8</ele>
        <time>2022-02-10T15:38:33Z</time>
      </trkpt>
      <trkpt lat="46.48631" lon="5.36199">
        <ele>248.2</ele>
        <time>2022-02-10T15:38:39Z</time>
      </trkpt>
      <trkpt lat="46.48622" lon="5.36278">
        <ele>248.8</ele>
        <time>2022-02-10T15:38:48Z</time>
      </trkpt>
      <trkpt lat="46.48618" lon="5.36299">
        <ele>249.4</ele>
        <time>2022-02-10T15:38:51Z</time>
      </trkpt>
      <trkpt lat="46.48616" lon="5.36305">
        <ele>249.4</ele>
        <time>2022-02-10T15:38:52Z</time>
      </trkpt>
      <trkpt lat="46.48612" lon="5.3631">
        <ele>249.6</ele>
        <time>2022-02-10T15:38:53Z</time>
      </trkpt>
      <trkpt lat="46.48605" lon="5.36318">
        <ele>249.8</ele>
        <time>2022-02-10T15:38:55Z</time>
      </trkpt>
      <trkpt lat="46.48601" lon="5.3632">
        <ele>250</ele>
        <time>2022-02-10T15:38:56Z</time>
      </trkpt>
      <trkpt lat="46.48597" lon="5.36321">
        <ele>250.2</ele>
        <time>2022-02-10T15:38:57Z</time>
      </trkpt>
      <trkpt lat="46.48579" lon="5.36322">
        <ele>251.2</ele>
        <time>2022-02-10T15:39:01Z</time>
      </trkpt>
      <trkpt lat="46.48575" lon="5.36322">
        <ele>251.6</ele>
        <time>2022-02-10T15:39:02Z</time>
      </trkpt>
      <trkpt lat="46.48561" lon="5.36323">
        <ele>252.2</ele>
        <time>2022-02-10T15:39:05Z</time>
      </trkpt>
      <trkpt lat="46.48531" lon="5.36328">
        <ele>253.4</ele>
        <time>2022-02-10T15:39:12Z</time>
      </trkpt>
      <trkpt lat="46.48526" lon="5.36329">
        <ele>253.8</ele>
        <time>2022-02-10T15:39:13Z</time>
      </trkpt>
      <trkpt lat="46.48491" lon="5.36336">
        <ele>254.8</ele>
        <time>2022-02-10T15:39:20Z</time>
      </trkpt>
      <trkpt lat="46.48481" lon="5.36338">
        <ele>254.8</ele>
        <time>2022-02-10T15:39:22Z</time>
      </trkpt>
      <trkpt lat="46.48427" lon="5.36349">
        <ele>255.4</ele>
        <time>2022-02-10T15:39:32Z</time>
      </trkpt>
      <trkpt lat="46.48421" lon="5.36351">
        <ele>255.4</ele>
        <time>2022-02-10T15:39:33Z</time>
      </trkpt>
      <trkpt lat="46.48405" lon="5.3636">
        <ele>255.6</ele>
        <time>2022-02-10T15:39:36Z</time>
      </trkpt>
      <trkpt lat="46.48395" lon="5.36369">
        <ele>255.6</ele>
        <time>2022-02-10T15:39:38Z</time>
      </trkpt>
      <trkpt lat="46.48376" lon="5.36389">
        <ele>255.8</ele>
        <time>2022-02-10T15:39:42Z</time>
      </trkpt>
      <trkpt lat="46.48353" lon="5.36415">
        <ele>255.8</ele>
        <time>2022-02-10T15:39:47Z</time>
      </trkpt>
      <trkpt lat="46.48324" lon="5.36447">
        <ele>256.8</ele>
        <time>2022-02-10T15:39:54Z</time>
      </trkpt>
      <trkpt lat="46.48311" lon="5.36461">
        <ele>257.2</ele>
        <time>2022-02-10T15:39:57Z</time>
      </trkpt>
      <trkpt lat="46.48295" lon="5.36479">
        <ele>257.8</ele>
        <time>2022-02-10T15:40:01Z</time>
      </trkpt>
      <trkpt lat="46.48274" lon="5.36502">
        <ele>259</ele>
        <time>2022-02-10T15:40:06Z</time>
      </trkpt>
      <trkpt lat="46.48266" lon="5.36511">
        <ele>259.2</ele>
        <time>2022-02-10T15:40:08Z</time>
      </trkpt>
      <trkpt lat="46.48241" lon="5.36537">
        <ele>260</ele>
        <time>2022-02-10T15:40:14Z</time>
      </trkpt>
      <trkpt lat="46.48225" lon="5.36554">
        <ele>260.6</ele>
        <time>2022-02-10T15:40:18Z</time>
      </trkpt>
      <trkpt lat="46.48216" lon="5.36557">
        <ele>260.8</ele>
        <time>2022-02-10T15:40:20Z</time>
      </trkpt>
      <trkpt lat="46.48207" lon="5.36558">
        <ele>261</ele>
        <time>2022-02-10T15:40:22Z</time>
      </trkpt>
      <trkpt lat="46.48202" lon="5.3656">
        <ele>261.2</ele>
        <time>2022-02-10T15:40:23Z</time>
      </trkpt>
      <trkpt lat="46.48193" lon="5.36567">
        <ele>261.4</ele>
        <time>2022-02-10T15:40:25Z</time>
      </trkpt>
      <trkpt lat="46.4819" lon="5.36572">
        <ele>261.6</ele>
        <time>2022-02-10T15:40:26Z</time>
      </trkpt>
      <trkpt lat="46.48183" lon="5.36593">
        <ele>261.6</ele>
        <time>2022-02-10T15:40:29Z</time>
      </trkpt>
      <trkpt lat="46.48177" lon="5.36605">
        <ele>261.8</ele>
        <time>2022-02-10T15:40:31Z</time>
      </trkpt>
      <trkpt lat="46.48169" lon="5.36616">
        <ele>262</ele>
        <time>2022-02-10T15:40:33Z</time>
      </trkpt>
      <trkpt lat="46.4815" lon="5.36637">
        <ele>262.4</ele>
        <time>2022-02-10T15:40:37Z</time>
      </trkpt>
      <trkpt lat="46.48131" lon="5.36655">
        <ele>262.8</ele>
        <time>2022-02-10T15:40:41Z</time>
      </trkpt>
      <trkpt lat="46.48123" lon="5.36664">
        <ele>263.2</ele>
        <time>2022-02-10T15:40:43Z</time>
      </trkpt>
      <trkpt lat="46.48116" lon="5.36672">
        <ele>263.2</ele>
        <time>2022-02-10T15:40:45Z</time>
      </trkpt>
      <trkpt lat="46.48104" lon="5.36688">
        <ele>263.6</ele>
        <time>2022-02-10T15:40:49Z</time>
      </trkpt>
      <trkpt lat="46.48103" lon="5.36693">
        <ele>263.8</ele>
        <time>2022-02-10T15:40:50Z</time>
      </trkpt>
      <trkpt lat="46.48103" lon="5.36698">
        <ele>263.8</ele>
        <time>2022-02-10T15:40:51Z</time>
      </trkpt>
      <trkpt lat="46.48108" lon="5.36707">
        <ele>264</ele>
        <time>2022-02-10T15:40:53Z</time>
      </trkpt>
      <trkpt lat="46.48112" lon="5.3671">
        <ele>264.4</ele>
        <time>2022-02-10T15:40:54Z</time>
      </trkpt>
      <trkpt lat="46.4813" lon="5.36726">
        <ele>265.2</ele>
        <time>2022-02-10T15:40:59Z</time>
      </trkpt>
      <trkpt lat="46.48137" lon="5.36732">
        <ele>265.4</ele>
        <time>2022-02-10T15:41:01Z</time>
      </trkpt>
      <trkpt lat="46.48157" lon="5.36749">
        <ele>266.4</ele>
        <time>2022-02-10T15:41:07Z</time>
      </trkpt>
      <trkpt lat="46.48165" lon="5.36753">
        <ele>266.8</ele>
        <time>2022-02-10T15:41:09Z</time>
      </trkpt>
      <trkpt lat="46.48175" lon="5.36761">
        <ele>267.6</ele>
        <time>2022-02-10T15:41:12Z</time>
      </trkpt>
      <trkpt lat="46.48193" lon="5.36774">
        <ele>268.6</ele>
        <time>2022-02-10T15:41:17Z</time>
      </trkpt>
      <trkpt lat="46.48196" lon="5.36777">
        <ele>268.8</ele>
        <time>2022-02-10T15:41:18Z</time>
      </trkpt>
      <trkpt lat="46.48216" lon="5.36794">
        <ele>269.8</ele>
        <time>2022-02-10T15:41:24Z</time>
      </trkpt>
      <trkpt lat="46.48229" lon="5.36805">
        <ele>270.8</ele>
        <time>2022-02-10T15:41:28Z</time>
      </trkpt>
      <trkpt lat="46.48232" lon="5.36807">
        <ele>271.2</ele>
        <time>2022-02-10T15:41:29Z</time>
      </trkpt>
      <trkpt lat="46.48249" lon="5.36822">
        <ele>272.2</ele>
        <time>2022-02-10T15:41:35Z</time>
      </trkpt>
      <trkpt lat="46.48252" lon="5.36825">
        <ele>272.4</ele>
        <time>2022-02-10T15:41:36Z</time>
      </trkpt>
      <trkpt lat="46.48264" lon="5.36836">
        <ele>273.4</ele>
        <time>2022-02-10T15:41:40Z</time>
      </trkpt>
    </trkseg>
  </trk>
</gpx>